<
# Wetter Temperatur Luftdruck Luftfeuchtigkeit Sichtweite Windgeschwindigkeit Windrichtung Zeit
1 Clear 22 1012 48 10000 2.57 310 10:55 14.08.2022
2 Clear 18 1012 61 10000 1.54 100 08:52 14.08.2022
3 Clear 13 1013 70 10000 0.51 0 06:22 14.08.2022
4 Clouds 15 1014 57 10000 0.9 163 03:36 14.08.2022
5 Clouds 16 1015 63 10000 0.89 59 00:39 14.08.2022
6 Clear 16 1014 67 10000 0.51 0 22:56 13.08.2022
7 Clear 20 1013 52 10000 1.03 0 21:47 13.08.2022
8 Clear 25 1013 29 10000 2.57 30 20:47 13.08.2022
9 Clear 27 1013 28 10000 2.06 10 19:46 13.08.2022
10 Clear 28 1015 25 10000 3.58 19 18:19 13.08.2022
11 Clear 28 1016 24 10000 3.58 22 15:40 13.08.2022
12 Clear 27 1016 27 10000 3.09 310 14:32 13.08.2022
13 Clear 27 1015 33 10000 3.13 25 13:46 13.08.2022
14 Clear 23 1017 39 10000 3.13 61 11:59 13.08.2022
15 Clear 20 1017 48 10000 3.13 46 10:33 13.08.2022
16 Clear 18 1016 59 10000 2.68 60 09:22 13.08.2022
17 Clear 14 1017 69 10000 2.24 65 05:59 13.08.2022
18 Clear 18 1016 61 10000 1.36 99 00:36 13.08.2022
19 Clear 17 1016 63 10000 0.51 0 22:26 12.08.2022
20 Clear 23 1015 38 10000 1.03 0 21:20 12.08.2022
21 Clear 26 1015 27 10000 4.12 20 19:44 12.08.2022
22 Clear 26 1016 27 10000 4.47 59 19:21 12.08.2022
23 Clear 27 1016 25 10000 5.36 32 17:58 12.08.2022
24 Clear 28 1016 25 10000 5.36 11 16:25 12.08.2022
25 Clear 28 1017 29 10000 3.58 341 14:50 12.08.2022
26 Clear 26 1017 36 10000 4.47 19 12:59 12.08.2022
27 Clear 24 1018 44 10000 4.02 43 11:39 12.08.2022
28 Clear 19 1018 61 10000 0.45 119 08:47 12.08.2022
29 Clouds 17 1018 65 10000 1.05 46 07:44 12.08.2022
30 Clouds 17 1019 57 10000 2.68 79 03:41 12.08.2022
31 Clouds 19 1017 69 10000 1.31 82 00:31 12.08.2022
32 Clouds 19 1017 69 10000 0.51 0 23:42 11.08.2022
33 Clouds 18 1017 77 10000 0.51 0 22:37 11.08.2022
34 Clouds 22 1017 56 10000 0.51 0 21:47 11.08.2022
35 Clear 24 1017 44 10000 2.06 30 21:23 11.08.2022
36 Clear 26 1018 40 10000 3.58 66 20:30 11.08.2022
37 Clear 28 1018 28 10000 4.02 63 19:33 11.08.2022
38 Clear 29 1018 31 10000 4.47 46 18:41 11.08.2022
39 Clear 29 1019 31 10000 4.12 300 16:42 11.08.2022
40 Clear 29 1019 30 10000 3.13 304 15:37 11.08.2022
41 Clear 28 1020 35 10000 2.68 304 14:20 11.08.2022
42 Clear 24 1021 45 10000 2.57 270 11:51 11.08.2022
43 Clear 17 1021 66 10000 0.51 0 08:34 11.08.2022
44 Clear 16 1021 60 10000 0.74 88 04:53 11.08.2022
45 Clear 16 1020 77 10000 0.51 0 01:56 11.08.2022
46 Clear 18 1020 72 10000 0.51 0 22:54 10.08.2022
47 Clear 23 1020 41 10000 1.03 0 21:45 10.08.2022
48 Clear 25 1019 38 10000 2.57 40 20:56 10.08.2022
49 Clear 26 1019 41 10000 3.09 20 19:58 10.08.2022
50 Clear 27 1021 33 10000 4.47 19 18:45 10.08.2022
51 Clear 28 1021 31 10000 5.36 36 17:20 10.08.2022
52 Clear 27 1022 39 10000 4.02 0 13:49 10.08.2022
53 Clear 25 1022 42 10000 4.02 36 12:50 10.08.2022
54 Clear 20 1023 50 10000 2.68 43 10:21 10.08.2022
55 Clear 18 1023 60 10000 2.24 31 08:37 10.08.2022
56 Clear 15 1023 57 10000 1.34 93 07:22 10.08.2022
57 Clear 15 1024 68 10000 1.79 92 04:50 10.08.2022
58 Clear 17 1022 72 10000 0.51 0 00:50 10.08.2022
59 Clear 17 1022 71 10000 0.51 0 23:27 09.08.2022
60 Clear 22 1022 46 10000 0.51 0 21:38 09.08.2022
61 Clear 25 1021 38 10000 2.06 50 20:56 09.08.2022
62 Clear 27 1022 29 10000 5.36 61 18:56 09.08.2022
63 Clear 28 1023 28 10000 5.81 38 17:31 09.08.2022
64 Clear 28 1023 28 10000 5.36 42 16:46 09.08.2022
65 Clear 28 1023 29 10000 6.26 30 15:59 09.08.2022
66 Clear 28 1023 36 10000 6.26 52 14:50 09.08.2022
67 Clear 23 1023 51 10000 4.02 26 11:29 09.08.2022
68 Clear 18 1023 68 10000 2.68 57 08:52 09.08.2022
69 Clear 16 1023 72 10000 2.24 69 07:57 09.08.2022
70 Clear 15 1024 76 10000 0.45 87 04:49 09.08.2022
71 Clear 16 1021 83 10000 0.51 0 00:36 09.08.2022
72 Clear 17 1021 77 10000 0.51 0 23:24 08.08.2022
73 Clear 18 1021 72 10000 0 0 22:40 08.08.2022
74 Clear 22 1021 53 10000 1.54 50 21:44 08.08.2022
75 Clear 24 1022 36 10000 4.02 59 20:34 08.08.2022
76 Clear 26 1021 31 10000 4.02 49 19:34 08.08.2022
77 Clear 27 1021 31 10000 5.36 40 17:56 08.08.2022
78 Clear 26 1022 39 10000 5.36 41 15:48 08.08.2022
79 Clear 26 1022 43 10000 5.81 11 14:46 08.08.2022
80 Clear 24 1022 55 10000 4.02 27 12:30 08.08.2022
81 Clear 20 1022 67 10000 3.58 53 10:28 08.08.2022
82 Clouds 15 1022 86 10000 1.79 73 07:51 08.08.2022
83 Clear 15 1021 81 9000 1.34 74 03:42 08.08.2022
84 Clouds 17 1022 70 10000 1.34 61 23:28 07.08.2022
85 Clouds 19 1021 75 10000 1.34 64 21:41 07.08.2022
86 Clouds 20 1021 66 10000 1.79 64 20:55 07.08.2022
87 Clouds 21 1021 66 10000 1.79 75 20:18 07.08.2022
88 Clouds 21 1021 64 10000 2.24 88 19:51 07.08.2022
89 Clouds 22 1020 57 10000 2.57 0 18:41 07.08.2022
90 Clouds 23 1020 60 10000 3.6 30 17:21 07.08.2022
91 Clouds 23 1020 57 10000 3.09 40 16:41 07.08.2022
92 Clouds 23 1020 61 10000 2.06 290 15:26 07.08.2022
93 Clouds 21 1021 67 10000 4.47 24 13:47 07.08.2022
94 Clouds 20 1022 68 10000 4.02 16 12:38 07.08.2022
95 Clouds 19 1022 74 10000 2.68 5 10:42 07.08.2022
96 Clouds 18 1021 76 10000 2.24 31 09:35 07.08.2022
97 Clouds 16 1020 94 10000 1.54 240 04:33 07.08.2022
98 Clouds 16 1022 75 10000 2.24 33 01:58 07.08.2022
99 Clouds 18 1023 73 10000 4.02 50 22:30 06.08.2022
100 Clouds 18 1023 73 10000 4.47 46 21:48 06.08.2022
101 Clouds 19 1023 68 10000 4.92 57 19:42 06.08.2022
102 Clouds 21 1023 63 10000 4.47 39 18:35 06.08.2022
103 Clouds 21 1023 63 10000 4.92 53 17:44 06.08.2022
104 Clouds 21 1024 68 10000 6.26 19 15:21 06.08.2022
105 Clouds 20 1024 66 10000 6.26 30 13:50 06.08.2022
106 Clouds 20 1024 74 10000 5.36 42 12:21 06.08.2022
107 Clouds 20 1023 84 10000 3.58 24 10:40 06.08.2022
108 Clouds 19 1023 88 10000 3.58 59 09:24 06.08.2022
109 Clouds 18 1022 86 6000 2.24 76 04:38 06.08.2022
110 Rain 19 1022 82 10000 2.06 260 00:46 06.08.2022
111 Rain 19 1022 79 9000 3.09 70 22:35 05.08.2022
112 Rain 21 1019 88 10000 4.12 110 20:37 05.08.2022
113 Rain 28 1015 45 10000 6.17 150 18:56 05.08.2022
114 Clouds 29 1015 45 10000 6.17 150 18:38 05.08.2022
115 Clouds 32 1016 25 10000 3.09 290 16:52 05.08.2022
116 Clear 32 1017 25 10000 3.13 115 15:24 05.08.2022
117 Clear 33 1016 32 10000 1.03 0 14:35 05.08.2022
118 Clouds 31 1016 37 10000 1.03 0 13:36 05.08.2022
119 Clouds 31 1017 37 10000 0 0 13:18 05.08.2022
120 Clouds 29 1017 46 10000 2.06 140 11:29 05.08.2022
121 Clouds 24 1018 58 10000 3.09 90 09:18 05.08.2022
122 Clouds 22 1018 64 10000 2.57 100 07:53 05.08.2022
123 Clouds 22 1016 70 10000 7.2 130 04:48 05.08.2022
124 Clouds 24 1017 53 10000 2.57 80 23:36 04.08.2022
125 Clouds 28 1016 36 10000 8.23 170 21:28 04.08.2022
126 Clouds 31 1014 29 10000 3.09 280 20:57 04.08.2022
127 Clouds 31 1015 28 10000 1.54 320 20:37 04.08.2022
128 Clear 34 1014 24 10000 2.06 310 18:59 04.08.2022
129 Clear 33 1015 21 10000 2.06 310 18:34 04.08.2022
130 Clouds 36 1015 22 10000 2.57 230 15:59 04.08.2022
131 Clear 33 1016 30 10000 2.06 320 13:32 04.08.2022
132 Clear 31 1017 36 10000 1.03 0 11:40 04.08.2022
133 Clear 28 1017 42 10000 1.54 130 10:22 04.08.2022
134 Clear 28 1017 42 10000 1.54 130 10:22 04.08.2022
135 Clear 20 1018 65 10000 1.03 0 07:49 04.08.2022
136 Clear 20 1017 66 10000 1.03 0 03:29 04.08.2022
137 Clear 21 1017 62 10000 0.51 0 00:52 04.08.2022
138 Clear 22 1016 68 10000 1.54 130 23:41 03.08.2022
139 Clear 25 1015 61 10000 0.51 0 21:34 03.08.2022
140 Clear 30 1015 40 10000 1.54 20 20:21 03.08.2022
141 Clear 32 1016 26 10000 2.06 320 19:27 03.08.2022
142 Clear 32 1017 22 10000 2.06 0 16:53 03.08.2022
143 Clear 33 1017 25 10000 4.12 290 16:23 03.08.2022
144 Clear 31 1017 32 10000 2.57 320 13:53 03.08.2022
145 Clear 27 1018 47 10000 0.51 0 10:57 03.08.2022
146 Clear 18 1019 73 10000 0 0 07:45 03.08.2022
147 Clouds 17 1019 74 10000 0.51 0 04:22 03.08.2022
148 Clouds 17 1019 73 10000 0.51 100 03:24 03.08.2022
149 Clouds 20 1019 61 10000 1.07 128 00:58 03.08.2022
150 Clouds 21 1018 69 10000 0.51 0 22:49 02.08.2022
151 Clouds 24 1017 57 10000 1.54 210 21:52 02.08.2022
152 Clear 27 1017 34 10000 1.54 340 20:37 02.08.2022
153 Clear 30 1017 29 10000 2.57 290 18:39 02.08.2022
154 Clear 30 1018 33 10000 3.09 300 15:27 02.08.2022
155 Clear 24 1020 53 10000 2.57 300 11:30 02.08.2022
156 Clouds 21 1020 61 10000 0.51 0 09:18 02.08.2022
157 Clear 17 1020 80 10000 0 0 07:52 02.08.2022
158 Clouds 16 1020 79 10000 0.51 0 06:42 02.08.2022
159 Clear 16 1019 87 10000 1.03 0 04:54 02.08.2022
160 Clouds 21 1019 72 10000 1.03 0 23:35 01.08.2022
161 Rain 23 1019 62 10000 0.51 0 22:23 01.08.2022
162 Clouds 26 1018 44 10000 1.03 360 20:51 01.08.2022
163 Clouds 27 1018 35 10000 2.06 330 19:23 01.08.2022
164 Clouds 29 1018 26 10000 4.12 290 18:30 01.08.2022
165 Clouds 30 1018 23 10000 3.6 270 16:53 01.08.2022
166 Clouds 30 1018 24 10000 4.12 300 15:52 01.08.2022
167 Clouds 30 1019 23 10000 4.63 310 15:30 01.08.2022
168 Clouds 29 1018 31 10000 3.09 290 13:48 01.08.2022
169 Clear 27 1019 38 10000 1.03 0 11:50 01.08.2022
170 Clouds 22 1020 59 10000 2.57 80 09:39 01.08.2022
171 Clouds 18 1021 67 10000 2.06 120 08:25 01.08.2022
172 Clear 17 1021 69 10000 1.22 167 04:48 01.08.2022
173 Clear 18 1021 67 10000 1.51 169 02:32 01.08.2022
174 Clear 19 1020 67 10000 0.51 0 23:54 31.07.2022
175 Clear 20 1020 62 10000 0.51 0 22:38 31.07.2022
176 Clear 24 1018 58 10000 1.03 240 21:24 31.07.2022
177 Clouds 28 1018 27 10000 2.57 310 19:41 31.07.2022
178 Clouds 29 1020 27 10000 3.09 290 17:47 31.07.2022
179 Clouds 29 1019 28 10000 2.57 0 15:35 31.07.2022
180 Clouds 28 1020 32 10000 2.06 240 13:42 31.07.2022
181 Clear 27 1021 40 10000 1.03 0 11:55 31.07.2022
182 Clear 21 1022 57 10000 3.09 90 09:36 31.07.2022
183 Clouds 15 1022 77 10000 2.57 80 06:48 31.07.2022
184 Clear 16 1022 71 10000 2.57 90 02:57 31.07.2022
185 Clouds 18 1022 61 10000 1.58 154 23:35 30.07.2022
186 Clouds 19 1021 74 10000 0.51 0 22:19 30.07.2022
187 Clouds 20 1020 71 10000 0.51 0 21:48 30.07.2022
188 Clouds 23 1020 56 10000 0.51 0 20:56 30.07.2022
189 Clouds 25 1021 42 10000 0.51 50 19:58 30.07.2022
190 Clouds 26 1021 36 10000 1.54 0 18:53 30.07.2022
191 Clouds 27 1020 41 10000 2.06 310 17:42 30.07.2022
192 Clouds 26 1022 35 10000 2.06 290 15:49 30.07.2022
193 Clouds 26 1022 36 10000 1.79 296 15:21 30.07.2022
194 Clouds 25 1021 38 10000 1.54 0 12:55 30.07.2022
195 Clouds 24 1021 42 10000 0.51 0 11:55 30.07.2022
196 Clear 22 1021 65 10000 2.06 110 10:31 30.07.2022
197 Clear 20 1021 74 10000 1.54 100 09:47 30.07.2022
198 Clouds 16 1022 90 10000 2.57 100 07:55 30.07.2022
199 Clouds 16 1021 88 10000 2.06 90 02:37 30.07.2022
200 Clouds 17 1021 88 10000 2.57 90 01:49 30.07.2022
201 Clouds 17 1021 86 10000 1.54 90 22:25 29.07.2022
202 Clouds 18 1020 83 10000 2.57 110 21:23 29.07.2022
203 Clouds 20 1020 77 10000 4.12 150 19:57 29.07.2022
204 Clouds 19 1020 77 10000 3.09 140 17:53 29.07.2022
205 Rain 20 1020 74 10000 3.09 310 15:21 29.07.2022
206 Clouds 24 1017 65 10000 1.03 0 13:18 29.07.2022
207 Clouds 21 1017 80 10000 1.54 110 10:42 29.07.2022
208 Clouds 18 1018 83 10000 2.06 110 08:50 29.07.2022
209 Rain 17 1018 83 10000 1.03 0 07:54 29.07.2022
210 Clouds 17 1017 84 10000 2.57 90 01:47 29.07.2022
211 Clouds 18 1017 74 10000 2.57 0 22:49 28.07.2022
212 Thunderstorm 22 1016 54 10000 5.66 110 21:00 28.07.2022
213 Rain 23 1015 47 10000 8.75 150 20:30 28.07.2022
214 Clouds 25 1015 49 10000 8.75 150 19:43 28.07.2022
215 Clouds 28 1014 33 10000 5.66 280 18:50 28.07.2022
216 Clouds 27 1013 33 10000 1.54 0 17:43 28.07.2022
217 Clouds 28 1014 29 10000 3.6 290 16:51 28.07.2022
218 Clear 28 1014 30 10000 3.09 300 15:30 28.07.2022
219 Clear 26 1014 42 10000 2.06 250 12:58 28.07.2022
220 Clear 21 1016 56 10000 0.45 346 10:36 28.07.2022
221 Clear 14 1016 70 10000 0.45 76 06:25 28.07.2022
222 Clear 15 1016 68 10000 0.61 105 05:27 28.07.2022
223 Clouds 17 1015 76 10000 1.2 88 00:45 28.07.2022
224 Clouds 18 1015 72 10000 1.03 0 22:34 27.07.2022
225 Clouds 22 1014 53 10000 1.03 0 21:27 27.07.2022
226 Clouds 24 1016 39 10000 2.57 360 19:37 27.07.2022
227 Clouds 26 1016 38 10000 4.47 15 17:39 27.07.2022
228 Clouds 25 1016 39 10000 3.6 350 15:52 27.07.2022
229 Clouds 25 1016 39 10000 3.6 350 15:52 27.07.2022
230 Clouds 24 1017 42 10000 3.09 330 14:57 27.07.2022
231 Clouds 24 1017 40 10000 4.47 5 14:34 27.07.2022
232 Clouds 23 1017 40 10000 3.09 30 12:49 27.07.2022
233 Clouds 16 1018 67 10000 0.51 0 07:53 27.07.2022
234 Clouds 15 1017 70 10000 0.62 93 06:21 27.07.2022
235 Clouds 18 1018 58 10000 0.51 0 01:35 27.07.2022
236 Clouds 21 1018 43 10000 1.03 0 22:29 26.07.2022
237 Clouds 23 1016 49 10000 1.03 0 21:20 26.07.2022
238 Clouds 23 1017 45 10000 2.06 350 20:28 26.07.2022
239 Clouds 24 1017 43 10000 2.06 10 18:43 26.07.2022
240 Clouds 24 1017 43 10000 2.06 330 17:58 26.07.2022
241 Clouds 24 1018 48 10000 2.57 290 16:31 26.07.2022
242 Clouds 25 1017 47 10000 3.09 300 15:30 26.07.2022
243 Clouds 23 1019 54 10000 2.06 350 13:38 26.07.2022
244 Clouds 22 1019 65 10000 2.06 320 11:38 26.07.2022
245 Clouds 19 1018 89 10000 1.03 0 08:57 26.07.2022
246 Rain 20 1019 66 10000 3.6 290 05:53 26.07.2022
247 Clouds 21 1017 73 10000 0.51 0 00:44 26.07.2022
248 Clouds 22 1018 65 10000 3.6 290 23:32 25.07.2022
249 Clouds 27 1016 44 10000 5.14 260 22:26 25.07.2022
250 Clouds 28 1015 44 10000 3.6 270 21:43 25.07.2022
251 Clouds 29 1014 39 10000 4.63 290 20:41 25.07.2022
252 Clouds 31 1013 37 10000 3.6 270 19:46 25.07.2022
253 Clouds 30 1015 33 10000 1.79 285 18:19 25.07.2022
254 Clouds 32 1016 27 10000 4.02 260 17:27 25.07.2022
255 Clouds 32 1016 27 10000 4.02 260 17:27 25.07.2022
256 Clear 33 1015 25 10000 4.63 240 15:20 25.07.2022
257 Clear 31 1015 38 10000 3.6 290 12:22 25.07.2022
258 Clear 26 1017 50 10000 1.34 286 09:58 25.07.2022
259 Clear 19 1017 75 10000 0.51 0 04:38 25.07.2022
260 Clear 21 1018 65 10000 1.03 0 23:54 24.07.2022
261 Clear 22 1018 63 10000 1.79 118 23:18 24.07.2022
262 Clear 23 1018 59 10000 0.51 0 22:29 24.07.2022
263 Clear 24 1016 64 10000 1.03 0 21:25 24.07.2022
264 Clear 29 1016 45 10000 1.54 330 20:51 24.07.2022
265 Clear 29 1016 50 10000 1.54 330 20:26 24.07.2022
266 Clear 30 1018 34 10000 2.57 310 18:48 24.07.2022
267 Clear 31 1018 36 10000 3.09 320 16:32 24.07.2022
268 Clouds 31 1018 37 10000 3.09 280 15:50 24.07.2022
269 Clouds 30 1019 41 10000 3.09 310 14:35 24.07.2022
270 Clouds 28 1021 54 10000 2.57 320 12:55 24.07.2022
271 Clear 26 1020 58 10000 1.54 0 11:40 24.07.2022
272 Clear 25 1021 57 10000 1.54 0 11:18 24.07.2022
273 Clear 21 1022 74 10000 0.45 46 08:48 24.07.2022
274 Clear 19 1022 83 10000 1.79 46 07:52 24.07.2022
275 Clouds 17 1022 84 9000 0.51 0 06:18 24.07.2022
276 Clouds 20 1022 75 10000 1.03 126 01:27 24.07.2022
277 Clouds 22 1020 80 10000 0 0 22:21 23.07.2022
278 Clouds 24 1021 63 10000 1.54 40 20:28 23.07.2022
279 Clouds 26 1020 60 10000 2.57 290 18:51 23.07.2022
280 Clouds 28 1019 55 10000 2.57 300 17:29 23.07.2022
281 Clouds 27 1019 49 10000 1.54 0 16:35 23.07.2022
282 Clouds 27 1020 54 10000 2.57 340 15:31 23.07.2022
283 Clouds 27 1020 57 10000 2.06 320 14:59 23.07.2022
284 Clouds 27 1020 59 10000 3.09 310 14:30 23.07.2022
285 Clouds 26 1020 65 10000 2.57 290 13:36 23.07.2022
286 Clouds 23 1020 73 10000 0 0 10:49 23.07.2022
287 Clouds 20 1021 85 10000 0.89 56 10:21 23.07.2022
288 Rain 19 1021 88 9000 1.03 0 08:50 23.07.2022
289 Clouds 18 1018 86 10000 2.06 300 03:40 23.07.2022
290 Clouds 19 1020 77 10000 2.57 290 01:33 23.07.2022
291 Clouds 25 1019 61 10000 2.06 300 22:56 22.07.2022
292 Clear 28 1017 51 10000 2.06 330 20:56 22.07.2022
293 Clear 30 1016 39 10000 3.09 310 19:41 22.07.2022
294 Clear 31 1019 30 10000 2.24 349 18:28 22.07.2022
295 Clear 32 1018 29 10000 3.6 310 16:55 22.07.2022
296 Clear 30 1019 38 10000 3.13 287 14:55 22.07.2022
297 Clear 27 1019 58 10000 2.57 290 11:36 22.07.2022
298 Clear 22 1021 67 10000 0.45 241 09:26 22.07.2022
299 Clear 20 1021 71 10000 0 0 08:37 22.07.2022
300 Clear 16 1021 81 8000 1.03 60 06:59 22.07.2022
301 Clear 18 1021 76 10000 1.03 110 02:25 22.07.2022
302 Clear 21 1021 73 10000 0.51 0 22:45 21.07.2022
303 Clear 24 1021 57 10000 1.54 300 21:34 21.07.2022
304 Clear 28 1022 38 10000 2.68 294 19:28 21.07.2022
305 Clouds 28 1022 33 10000 2.68 336 17:41 21.07.2022
306 Clear 29 1022 34 10000 2.24 329 17:19 21.07.2022
307 Clouds 28 1022 39 10000 2.57 320 15:22 21.07.2022
308 Clear 27 1023 41 10000 2.68 309 14:39 21.07.2022
309 Clouds 24 1024 66 10000 1.34 300 12:28 21.07.2022
310 Clouds 23 1024 71 10000 1.03 0 11:19 21.07.2022
311 Clouds 21 1024 84 10000 1.34 308 09:38 21.07.2022
312 Clouds 20 1024 89 10000 0.51 0 08:52 21.07.2022
313 Clouds 19 1024 91 7000 1.03 0 07:50 21.07.2022
314 Mist 19 1024 89 4900 0.51 0 06:24 21.07.2022
315 Rain 19 1024 86 6000 1.34 175 00:48 21.07.2022
316 Clouds 19 1023 83 10000 1.54 340 22:22 20.07.2022
317 Clouds 20 1022 78 10000 3.09 70 20:59 20.07.2022
318 Rain 22 1020 59 10000 4.12 130 19:53 20.07.2022
319 Rain 23 1019 64 10000 4.63 120 19:25 20.07.2022
320 Clouds 23 1019 68 10000 4.12 120 18:51 20.07.2022
321 Clouds 23 1019 61 10000 5.66 140 18:22 20.07.2022
322 Rain 25 1019 65 10000 4.63 150 16:45 20.07.2022
323 Rain 28 1018 35 10000 2.06 290 15:32 20.07.2022
324 Clouds 31 1020 43 10000 1.54 270 14:20 20.07.2022
325 Clouds 31 1020 43 10000 1.54 270 14:20 20.07.2022
326 Thunderstorm 28 1020 45 10000 3.6 250 11:37 20.07.2022
327 Clouds 26 1021 51 10000 2.68 220 09:41 20.07.2022
328 Clear 21 1020 59 10000 1.62 179 03:49 20.07.2022
329 Clouds 22 1019 55 10000 1.34 159 00:51 20.07.2022
330 Clouds 24 1019 49 10000 1.03 0 23:41 19.07.2022
331 Clouds 25 1019 41 10000 0.45 177 22:33 19.07.2022
332 Clouds 26 1018 45 10000 0.51 0 21:35 19.07.2022
333 Clear 29 1016 35 10000 1.03 0 20:48 19.07.2022
334 Clear 33 1018 27 10000 2.24 30 19:21 19.07.2022
335 Clear 34 1019 24 10000 2.57 330 18:31 19.07.2022
336 Clear 34 1019 23 10000 3.13 343 17:46 19.07.2022
337 Clear 33 1020 22 10000 3.13 307 14:57 19.07.2022
338 Clear 29 1021 33 10000 2.24 281 11:58 19.07.2022
339 Clear 28 1021 34 10000 2.24 286 11:18 19.07.2022
340 Clear 22 1022 45 10000 1.03 150 09:26 19.07.2022
341 Clear 22 1022 56 10000 1.54 120 08:39 19.07.2022
342 Clear 16 1022 66 10000 0 0 07:19 19.07.2022
343 Clear 16 1022 57 10000 0.89 41 05:48 19.07.2022
344 Clear 17 1022 58 10000 0.81 166 04:56 19.07.2022
345 Clear 19 1021 68 10000 1.32 114 01:58 19.07.2022
346 Clear 19 1021 69 10000 1.03 60 23:50 18.07.2022
347 Clear 21 1021 59 10000 1.03 0 23:19 18.07.2022
348 Clear 22 1021 56 10000 1.03 0 22:22 18.07.2022
349 Clear 30 1021 30 10000 1.03 0 20:52 18.07.2022
350 Clear 31 1021 25 10000 3.09 20 19:52 18.07.2022
351 Clear 32 1022 22 10000 5.36 59 17:53 18.07.2022
352 Clear 32 1023 24 10000 5.36 36 16:28 18.07.2022
353 Clear 32 1023 25 10000 4.02 24 15:19 18.07.2022
354 Clear 30 1024 36 10000 2.24 32 13:26 18.07.2022
355 Clear 26 1025 37 10000 2.24 38 11:31 18.07.2022
356 Clear 24 1025 54 10000 2.24 46 09:53 18.07.2022
357 Clear 18 1026 67 10000 1.03 140 07:48 18.07.2022
358 Clouds 16 1025 72 10000 2.24 77 02:34 18.07.2022
359 Clouds 18 1024 72 10000 0.51 0 22:52 17.07.2022
360 Clouds 21 1024 56 10000 0.51 0 22:25 17.07.2022
361 Clear 26 1023 36 10000 2.06 50 21:26 17.07.2022
362 Clear 27 1023 34 10000 2.57 340 20:44 17.07.2022
363 Clear 28 1023 32 10000 2.57 30 19:49 17.07.2022
364 Clear 28 1024 28 10000 4.47 14 19:19 17.07.2022
365 Clear 29 1024 29 10000 4.92 47 17:39 17.07.2022
366 Clear 30 1024 27 10000 4.47 351 16:53 17.07.2022
367 Clear 30 1024 28 10000 4.02 355 16:27 17.07.2022
368 Clear 29 1024 29 10000 3.58 36 15:34 17.07.2022
369 Clear 28 1025 31 10000 4.47 34 13:47 17.07.2022
370 Clear 25 1025 35 10000 4.47 0 12:32 17.07.2022
371 Clear 20 1025 47 10000 3.13 24 09:31 17.07.2022
372 Clear 15 1025 56 10000 2.24 71 06:58 17.07.2022
373 Clear 17 1024 62 10000 1.51 83 02:34 17.07.2022
374 Clear 18 1023 61 10000 1.03 0 23:23 16.07.2022
375 Clear 24 1022 31 10000 1.54 240 21:57 16.07.2022
376 Clear 25 1023 34 10000 4.47 25 20:28 16.07.2022
377 Clear 27 1023 28 10000 5.36 0 18:43 16.07.2022
378 Clear 27 1022 27 10000 4.47 19 17:24 16.07.2022
379 Clear 28 1022 28 10000 3.58 5 15:50 16.07.2022
380 Clear 24 1022 37 10000 3.13 34 11:55 16.07.2022
381 Clear 21 1022 53 10000 2.24 41 09:41 16.07.2022
382 Clear 20 1022 50 10000 2.24 40 09:22 16.07.2022
383 Clear 19 1022 56 10000 2.24 52 08:35 16.07.2022
384 Clear 15 1022 65 10000 1.03 0 06:57 16.07.2022
385 Clear 16 1021 69 10000 0.51 0 03:32 16.07.2022
386 Clear 19 1020 69 10000 1.03 0 23:54 15.07.2022
387 Clear 21 1020 60 10000 0.51 0 22:46 15.07.2022
388 Clear 24 1019 46 10000 2.06 330 21:55 15.07.2022
389 Clear 26 1020 32 10000 2.06 340 20:35 15.07.2022
390 Clouds 28 1020 32 10000 2.68 22 18:55 15.07.2022
391 Clear 28 1020 32 10000 4.02 36 18:22 15.07.2022
392 Clear 29 1020 30 10000 3.6 320 16:46 15.07.2022
393 Clouds 28 1020 35 10000 3.09 340 13:58 15.07.2022
394 Clear 26 1021 39 10000 3.6 290 12:22 15.07.2022
395 Clear 24 1021 44 10000 3.09 300 10:52 15.07.2022
396 Clouds 19 1021 58 10000 0.51 0 07:47 15.07.2022
397 Clear 19 1020 40 10000 0.87 88 02:51 15.07.2022
398 Clear 20 1019 61 10000 1.03 0 00:39 15.07.2022
399 Clear 21 1020 45 10000 1.03 0 00:39 15.07.2022
400 Clear 22 1019 57 10000 0.51 0 22:56 14.07.2022
401 Clear 24 1018 46 10000 0.51 110 21:59 14.07.2022
402 Clear 24 1018 46 10000 0.51 110 21:37 14.07.2022
403 Clear 29 1018 28 10000 4.12 290 21:18 14.07.2022
404 Clear 30 1018 30 10000 5.66 290 20:42 14.07.2022
405 Clear 31 1017 33 10000 6.17 310 20:18 14.07.2022
406 Clear 33 1019 18 10000 5.14 250 17:25 14.07.2022
407 Clear 33 1020 18 10000 6.26 305 16:18 14.07.2022
408 Clear 32 1020 21 10000 6.17 280 14:55 14.07.2022
409 Clear 31 1021 25 10000 4.47 292 13:51 14.07.2022
410 Clear 30 1021 30 10000 4.02 265 12:34 14.07.2022
411 Clear 28 1022 35 10000 3.13 265 11:26 14.07.2022
412 Clear 27 1022 37 10000 2.24 276 10:51 14.07.2022
413 Clear 23 1023 49 10000 2.57 280 08:45 14.07.2022
414 Clouds 20 1023 59 10000 2.06 80 04:18 14.07.2022
415 Clouds 22 1024 50 10000 1.54 0 00:55 14.07.2022
416 Clouds 23 1024 48 10000 1.79 138 00:18 14.07.2022
417 Clouds 24 1023 36 10000 1.02 156 22:28 13.07.2022
418 Clouds 24 1022 53 10000 1.54 0 21:37 13.07.2022
419 Clear 28 1021 34 10000 1.54 350 20:38 13.07.2022
420 Clear 31 1023 25 10000 3.58 342 18:23 13.07.2022
421 Clear 31 1023 22 10000 2.57 320 17:22 13.07.2022
422 Clear 30 1023 23 10000 2.57 290 15:59 13.07.2022
423 Clear 28 1025 30 10000 1.79 115 13:50 13.07.2022
424 Clear 25 1025 44 10000 3.6 290 11:30 13.07.2022
425 Clear 23 1025 49 10000 1.79 259 10:44 13.07.2022
426 Clear 20 1025 55 10000 1.03 0 09:29 13.07.2022
427 Clouds 17 1025 62 10000 1.34 220 08:24 13.07.2022
428 Clouds 14 1025 64 10000 1.18 105 04:50 13.07.2022
429 Clouds 15 1024 72 10000 1.54 50 00:47 13.07.2022
430 Clouds 17 1024 65 10000 0.51 0 22:47 12.07.2022
431 Clouds 21 1024 49 10000 0.51 0 21:49 12.07.2022
432 Clear 24 1023 38 10000 2.57 20 20:53 12.07.2022
433 Clear 25 1024 32 10000 4.92 28 19:54 12.07.2022
434 Clear 26 1024 29 10000 3.58 59 18:51 12.07.2022
435 Clear 27 1024 28 10000 4.63 20 17:23 12.07.2022
436 Clouds 27 1024 28 10000 4.47 40 15:32 12.07.2022
437 Clouds 25 1024 37 10000 4.02 27 13:43 12.07.2022
438 Clear 24 1024 50 10000 3.6 300 11:54 12.07.2022
439 Clear 22 1025 57 10000 4.02 5 10:45 12.07.2022
440 Clear 19 1024 61 10000 2.24 40 08:59 12.07.2022
441 Clear 16 1024 70 10000 1.79 76 07:48 12.07.2022
442 Clouds 14 1024 66 10000 1.79 72 05:47 12.07.2022
443 Clouds 15 1024 65 10000 1.79 69 05:29 12.07.2022
444 Clouds 16 1024 71 10000 1.34 71 01:32 12.07.2022
445 Clear 17 1022 72 10000 0.51 0 22:48 11.07.2022
446 Clear 21 1021 52 10000 1.03 0 21:34 11.07.2022
447 Clear 24 1021 43 10000 1.54 20 20:33 11.07.2022
448 Clear 25 1022 37 10000 3.6 10 19:27 11.07.2022
449 Clear 25 1022 35 10000 5.81 25 18:30 11.07.2022
450 Clear 25 1022 36 10000 5.81 355 16:31 11.07.2022
451 Clear 25 1022 36 10000 5.81 17 15:33 11.07.2022
452 Clear 23 1022 45 10000 4.47 63 13:26 11.07.2022
453 Clear 20 1022 49 10000 4.92 51 11:24 11.07.2022
454 Clear 20 1022 49 10000 4.92 51 11:24 11.07.2022
455 Clear 19 1023 55 10000 3.58 16 10:18 11.07.2022
456 Clear 18 1023 54 10000 3.58 5 09:40 11.07.2022
457 Clear 16 1023 57 10000 3.13 24 08:32 11.07.2022
458 Clear 15 1023 61 10000 3.58 60 01:54 11.07.2022
459 Clear 17 1023 59 10000 1.54 0 00:18 11.07.2022
460 Clear 19 1022 52 10000 1.03 0 22:52 10.07.2022
461 Clear 22 1021 40 10000 3.09 20 21:20 10.07.2022
462 Clear 22 1021 40 10000 1.54 50 20:37 10.07.2022
463 Clear 23 1022 40 10000 4.92 22 19:40 10.07.2022
464 Clear 24 1022 34 10000 4.02 26 18:43 10.07.2022
465 Clear 25 1023 35 10000 4.02 37 17:35 10.07.2022
466 Clear 25 1023 37 10000 4.02 27 16:41 10.07.2022
467 Clouds 25 1023 39 10000 4.47 43 15:24 10.07.2022
468 Clouds 24 1023 45 10000 4.02 26 13:48 10.07.2022
469 Clouds 23 1023 46 10000 3.58 48 12:26 10.07.2022
470 Clear 20 1024 55 10000 3.58 74 09:57 10.07.2022
471 Clouds 18 1024 63 10000 2.68 42 08:44 10.07.2022
472 Clouds 15 1024 75 10000 2.06 120 07:29 10.07.2022
473 Clouds 16 1025 66 10000 1.4 148 01:31 10.07.2022
474 Clear 16 1024 82 10000 0.51 0 22:43 09.07.2022
475 Clear 19 1024 67 10000 1.03 0 22:19 09.07.2022
476 Clear 24 1024 43 10000 1.54 30 20:45 09.07.2022
477 Clear 25 1025 33 10000 4.92 19 18:35 09.07.2022
478 Clear 26 1025 34 10000 5.36 21 17:45 09.07.2022
479 Clear 26 1025 31 10000 4.92 14 16:44 09.07.2022
480 Clear 26 1026 34 10000 4.47 59 15:40 09.07.2022
481 Clear 25 1026 36 10000 3.13 47 14:27 09.07.2022
482 Clear 24 1026 38 10000 3.58 21 13:49 09.07.2022
483 Clear 23 1027 42 10000 4.02 355 12:45 09.07.2022
484 Clear 21 1028 48 10000 3.13 5 11:22 09.07.2022
485 Clear 20 1028 50 10000 3.13 13 10:22 09.07.2022
486 Clear 14 1028 73 10000 1.79 63 07:45 09.07.2022
487 Clear 13 1029 64 10000 2.24 55 04:57 09.07.2022
488 Clear 14 1028 83 10000 1.6 76 01:50 09.07.2022
489 Clear 15 1028 77 10000 0.51 0 22:54 08.07.2022
490 Clear 19 1027 55 10000 1.03 0 21:43 08.07.2022
491 Clear 22 1027 40 10000 2.57 10 20:40 08.07.2022
492 Clear 22 1028 45 10000 4.92 38 19:52 08.07.2022
493 Clouds 24 1028 32 10000 4.92 23 18:24 08.07.2022
494 Clouds 24 1029 36 10000 5.36 19 16:40 08.07.2022
495 Clear 23 1029 42 10000 5.81 28 14:51 08.07.2022
496 Clouds 22 1029 45 10000 3.58 346 13:29 08.07.2022
497 Clouds 20 1029 49 10000 4.02 15 11:42 08.07.2022
498 Clouds 19 1029 54 10000 4.47 34 10:28 08.07.2022
499 Clouds 17 1029 59 10000 4.02 10 08:27 08.07.2022
500 Clouds 14 1029 71 10000 2.24 54 06:50 08.07.2022
501 Clouds 16 1028 63 10000 1.34 73 01:31 08.07.2022
502 Clouds 17 1028 67 10000 2.24 44 22:59 07.07.2022
503 Clouds 18 1026 68 10000 1.03 0 22:34 07.07.2022
504 Clouds 20 1025 60 10000 3.6 320 20:35 07.07.2022
505 Clouds 23 1026 41 10000 4.63 320 18:20 07.07.2022
506 Clouds 23 1025 40 10000 5.81 346 16:51 07.07.2022
507 Clouds 24 1025 40 10000 3.6 290 14:34 07.07.2022
508 Clouds 23 1025 38 10000 3.13 218 13:18 07.07.2022
509 Clouds 22 1025 41 10000 2.24 270 12:24 07.07.2022
510 Clear 22 1025 43 10000 3.6 300 11:45 07.07.2022
511 Clear 21 1025 43 10000 3.6 300 11:24 07.07.2022
512 Clear 20 1025 45 10000 1.03 0 10:41 07.07.2022
513 Clear 20 1025 49 10000 1.03 0 10:23 07.07.2022
514 Clouds 12 1024 74 10000 1.34 336 06:48 07.07.2022
515 Clouds 15 1024 76 10000 0.51 0 01:43 07.07.2022
516 Clouds 17 1026 61 10000 0.89 40 23:36 06.07.2022
517 Clouds 18 1024 63 10000 3.09 300 23:18 06.07.2022
518 Clouds 18 1024 61 10000 3.09 300 22:52 06.07.2022
519 Clouds 19 1023 63 10000 3.09 300 22:34 06.07.2022
520 Clear 22 1022 57 10000 2.06 330 20:33 06.07.2022
521 Clouds 23 1023 44 10000 3.13 5 19:34 06.07.2022
522 Clouds 24 1023 37 10000 3.58 57 17:22 06.07.2022
523 Clouds 25 1023 38 10000 3.58 57 17:22 06.07.2022
524 Clouds 25 1024 33 10000 3.6 330 15:58 06.07.2022
525 Clear 24 1024 39 10000 4.12 310 13:56 06.07.2022
526 Clouds 23 1024 42 10000 3.13 54 12:30 06.07.2022
527 Clouds 23 1024 42 10000 3.13 54 12:30 06.07.2022
528 Clear 22 1025 45 10000 4.02 35 11:44 06.07.2022
529 Clear 21 1024 53 10000 1.79 50 10:18 06.07.2022
530 Clear 16 1024 73 10000 0.51 0 07:44 06.07.2022
531 Clear 15 1024 75 10000 0.45 18 07:19 06.07.2022
532 Clouds 16 1023 78 10000 0.51 290 00:38 06.07.2022
533 Clouds 18 1022 72 10000 1.54 110 22:43 05.07.2022
534 Clouds 22 1023 53 10000 2.57 330 21:29 05.07.2022
535 Clouds 24 1021 50 10000 3.09 340 20:35 05.07.2022
536 Clouds 24 1022 50 10000 2.24 338 19:40 05.07.2022
537 Clouds 25 1022 42 10000 1.54 290 18:23 05.07.2022
538 Clouds 25 1022 43 10000 2.68 310 17:39 05.07.2022
539 Clouds 25 1023 43 10000 1.79 71 16:36 05.07.2022
540 Clouds 25 1023 44 10000 3.09 340 14:55 05.07.2022
541 Clouds 24 1023 51 10000 2.06 0 13:36 05.07.2022
542 Clouds 23 1023 58 10000 1.79 312 12:26 05.07.2022
543 Clouds 21 1023 69 10000 1.79 314 10:46 05.07.2022
544 Clouds 20 1023 79 10000 0.51 0 09:58 05.07.2022
545 Clouds 18 1023 86 10000 1.03 0 08:23 05.07.2022
546 Clouds 17 1023 87 10000 1.54 70 07:20 05.07.2022
547 Clouds 17 1022 78 10000 1.03 280 04:39 05.07.2022
548 Rain 18 1021 94 10000 1.03 0 01:33 05.07.2022
549 Clouds 19 1022 76 10000 1.34 52 23:38 04.07.2022
550 Clouds 19 1022 75 10000 1.54 70 22:57 04.07.2022
551 Mist 19 1021 75 4200 1.54 0 22:19 04.07.2022
552 Clouds 21 1021 70 10000 2.57 120 20:57 04.07.2022
553 Clouds 21 1021 70 10000 2.57 120 20:36 04.07.2022
554 Clouds 21 1021 74 10000 1.54 140 19:57 04.07.2022
555 Clouds 22 1021 74 10000 1.79 40 19:37 04.07.2022
556 Clouds 23 1020 68 10000 2.06 140 18:54 04.07.2022
557 Clouds 23 1021 72 10000 2.24 38 16:58 04.07.2022
558 Clouds 21 1019 83 10000 5.66 290 15:40 04.07.2022
559 Clouds 24 1020 63 10000 3.13 298 14:19 04.07.2022
560 Clouds 24 1021 69 10000 1.54 0 12:56 04.07.2022
561 Clouds 23 1021 76 10000 3.09 300 11:32 04.07.2022
562 Clouds 22 1021 84 10000 2.57 310 10:33 04.07.2022
563 Clouds 19 1021 89 10000 5.14 120 09:23 04.07.2022
564 Clouds 18 1022 89 10000 1.79 140 06:28 04.07.2022
565 Rain 18 1021 88 10000 2.24 248 02:59 04.07.2022
566 Clouds 19 1022 81 10000 2.06 90 23:53 03.07.2022
567 Thunderstorm 19 1022 77 10000 2.24 195 22:36 03.07.2022
568 Clouds 28 1018 45 10000 1.54 220 20:46 03.07.2022
569 Clouds 29 1019 45 10000 2.06 320 19:59 03.07.2022
570 Clouds 29 1019 38 10000 1.54 0 19:25 03.07.2022
571 Clouds 29 1019 32 10000 3.09 270 18:30 03.07.2022
572 Clouds 29 1020 31 10000 3.09 310 17:41 03.07.2022
573 Clouds 29 1020 35 10000 3.13 305 15:28 03.07.2022
574 Clouds 29 1020 35 10000 2.68 280 14:53 03.07.2022
575 Clear 28 1021 38 10000 2.06 310 13:50 03.07.2022
576 Clear 27 1021 38 10000 2.24 348 12:47 03.07.2022
577 Clear 27 1021 42 10000 1.54 0 12:18 03.07.2022
578 Clear 24 1022 51 10000 1.54 0 10:54 03.07.2022
579 Clear 24 1022 52 10000 1.54 0 10:35 03.07.2022
580 Clouds 17 1023 76 10000 0 0 07:38 03.07.2022
581 Clear 15 1023 74 10000 0.51 0 06:52 03.07.2022
582 Clear 17 1022 74 10000 0.51 0 00:39 03.07.2022
583 Clear 18 1021 70 10000 0.51 0 23:37 02.07.2022
584 Clear 19 1021 62 6000 1.03 0 22:31 02.07.2022
585 Clear 25 1020 49 10000 1.54 280 20:28 02.07.2022
586 Clear 26 1019 48 10000 2.06 330 19:49 02.07.2022
587 Clear 26 1020 34 10000 1.54 0 18:36 02.07.2022
588 Clear 26 1021 37 10000 3.13 256 17:39 02.07.2022
589 Clear 25 1021 41 10000 3.09 270 16:30 02.07.2022
590 Clouds 23 1021 59 10000 1.54 300 13:40 02.07.2022
591 Clear 20 1023 67 10000 3.09 270 11:49 02.07.2022
592 Clouds 19 1023 70 10000 1.79 42 10:51 02.07.2022
593 Clear 17 1023 72 10000 2.68 44 10:21 02.07.2022
594 Clear 15 1023 85 10000 1.34 55 08:37 02.07.2022
595 Clear 14 1023 87 10000 1.54 0 08:19 02.07.2022
596 Clear 11 1023 87 10000 1.79 69 04:19 02.07.2022
597 Clouds 14 1024 82 10000 1.79 75 00:28 02.07.2022
598 Clouds 14 1024 80 10000 1.34 76 23:26 01.07.2022
599 Clouds 15 1023 77 10000 1.34 92 22:33 01.07.2022
600 Clouds 17 1023 67 10000 2.24 96 21:38 01.07.2022
601 Clouds 18 1022 74 10000 1.54 0 20:58 01.07.2022
602 Clouds 18 1022 73 10000 1.79 96 20:34 01.07.2022
603 Clouds 19 1022 70 10000 2.24 107 19:37 01.07.2022
604 Clouds 19 1022 70 10000 2.57 140 17:18 01.07.2022
605 Clouds 18 1022 77 10000 1.79 92 14:34 01.07.2022
606 Clouds 17 1021 84 10000 1.03 0 13:51 01.07.2022
607 Clouds 14 1021 84 10000 1.03 0 11:22 01.07.2022
608 Clouds 14 1021 88 7000 2.06 340 10:19 01.07.2022
609 Rain 14 1021 91 5000 1.03 160 07:38 01.07.2022
610 Rain 14 1019 87 10000 1.03 0 02:43 01.07.2022
611 Clouds 14 1019 87 10000 3.09 260 00:21 01.07.2022
612 Rain 15 1018 88 10000 4.12 290 22:52 30.06.2022
613 Rain 15 1018 88 10000 4.12 290 22:32 30.06.2022
614 Rain 15 1018 88 10000 4.12 290 22:32 30.06.2022
615 Rain 15 1018 88 10000 4.12 290 22:32 30.06.2022
616 Rain 17 1016 94 10000 1.54 150 21:54 30.06.2022
617 Thunderstorm 18 1016 78 10000 2.06 120 20:53 30.06.2022
618 Thunderstorm 19 1015 77 10000 3.6 100 20:21 30.06.2022
619 Thunderstorm 19 1012 94 10000 1.54 0 19:48 30.06.2022
620 Thunderstorm 22 1011 76 10000 5.66 160 18:56 30.06.2022
621 Clouds 26 1010 51 10000 2.06 140 18:22 30.06.2022
622 Clouds 27 1010 54 10000 4.12 150 17:34 30.06.2022
623 Clouds 28 1012 44 10000 4.63 160 16:20 30.06.2022
624 Clouds 28 1013 42 10000 3.6 280 14:20 30.06.2022
625 Clouds 27 1014 45 10000 2.68 271 13:29 30.06.2022
626 Clear 26 1014 54 10000 3.09 290 12:34 30.06.2022
627 Clouds 25 1014 59 10000 3.09 260 11:21 30.06.2022
628 Clouds 23 1014 68 10000 1.34 273 09:52 30.06.2022
629 Clouds 21 1014 69 10000 2.24 220 09:26 30.06.2022
630 Clouds 18 1014 83 10000 0.45 204 07:41 30.06.2022
631 Clear 15 1014 83 10000 1.03 0 05:46 30.06.2022
632 Clouds 18 1017 80 10000 0.45 59 00:26 30.06.2022
633 Clouds 19 1015 77 10000 0.51 0 22:53 29.06.2022
634 Clouds 19 1015 75 10000 1.34 59 22:33 29.06.2022
635 Clear 24 1013 53 10000 2.06 20 20:56 29.06.2022
636 Clear 24 1014 54 10000 2.68 38 20:32 29.06.2022
637 Clouds 26 1014 40 10000 2.24 61 19:33 29.06.2022
638 Clouds 26 1015 52 10000 3.09 40 17:40 29.06.2022
639 Clouds 26 1016 46 10000 3.09 300 16:33 29.06.2022
640 Clouds 25 1016 55 10000 1.54 60 14:19 29.06.2022
641 Clouds 23 1017 58 10000 1.79 38 12:39 29.06.2022
642 Clear 21 1017 72 10000 2.24 230 10:20 29.06.2022
643 Clear 20 1017 77 10000 3.09 110 09:31 29.06.2022
644 Clouds 16 1018 89 10000 0.51 0 07:30 29.06.2022
645 Clouds 15 1018 87 10000 1.4 219 04:49 29.06.2022
646 Clouds 17 1019 85 10000 0.45 67 00:55 29.06.2022
647 Clouds 17 1019 84 10000 0.45 67 00:35 29.06.2022
648 Clouds 17 1019 83 10000 0.45 67 22:53 28.06.2022
649 Clouds 17 1019 82 10000 0.77 9 22:21 28.06.2022
650 Clouds 18 1018 83 10000 1.03 80 21:50 28.06.2022
651 Clouds 18 1018 81 10000 1.54 90 21:30 28.06.2022
652 Clouds 18 1018 81 10000 1.54 110 20:20 28.06.2022
653 Clouds 19 1018 78 10000 1.03 0 19:32 28.06.2022
654 Clouds 19 1018 78 10000 1.03 0 19:32 28.06.2022
655 Clouds 19 1018 78 10000 1.34 19 18:44 28.06.2022
656 Clouds 20 1017 82 10000 0 0 17:38 28.06.2022
657 Clouds 20 1018 79 10000 1.54 40 15:56 28.06.2022
658 Clouds 20 1018 79 10000 1.54 40 15:56 28.06.2022
659 Clouds 19 1018 80 10000 1.54 70 14:59 28.06.2022
660 Clouds 19 1018 73 10000 2.06 50 14:20 28.06.2022
661 Clouds 19 1019 79 10000 1.54 50 13:49 28.06.2022
662 Clouds 19 1020 74 10000 2.57 40 12:48 28.06.2022
663 Clouds 19 1020 76 10000 1.54 0 10:46 28.06.2022
664 Clouds 17 1021 87 10000 2.57 150 09:25 28.06.2022
665 Clouds 15 1021 87 10000 1.79 51 08:43 28.06.2022
666 Clouds 14 1022 88 10000 2.06 40 07:20 28.06.2022
667 Clouds 14 1023 85 10000 2.06 100 04:59 28.06.2022
668 Clouds 16 1023 82 10000 1.79 65 23:59 27.06.2022
669 Clouds 16 1023 81 10000 2.24 40 23:36 27.06.2022
670 Clouds 16 1023 82 10000 1.79 90 22:50 27.06.2022
671 Clouds 17 1022 81 10000 4.47 125 21:30 27.06.2022
672 Clouds 17 1023 76 10000 4.47 109 20:38 27.06.2022
673 Clouds 18 1022 77 10000 2.24 90 18:55 27.06.2022
674 Clouds 18 1021 74 10000 1.54 70 17:46 27.06.2022
675 Rain 21 1020 64 10000 1.54 220 16:18 27.06.2022
676 Clouds 20 1020 62 10000 4.12 280 14:44 27.06.2022
677 Clouds 20 1020 61 10000 4.12 260 13:24 27.06.2022
678 Clouds 20 1020 63 10000 3.09 310 12:49 27.06.2022
679 Clouds 21 1019 63 10000 3.6 310 10:22 27.06.2022
680 Clouds 20 1018 71 10000 1.03 0 08:43 27.06.2022
681 Clouds 19 1017 77 10000 0.51 0 07:53 27.06.2022
682 Clouds 18 1016 76 10000 0.51 0 06:38 27.06.2022
683 Clouds 20 1016 77 10000 4.12 320 01:54 27.06.2022
684 Clouds 19 1012 80 10000 0.51 0 23:39 26.06.2022
685 Clouds 22 1011 73 10000 1.54 320 21:51 26.06.2022
686 Clouds 24 1013 55 10000 2.68 30 20:34 26.06.2022
687 Clouds 26 1013 56 10000 4.47 19 19:22 26.06.2022
688 Clouds 26 1014 53 10000 4.47 14 18:24 26.06.2022
689 Clouds 26 1014 57 10000 3.6 310 15:53 26.06.2022
690 Clouds 26 1015 58 10000 3.13 348 14:34 26.06.2022
691 Clouds 24 1016 67 10000 2.68 348 13:29 26.06.2022
692 Clouds 23 1016 71 10000 2.68 44 12:44 26.06.2022
693 Clouds 22 1015 81 10000 3.09 330 10:53 26.06.2022
694 Clouds 20 1017 85 10000 3.09 330 10:23 26.06.2022
695 Clouds 18 1017 92 10000 1.34 281 08:45 26.06.2022
696 Clouds 17 1018 92 10000 0.45 170 07:23 26.06.2022
697 Rain 17 1017 88 9000 2.57 10 00:48 26.06.2022
698 Rain 18 1017 85 6000 3.6 260 00:20 26.06.2022
699 Rain 19 1016 73 10000 4.47 285 23:33 25.06.2022
700 Clouds 20 1014 70 10000 4.92 132 22:51 25.06.2022
701 Clouds 20 1014 64 10000 4.47 146 22:26 25.06.2022
702 Clouds 22 1014 57 10000 2.68 132 21:23 25.06.2022
703 Clouds 24 1012 57 10000 2.06 100 20:59 25.06.2022
704 Clouds 24 1014 53 10000 1.03 0 20:25 25.06.2022
705 Clouds 26 1013 41 10000 1.54 0 18:45 25.06.2022
706 Clouds 26 1014 41 10000 1.54 0 17:28 25.06.2022
707 Clouds 26 1014 43 10000 2.57 320 16:44 25.06.2022
708 Clouds 25 1014 47 10000 3.09 330 14:50 25.06.2022
709 Clouds 23 1015 59 10000 2.68 17 12:56 25.06.2022
710 Clouds 23 1015 61 10000 2.68 30 12:37 25.06.2022
711 Clear 20 1016 67 10000 3.13 35 10:30 25.06.2022
712 Clear 17 1017 84 10000 3.09 100 08:56 25.06.2022
713 Clear 16 1017 88 10000 3.09 100 08:28 25.06.2022
714 Clouds 13 1017 92 10000 2.06 110 06:46 25.06.2022
715 Clouds 13 1017 90 10000 1.54 90 01:53 25.06.2022
716 Clouds 14 1017 88 10000 2.57 120 00:21 25.06.2022
717 Clouds 16 1016 87 10000 1.54 140 22:31 24.06.2022
718 Clouds 17 1016 83 10000 3.6 170 21:29 24.06.2022
719 Clouds 18 1015 82 10000 2.57 120 20:25 24.06.2022
720 Clouds 18 1015 81 10000 1.34 236 19:43 24.06.2022
721 Clouds 18 1015 83 10000 2.68 254 19:18 24.06.2022
722 Clouds 18 1015 82 10000 2.06 320 18:46 24.06.2022
723 Clouds 18 1015 83 10000 2.57 260 18:28 24.06.2022
724 Rain 16 1015 87 10000 3.6 250 16:52 24.06.2022
725 Rain 16 1014 88 10000 5.66 290 15:27 24.06.2022
726 Rain 16 1015 85 6934 4.92 263 14:25 24.06.2022
727 Rain 18 1013 85 10000 2.57 310 13:46 24.06.2022
728 Clouds 20 1012 84 10000 3.6 300 11:42 24.06.2022
729 Clouds 20 1013 84 10000 1.79 209 10:42 24.06.2022
730 Clouds 19 1012 88 10000 2.24 286 09:42 24.06.2022
731 Clouds 18 1013 90 10000 1.79 100 08:54 24.06.2022
732 Clouds 17 1013 93 10000 2.57 100 08:32 24.06.2022
733 Rain 16 1014 91 10000 2.06 110 06:45 24.06.2022
734 Rain 15 1014 92 10000 1.03 0 06:26 24.06.2022
735 Clouds 15 1014 91 10000 2.06 90 04:50 24.06.2022
736 Clouds 17 1015 88 10000 3.6 100 23:43 23.06.2022
737 Clouds 17 1015 88 10000 2.06 90 22:43 23.06.2022
738 Clouds 17 1016 87 10000 2.68 95 21:40 23.06.2022
739 Rain 17 1016 84 6000 3.09 70 20:42 23.06.2022
740 Thunderstorm 18 1015 80 800 10.8 240 19:55 23.06.2022
741 Clouds 25 1011 48 10000 3.6 140 18:38 23.06.2022
742 Rain 27 1011 44 10000 2.57 320 17:35 23.06.2022
743 Clouds 27 1012 43 10000 3.09 310 16:32 23.06.2022
744 Clear 28 1013 43 10000 3.09 310 15:26 23.06.2022
745 Clouds 28 1013 48 10000 2.06 330 14:36 23.06.2022
746 Clear 24 1015 64 10000 2.24 78 11:42 23.06.2022
747 Clear 22 1015 69 10000 0 0 10:41 23.06.2022
748 Clouds 20 1016 76 10000 2.57 90 09:19 23.06.2022
749 Clouds 16 1016 91 10000 1.03 0 04:48 23.06.2022
750 Rain 17 1017 88 10000 1.03 0 00:27 23.06.2022
751 Rain 17 1017 86 10000 2.06 110 23:52 22.06.2022
752 Clouds 17 1016 85 10000 2.06 60 23:18 22.06.2022
753 Clouds 17 1015 85 10000 3.09 100 21:36 22.06.2022
754 Clouds 17 1015 85 10000 2.06 60 20:51 22.06.2022
755 Clouds 18 1016 81 10000 1.03 170 20:19 22.06.2022
756 Clouds 19 1014 81 2400 12.86 310 19:30 22.06.2022
757 Clouds 26 1012 59 10000 3.6 310 17:40 22.06.2022
758 Clouds 26 1012 59 10000 3.09 300 16:41 22.06.2022
759 Clear 25 1012 59 10000 1.54 0 15:29 22.06.2022
760 Clouds 25 1013 61 10000 2.24 312 14:47 22.06.2022
761 Clouds 22 1013 72 10000 3.09 120 13:47 22.06.2022
762 Clouds 21 1014 74 10000 1.54 90 13:24 22.06.2022
763 Rain 20 1015 82 10000 1.54 100 11:54 22.06.2022
764 Clouds 19 1015 85 8000 2.06 360 10:58 22.06.2022
765 Rain 19 1015 83 8000 2.06 360 10:36 22.06.2022
766 Rain 19 1015 82 7000 2.24 253 09:18 22.06.2022
767 Clouds 19 1014 77 10000 1.54 0 06:55 22.06.2022
768 Clouds 19 1012 88 10000 1.54 0 01:59 22.06.2022
769 Clouds 19 1012 88 10000 2.06 70 00:57 22.06.2022
770 Clouds 21 1012 83 10000 0.51 0 22:49 21.06.2022
771 Clouds 23 1011 78 10000 1.03 0 20:47 21.06.2022
772 Thunderstorm 28 1012 32 10000 1.54 0 19:20 21.06.2022
773 Clouds 30 1012 31 10000 1.54 290 17:47 21.06.2022
774 Clear 31 1013 31 10000 3.13 215 16:38 21.06.2022
775 Clouds 27 1015 50 10000 2.06 20 11:57 21.06.2022
776 Clouds 24 1015 58 10000 1.34 340 10:38 21.06.2022
777 Clouds 22 1015 61 10000 0.89 190 09:20 21.06.2022
778 Clouds 19 1015 75 10000 1.03 0 07:40 21.06.2022
779 Clouds 18 1014 80 10000 1.34 69 04:42 21.06.2022
780 Clouds 22 1014 60 10000 1.03 0 00:21 21.06.2022
781 Clouds 24 1013 57 9000 1.03 0 22:21 20.06.2022
782 Clouds 26 1013 47 10000 1.54 0 21:36 20.06.2022
783 Clear 29 1014 39 10000 4.92 34 20:27 20.06.2022
784 Clear 30 1012 25 10000 4.12 290 19:35 20.06.2022
785 Clear 32 1014 24 10000 6.69 310 18:25 20.06.2022
786 Clear 31 1014 24 10000 5.66 310 17:45 20.06.2022
787 Clear 31 1014 24 10000 5.66 290 16:24 20.06.2022
788 Clear 31 1015 26 10000 5.81 292 14:41 20.06.2022
789 Clear 28 1016 33 10000 4.63 300 11:47 20.06.2022
790 Clear 26 1016 38 10000 2.68 281 09:57 20.06.2022
791 Clear 23 1016 44 10000 3.58 270 08:46 20.06.2022
792 Clear 21 1015 60 10000 2.24 234 07:36 20.06.2022
793 Clear 18 1013 88 10000 0.51 0 04:56 20.06.2022
794 Clouds 21 1012 73 10000 4.63 100 01:32 20.06.2022
795 Clouds 24 1011 64 10000 5.14 130 23:49 19.06.2022
796 Clouds 26 1011 57 10000 4.63 120 22:25 19.06.2022
797 Clouds 27 1011 47 10000 5.66 160 21:42 19.06.2022
798 Clouds 30 1010 35 10000 3.09 230 20:52 19.06.2022
799 Clouds 34 1010 27 10000 3.6 270 19:49 19.06.2022
800 Clouds 34 1010 27 10000 3.6 270 19:49 19.06.2022
801 Clouds 32 1010 23 10000 3.6 250 19:25 19.06.2022
802 Clouds 33 1011 23 10000 4.12 290 18:32 19.06.2022
803 Clear 34 1012 27 10000 4.47 267 17:43 19.06.2022
804 Clear 34 1012 29 10000 4.02 280 17:20 19.06.2022
805 Clear 34 1012 27 10000 3.13 265 16:34 19.06.2022
806 Clear 34 1013 28 10000 3.13 230 15:35 19.06.2022
807 Clear 33 1013 31 10000 3.58 260 14:43 19.06.2022
808 Clear 32 1013 35 10000 2.57 290 13:52 19.06.2022
809 Clear 31 1014 40 10000 2.68 286 12:26 19.06.2022
810 Clear 28 1014 46 10000 1.79 314 10:53 19.06.2022
811 Clear 26 1015 52 10000 1.03 0 09:31 19.06.2022
812 Clear 24 1015 60 10000 1.03 0 08:35 19.06.2022
813 Clouds 20 1015 73 10000 0.51 0 07:30 19.06.2022
814 Clouds 19 1015 70 10000 0.51 0 04:33 19.06.2022
815 Clouds 22 1016 64 10000 1.03 0 01:28 19.06.2022
816 Clouds 23 1017 57 10000 1.48 158 00:23 19.06.2022
817 Clouds 23 1016 58 10000 1.03 0 23:35 18.06.2022
818 Clouds 23 1015 68 10000 0.51 0 22:36 18.06.2022
819 Clear 32 1015 29 10000 1.54 340 20:55 18.06.2022
820 Clear 31 1015 39 10000 1.54 0 20:26 18.06.2022
821 Clear 32 1017 32 10000 2.06 30 19:25 18.06.2022
822 Clear 32 1017 27 10000 2.57 30 18:44 18.06.2022
823 Clear 34 1017 27 10000 4.92 51 17:30 18.06.2022
824 Clear 34 1017 27 10000 4.92 51 17:30 18.06.2022
825 Clear 34 1018 26 10000 4.02 52 16:23 18.06.2022
826 Clear 33 1020 27 10000 3.58 35 15:18 18.06.2022
827 Clear 33 1021 28 10000 3.13 49 14:42 18.06.2022
828 Clear 30 1022 38 10000 3.13 51 12:51 18.06.2022
829 Clear 28 1022 44 10000 1.34 46 11:33 18.06.2022
830 Clear 25 1023 47 10000 1.79 55 10:26 18.06.2022
831 Clear 23 1023 55 10000 2.57 90 09:20 18.06.2022
832 Clear 20 1024 63 10000 1.54 0 08:18 18.06.2022
833 Clouds 16 1024 70 10000 0.51 0 06:43 18.06.2022
834 Clouds 17 1025 69 10000 1.79 211 03:24 18.06.2022
835 Clouds 19 1025 59 10000 0.45 71 01:24 18.06.2022
836 Clouds 18 1024 73 10000 0.51 0 00:42 18.06.2022
837 Clouds 19 1024 70 10000 1.03 0 23:52 17.06.2022
838 Clouds 20 1024 62 10000 0.51 0 22:56 17.06.2022
839 Clear 27 1024 36 10000 2.06 10 20:42 17.06.2022
840 Clear 29 1024 28 10000 3.13 22 19:29 17.06.2022
841 Clear 30 1024 26 10000 3.09 310 18:34 17.06.2022
842 Clear 30 1024 24 10000 2.57 290 17:34 17.06.2022
843 Clear 30 1024 25 10000 3.13 24 16:42 17.06.2022
844 Clear 30 1024 28 10000 4.02 313 15:42 17.06.2022
845 Clear 29 1025 30 10000 4.63 310 14:50 17.06.2022
846 Clear 29 1025 32 10000 3.13 11 14:19 17.06.2022
847 Clear 29 1025 32 10000 2.24 55 13:44 17.06.2022
848 Clear 27 1025 37 10000 2.68 15 12:45 17.06.2022
849 Clear 26 1025 41 10000 3.13 28 11:56 17.06.2022
850 Clear 26 1025 46 10000 3.58 12 11:35 17.06.2022
851 Clear 24 1026 48 10000 1.79 19 10:48 17.06.2022
852 Clear 24 1026 48 10000 1.79 19 10:48 17.06.2022
853 Clouds 18 1026 67 10000 0.45 44 08:29 17.06.2022
854 Clouds 16 1025 73 10000 1.03 40 06:58 17.06.2022
855 Clouds 16 1024 71 10000 0.46 86 05:35 17.06.2022
856 Clear 18 1026 69 10000 0.94 108 02:42 17.06.2022
857 Clear 19 1026 67 10000 0.45 350 00:36 17.06.2022
858 Clear 21 1022 68 10000 0.51 0 22:44 16.06.2022
859 Clear 25 1021 41 10000 2.06 310 21:36 16.06.2022
860 Clouds 27 1021 39 10000 3.09 320 21:18 16.06.2022
861 Clouds 28 1021 36 10000 2.57 330 20:36 16.06.2022
862 Clouds 29 1020 34 10000 3.6 360 19:56 16.06.2022
863 Clouds 30 1021 30 10000 4.02 329 18:30 16.06.2022
864 Clouds 30 1021 31 10000 4.63 280 17:44 16.06.2022
865 Clouds 30 1021 30 10000 4.92 302 16:40 16.06.2022
866 Clouds 30 1022 32 10000 4.47 322 15:24 16.06.2022
867 Clear 29 1022 31 10000 5.14 300 14:56 16.06.2022
868 Clouds 29 1022 34 10000 5.14 270 13:45 16.06.2022
869 Clouds 28 1022 38 10000 4.63 290 12:37 16.06.2022
870 Clouds 28 1022 43 10000 3.13 303 11:53 16.06.2022
871 Clouds 27 1022 46 10000 3.13 290 11:18 16.06.2022
872 Clouds 26 1022 51 10000 1.79 224 10:33 16.06.2022
873 Clouds 23 1021 55 10000 2.57 90 09:25 16.06.2022
874 Clouds 22 1021 61 10000 2.57 90 08:46 16.06.2022
875 Clouds 19 1020 73 10000 3.09 100 07:29 16.06.2022
876 Clouds 18 1019 83 10000 1.54 90 05:31 16.06.2022
877 Clouds 18 1019 72 10000 3.09 80 02:54 16.06.2022
878 Rain 19 1019 72 10000 2.57 110 01:51 16.06.2022
879 Clouds 20 1019 74 10000 3.09 100 01:21 16.06.2022
880 Clouds 20 1019 74 10000 3.09 100 01:21 16.06.2022
881 Clouds 21 1019 60 10000 5.14 120 23:56 15.06.2022
882 Clouds 21 1019 60 10000 5.14 120 23:56 15.06.2022
883 Clouds 22 1018 60 10000 4.63 140 22:45 15.06.2022
884 Clouds 26 1017 58 10000 1.54 110 21:28 15.06.2022
885 Clouds 26 1017 50 10000 2.57 100 20:57 15.06.2022
886 Clouds 27 1018 38 10000 2.57 100 20:35 15.06.2022
887 Clouds 29 1016 39 10000 4.63 260 19:46 15.06.2022
888 Clouds 29 1018 39 10000 4.92 259 18:29 15.06.2022
889 Rain 29 1018 39 10000 4.63 250 17:42 15.06.2022
890 Clouds 31 1018 32 10000 3.6 270 16:20 15.06.2022
891 Clear 30 1019 35 10000 4.12 300 14:33 15.06.2022
892 Clouds 28 1019 38 10000 3.13 281 13:20 15.06.2022
893 Clouds 27 1019 39 10000 2.24 240 12:33 15.06.2022
894 Clouds 25 1020 47 10000 1.34 273 10:53 15.06.2022
895 Clouds 24 1020 52 10000 1.79 279 10:20 15.06.2022
896 Clouds 21 1019 62 10000 2.06 160 08:58 15.06.2022
897 Clouds 16 1019 72 10000 1.03 0 07:32 15.06.2022
898 Clear 15 1020 72 10000 1.49 191 05:24 15.06.2022
899 Clouds 16 1019 71 10000 0.89 105 02:31 15.06.2022
900 Clouds 15 1019 71 10000 0.51 0 01:36 15.06.2022
901 Clouds 16 1019 75 10000 0.89 34 00:18 15.06.2022
902 Clouds 16 1019 75 10000 0.45 34 23:38 14.06.2022
903 Clouds 17 1017 72 10000 0 0 22:45 14.06.2022
904 Clouds 21 1017 60 10000 0.51 0 21:43 14.06.2022
905 Clear 25 1017 44 10000 2.06 40 20:58 14.06.2022
906 Clear 25 1017 44 10000 2.06 40 20:36 14.06.2022
907 Clear 27 1017 39 10000 2.06 330 19:47 14.06.2022
908 Clear 27 1018 34 10000 2.68 11 18:33 14.06.2022
909 Clear 28 1019 31 10000 4.12 320 16:50 14.06.2022
910 Clear 27 1019 31 10000 5.14 290 16:25 14.06.2022
911 Clear 27 1019 30 10000 3.09 310 15:36 14.06.2022
912 Clear 27 1020 33 10000 3.13 120 14:53 14.06.2022
913 Clear 25 1020 38 10000 3.09 310 13:57 14.06.2022
914 Clear 24 1021 43 10000 2.24 355 12:58 14.06.2022
915 Clear 22 1021 48 10000 2.68 21 11:54 14.06.2022
916 Clear 20 1022 50 10000 3.13 42 10:51 14.06.2022
917 Clear 19 1022 51 10000 2.24 48 10:25 14.06.2022
918 Clear 19 1022 51 10000 2.24 48 10:25 14.06.2022
919 Clear 17 1022 59 10000 1.79 59 08:52 14.06.2022
920 Clear 16 1022 62 10000 0.45 197 08:23 14.06.2022
921 Clear 12 1022 69 10000 0.45 185 06:19 14.06.2022
922 Clear 13 1023 69 10000 0.89 61 03:45 14.06.2022
923 Clear 12 1022 80 10000 0.51 0 01:37 14.06.2022
924 Clear 14 1023 67 10000 0.51 0 00:21 14.06.2022
925 Clear 15 1021 67 10000 0.51 0 22:39 13.06.2022
926 Clear 16 1021 63 10000 0.51 0 22:19 13.06.2022
927 Clear 22 1021 35 10000 1.54 350 21:26 13.06.2022
928 Clear 25 1020 27 10000 3.6 320 19:59 13.06.2022
929 Clear 25 1022 25 10000 3.13 340 18:54 13.06.2022
930 Clouds 25 1022 28 10000 4.02 33 17:55 13.06.2022
931 Clouds 25 1022 27 10000 3.6 310 17:23 13.06.2022
932 Clouds 25 1022 31 10000 3.13 340 16:30 13.06.2022
933 Clouds 25 1022 38 10000 2.57 320 14:49 13.06.2022
934 Clouds 25 1022 40 10000 3.58 322 14:31 13.06.2022
935 Clouds 24 1022 45 10000 4.47 291 13:31 13.06.2022
936 Clouds 23 1023 52 10000 3.58 300 12:22 13.06.2022
937 Clouds 22 1023 58 10000 3.09 310 10:37 13.06.2022
938 Clouds 21 1022 63 10000 1.34 302 09:54 13.06.2022
939 Clouds 20 1022 70 10000 1.03 0 08:40 13.06.2022
940 Clouds 18 1021 79 10000 1.54 60 06:36 13.06.2022
941 Clouds 17 1020 86 10000 1.03 0 04:43 13.06.2022
942 Clouds 19 1021 74 10000 1.03 0 01:55 13.06.2022
943 Clouds 19 1021 75 10000 1.03 0 01:34 13.06.2022
944 Clouds 19 1021 71 10000 3.09 110 23:48 12.06.2022
945 Rain 20 1021 72 10000 2.57 90 22:39 12.06.2022
946 Clouds 23 1020 59 10000 0.51 0 21:46 12.06.2022
947 Clouds 25 1019 49 10000 2.06 260 20:53 12.06.2022
948 Clouds 27 1020 35 10000 3.6 280 19:59 12.06.2022
949 Clear 28 1021 35 10000 3.13 296 19:25 12.06.2022
950 Clouds 29 1021 27 10000 3.6 270 17:40 12.06.2022
951 Clouds 29 1022 25 10000 3.6 310 15:54 12.06.2022
952 Clear 29 1022 28 10000 3.09 270 14:51 12.06.2022
953 Clouds 29 1022 29 10000 2.68 210 14:19 12.06.2022
954 Clear 28 1023 33 10000 1.79 273 13:46 12.06.2022
955 Clear 26 1024 40 10000 1.34 235 12:31 12.06.2022
956 Clear 24 1024 43 10000 0.89 264 11:19 12.06.2022
957 Clear 22 1025 49 10000 1.03 150 10:21 12.06.2022
958 Clear 19 1025 64 10000 0.45 231 08:52 12.06.2022
959 Clear 19 1025 62 10000 0.45 222 08:33 12.06.2022
960 Clear 13 1025 77 10000 0.51 0 06:49 12.06.2022
961 Clear 13 1025 78 10000 0.51 0 06:49 12.06.2022
962 Clear 13 1025 70 10000 0.45 95 04:35 12.06.2022
963 Clear 14 1025 69 10000 1.29 153 02:32 12.06.2022
964 Clear 15 1025 72 10000 0.51 0 01:36 12.06.2022
965 Clear 15 1025 67 10000 1.54 0 00:57 12.06.2022
966 Clear 16 1026 70 10000 0.45 67 00:19 12.06.2022
967 Clear 16 1026 70 10000 0.45 67 00:19 12.06.2022
968 Clear 17 1026 66 10000 1.79 67 23:21 11.06.2022
969 Clear 17 1023 72 10000 0.51 0 22:37 11.06.2022
970 Clear 23 1023 48 10000 1.03 0 21:31 11.06.2022
971 Clear 25 1024 38 10000 1.79 33 20:27 11.06.2022
972 Clear 26 1024 25 10000 1.79 13 19:36 11.06.2022
973 Clear 26 1024 27 10000 2.57 320 18:45 11.06.2022
974 Clear 27 1024 31 10000 2.06 310 18:27 11.06.2022
975 Clear 27 1024 31 10000 3.09 310 17:48 11.06.2022
976 Clouds 27 1024 30 10000 4.12 300 17:26 11.06.2022
977 Clouds 27 1024 30 10000 4.12 300 17:26 11.06.2022
978 Clear 26 1024 31 10000 3.6 310 16:44 11.06.2022
979 Clear 26 1024 32 10000 4.12 280 16:25 11.06.2022
980 Clear 26 1024 34 10000 2.57 300 15:18 11.06.2022
981 Clear 24 1025 42 10000 3.6 320 13:52 11.06.2022
982 Clear 23 1025 46 10000 1.79 113 12:19 11.06.2022
983 Clear 20 1025 56 10000 2.68 350 10:32 11.06.2022
984 Clear 18 1026 62 10000 2.06 90 09:42 11.06.2022
985 Clear 16 1026 72 10000 2.57 90 08:45 11.06.2022
986 Clear 11 1025 80 10000 1.34 309 06:34 11.06.2022
987 Clear 11 1025 82 10000 0.51 0 05:53 11.06.2022
988 Clear 11 1025 75 10000 1.27 137 03:31 11.06.2022
989 Clear 12 1026 81 10000 1.18 134 01:51 11.06.2022
990 Clear 13 1025 72 10000 1.28 133 01:26 11.06.2022
991 Clear 14 1023 80 10000 0.51 0 23:27 10.06.2022
992 Clear 16 1023 71 10000 1.03 0 22:27 10.06.2022
993 Clear 18 1023 55 10000 1.03 0 21:46 10.06.2022
994 Clear 21 1023 46 10000 2.06 340 20:39 10.06.2022
995 Clear 21 1023 50 10000 3.58 15 20:19 10.06.2022
996 Clear 22 1023 42 10000 3.58 26 19:19 10.06.2022
997 Clouds 22 1023 42 10000 4.02 355 18:44 10.06.2022
998 Clouds 22 1023 41 10000 3.58 40 17:54 10.06.2022
999 Clouds 23 1023 40 10000 3.09 50 17:22 10.06.2022
1000 Clouds 22 1024 40 10000 3.13 355 16:26 10.06.2022
1001 Clouds 22 1024 41 10000 2.68 17 15:39 10.06.2022
1002 Clouds 21 1024 45 10000 3.58 26 14:28 10.06.2022
1003 Clouds 20 1025 48 10000 3.58 22 12:58 10.06.2022
1004 Clouds 18 1025 55 10000 2.68 16 11:59 10.06.2022
1005 Clear 17 1025 60 10000 3.58 90 10:46 10.06.2022
1006 Clear 15 1025 64 10000 2.68 40 09:56 10.06.2022
1007 Clear 13 1025 73 10000 3.09 100 08:48 10.06.2022
1008 Clear 11 1025 82 10000 2.57 100 07:41 10.06.2022
1009 Clear 9 1025 83 10000 3.09 100 06:46 10.06.2022
1010 Clear 8 1025 84 10000 2.57 110 06:27 10.06.2022
1011 Clear 9 1024 80 10000 1.07 137 04:47 10.06.2022
1012 Clear 10 1024 85 10000 2.57 100 01:59 10.06.2022
1013 Clear 10 1024 84 10000 2.57 100 01:36 10.06.2022
1014 Clear 10 1024 84 10000 2.57 100 01:36 10.06.2022
1015 Clouds 11 1023 81 10000 4.12 130 23:57 09.06.2022
1016 Clouds 12 1023 76 10000 1.03 0 22:22 09.06.2022
1017 Clouds 14 1022 67 10000 1.03 0 21:37 09.06.2022
1018 Clouds 14 1022 65 10000 2.57 340 21:18 09.06.2022
1019 Clouds 16 1022 57 10000 3.6 330 20:27 09.06.2022
1020 Clouds 17 1021 50 10000 3.58 310 19:31 09.06.2022
1021 Clouds 17 1021 50 10000 3.58 310 19:31 09.06.2022
1022 Clouds 17 1020 51 10000 3.09 270 18:35 09.06.2022
1023 Clouds 18 1020 46 10000 4.47 270 17:25 09.06.2022
1024 Clouds 18 1020 49 10000 5.14 270 16:21 09.06.2022
1025 Clouds 17 1020 59 10000 6.26 275 14:42 09.06.2022
1026 Clouds 16 1020 61 10000 3.6 230 14:23 09.06.2022
1027 Clouds 16 1020 61 10000 4.12 260 13:29 09.06.2022
1028 Clouds 15 1020 69 10000 4.63 270 12:21 09.06.2022
1029 Rain 15 1018 71 10000 3.58 280 11:19 09.06.2022
1030 Clouds 16 1018 68 10000 1.54 90 09:50 09.06.2022
1031 Clouds 15 1018 68 10000 1.54 110 09:31 09.06.2022
1032 Clouds 13 1018 77 10000 3.6 130 08:21 09.06.2022
1033 Clouds 12 1017 77 10000 1.03 0 06:55 09.06.2022
1034 Clouds 12 1016 74 10000 2.06 220 03:22 09.06.2022
1035 Clouds 14 1014 81 10000 3.13 240 23:55 08.06.2022
1036 Rain 16 1013 72 10000 1.54 270 22:59 08.06.2022
1037 Clouds 15 1013 79 10000 3.09 310 22:27 08.06.2022
1038 Clouds 16 1013 73 10000 2.06 280 21:57 08.06.2022
1039 Clouds 16 1013 70 10000 2.68 253 21:24 08.06.2022
1040 Clouds 17 1014 64 10000 2.68 241 20:22 08.06.2022
1041 Clouds 17 1012 63 10000 3.6 250 19:39 08.06.2022
1042 Clouds 18 1012 68 10000 5.14 280 18:48 08.06.2022
1043 Clouds 17 1012 72 10000 2.57 300 17:35 08.06.2022
1044 Rain 16 1014 67 10000 4.63 280 15:52 08.06.2022
1045 Rain 19 1013 58 10000 5.36 277 14:18 08.06.2022
1046 Clouds 20 1013 54 10000 2.24 240 12:46 08.06.2022
1047 Clouds 19 1013 55 10000 2.24 275 11:35 08.06.2022
1048 Clouds 18 1013 63 10000 1.03 0 10:37 08.06.2022
1049 Clear 15 1014 68 10000 2.06 130 09:28 08.06.2022
1050 Clear 15 1015 71 10000 1.03 0 08:49 08.06.2022
1051 Clouds 10 1015 80 10000 0.51 0 06:43 08.06.2022
1052 Clouds 10 1016 78 10000 1.54 0 04:35 08.06.2022
1053 Clouds 13 1018 69 10000 0.87 128 00:57 08.06.2022
1054 Clouds 14 1018 72 10000 1.03 0 23:31 07.06.2022
1055 Clouds 14 1018 74 10000 1.03 0 22:51 07.06.2022
1056 Clouds 15 1018 65 10000 1.03 0 22:33 07.06.2022
1057 Clouds 17 1017 55 10000 3.09 280 21:37 07.06.2022
1058 Clear 18 1017 52 10000 4.12 290 21:18 07.06.2022
1059 Clouds 19 1017 48 10000 4.63 280 20:37 07.06.2022
1060 Clouds 19 1017 60 10000 6.17 270 19:49 07.06.2022
1061 Clouds 20 1017 58 10000 4.47 291 18:25 07.06.2022
1062 Clouds 21 1017 62 10000 4.02 355 17:31 07.06.2022
1063 Clouds 20 1017 66 10000 4.47 300 16:44 07.06.2022
1064 Clouds 20 1017 68 10000 1.79 254 15:58 07.06.2022
1065 Clouds 20 1017 69 10000 2.68 281 15:30 07.06.2022
1066 Clouds 19 1018 70 10000 3.13 279 14:56 07.06.2022
1067 Clouds 19 1018 73 10000 3.09 300 14:38 07.06.2022
1068 Clouds 18 1018 80 10000 4.02 270 13:33 07.06.2022
1069 Clouds 17 1019 83 10000 3.13 250 12:54 07.06.2022
1070 Clouds 18 1019 73 10000 2.06 220 11:51 07.06.2022
1071 Clouds 18 1019 78 10000 2.57 180 10:48 07.06.2022
1072 Clouds 16 1019 89 10000 3.09 130 08:53 07.06.2022
1073 Clouds 15 1019 91 10000 1.54 90 07:47 07.06.2022
1074 Rain 15 1019 90 4200 1.34 252 06:39 07.06.2022
1075 Rain 15 1018 88 9000 1.54 350 04:41 07.06.2022
1076 Rain 16 1019 82 10000 1.54 260 01:27 07.06.2022
1077 Clouds 17 1019 80 10000 1.03 0 23:53 06.06.2022
1078 Clouds 17 1019 77 10000 2.06 290 22:54 06.06.2022
1079 Clouds 18 1019 76 10000 2.06 260 22:29 06.06.2022
1080 Clouds 19 1019 61 10000 0.45 355 20:47 06.06.2022
1081 Clouds 22 1019 54 10000 0.89 207 19:29 06.06.2022
1082 Clouds 23 1018 54 10000 2.24 311 18:49 06.06.2022
1083 Clouds 24 1018 49 10000 4.12 290 18:21 06.06.2022
1084 Clouds 25 1018 44 10000 4.92 284 17:26 06.06.2022
1085 Clouds 24 1018 54 10000 3.09 310 16:18 06.06.2022
1086 Clouds 23 1019 58 10000 3.13 300 15:28 06.06.2022
1087 Clouds 23 1019 61 10000 1.54 0 14:30 06.06.2022
1088 Clouds 22 1020 64 10000 3.09 300 13:22 06.06.2022
1089 Clouds 21 1020 66 10000 2.68 263 12:36 06.06.2022
1090 Clouds 20 1021 69 10000 2.24 346 11:53 06.06.2022
1091 Clouds 19 1021 76 10000 2.24 250 10:21 06.06.2022
1092 Clouds 17 1021 82 10000 2.24 254 09:24 06.06.2022
1093 Clouds 16 1021 87 10000 0.89 232 08:31 06.06.2022
1094 Clouds 14 1020 91 10000 0.51 0 07:28 06.06.2022
1095 Clouds 13 1020 89 5000 0.51 0 05:18 06.06.2022
1096 Clouds 14 1021 92 10000 1.03 250 02:42 06.06.2022
1097 Clouds 15 1022 87 10000 0.51 0 00:57 06.06.2022
1098 Clouds 15 1022 88 10000 0.51 0 00:37 06.06.2022
1099 Clear 15 1021 87 10000 1.03 0 23:28 05.06.2022
1100 Clouds 15 1021 87 10000 0.51 0 22:45 05.06.2022
1101 Clouds 18 1021 80 10000 1.03 0 20:46 05.06.2022
1102 Clouds 18 1020 83 9000 4.63 270 19:38 05.06.2022
1103 Rain 21 1020 65 10000 6.71 282 18:29 05.06.2022
1104 Clouds 22 1019 66 10000 5.14 280 17:51 05.06.2022
1105 Clouds 22 1019 64 10000 4.47 248 17:24 05.06.2022
1106 Clouds 22 1018 67 10000 4.92 290 16:49 05.06.2022
1107 Rain 23 1017 65 10000 5.36 267 16:30 05.06.2022
1108 Clouds 20 1019 82 10000 3.09 130 14:24 05.06.2022
1109 Rain 19 1018 87 10000 3.09 130 12:49 05.06.2022
1110 Thunderstorm 19 1017 88 10000 2.06 0 11:43 05.06.2022
1111 Rain 21 1017 78 10000 1.03 0 10:33 05.06.2022
1112 Clouds 20 1016 88 10000 1.03 100 09:59 05.06.2022
1113 Clouds 18 1018 89 10000 1.54 80 08:28 05.06.2022
1114 Clouds 18 1018 90 10000 1.03 160 07:41 05.06.2022
1115 Clouds 18 1017 86 10000 4.63 300 05:21 05.06.2022
1116 Clouds 18 1015 74 10000 0.45 230 03:43 05.06.2022
1117 Clouds 18 1015 88 10000 0.51 0 01:32 05.06.2022
1118 Clouds 19 1017 86 10000 2.25 60 00:29 05.06.2022
1119 Clouds 21 1016 78 10000 2.06 40 21:58 04.06.2022
1120 Clear 24 1018 63 10000 2.06 0 20:21 04.06.2022
1121 Clouds 27 1017 49 10000 2.68 355 18:19 04.06.2022
1122 Clear 29 1018 48 10000 2.06 0 16:44 04.06.2022
1123 Clear 28 1018 48 10000 3.58 267 16:18 04.06.2022
1124 Clear 27 1018 52 10000 2.06 30 14:53 04.06.2022
1125 Clouds 25 1018 59 10000 3.09 260 12:35 04.06.2022
1126 Clear 22 1019 74 10000 1.54 0 11:18 04.06.2022
1127 Clear 22 1018 75 10000 1.03 0 10:43 04.06.2022
1128 Clear 20 1020 79 10000 1.79 34 09:42 04.06.2022
1129 Clear 18 1020 86 10000 1.79 54 08:41 04.06.2022
1130 Clouds 16 1020 88 10000 1.54 0 07:40 04.06.2022
1131 Rain 17 1020 86 10000 4.92 254 05:29 04.06.2022
1132 Clouds 17 1018 86 10000 2.57 90 01:27 04.06.2022
1133 Clouds 17 1018 83 10000 3.09 80 23:59 03.06.2022
1134 Clouds 19 1018 69 10000 0.98 129 22:40 03.06.2022
1135 Clear 20 1018 70 10000 2.06 70 21:30 03.06.2022
1136 Clouds 22 1017 53 10000 1.54 90 20:37 03.06.2022
1137 Clouds 23 1018 59 10000 4.12 140 18:28 03.06.2022
1138 Clouds 22 1018 65 10000 3.6 150 16:47 03.06.2022
1139 Rain 21 1018 74 10000 1.34 51 15:37 03.06.2022
1140 Clouds 22 1018 63 10000 6.17 280 13:28 03.06.2022
1141 Rain 23 1016 58 10000 3.58 282 11:40 03.06.2022
1142 Clear 20 1017 68 10000 3.13 336 09:50 03.06.2022
1143 Clear 20 1017 70 10000 2.57 120 09:24 03.06.2022
1144 Clouds 16 1018 82 10000 1.03 0 07:27 03.06.2022
1145 Clouds 15 1018 83 10000 1.03 0 06:39 03.06.2022
1146 Clouds 15 1018 83 10000 1.03 0 06:20 03.06.2022
1147 Clouds 17 1019 78 10000 0.51 0 00:41 03.06.2022
1148 Clouds 18 1019 77 10000 1.03 0 23:31 02.06.2022
1149 Rain 20 1017 75 10000 0.51 0 21:57 02.06.2022
1150 Clouds 23 1018 59 10000 2.06 320 20:22 02.06.2022
1151 Clear 23 1018 54 10000 3.13 323 19:52 02.06.2022
1152 Clear 23 1018 54 10000 4.02 19 19:33 02.06.2022
1153 Clouds 24 1018 55 10000 2.68 41 17:58 02.06.2022
1154 Clouds 25 1018 51 10000 2.57 300 16:28 02.06.2022
1155 Clouds 22 1019 62 10000 1.79 0 14:34 02.06.2022
1156 Clouds 21 1020 65 10000 2.06 310 13:30 02.06.2022
1157 Clouds 21 1020 70 10000 3.13 230 12:40 02.06.2022
1158 Clouds 18 1020 85 10000 1.34 230 10:31 02.06.2022
1159 Clouds 16 1020 89 10000 0.89 286 09:28 02.06.2022
1160 Clouds 15 1019 90 10000 0.51 0 08:28 02.06.2022
1161 Clouds 14 1019 91 10000 0.51 0 07:48 02.06.2022
1162 Clouds 13 1018 89 10000 1.54 290 05:33 02.06.2022
1163 Clouds 14 1019 90 10000 2.06 60 03:48 02.06.2022
1164 Clouds 15 1019 85 10000 2.06 70 23:55 01.06.2022
1165 Clouds 15 1019 82 10000 1.34 191 22:55 01.06.2022
1166 Clouds 15 1018 81 10000 2.06 100 21:45 01.06.2022
1167 Clouds 16 1018 80 10000 2.57 120 21:20 01.06.2022
1168 Clouds 17 1018 75 10000 2.06 140 20:38 01.06.2022
1169 Rain 18 1018 77 10000 3.09 150 19:48 01.06.2022
1170 Clouds 19 1018 66 10000 2.06 290 17:57 01.06.2022
1171 Clouds 18 1018 71 10000 3.13 294 16:41 01.06.2022
1172 Rain 18 1018 72 10000 2.06 290 15:37 01.06.2022
1173 Clouds 19 1018 73 10000 3.13 292 13:57 01.06.2022
1174 Clouds 19 1018 72 10000 2.68 215 12:42 01.06.2022
1175 Clouds 18 1018 73 10000 1.54 110 10:37 01.06.2022
1176 Clouds 16 1018 80 10000 2.06 110 09:26 01.06.2022
1177 Clouds 13 1018 89 10000 2.06 110 07:56 01.06.2022
1178 Clouds 12 1018 90 10000 2.06 140 06:41 01.06.2022
1179 Clouds 12 1018 88 6000 0.51 0 01:30 01.06.2022
1180 Clouds 13 1018 84 10000 0.51 0 23:41 31.05.2022
1181 Clouds 13 1018 83 10000 1.03 0 22:38 31.05.2022
1182 Clouds 13 1018 83 10000 1.03 0 22:38 31.05.2022
1183 Clouds 14 1017 77 10000 1.54 100 21:46 31.05.2022
1184 Clouds 15 1017 74 10000 1.54 0 20:57 31.05.2022
1185 Clouds 15 1017 81 10000 1.54 120 20:33 31.05.2022
1186 Clouds 15 1016 86 10000 1.03 0 18:57 31.05.2022
1187 Rain 15 1016 76 10000 3.58 270 17:51 31.05.2022
1188 Rain 15 1016 74 10000 4.12 250 17:31 31.05.2022
1189 Rain 16 1016 60 10000 4.63 300 15:42 31.05.2022
1190 Clouds 19 1015 42 10000 4.92 275 14:34 31.05.2022
1191 Rain 17 1015 54 10000 8.75 240 12:39 31.05.2022
1192 Rain 17 1015 53 10000 8.75 260 12:18 31.05.2022
1193 Clouds 16 1014 53 10000 4.02 285 09:50 31.05.2022
1194 Clouds 12 1014 67 10000 1.54 110 07:41 31.05.2022
1195 Clouds 12 1014 67 10000 1.54 110 07:41 31.05.2022
1196 Clouds 10 1013 70 10000 1.03 0 05:24 31.05.2022
1197 Clouds 11 1013 65 10000 1.34 90 02:51 31.05.2022
1198 Clouds 13 1011 68 10000 0.51 0 23:29 30.05.2022
1199 Clouds 14 1011 58 10000 1.03 0 23:00 30.05.2022
1200 Clouds 13 1011 67 10000 1.03 0 22:31 30.05.2022
1201 Clouds 15 1010 55 10000 1.03 0 21:35 30.05.2022
1202 Clear 18 1010 44 10000 2.06 20 20:31 30.05.2022
1203 Clouds 20 1011 34 10000 3.09 330 19:38 30.05.2022
1204 Clouds 20 1011 32 10000 2.24 305 17:44 30.05.2022
1205 Clouds 20 1011 33 10000 2.57 310 17:18 30.05.2022
1206 Clouds 19 1011 34 10000 3.13 309 15:44 30.05.2022
1207 Clouds 16 1012 46 10000 2.24 105 12:58 30.05.2022
1208 Clouds 15 1011 50 10000 2.57 300 11:26 30.05.2022
1209 Clouds 12 1011 59 10000 1.34 100 09:39 30.05.2022
1210 Clouds 8 1010 72 10000 0.89 103 07:24 30.05.2022
1211 Clouds 7 1009 83 10000 0.89 67 05:52 30.05.2022
1212 Clouds 10 1010 65 10000 1.34 68 03:18 30.05.2022
1213 Clouds 10 1011 69 10000 0.89 68 23:32 29.05.2022
1214 Clouds 9 1010 71 10000 0.51 0 22:40 29.05.2022
1215 Clear 12 1011 54 10000 2.68 71 21:40 29.05.2022
1216 Clouds 14 1011 49 10000 4.47 80 20:18 29.05.2022
1217 Clouds 16 1010 40 10000 4.47 86 19:28 29.05.2022
1218 Clouds 17 1010 38 10000 4.47 10 17:56 29.05.2022
1219 Clouds 17 1011 38 10000 3.6 310 15:59 29.05.2022
1220 Clouds 17 1011 35 10000 3.6 310 15:40 29.05.2022
1221 Clouds 17 1011 40 10000 4.63 320 14:44 29.05.2022
1222 Clouds 16 1012 38 10000 3.13 342 12:21 29.05.2022
1223 Clouds 15 1012 42 10000 3.58 78 10:56 29.05.2022
1224 Clouds 13 1012 45 10000 2.68 33 09:54 29.05.2022
1225 Clouds 11 1012 58 10000 3.58 62 07:42 29.05.2022
1226 Clouds 10 1011 66 10000 1.03 0 04:51 29.05.2022
1227 Clouds 9 1013 65 10000 1.34 55 04:31 29.05.2022
1228 Clouds 13 1014 47 10000 1.54 310 00:53 29.05.2022
1229 Clouds 14 1014 38 10000 1.54 300 23:47 28.05.2022
1230 Clouds 14 1015 38 10000 1.54 0 23:18 28.05.2022
1231 Clouds 15 1015 38 10000 3.09 310 21:46 28.05.2022
1232 Clouds 17 1015 34 10000 2.06 320 20:40 28.05.2022
1233 Clouds 18 1016 38 10000 4.92 19 19:19 28.05.2022
1234 Clouds 18 1017 40 10000 4.92 21 18:21 28.05.2022
1235 Clouds 19 1017 42 10000 5.81 5 17:30 28.05.2022
1236 Clouds 19 1018 43 10000 4.92 39 15:45 28.05.2022
1237 Clouds 19 1018 42 10000 4.02 355 15:19 28.05.2022
1238 Clouds 19 1019 43 10000 2.57 120 13:29 28.05.2022
1239 Clouds 19 1020 48 10000 3.13 28 12:42 28.05.2022
1240 Clouds 17 1020 53 10000 3.58 36 11:28 28.05.2022
1241 Clouds 16 1021 56 10000 3.13 43 10:34 28.05.2022
1242 Clouds 16 1021 57 10000 4.02 105 09:54 28.05.2022
1243 Clouds 14 1021 65 10000 3.13 59 08:21 28.05.2022
1244 Clouds 14 1021 66 10000 2.24 15 06:33 28.05.2022
1245 Clouds 14 1021 62 10000 2.57 310 04:43 28.05.2022
1246 Clouds 15 1021 74 10000 1.54 300 02:18 28.05.2022
1247 Clouds 16 1022 72 10000 2.06 320 23:55 27.05.2022
1248 Clouds 17 1022 63 10000 3.09 320 22:38 27.05.2022
1249 Clear 17 1022 62 10000 4.63 320 21:22 27.05.2022
1250 Clear 19 1021 49 10000 3.6 330 20:43 27.05.2022
1251 Clear 20 1022 47 10000 3.6 340 20:18 27.05.2022
1252 Clear 22 1021 30 10000 4.12 300 19:37 27.05.2022
1253 Clear 22 1022 40 10000 4.12 280 19:19 27.05.2022
1254 Clear 24 1022 41 10000 4.92 283 16:53 27.05.2022
1255 Clear 24 1023 37 10000 3.6 260 15:55 27.05.2022
1256 Clear 23 1023 43 10000 3.13 292 14:47 27.05.2022
1257 Clear 22 1024 48 10000 3.13 230 13:40 27.05.2022
1258 Clear 20 1025 55 10000 1.79 260 11:55 27.05.2022
1259 Clear 19 1025 56 10000 1.79 267 11:30 27.05.2022
1260 Clear 19 1025 59 10000 1.79 215 10:38 27.05.2022
1261 Clear 17 1026 63 10000 1.34 240 09:58 27.05.2022
1262 Clear 16 1026 66 10000 1.03 170 09:28 27.05.2022
1263 Clear 12 1026 81 10000 0.51 0 07:30 27.05.2022
1264 Clear 11 1026 76 10000 0.45 38 03:38 27.05.2022
1265 Clear 12 1026 84 10000 1.03 320 01:19 27.05.2022
1266 Clear 14 1027 72 10000 0.35 97 23:23 26.05.2022
1267 Clear 14 1027 72 10000 0.35 97 23:23 26.05.2022
1268 Clear 18 1024 59 10000 2.06 320 21:57 26.05.2022
1269 Clear 17 1024 62 10000 2.68 5 21:27 26.05.2022
1270 Clouds 21 1024 43 10000 3.58 355 19:34 26.05.2022
1271 Clouds 22 1024 40 10000 2.24 46 18:45 26.05.2022
1272 Clouds 22 1024 37 10000 2.68 350 17:36 26.05.2022
1273 Clear 22 1025 39 10000 3.13 5 16:18 26.05.2022
1274 Clouds 22 1025 38 10000 2.68 334 15:24 26.05.2022
1275 Clouds 21 1026 43 10000 3.58 9 13:58 26.05.2022
1276 Clouds 19 1026 47 10000 2.57 250 11:59 26.05.2022
1277 Clouds 18 1026 50 10000 1.54 0 11:18 26.05.2022
1278 Clouds 16 1026 57 10000 2.06 330 09:38 26.05.2022
1279 Clouds 15 1026 66 10000 1.34 30 08:40 26.05.2022
1280 Clouds 10 1025 80 10000 0.51 0 05:43 26.05.2022
1281 Clouds 12 1024 79 10000 0.51 330 02:24 26.05.2022
1282 Clouds 14 1023 77 10000 0 0 23:53 25.05.2022
1283 Clouds 15 1022 74 10000 0.51 0 22:53 25.05.2022
1284 Clouds 17 1020 55 10000 2.57 310 21:42 25.05.2022
1285 Clouds 19 1019 55 10000 3.09 340 20:49 25.05.2022
1286 Clouds 19 1020 50 10000 0.51 30 19:45 25.05.2022
1287 Clouds 21 1020 41 10000 1.34 323 18:48 25.05.2022
1288 Clouds 20 1019 45 10000 1.79 306 17:24 25.05.2022
1289 Clouds 21 1019 40 10000 2.06 0 16:33 25.05.2022
1290 Clouds 20 1019 43 10000 2.57 300 15:36 25.05.2022
1291 Clouds 20 1019 45 10000 2.68 89 14:50 25.05.2022
1292 Clouds 20 1019 46 10000 3.13 336 14:32 25.05.2022
1293 Clouds 19 1019 50 10000 1.54 300 13:23 25.05.2022
1294 Clouds 17 1019 62 10000 3.13 86 11:50 25.05.2022
1295 Clouds 16 1019 69 10000 2.68 37 10:41 25.05.2022
1296 Clear 16 1018 74 10000 2.57 130 09:45 25.05.2022
1297 Clouds 12 1018 85 10000 0.65 56 07:42 25.05.2022
1298 Clouds 11 1016 89 10000 2.06 100 05:41 25.05.2022
1299 Drizzle 12 1016 87 10000 2.57 100 02:44 25.05.2022
1300 Rain 12 1016 85 10000 3.58 130 23:50 24.05.2022
1301 Clouds 13 1015 83 10000 2.57 320 22:59 24.05.2022
1302 Clouds 13 1015 79 10000 1.34 67 21:58 24.05.2022
1303 Clouds 13 1014 78 10000 1.34 86 21:37 24.05.2022
1304 Clouds 14 1014 77 10000 1.54 110 21:19 24.05.2022
1305 Clouds 15 1013 72 10000 2.57 130 19:27 24.05.2022
1306 Clouds 15 1013 71 10000 3.09 120 18:38 24.05.2022
1307 Clouds 15 1013 69 10000 3.6 140 16:40 24.05.2022
1308 Clouds 15 1013 70 10000 2.24 215 15:54 24.05.2022
1309 Clouds 15 1013 69 10000 3.09 250 14:45 24.05.2022
1310 Clouds 14 1013 73 10000 4.63 280 13:48 24.05.2022
1311 Clouds 14 1013 77 10000 5.66 290 12:35 24.05.2022
1312 Clouds 13 1012 86 10000 4.12 280 09:52 24.05.2022
1313 Rain 13 1012 86 10000 4.12 290 09:27 24.05.2022
1314 Clouds 14 1011 83 10000 4.12 270 08:42 24.05.2022
1315 Clouds 14 1010 87 10000 1.54 0 06:42 24.05.2022
1316 Clouds 14 1009 83 10000 2.06 80 03:48 24.05.2022
1317 Clouds 15 1009 81 10000 1.34 192 01:47 24.05.2022
1318 Clouds 15 1010 79 10000 3.6 290 00:57 24.05.2022
1319 Clouds 17 1009 81 10000 3.09 230 22:29 23.05.2022
1320 Clouds 17 1008 77 10000 1.34 202 21:53 23.05.2022
1321 Clouds 17 1008 79 10000 4.12 260 20:55 23.05.2022
1322 Rain 17 1008 80 10000 3.09 290 20:21 23.05.2022
1323 Rain 19 1008 73 10000 2.68 279 19:30 23.05.2022
1324 Clouds 19 1008 74 10000 2.06 90 18:42 23.05.2022
1325 Clouds 19 1008 75 10000 4.12 130 18:22 23.05.2022
1326 Clouds 20 1006 66 10000 2.57 90 16:51 23.05.2022
1327 Rain 25 1006 53 10000 4.02 299 14:49 23.05.2022
1328 Clouds 24 1008 60 10000 5.36 290 12:30 23.05.2022
1329 Clouds 23 1008 68 10000 4.92 258 11:25 23.05.2022
1330 Clouds 22 1008 72 10000 1.54 80 09:49 23.05.2022
1331 Clouds 20 1009 80 10000 2.06 90 08:51 23.05.2022
1332 Clouds 18 1009 81 10000 0.95 120 07:46 23.05.2022
1333 Clouds 17 1009 87 6000 1.54 0 06:43 23.05.2022
1334 Clouds 17 1010 84 6000 1.79 113 05:21 23.05.2022
1335 Clouds 17 1011 85 9000 1.54 280 02:19 23.05.2022
1336 Mist 17 1011 84 4300 1.03 0 01:35 23.05.2022
1337 Clouds 18 1012 84 10000 1.03 0 23:42 22.05.2022
1338 Clouds 19 1012 84 9000 1.34 248 22:35 22.05.2022
1339 Clouds 19 1011 81 10000 1.54 0 21:54 22.05.2022
1340 Clouds 20 1012 76 10000 4.63 110 20:51 22.05.2022
1341 Clouds 21 1012 77 10000 3.09 140 20:25 22.05.2022
1342 Rain 21 1012 79 10000 4.92 126 19:56 22.05.2022
1343 Thunderstorm 21 1014 73 10000 3.6 310 18:55 22.05.2022
1344 Rain 23 1014 60 10000 3.6 300 18:24 22.05.2022
1345 Clouds 24 1012 44 10000 1.54 0 17:33 22.05.2022
1346 Clouds 26 1013 49 10000 2.06 300 16:31 22.05.2022
1347 Clear 26 1014 54 10000 2.06 300 14:48 22.05.2022
1348 Clear 26 1014 52 10000 1.03 0 13:45 22.05.2022
1349 Clouds 24 1015 54 10000 1.54 140 12:50 22.05.2022
1350 Clear 22 1016 56 10000 2.06 310 11:44 22.05.2022
1351 Clouds 19 1016 71 10000 2.57 310 09:45 22.05.2022
1352 Clear 16 1017 72 10000 1.54 310 08:37 22.05.2022
1353 Clouds 15 1018 80 9000 1.34 130 07:22 22.05.2022
1354 Clouds 15 1018 79 10000 0.45 116 06:23 22.05.2022
1355 Clear 16 1019 73 10000 0.45 36 02:23 22.05.2022
1356 Clear 17 1022 79 10000 0.54 92 00:43 22.05.2022
1357 Clear 17 1020 82 10000 0.51 0 23:55 21.05.2022
1358 Clear 18 1020 80 10000 0.51 0 23:20 21.05.2022
1359 Clear 19 1019 77 10000 0.51 0 21:43 21.05.2022
1360 Clear 21 1018 74 10000 2.06 30 21:23 21.05.2022
1361 Clear 24 1020 57 10000 1.54 20 20:25 21.05.2022
1362 Clear 24 1020 58 10000 1.79 38 19:35 21.05.2022
1363 Clouds 26 1021 52 10000 3.13 30 17:51 21.05.2022
1364 Clouds 26 1021 47 10000 3.58 21 16:46 21.05.2022
1365 Clouds 26 1022 47 10000 3.09 340 14:38 21.05.2022
1366 Clouds 25 1022 48 10000 3.13 300 13:52 21.05.2022
1367 Clouds 24 1023 48 10000 4.02 272 12:57 21.05.2022
1368 Clouds 24 1023 51 10000 4.02 301 12:37 21.05.2022
1369 Clouds 22 1024 55 10000 3.13 260 10:44 21.05.2022
1370 Clouds 21 1024 53 10000 1.79 327 09:48 21.05.2022
1371 Clouds 20 1024 62 10000 2.06 310 08:57 21.05.2022
1372 Clouds 20 1024 64 10000 1.03 0 08:33 21.05.2022
1373 Clouds 20 1023 64 10000 2.57 300 04:33 21.05.2022
1374 Clouds 23 1023 35 10000 1.54 270 00:38 21.05.2022
1375 Clouds 23 1022 38 10000 0.51 0 22:59 20.05.2022
1376 Clouds 23 1022 38 10000 2.57 280 22:24 20.05.2022
1377 Clear 25 1021 38 10000 3.09 230 21:47 20.05.2022
1378 Clear 26 1021 36 10000 5.14 250 20:57 20.05.2022
1379 Clear 26 1022 35 10000 5.36 238 20:25 20.05.2022
1380 Clouds 27 1021 33 10000 7.6 254 19:26 20.05.2022
1381 Clear 28 1021 32 10000 6.69 260 18:47 20.05.2022
1382 Clear 29 1021 31 10000 7.15 273 17:37 20.05.2022
1383 Clear 30 1021 31 10000 4.92 267 16:20 20.05.2022
1384 Clear 30 1021 34 10000 4.92 300 15:53 20.05.2022
1385 Clear 28 1022 40 10000 3.13 280 14:31 20.05.2022
1386 Clear 28 1022 43 10000 2.24 280 13:55 20.05.2022
1387 Clouds 25 1024 49 10000 3.13 290 11:45 20.05.2022
1388 Clear 22 1025 51 10000 2.68 314 10:23 20.05.2022
1389 Clear 20 1025 60 10000 1.03 0 08:45 20.05.2022
1390 Clouds 16 1025 75 10000 0.51 0 07:18 20.05.2022
1391 Clouds 15 1025 75 10000 1.54 0 06:34 20.05.2022
1392 Clouds 16 1026 78 10000 2.57 80 04:59 20.05.2022
1393 Clouds 17 1025 85 10000 2.57 90 00:54 20.05.2022
1394 Clouds 19 1024 68 10000 3.6 90 22:57 19.05.2022
1395 Clouds 19 1024 64 10000 2.57 100 22:25 19.05.2022
1396 Clouds 20 1024 64 10000 5.14 100 21:48 19.05.2022
1397 Clouds 20 1024 64 10000 5.14 100 21:23 19.05.2022
1398 Clear 22 1023 56 10000 5.14 120 20:39 19.05.2022
1399 Clear 22 1023 49 10000 5.66 150 19:52 19.05.2022
1400 Clouds 26 1023 47 10000 6.17 190 18:31 19.05.2022
1401 Clouds 27 1024 37 10000 7.15 235 17:31 19.05.2022
1402 Clouds 28 1023 29 10000 7.72 270 15:21 19.05.2022
1403 Clouds 28 1023 31 10000 6.71 281 14:26 19.05.2022
1404 Clouds 27 1024 40 10000 4.47 296 13:47 19.05.2022
1405 Clear 25 1024 50 10000 3.6 290 11:41 19.05.2022
1406 Clear 21 1025 55 10000 0.45 238 09:29 19.05.2022
1407 Clear 18 1024 75 10000 1.54 0 08:18 19.05.2022
1408 Clear 15 1023 78 10000 0.51 50 06:18 19.05.2022
1409 Clouds 16 1022 72 10000 0.51 0 02:27 19.05.2022
1410 Clouds 17 1022 76 10000 0.89 248 00:44 19.05.2022
1411 Clouds 18 1022 71 10000 1.03 0 22:53 18.05.2022
1412 Clouds 17 1020 75 10000 0.51 0 22:35 18.05.2022
1413 Clouds 20 1020 68 10000 0.51 0 21:31 18.05.2022
1414 Clear 24 1019 44 10000 1.54 20 20:50 18.05.2022
1415 Clear 24 1021 51 10000 1.79 54 20:18 18.05.2022
1416 Clear 27 1021 37 10000 2.68 57 18:33 18.05.2022
1417 Clear 27 1021 37 10000 2.68 57 18:33 18.05.2022
1418 Clouds 27 1021 39 10000 3.58 9 17:41 18.05.2022
1419 Clouds 27 1021 36 10000 4.47 22 17:23 18.05.2022
1420 Clear 27 1021 35 10000 3.58 333 16:35 18.05.2022
1421 Clouds 27 1022 35 10000 4.12 30 15:42 18.05.2022
1422 Clouds 27 1022 38 10000 3.13 335 14:48 18.05.2022
1423 Clear 26 1022 43 10000 3.13 28 13:44 18.05.2022
1424 Clear 25 1023 48 10000 3.6 290 12:49 18.05.2022
1425 Clear 23 1023 54 10000 2.68 5 11:36 18.05.2022
1426 Clear 23 1023 54 10000 2.24 355 11:18 18.05.2022
1427 Clear 20 1024 60 10000 1.03 150 09:50 18.05.2022
1428 Clear 15 1024 77 10000 1.03 0 07:54 18.05.2022
1429 Clouds 13 1023 79 10000 1.03 140 06:48 18.05.2022
1430 Clear 15 1022 80 10000 0.51 0 01:53 18.05.2022
1431 Clear 17 1023 74 10000 0.45 49 00:23 18.05.2022
1432 Clear 17 1020 75 10000 0.51 0 22:18 17.05.2022
1433 Clear 22 1019 49 10000 1.54 0 21:20 17.05.2022
1434 Clear 23 1019 52 10000 1.54 0 20:22 17.05.2022
1435 Clear 25 1020 42 10000 3.09 10 19:28 17.05.2022
1436 Clear 26 1020 37 10000 2.57 250 17:52 17.05.2022
1437 Clear 26 1020 35 10000 1.54 280 16:59 17.05.2022
1438 Clear 26 1020 36 10000 1.03 300 16:30 17.05.2022
1439 Clouds 26 1021 40 10000 3.6 310 15:32 17.05.2022
1440 Clouds 25 1021 43 10000 3.09 330 14:30 17.05.2022
1441 Clouds 24 1022 49 10000 3.09 310 13:37 17.05.2022
1442 Clouds 22 1022 56 10000 2.06 290 11:58 17.05.2022
1443 Clouds 18 1023 68 10000 2.57 140 09:38 17.05.2022
1444 Clear 17 1023 76 10000 0 0 08:36 17.05.2022
1445 Clouds 13 1023 84 10000 1.03 0 06:50 17.05.2022
1446 Clouds 14 1023 77 10000 0.45 138 04:24 17.05.2022
1447 Clouds 15 1022 87 10000 1.54 130 00:46 17.05.2022
1448 Clouds 16 1022 82 10000 1.03 0 22:44 16.05.2022
1449 Clouds 19 1021 63 10000 1.54 0 21:52 16.05.2022
1450 Clouds 22 1020 53 10000 2.06 320 20:49 16.05.2022
1451 Clear 23 1019 46 10000 3.6 300 19:49 16.05.2022
1452 Clouds 24 1021 36 10000 3.58 325 18:21 16.05.2022
1453 Clouds 24 1021 42 10000 4.63 280 16:24 16.05.2022
1454 Clouds 22 1022 52 10000 2.68 275 14:38 16.05.2022
1455 Clouds 21 1022 55 10000 1.79 242 13:23 16.05.2022
1456 Rain 21 1022 56 10000 4.63 270 11:33 16.05.2022
1457 Clouds 19 1022 57 10000 3.58 336 09:58 16.05.2022
1458 Clouds 15 1021 75 10000 1.54 100 07:21 16.05.2022
1459 Clouds 14 1020 75 10000 2.57 70 04:41 16.05.2022
1460 Clouds 17 1018 73 10000 6.69 140 23:44 15.05.2022
1461 Clouds 17 1018 72 10000 4.63 120 22:34 15.05.2022
1462 Clouds 17 1018 72 10000 4.63 120 22:34 15.05.2022
1463 Thunderstorm 17 1018 72 10000 8.23 110 21:47 15.05.2022
1464 Clouds 21 1017 53 10000 5.66 140 20:59 15.05.2022
1465 Clouds 26 1015 44 10000 1.03 0 19:56 15.05.2022
1466 Clear 26 1016 30 10000 2.06 270 17:52 15.05.2022
1467 Clear 26 1016 30 10000 2.06 270 17:52 15.05.2022
1468 Clear 26 1017 34 10000 2.68 286 16:35 15.05.2022
1469 Clear 25 1018 42 10000 2.57 290 14:18 15.05.2022
1470 Clear 24 1019 43 10000 2.57 320 13:23 15.05.2022
1471 Clear 22 1020 54 10000 1.54 0 11:41 15.05.2022
1472 Clear 20 1019 59 10000 0.89 307 10:35 15.05.2022
1473 Clear 17 1020 75 10000 1.03 0 08:47 15.05.2022
1474 Clear 12 1020 81 10000 1.03 0 06:59 15.05.2022
1475 Clouds 11 1020 81 10000 1.03 100 06:38 15.05.2022
1476 Clouds 14 1021 77 10000 0.45 69 01:43 15.05.2022
1477 Clouds 15 1019 80 10000 0.51 0 23:52 14.05.2022
1478 Clouds 14 1019 80 10000 0.51 0 23:33 14.05.2022
1479 Clouds 18 1019 59 10000 1.54 300 21:43 14.05.2022
1480 Clear 21 1018 52 10000 1.54 210 21:18 14.05.2022
1481 Clear 23 1018 40 10000 2.06 340 19:40 14.05.2022
1482 Clouds 23 1020 39 10000 2.24 11 19:20 14.05.2022
1483 Clouds 25 1020 34 10000 1.54 0 18:47 14.05.2022
1484 Clouds 25 1020 28 10000 1.34 311 17:28 14.05.2022
1485 Clouds 25 1020 37 10000 1.54 0 15:47 14.05.2022
1486 Clouds 24 1021 48 10000 2.68 327 14:36 14.05.2022
1487 Clouds 22 1022 59 10000 3.09 290 12:51 14.05.2022
1488 Clouds 21 1022 61 10000 2.24 323 11:37 14.05.2022
1489 Clear 19 1022 64 10000 1.34 55 10:23 14.05.2022
1490 Clear 18 1022 67 10000 1.34 71 09:54 14.05.2022
1491 Clouds 17 1022 73 10000 0 0 08:56 14.05.2022
1492 Clouds 14 1022 85 10000 0 0 07:20 14.05.2022
1493 Clouds 14 1021 91 10000 0.51 0 03:41 14.05.2022
1494 Clouds 16 1022 88 10000 0.51 0 23:48 13.05.2022
1495 Clouds 16 1023 79 10000 0.51 0 23:22 13.05.2022
1496 Clouds 18 1022 72 10000 0.51 0 22:52 13.05.2022
1497 Clouds 17 1023 76 10000 1.03 300 22:20 13.05.2022
1498 Clouds 18 1022 72 10000 2.57 290 20:56 13.05.2022
1499 Clouds 19 1022 65 10000 3.6 290 20:28 13.05.2022
1500 Clouds 19 1022 61 10000 3.09 310 19:40 13.05.2022
1501 Clouds 20 1022 61 10000 4.02 5 18:44 13.05.2022
1502 Clouds 20 1022 62 10000 4.12 320 17:29 13.05.2022
1503 Clouds 21 1022 58 10000 4.47 345 16:23 13.05.2022
1504 Clouds 22 1022 54 10000 3.09 310 15:43 13.05.2022
1505 Clouds 21 1023 57 10000 3.09 300 14:24 13.05.2022
1506 Clouds 20 1023 60 10000 4.12 320 12:46 13.05.2022
1507 Clouds 20 1023 62 10000 2.57 310 11:29 13.05.2022
1508 Clouds 17 1023 80 10000 1.34 232 09:43 13.05.2022
1509 Clouds 16 1023 84 10000 1.03 240 08:51 13.05.2022
1510 Clouds 15 1023 83 10000 2.06 130 07:49 13.05.2022
1511 Rain 15 1022 83 10000 1.03 0 06:44 13.05.2022
1512 Rain 15 1023 80 10000 0.51 0 04:48 13.05.2022
1513 Rain 17 1023 70 10000 1.03 0 00:42 13.05.2022
1514 Clouds 18 1022 60 10000 1.78 206 22:47 12.05.2022
1515 Clouds 18 1021 75 10000 1.03 70 21:59 12.05.2022
1516 Clouds 20 1021 54 10000 0.89 153 20:38 12.05.2022
1517 Rain 22 1021 49 10000 1.03 260 19:24 12.05.2022
1518 Clouds 23 1021 45 10000 7.2 290 17:59 12.05.2022
1519 Clouds 26 1020 32 10000 6.26 292 16:34 12.05.2022
1520 Clouds 26 1021 31 10000 4.63 310 14:51 12.05.2022
1521 Clear 25 1021 32 10000 5.36 272 13:47 12.05.2022
1522 Clear 22 1022 43 10000 4.02 249 11:25 12.05.2022
1523 Clear 19 1023 57 10000 2.06 130 09:37 12.05.2022
1524 Clear 19 1024 60 10000 0.89 186 08:52 12.05.2022
1525 Clouds 16 1023 59 10000 0.45 109 07:57 12.05.2022
1526 Clouds 14 1022 58 10000 0.89 279 06:55 12.05.2022
1527 Clouds 16 1022 64 10000 0.45 222 03:31 12.05.2022
1528 Clear 16 1019 68 10000 1.54 0 00:41 12.05.2022
1529 Clear 21 1018 38 10000 2.57 240 22:41 11.05.2022
1530 Clear 22 1018 35 10000 4.12 240 21:59 11.05.2022
1531 Clear 22 1018 33 10000 3.6 220 21:24 11.05.2022
1532 Clear 25 1017 29 10000 4.63 250 19:42 11.05.2022
1533 Clear 26 1018 30 10000 7.15 245 17:24 11.05.2022
1534 Clear 26 1018 33 10000 6.71 269 15:59 11.05.2022
1535 Clear 25 1019 34 10000 5.81 255 14:45 11.05.2022
1536 Clear 25 1019 38 10000 6.71 259 14:24 11.05.2022
1537 Clear 23 1020 49 10000 2.57 320 12:23 11.05.2022
1538 Clear 22 1021 51 10000 2.24 243 11:47 11.05.2022
1539 Clear 19 1021 59 10000 2.57 100 09:29 11.05.2022
1540 Clear 11 1021 79 10000 1.54 0 06:24 11.05.2022
1541 Clouds 15 1021 68 10000 1.71 178 01:29 11.05.2022
1542 Clear 15 1020 78 10000 1.03 0 22:53 10.05.2022
1543 Clear 17 1021 63 10000 1.03 100 22:19 10.05.2022
1544 Clear 18 1020 63 10000 0 0 20:59 10.05.2022
1545 Clear 23 1020 43 10000 2.57 270 20:21 10.05.2022
1546 Clouds 23 1021 37 10000 3.13 270 18:36 10.05.2022
1547 Clouds 23 1021 42 10000 3.58 257 17:37 10.05.2022
1548 Clouds 24 1022 41 10000 3.58 255 15:49 10.05.2022
1549 Clear 21 1024 53 10000 2.24 235 12:48 10.05.2022
1550 Clear 20 1024 58 10000 2.68 281 11:53 10.05.2022
1551 Clear 19 1024 60 10000 2.24 279 11:21 10.05.2022
1552 Clear 19 1024 61 10000 0.89 233 10:55 10.05.2022
1553 Clear 16 1024 69 10000 1.54 0 09:27 10.05.2022
1554 Clear 12 1024 79 10000 1.54 150 07:47 10.05.2022
1555 Clear 10 1024 81 10000 3.09 90 04:35 10.05.2022
1556 Clear 12 1024 76 10000 2.57 110 01:37 10.05.2022
1557 Clear 13 1024 82 10000 2.06 80 23:42 09.05.2022
1558 Clear 13 1024 82 10000 2.06 80 23:42 09.05.2022
1559 Clear 14 1026 77 10000 1 99 22:30 09.05.2022
1560 Clear 15 1023 77 10000 1.54 0 21:25 09.05.2022
1561 Clouds 20 1022 56 10000 1.03 190 19:52 09.05.2022
1562 Clouds 20 1022 56 10000 1.03 190 19:52 09.05.2022
1563 Clouds 21 1023 46 10000 2.57 250 18:22 09.05.2022
1564 Clouds 21 1023 50 10000 1.79 281 16:55 09.05.2022
1565 Clouds 20 1024 54 10000 1.79 332 15:54 09.05.2022
1566 Clouds 20 1024 55 10000 2.24 360 15:35 09.05.2022
1567 Clouds 19 1024 59 10000 3.58 62 14:33 09.05.2022
1568 Clouds 19 1025 62 10000 3.09 310 13:51 09.05.2022
1569 Clouds 18 1025 63 10000 2.24 349 12:51 09.05.2022
1570 Clouds 17 1025 67 10000 4.02 5 11:52 09.05.2022
1571 Clouds 16 1025 72 10000 2.24 44 10:46 09.05.2022
1572 Clouds 15 1025 78 10000 1.79 100 09:59 09.05.2022
1573 Clouds 12 1024 86 10000 1.54 120 07:56 09.05.2022
1574 Clouds 10 1023 96 7000 0.51 0 04:34 09.05.2022
1575 Clouds 12 1023 90 10000 2.24 67 00:23 09.05.2022
1576 Clouds 12 1023 89 10000 1.54 0 23:27 08.05.2022
1577 Clouds 14 1023 78 10000 1.79 72 22:29 08.05.2022
1578 Clouds 15 1023 74 10000 2.06 130 20:53 08.05.2022
1579 Clouds 15 1022 73 10000 2.24 69 20:18 08.05.2022
1580 Clouds 16 1022 69 10000 1.79 53 19:32 08.05.2022
1581 Clouds 16 1022 69 10000 3.58 59 18:35 08.05.2022
1582 Clouds 16 1022 68 10000 2.24 54 17:22 08.05.2022
1583 Clouds 17 1022 69 10000 2.24 35 15:46 08.05.2022
1584 Clouds 16 1022 69 10000 2.57 30 15:21 08.05.2022
1585 Clouds 15 1022 76 10000 4.47 14 12:46 08.05.2022
1586 Clouds 14 1022 79 10000 5.81 30 10:56 08.05.2022
1587 Clouds 14 1022 82 10000 4.47 34 10:22 08.05.2022
1588 Clouds 13 1022 84 10000 3.58 48 09:51 08.05.2022
1589 Clouds 10 1021 91 8000 1.34 47 07:41 08.05.2022
1590 Clouds 9 1021 88 8000 1.54 110 05:22 08.05.2022
1591 Clouds 10 1021 88 10000 1.03 0 03:20 08.05.2022
1592 Clouds 11 1022 87 10000 0.51 0 00:42 08.05.2022
1593 Clouds 11 1022 86 10000 0.51 0 23:55 07.05.2022
1594 Clouds 11 1022 85 10000 1.54 280 22:59 07.05.2022
1595 Clouds 12 1022 84 10000 2.57 250 22:35 07.05.2022
1596 Rain 12 1022 83 10000 3.09 270 21:55 07.05.2022
1597 Rain 12 1021 80 10000 2.06 230 21:20 07.05.2022
1598 Clouds 13 1021 73 10000 5.81 26 19:59 07.05.2022
1599 Clouds 17 1020 59 10000 6.26 22 18:41 07.05.2022
1600 Clouds 17 1021 60 10000 6.71 30 16:19 07.05.2022
1601 Clouds 17 1021 66 10000 5.36 36 14:46 07.05.2022
1602 Clouds 14 1022 75 10000 4.02 40 11:19 07.05.2022
1603 Clouds 13 1022 85 7000 4.02 0 09:39 07.05.2022
1604 Clouds 11 1022 91 7000 1.79 44 08:28 07.05.2022
1605 Fog 10 1022 92 800 1.79 59 06:44 07.05.2022
1606 Mist 10 1022 91 2000 1.79 80 05:41 07.05.2022
1607 Clouds 11 1022 89 9000 1.79 44 03:54 07.05.2022
1608 Clouds 11 1024 88 10000 2.57 290 23:41 06.05.2022
1609 Clouds 12 1024 87 10000 1.54 300 22:34 06.05.2022
1610 Clouds 12 1023 86 10000 2.68 25 21:47 06.05.2022
1611 Rain 12 1023 86 8000 2.24 36 20:39 06.05.2022
1612 Clouds 13 1023 81 10000 4.02 38 19:43 06.05.2022
1613 Clouds 13 1023 83 10000 4.02 39 19:19 06.05.2022
1614 Clouds 13 1023 82 10000 4.02 30 18:25 06.05.2022
1615 Clouds 13 1023 85 10000 3.58 38 17:34 06.05.2022
1616 Clouds 13 1023 89 10000 5.36 40 15:51 06.05.2022
1617 Clouds 12 1023 89 10000 4.92 29 14:58 06.05.2022
1618 Clouds 12 1023 90 10000 4.92 27 13:38 06.05.2022
1619 Clouds 12 1023 87 10000 4.92 22 12:42 06.05.2022
1620 Clouds 12 1022 89 10000 4.47 36 11:58 06.05.2022
1621 Clouds 12 1022 92 10000 4.47 36 10:36 06.05.2022
1622 Clouds 11 1022 92 10000 3.58 24 09:46 06.05.2022
1623 Clouds 10 1022 94 10000 3.58 48 08:59 06.05.2022
1624 Clouds 10 1022 92 10000 2.68 51 07:27 06.05.2022
1625 Clouds 10 1022 92 10000 3.13 44 06:24 06.05.2022
1626 Clouds 10 1022 93 5000 1.34 29 02:54 06.05.2022
1627 Drizzle 10 1023 92 2700 1.03 0 01:57 06.05.2022
1628 Clouds 10 1023 92 6000 0.51 0 22:48 05.05.2022
1629 Clouds 10 1023 92 9000 0.51 50 21:45 05.05.2022
1630 Clouds 11 1022 92 9000 1.54 0 20:28 05.05.2022
1631 Clouds 11 1022 91 7000 1.34 20 18:43 05.05.2022
1632 Rain 11 1022 91 5000 1.54 250 16:40 05.05.2022
1633 Rain 11 1022 90 4000 3.13 265 14:55 05.05.2022
1634 Rain 11 1022 90 4500 2.06 280 13:27 05.05.2022
1635 Rain 11 1022 90 4500 2.06 280 12:54 05.05.2022
1636 Rain 11 1021 90 6000 2.57 280 10:53 05.05.2022
1637 Rain 11 1021 91 7000 1.34 248 09:40 05.05.2022
1638 Drizzle 11 1037 91 7000 0 0 08:30 05.05.2022
1639 Clouds 10 1020 90 10000 0.51 0 05:44 05.05.2022
1640 Drizzle 10 1020 88 10000 2.06 100 02:20 05.05.2022
1641 Drizzle 10 1020 87 10000 2.06 100 01:35 05.05.2022
1642 Rain 11 1020 85 10000 0.51 0 23:55 04.05.2022
1643 Rain 11 1020 81 10000 0.89 202 22:50 04.05.2022
1644 Clouds 12 1020 75 10000 0.89 242 21:59 04.05.2022
1645 Clouds 12 1018 72 10000 2.24 61 21:29 04.05.2022
1646 Clouds 13 1018 68 10000 3.6 130 20:42 04.05.2022
1647 Clouds 14 1018 66 10000 5.66 140 19:56 04.05.2022
1648 Clouds 14 1018 64 10000 5.14 140 19:31 04.05.2022
1649 Clouds 17 1017 60 10000 3.6 150 18:22 04.05.2022
1650 Clouds 17 1018 60 10000 3.6 150 17:59 04.05.2022
1651 Clouds 16 1017 66 10000 2.57 110 15:57 04.05.2022
1652 Rain 15 1017 72 10000 9.26 260 15:30 04.05.2022
1653 Rain 17 1017 54 10000 4.47 235 14:22 04.05.2022
1654 Rain 17 1017 52 10000 2.68 190 13:50 04.05.2022
1655 Clouds 17 1018 54 10000 1.34 301 12:34 04.05.2022
1656 Clouds 15 1018 67 10000 1.03 110 10:57 04.05.2022
1657 Clouds 13 1019 74 10000 1.54 120 09:46 04.05.2022
1658 Clouds 11 1018 80 10000 0 0 08:49 04.05.2022
1659 Clouds 9 1018 82 10000 1.03 280 07:33 04.05.2022
1660 Mist 8 1018 82 5000 1.03 60 03:50 04.05.2022
1661 Clouds 9 1018 80 10000 0.51 0 01:41 04.05.2022
1662 Clouds 11 1017 78 10000 0.51 0 22:54 03.05.2022
1663 Clouds 11 1017 77 10000 1.03 0 21:47 03.05.2022
1664 Clouds 12 1017 76 10000 1.03 0 21:21 03.05.2022
1665 Clouds 13 1016 73 10000 1.03 0 20:38 03.05.2022
1666 Clouds 14 1016 77 10000 1.34 80 18:55 03.05.2022
1667 Clouds 15 1016 74 10000 2.68 81 18:37 03.05.2022
1668 Rain 17 1012 58 10000 1.01 4 17:19 03.05.2022
1669 Rain 19 1012 46 10000 1.91 6 15:43 03.05.2022
1670 Clouds 19 1015 41 10000 3.13 285 13:32 03.05.2022
1671 Clouds 18 1016 46 10000 1.79 38 12:31 03.05.2022
1672 Clear 16 1016 50 10000 1.79 312 11:23 03.05.2022
1673 Clear 14 1016 59 10000 1.03 0 09:58 03.05.2022
1674 Clear 9 1016 77 10000 0.51 0 07:59 03.05.2022
1675 Clouds 7 1015 75 7000 0.51 0 06:45 03.05.2022
1676 Clouds 11 1015 65 10000 0.45 79 01:56 03.05.2022
1677 Clouds 12 1015 70 10000 1.54 60 22:47 02.05.2022
1678 Clouds 12 1015 67 10000 1.54 60 22:28 02.05.2022
1679 Clouds 14 1013 56 10000 1.03 0 21:26 02.05.2022
1680 Clouds 18 1014 37 10000 2.24 44 18:57 02.05.2022
1681 Clouds 18 1014 36 10000 2.24 76 18:25 02.05.2022
1682 Clouds 18 1014 35 10000 3.13 5 17:38 02.05.2022
1683 Clouds 19 1015 35 10000 4.02 326 16:25 02.05.2022
1684 Clouds 18 1015 36 10000 3.58 306 15:41 02.05.2022
1685 Clouds 17 1015 42 10000 3.6 320 14:20 02.05.2022
1686 Clouds 16 1016 52 10000 2.24 180 12:52 02.05.2022
1687 Clear 14 1016 57 10000 1.79 42 11:24 02.05.2022
1688 Clear 10 1017 70 10000 0.89 54 09:32 02.05.2022
1689 Clear 7 1017 81 10000 0 0 07:57 02.05.2022
1690 Clouds 5 1017 75 10000 1 98 05:59 02.05.2022
1691 Clouds 8 1019 81 10000 1.03 113 00:40 02.05.2022
1692 Clouds 7 1017 86 10000 0.51 0 00:21 02.05.2022
1693 Clouds 8 1018 79 10000 1.03 0 22:49 01.05.2022
1694 Clouds 12 1017 61 10000 1.54 0 21:41 01.05.2022
1695 Clear 14 1018 50 10000 3.13 49 20:23 01.05.2022
1696 Clouds 16 1018 40 10000 3.13 79 19:20 01.05.2022
1697 Clouds 16 1018 39 10000 2.68 79 18:51 01.05.2022
1698 Clouds 17 1018 39 10000 3.09 0 17:47 01.05.2022
1699 Clouds 16 1019 39 10000 2.68 90 16:26 01.05.2022
1700 Clouds 16 1019 42 10000 4.63 300 15:45 01.05.2022
1701 Clouds 15 1019 49 10000 4.47 30 14:41 01.05.2022
1702 Clouds 13 1021 66 10000 3.6 310 12:22 01.05.2022
1703 Clear 9 1021 80 10000 2.24 40 09:34 01.05.2022
1704 Clear 8 1021 85 10000 0 0 08:49 01.05.2022
1705 Clear 6 1021 80 10000 0.45 65 05:42 01.05.2022
1706 Clouds 7 1022 73 10000 1.03 86 01:32 01.05.2022
1707 Clouds 10 1021 83 10000 1.54 70 21:59 30.04.2022
1708 Clouds 10 1022 66 10000 4.12 160 21:30 30.04.2022
1709 Clouds 12 1022 61 10000 0.51 0 19:48 30.04.2022
1710 Rain 13 1022 59 10000 3.13 49 18:52 30.04.2022
1711 Clouds 13 1022 57 10000 4.02 9 17:26 30.04.2022
1712 Rain 14 1021 52 9000 6.69 310 15:51 30.04.2022
1713 Thunderstorm 15 1021 48 10000 7.15 346 14:58 30.04.2022
1714 Clouds 16 1021 41 10000 3.13 76 13:41 30.04.2022
1715 Clouds 15 1023 49 10000 1.54 0 11:39 30.04.2022
1716 Clouds 15 1023 52 10000 1.79 323 10:56 30.04.2022
1717 Clouds 13 1023 61 10000 1.54 130 09:54 30.04.2022
1718 Clear 10 1023 79 10000 2.06 90 07:36 30.04.2022
1719 Rain 11 1023 71 10000 1.03 0 03:53 30.04.2022
1720 Clouds 12 1024 59 10000 0.51 0 23:55 29.04.2022
1721 Clouds 13 1024 55 10000 2.06 310 22:37 29.04.2022
1722 Clouds 13 1024 60 10000 3.6 280 21:55 29.04.2022
1723 Clouds 13 1023 64 10000 2.06 280 21:24 29.04.2022
1724 Clouds 16 1023 41 10000 3.09 310 19:55 29.04.2022
1725 Clouds 17 1023 45 10000 2.06 300 19:26 29.04.2022
1726 Clouds 19 1023 41 10000 3.6 280 17:34 29.04.2022
1727 Clear 20 1023 41 10000 3.09 260 16:30 29.04.2022
1728 Clear 19 1024 44 10000 3.58 292 14:34 29.04.2022
1729 Clear 18 1024 47 10000 4.12 290 13:27 29.04.2022
1730 Clear 16 1025 51 10000 3.13 244 12:33 29.04.2022
1731 Clear 12 1026 63 10000 1.03 200 09:52 29.04.2022
1732 Clouds 8 1026 75 10000 0.45 186 07:52 29.04.2022
1733 Clouds 6 1026 74 10000 0.45 94 07:24 29.04.2022
1734 Clouds 6 1025 73 10000 0.46 104 06:29 29.04.2022
1735 Clear 9 1027 68 10000 1.79 92 00:52 29.04.2022
1736 Clear 9 1025 72 10000 0 0 23:52 28.04.2022
1737 Clear 9 1025 76 10000 0 0 22:47 28.04.2022
1738 Clear 14 1025 44 10000 1.54 0 21:59 28.04.2022
1739 Clear 14 1025 44 10000 1.54 0 21:37 28.04.2022
1740 Clear 16 1024 41 10000 2.06 0 20:41 28.04.2022
1741 Clear 18 1024 39 10000 2.57 20 19:49 28.04.2022
1742 Clear 18 1025 37 10000 4.92 45 19:23 28.04.2022
1743 Clear 18 1024 36 10000 4.92 51 18:38 28.04.2022
1744 Clear 19 1024 37 10000 4.92 26 17:32 28.04.2022
1745 Clear 19 1024 39 10000 4.92 62 16:50 28.04.2022
1746 Clear 19 1024 40 10000 5.14 360 16:20 28.04.2022
1747 Clear 19 1024 40 10000 5.14 360 16:20 28.04.2022
1748 Clear 19 1025 43 10000 4.92 36 15:41 28.04.2022
1749 Clear 18 1025 49 10000 4.02 15 14:47 28.04.2022
1750 Clear 16 1025 59 10000 4.12 290 13:20 28.04.2022
1751 Clear 15 1025 61 10000 3.09 260 12:28 28.04.2022
1752 Clear 12 1025 68 10000 3.13 170 10:51 28.04.2022
1753 Clear 12 1025 69 10000 1.54 270 10:26 28.04.2022
1754 Clear 10 1025 74 10000 1.79 61 09:41 28.04.2022
1755 Clear 6 1024 81 10000 1.2 43 07:38 28.04.2022
1756 Clear 5 1024 77 10000 0.45 81 06:37 28.04.2022
1757 Clear 6 1023 75 10000 0.85 69 05:39 28.04.2022
1758 Clear 6 1023 73 10000 0.88 75 04:41 28.04.2022
1759 Clear 8 1023 79 10000 2.68 56 00:51 28.04.2022
1760 Clear 9 1022 75 10000 2.24 56 22:52 27.04.2022
1761 Clear 10 1022 69 10000 2.24 47 21:58 27.04.2022
1762 Clear 11 1022 57 10000 3.13 55 21:29 27.04.2022
1763 Clear 14 1020 54 10000 1.03 0 20:44 27.04.2022
1764 Clear 15 1020 53 10000 4.92 59 19:40 27.04.2022
1765 Clear 15 1020 48 10000 5.36 22 19:19 27.04.2022
1766 Clear 16 1020 46 10000 5.81 21 18:38 27.04.2022
1767 Clouds 17 1020 46 10000 5.36 340 17:26 27.04.2022
1768 Clouds 17 1020 48 10000 4.02 26 15:56 27.04.2022
1769 Clouds 14 1021 61 10000 3.6 300 12:34 27.04.2022
1770 Clouds 12 1021 67 10000 3.13 41 11:23 27.04.2022
1771 Clear 10 1021 73 10000 4.02 29 10:22 27.04.2022
1772 Fog 4 1020 87 9000 1.34 70 07:29 27.04.2022
1773 Clear 4 1020 81 10000 1.79 69 06:30 27.04.2022
1774 Clear 6 1020 80 10000 1.11 122 02:21 27.04.2022
1775 Mist 6 1019 91 3300 0.51 0 00:57 27.04.2022
1776 Clouds 7 1019 84 10000 0.51 0 00:27 27.04.2022
1777 Clouds 7 1018 93 10000 1.54 130 23:23 26.04.2022
1778 Clouds 8 1018 93 10000 0.51 0 22:43 26.04.2022
1779 Clouds 9 1018 87 10000 0.51 0 21:57 26.04.2022
1780 Clouds 10 1017 81 10000 1.54 0 20:56 26.04.2022
1781 Clouds 10 1017 81 10000 1.54 0 20:35 26.04.2022
1782 Clouds 12 1016 62 10000 2.06 110 19:34 26.04.2022
1783 Clouds 13 1017 59 10000 3.09 140 18:51 26.04.2022
1784 Clouds 14 1017 57 10000 3.09 130 18:18 26.04.2022
1785 Clouds 14 1017 57 10000 3.09 130 18:18 26.04.2022
1786 Clouds 13 1017 55 10000 2.57 120 17:33 26.04.2022
1787 Clouds 12 1018 74 10000 6.69 150 14:46 26.04.2022
1788 Clouds 11 1018 78 10000 5.36 105 13:34 26.04.2022
1789 Clouds 9 1018 82 10000 4.63 160 12:25 26.04.2022
1790 Rain 7 1017 92 10000 2.24 138 10:46 26.04.2022
1791 Rain 7 1016 92 5000 2.57 290 09:41 26.04.2022
1792 Rain 8 1014 92 6000 3.58 326 07:59 26.04.2022
1793 Clouds 8 1013 93 6000 1.54 100 04:33 26.04.2022
1794 Clouds 8 1014 92 10000 1.03 120 02:20 26.04.2022
1795 Clouds 8 1014 88 8000 2.06 100 00:26 26.04.2022
1796 Clouds 9 1014 85 10000 1.54 80 22:50 25.04.2022
1797 Clouds 9 1014 89 6000 0.51 0 21:44 25.04.2022
1798 Clouds 10 1013 89 10000 1.34 227 20:45 25.04.2022
1799 Clouds 10 1013 89 10000 1.34 227 20:45 25.04.2022
1800 Clouds 10 1013 87 10000 1.03 80 19:39 25.04.2022
1801 Clouds 11 1013 85 10000 1.54 0 18:25 25.04.2022
1802 Rain 10 1013 88 10000 1.54 100 17:32 25.04.2022
1803 Rain 10 1013 88 6000 2.06 100 15:38 25.04.2022
1804 Rain 10 1013 88 10000 2.06 100 15:18 25.04.2022
1805 Rain 10 1013 90 6000 3.09 130 13:43 25.04.2022
1806 Rain 10 1011 91 8000 3.09 130 11:53 25.04.2022
1807 Rain 9 1011 91 10000 2.06 130 10:27 25.04.2022
1808 Rain 9 1010 90 9000 1.03 0 09:20 25.04.2022
1809 Clouds 9 1009 89 10000 0.51 0 06:49 25.04.2022
1810 Clouds 9 1009 89 10000 1.54 0 05:32 25.04.2022
1811 Rain 9 1009 87 7000 2.24 252 01:24 25.04.2022
1812 Rain 9 1008 83 10000 4.02 266 23:53 24.04.2022
1813 Clouds 9 1008 83 10000 3.13 245 22:52 24.04.2022
1814 Clouds 9 1008 83 10000 3.13 239 22:31 24.04.2022
1815 Clouds 9 1007 84 10000 3.58 256 21:42 24.04.2022
1816 Rain 9 1007 83 10000 3.13 219 21:18 24.04.2022
1817 Clouds 9 1007 87 9000 3.13 213 20:37 24.04.2022
1818 Clouds 10 1006 85 10000 2.24 195 19:50 24.04.2022
1819 Rain 9 1006 82 8000 4.92 240 18:28 24.04.2022
1820 Rain 10 1006 74 10000 4.47 250 17:37 24.04.2022
1821 Rain 11 1005 73 10000 4.63 270 17:19 24.04.2022
1822 Rain 11 1005 68 10000 5.36 263 16:48 24.04.2022
1823 Rain 11 1004 69 10000 6.26 265 16:20 24.04.2022
1824 Clouds 11 1004 68 10000 5.66 260 15:31 24.04.2022
1825 Clouds 11 1004 68 10000 5.66 260 15:31 24.04.2022
1826 Clouds 12 1004 69 10000 6.71 254 14:19 24.04.2022
1827 Clouds 11 1004 71 10000 5.36 256 13:26 24.04.2022
1828 Clouds 10 1003 76 10000 5.36 221 12:35 24.04.2022
1829 Clouds 9 1003 79 10000 5.36 249 11:34 24.04.2022
1830 Clouds 8 1003 84 10000 1.54 130 10:30 24.04.2022
1831 Clouds 7 1003 83 10000 1.03 0 09:29 24.04.2022
1832 Clouds 6 1000 88 10000 1.54 310 06:46 24.04.2022
1833 Clouds 6 1001 85 10000 1.03 0 04:43 24.04.2022
1834 Rain 8 1000 77 5000 9.77 260 01:39 24.04.2022
1835 Clouds 10 999 71 10000 7.15 265 00:30 24.04.2022
1836 Clouds 10 997 74 9000 1.54 0 23:45 23.04.2022
1837 Clouds 10 996 73 10000 1.54 0 23:22 23.04.2022
1838 Clouds 11 996 70 10000 3.58 51 21:53 23.04.2022
1839 Clouds 12 997 67 10000 3.13 63 21:34 23.04.2022
1840 Clouds 12 997 67 10000 5.36 63 20:57 23.04.2022
1841 Clouds 13 997 64 10000 4.02 53 19:48 23.04.2022
1842 Clouds 14 998 63 10000 4.47 62 19:19 23.04.2022
1843 Clouds 14 998 64 10000 4.12 30 18:52 23.04.2022
1844 Clouds 14 999 62 10000 3.58 56 17:51 23.04.2022
1845 Clouds 14 1000 61 10000 4.47 55 17:30 23.04.2022
1846 Clouds 15 999 61 10000 4.92 5 16:42 23.04.2022
1847 Clouds 15 1000 59 10000 5.36 32 15:28 23.04.2022
1848 Clouds 13 1002 71 10000 2.68 65 12:44 23.04.2022
1849 Rain 10 1002 81 9000 2.57 320 10:44 23.04.2022
1850 Clouds 10 1002 76 10000 2.57 300 09:38 23.04.2022
1851 Clouds 8 1001 80 8000 1.79 168 06:41 23.04.2022
1852 Clouds 8 1001 78 10000 1.03 0 03:54 23.04.2022
1853 Clouds 8 1002 74 10000 0.51 0 01:20 23.04.2022
1854 Clouds 10 1002 68 10000 1.03 0 23:30 22.04.2022
1855 Clouds 11 1002 62 10000 0.51 0 22:20 22.04.2022
1856 Clouds 12 1002 59 10000 1.54 0 21:43 22.04.2022
1857 Clouds 13 1002 50 10000 0.89 279 20:47 22.04.2022
1858 Clouds 14 1002 47 10000 0.45 321 20:27 22.04.2022
1859 Clouds 17 1001 42 10000 3.09 300 19:20 22.04.2022
1860 Clouds 17 1001 40 10000 3.13 331 18:41 22.04.2022
1861 Clear 18 1000 45 10000 2.24 26 17:40 22.04.2022
1862 Clear 18 1000 39 10000 2.57 260 16:46 22.04.2022
1863 Clear 17 1000 40 10000 2.57 320 15:32 22.04.2022
1864 Clear 16 1001 43 10000 2.06 300 14:46 22.04.2022
1865 Clear 15 1001 48 10000 2.57 300 13:49 22.04.2022
1866 Clear 14 1001 50 10000 3.09 260 12:57 22.04.2022
1867 Clear 12 1001 53 10000 2.24 105 11:48 22.04.2022
1868 Clear 12 1001 54 10000 2.57 290 11:21 22.04.2022
1869 Clear 11 1001 55 10000 2.57 280 10:48 22.04.2022
1870 Clear 11 1001 58 10000 2.57 280 10:29 22.04.2022
1871 Clear 9 1001 63 10000 1.03 0 09:50 22.04.2022
1872 Clear 7 1001 68 10000 1.03 0 08:50 22.04.2022
1873 Clouds 5 1002 64 10000 1.06 66 06:56 22.04.2022
1874 Clouds 7 1003 57 10000 2.68 70 02:45 22.04.2022
1875 Clouds 10 1003 90 10000 1.83 64 00:51 22.04.2022
1876 Clouds 9 1003 52 10000 0.51 0 22:59 21.04.2022
1877 Clouds 10 1004 49 10000 1.03 0 22:27 21.04.2022
1878 Clear 14 1003 38 10000 3.09 40 20:36 21.04.2022
1879 Clear 14 1003 44 10000 2.57 360 20:18 21.04.2022
1880 Clear 17 1004 36 10000 3.6 30 18:35 21.04.2022
1881 Clear 17 1004 33 10000 4.12 30 17:54 21.04.2022
1882 Clear 17 1004 33 10000 5.14 40 16:30 21.04.2022
1883 Clear 17 1005 33 10000 2.57 20 15:21 21.04.2022
1884 Clear 17 1005 34 10000 3.09 340 14:38 21.04.2022
1885 Clear 15 1006 39 10000 3.09 300 13:23 21.04.2022
1886 Clear 14 1007 41 10000 4.12 300 12:42 21.04.2022
1887 Clear 11 1008 44 10000 2.06 320 10:47 21.04.2022
1888 Clear 7 1008 61 10000 0.89 75 08:55 21.04.2022
1889 Clouds 4 1009 62 10000 0.69 53 07:24 21.04.2022
1890 Clouds 5 1009 55 10000 0.52 83 04:58 21.04.2022
1891 Clouds 6 1010 52 10000 0.99 70 03:28 21.04.2022
1892 Clouds 6 1010 67 10000 0.89 67 02:47 21.04.2022
1893 Clouds 6 1010 67 10000 0.89 67 02:47 21.04.2022
1894 Clouds 9 1011 57 10000 1.34 76 00:43 21.04.2022
1895 Clouds 8 1009 76 10000 0.51 0 23:50 20.04.2022
1896 Clouds 9 1009 71 10000 0.51 0 23:22 20.04.2022
1897 Clouds 8 1009 76 10000 0.51 0 22:46 20.04.2022
1898 Clouds 9 1010 64 10000 1.79 67 22:26 20.04.2022
1899 Clear 12 1010 53 10000 2.24 51 21:27 20.04.2022
1900 Clear 14 1008 52 10000 3.6 30 20:23 20.04.2022
1901 Clear 14 1009 45 10000 3.13 63 19:52 20.04.2022
1902 Clear 16 1009 38 10000 2.57 20 19:20 20.04.2022
1903 Clear 17 1009 40 10000 4.92 40 17:56 20.04.2022
1904 Clear 18 1009 34 10000 4.47 13 16:48 20.04.2022
1905 Clear 18 1009 34 10000 4.47 0 16:30 20.04.2022
1906 Clear 16 1009 40 10000 4.92 0 13:51 20.04.2022
1907 Clear 13 1010 44 10000 4.12 310 11:47 20.04.2022
1908 Clear 12 1010 48 10000 3.58 49 10:56 20.04.2022
1909 Clear 10 1010 56 10000 3.13 39 09:58 20.04.2022
1910 Clouds 9 1011 54 10000 3.58 49 09:24 20.04.2022
1911 Clouds 7 1011 61 10000 2.68 63 08:22 20.04.2022
1912 Clouds 7 1011 61 10000 2.68 63 08:22 20.04.2022
1913 Clouds 6 1011 62 10000 1.79 79 07:32 20.04.2022
1914 Clouds 7 1011 49 10000 1.34 61 03:34 20.04.2022
1915 Clouds 9 1012 52 10000 1.33 82 00:22 20.04.2022
1916 Clouds 10 1012 51 10000 1.33 82 23:41 19.04.2022
1917 Clouds 10 1011 51 10000 1.03 0 22:26 19.04.2022
1918 Clouds 11 1010 56 10000 1.03 0 21:56 19.04.2022
1919 Clear 13 1009 50 10000 1.54 0 21:23 19.04.2022
1920 Clouds 15 1009 36 10000 1.54 330 20:45 19.04.2022
1921 Clouds 16 1009 36 10000 3.09 340 19:56 19.04.2022
1922 Clear 19 1008 26 10000 2.57 320 18:49 19.04.2022
1923 Clear 18 1010 27 10000 2.06 10 17:40 19.04.2022
1924 Clear 19 1010 26 10000 2.06 260 16:43 19.04.2022
1925 Clear 19 1010 23 10000 2.06 270 16:23 19.04.2022
1926 Clear 19 1011 28 10000 2.57 0 14:50 19.04.2022
1927 Clear 17 1012 29 10000 2.24 290 13:54 19.04.2022
1928 Clear 16 1012 32 10000 1.54 230 12:50 19.04.2022
1929 Clear 15 1013 35 10000 1.03 0 12:20 19.04.2022
1930 Clear 13 1013 47 10000 1.54 0 10:46 19.04.2022
1931 Clear 9 1014 60 10000 0.51 0 09:19 19.04.2022
1932 Clouds 3 1014 75 10000 0.51 0 05:56 19.04.2022
1933 Clouds 5 1014 61 10000 1 132 03:26 19.04.2022
1934 Clear 6 1015 61 10000 0.51 0 00:55 19.04.2022
1935 Clear 8 1015 53 10000 1.12 124 23:30 18.04.2022
1936 Clear 9 1016 65 10000 1.03 0 21:30 18.04.2022
1937 Clear 10 1014 53 10000 1.54 0 20:55 18.04.2022
1938 Clear 14 1013 38 10000 1.03 0 20:32 18.04.2022
1939 Clear 14 1013 38 10000 1.03 0 20:32 18.04.2022
1940 Clear 16 1013 33 10000 2.57 60 19:51 18.04.2022
1941 Clear 17 1014 32 10000 2.57 70 18:57 18.04.2022
1942 Clear 17 1015 25 10000 2.57 300 17:57 18.04.2022
1943 Clear 17 1015 23 10000 2.57 300 17:34 18.04.2022
1944 Clear 17 1015 28 10000 3.09 300 16:55 18.04.2022
1945 Clear 17 1015 29 10000 2.57 320 16:31 18.04.2022
1946 Clear 16 1016 33 10000 1.79 306 14:51 18.04.2022
1947 Clear 14 1016 38 10000 2.06 0 13:36 18.04.2022
1948 Clear 12 1017 42 10000 2.57 290 12:30 18.04.2022
1949 Clear 11 1017 50 10000 1.54 0 11:34 18.04.2022
1950 Clear 8 1018 50 10000 1.03 0 10:31 18.04.2022
1951 Clear 6 1018 56 10000 1.79 90 09:31 18.04.2022
1952 Clear 3 1018 62 10000 0 0 07:54 18.04.2022
1953 Clear 3 1018 53 10000 0.8 87 05:41 18.04.2022
1954 Clouds 5 1018 75 10000 1.03 0 00:47 18.04.2022
1955 Clouds 6 1018 65 10000 0.51 0 22:41 17.04.2022
1956 Clouds 9 1018 50 10000 0.51 0 21:46 17.04.2022
1957 Clear 10 1019 44 10000 4.47 57 21:24 17.04.2022
1958 Clear 11 1019 38 10000 2.68 61 20:36 17.04.2022
1959 Clear 13 1018 35 10000 3.09 30 19:38 17.04.2022
1960 Clear 15 1019 31 10000 7.15 32 17:48 17.04.2022
1961 Clear 15 1020 29 10000 7.15 61 15:40 17.04.2022
1962 Clear 15 1021 32 10000 7.6 37 14:55 17.04.2022
1963 Clear 14 1022 35 10000 7.15 29 13:48 17.04.2022
1964 Clear 12 1022 37 10000 6.26 11 12:58 17.04.2022
1965 Clear 11 1022 40 10000 5.81 13 12:27 17.04.2022
1966 Clear 9 1023 50 10000 5.81 24 10:46 17.04.2022
1967 Clear 8 1023 52 10000 5.36 21 10:28 17.04.2022
1968 Clear 8 1023 53 10000 5.36 42 10:28 17.04.2022
1969 Clear 7 1023 57 10000 5.36 16 09:34 17.04.2022
1970 Clear 5 1024 61 10000 4.92 9 08:51 17.04.2022
1971 Clear 3 1023 67 10000 4.02 40 07:30 17.04.2022
1972 Clear 5 1024 67 10000 4.47 30 04:29 17.04.2022
1973 Clear 7 1025 59 10000 3.13 71 00:55 17.04.2022
1974 Clear 8 1025 67 10000 4.47 67 23:50 16.04.2022
1975 Clear 9 1025 60 10000 4.47 76 22:35 16.04.2022
1976 Clear 9 1025 63 10000 4.02 71 21:38 16.04.2022
1977 Clear 11 1025 49 10000 5.36 66 20:32 16.04.2022
1978 Clear 14 1024 46 10000 7.15 95 18:59 16.04.2022
1979 Clouds 15 1024 44 10000 6.71 71 17:46 16.04.2022
1980 Clouds 16 1024 44 10000 8.05 19 16:40 16.04.2022
1981 Clouds 15 1024 48 10000 7.15 34 15:45 16.04.2022
1982 Clouds 15 1025 50 10000 7.6 36 14:56 16.04.2022
1983 Clouds 15 1024 55 10000 8.49 46 13:58 16.04.2022
1984 Clouds 15 1024 53 10000 8.49 62 13:37 16.04.2022
1985 Clouds 14 1024 55 10000 7.15 28 12:26 16.04.2022
1986 Clear 13 1024 62 10000 4.47 45 10:50 16.04.2022
1987 Clear 12 1024 66 10000 4.92 28 09:56 16.04.2022
1988 Clear 11 1024 67 10000 4.92 39 08:57 16.04.2022
1989 Clouds 9 1024 67 10000 2.68 45 07:52 16.04.2022
1990 Clouds 9 1024 64 10000 3.58 49 06:58 16.04.2022
1991 Clouds 11 1024 62 10000 2.68 61 02:46 16.04.2022
1992 Clouds 12 1024 63 10000 4.47 55 00:30 16.04.2022
1993 Clouds 13 1024 62 10000 1.6 62 23:21 15.04.2022
1994 Clouds 13 1024 63 10000 1.79 46 22:32 15.04.2022
1995 Clouds 14 1022 71 10000 0.51 0 21:50 15.04.2022
1996 Clear 15 1023 62 10000 2.68 52 21:18 15.04.2022
1997 Clear 17 1023 53 10000 2.24 45 20:21 15.04.2022
1998 Clear 19 1022 48 10000 2.57 360 19:39 15.04.2022
1999 Clear 19 1022 49 10000 4.02 38 18:54 15.04.2022
2000 Clear 20 1023 39 10000 4.92 42 18:25 15.04.2022
2001 Clouds 20 1023 42 10000 4.92 10 17:34 15.04.2022
2002 Clouds 20 1023 41 10000 5.36 37 16:37 15.04.2022
2003 Clouds 20 1023 42 10000 5.14 330 16:18 15.04.2022
2004 Clouds 20 1023 45 10000 4.47 36 14:51 15.04.2022
2005 Clouds 19 1023 50 10000 3.13 96 13:40 15.04.2022
2006 Clouds 18 1024 57 10000 3.13 347 12:40 15.04.2022
2007 Clouds 17 1024 61 10000 3.13 28 11:56 15.04.2022
2008 Clear 17 1024 62 10000 3.58 15 11:30 15.04.2022
2009 Clear 15 1024 66 10000 2.24 50 10:40 15.04.2022
2010 Clear 14 1024 75 10000 2.24 59 09:44 15.04.2022
2011 Clear 13 1024 79 10000 1.03 160 09:19 15.04.2022
2012 Clouds 10 1023 76 10000 0.9 50 07:28 15.04.2022
2013 Clouds 10 1023 80 10000 1.54 0 06:28 15.04.2022
2014 Clouds 12 1023 76 9000 1.03 0 02:39 15.04.2022
2015 Clouds 13 1021 83 10000 1.03 0 23:31 14.04.2022
2016 Clouds 14 1022 80 10000 1.22 145 22:49 14.04.2022
2017 Clouds 14 1021 79 10000 0.51 0 22:29 14.04.2022
2018 Clouds 15 1021 77 10000 0.51 0 21:59 14.04.2022
2019 Clouds 19 1019 52 10000 2.06 330 20:37 14.04.2022
2020 Clouds 20 1018 49 10000 2.06 40 19:23 14.04.2022
2021 Clouds 21 1018 46 10000 2.06 350 18:19 14.04.2022
2022 Clouds 21 1018 48 10000 2.57 300 17:38 14.04.2022
2023 Clouds 21 1019 31 10000 3.09 300 16:36 14.04.2022
2024 Clouds 21 1020 41 10000 2.68 319 14:58 14.04.2022
2025 Clear 19 1020 42 10000 4.02 317 13:45 14.04.2022
2026 Clear 19 1020 48 10000 3.13 329 12:56 14.04.2022
2027 Clear 18 1020 47 10000 1.34 280 12:31 14.04.2022
2028 Clear 17 1021 50 10000 1.03 0 11:29 14.04.2022
2029 Clear 16 1021 52 10000 1.03 0 10:52 14.04.2022
2030 Clear 15 1020 56 10000 1.03 0 10:26 14.04.2022
2031 Clouds 12 1020 70 10000 3.6 90 08:54 14.04.2022
2032 Clouds 9 1020 76 10000 1.03 160 06:53 14.04.2022
2033 Clouds 10 1019 70 10000 1.03 0 03:32 14.04.2022
2034 Clouds 12 1019 64 10000 0.51 0 23:26 13.04.2022
2035 Clouds 14 1018 57 10000 0.51 0 22:20 13.04.2022
2036 Clouds 14 1018 62 10000 1.03 0 21:36 13.04.2022
2037 Clear 18 1017 52 10000 1.54 280 20:22 13.04.2022
2038 Clear 19 1016 34 10000 2.57 320 19:36 13.04.2022
2039 Clear 21 1016 37 10000 2.68 320 18:27 13.04.2022
2040 Clear 21 1016 35 10000 2.24 303 17:24 13.04.2022
2041 Clear 21 1016 33 10000 1.79 311 16:34 13.04.2022
2042 Clouds 21 1016 33 10000 1.79 130 15:40 13.04.2022
2043 Clear 21 1016 34 10000 2.24 325 14:51 13.04.2022
2044 Clear 20 1016 35 10000 3.09 280 14:26 13.04.2022
2045 Clear 19 1017 35 10000 3.09 310 13:28 13.04.2022
2046 Clear 18 1017 41 10000 3.13 305 12:27 13.04.2022
2047 Clouds 16 1017 53 10000 0.45 261 10:54 13.04.2022
2048 Clear 14 1017 65 10000 2.24 261 09:44 13.04.2022
2049 Clear 12 1016 75 10000 0 0 08:43 13.04.2022
2050 Clear 10 1016 74 10000 1.03 0 06:52 13.04.2022
2051 Clouds 11 1015 74 10000 2.06 90 06:26 13.04.2022
2052 Clouds 11 1016 70 10000 0.91 162 05:52 13.04.2022
2053 Clouds 13 1015 68 10000 0.51 0 00:23 13.04.2022
2054 Clouds 13 1015 66 10000 0.51 0 23:46 12.04.2022
2055 Clouds 14 1015 60 10000 0.51 0 22:19 12.04.2022
2056 Clear 15 1014 58 10000 0.89 260 21:29 12.04.2022
2057 Clear 16 1013 59 10000 2.06 300 20:41 12.04.2022
2058 Clear 19 1012 42 10000 2.06 320 19:50 12.04.2022
2059 Clear 19 1013 39 10000 2.57 330 19:31 12.04.2022
2060 Clear 20 1013 36 10000 2.68 332 18:31 12.04.2022
2061 Clear 21 1013 33 10000 2.06 340 17:28 12.04.2022
2062 Clear 21 1013 33 10000 2.06 340 17:28 12.04.2022
2063 Clear 21 1013 33 10000 2.57 310 16:23 12.04.2022
2064 Clear 20 1013 34 10000 2.57 280 15:33 12.04.2022
2065 Clear 19 1014 39 10000 1.54 0 14:29 12.04.2022
2066 Clear 18 1014 43 10000 1.79 255 13:37 12.04.2022
2067 Clear 17 1014 46 10000 1.54 0 12:52 12.04.2022
2068 Clear 16 1014 54 10000 0.51 0 11:47 12.04.2022
2069 Clear 12 1015 65 10000 1.03 0 10:47 12.04.2022
2070 Clear 8 1015 71 10000 0.51 0 09:21 12.04.2022
2071 Clear 5 1015 77 10000 0.51 0 07:56 12.04.2022
2072 Clouds 4 1015 79 10000 0.51 0 06:32 12.04.2022
2073 Clouds 4 1015 76 10000 0.51 0 05:34 12.04.2022
2074 Clouds 7 1015 73 10000 3.09 90 00:46 12.04.2022
2075 Clouds 9 1016 63 10000 0.45 82 22:47 11.04.2022
2076 Clouds 9 1016 64 10000 0.51 0 21:41 11.04.2022
2077 Clear 12 1014 60 10000 1.54 290 20:57 11.04.2022
2078 Clear 13 1013 59 10000 1.03 0 20:29 11.04.2022
2079 Clear 15 1013 41 10000 2.06 290 19:55 11.04.2022
2080 Clouds 15 1015 31 10000 1.79 318 19:18 11.04.2022
2081 Clouds 15 1015 30 10000 2.24 323 18:47 11.04.2022
2082 Clear 16 1015 32 10000 1.03 0 17:57 11.04.2022
2083 Clear 16 1015 36 10000 2.57 10 16:54 11.04.2022
2084 Clear 16 1016 38 10000 2.57 250 15:56 11.04.2022
2085 Clear 14 1017 44 10000 2.57 270 14:24 11.04.2022
2086 Clear 12 1017 49 10000 3.58 254 12:52 11.04.2022
2087 Clear 11 1017 52 10000 1.79 248 12:32 11.04.2022
2088 Clouds 9 1018 56 10000 1.03 0 11:31 11.04.2022
2089 Clear 7 1018 64 10000 1.79 85 10:28 11.04.2022
2090 Clear 5 1018 70 10000 2.06 110 09:20 11.04.2022
2091 Clouds 0 1018 80 10000 1.03 0 06:24 11.04.2022
2092 Clouds 2 1020 74 10000 2.57 70 01:53 11.04.2022
2093 Clouds 3 1019 69 10000 2.06 100 22:37 10.04.2022
2094 Clouds 4 1019 70 10000 1.54 110 21:55 10.04.2022
2095 Clouds 5 1019 61 10000 1.54 110 21:28 10.04.2022
2096 Clear 9 1018 49 10000 1.03 0 20:30 10.04.2022
2097 Clear 11 1018 43 10000 2.06 100 19:43 10.04.2022
2098 Clear 10 1019 40 10000 2.68 63 19:18 10.04.2022
2099 Clear 11 1019 37 10000 2.06 100 18:41 10.04.2022
2100 Clouds 12 1020 34 10000 2.24 55 17:52 10.04.2022
2101 Clouds 11 1020 34 10000 2.24 26 17:32 10.04.2022
2102 Clear 11 1021 38 10000 1.03 0 15:56 10.04.2022
2103 Clouds 10 1021 48 10000 2.24 96 14:51 10.04.2022
2104 Clouds 9 1021 52 10000 2.06 80 13:54 10.04.2022
2105 Clouds 8 1022 59 10000 3.13 69 12:33 10.04.2022
2106 Clouds 7 1022 69 10000 3.13 92 11:46 10.04.2022
2107 Clouds 6 1023 72 10000 2.68 65 11:28 10.04.2022
2108 Clouds 6 1022 77 10000 3.6 140 10:41 10.04.2022
2109 Clouds 4 1022 84 10000 4.92 95 09:49 10.04.2022
2110 Mist 3 1022 91 2000 2.57 70 08:55 10.04.2022
2111 Mist 2 1022 91 3300 2.57 90 08:20 10.04.2022
2112 Clouds 1 1021 85 10000 2.06 90 06:59 10.04.2022
2113 Clouds 1 1021 89 10000 1.54 50 04:42 10.04.2022
2114 Rain 2 1021 86 10000 2.24 70 02:19 10.04.2022
2115 Clouds 2 1019 78 10000 2.57 100 23:54 09.04.2022
2116 Clouds 2 1019 80 10000 2.57 90 23:25 09.04.2022
2117 Clouds 2 1019 81 10000 2.57 90 22:39 09.04.2022
2118 Clouds 3 1018 79 10000 4.12 120 21:28 09.04.2022
2119 Clouds 3 1017 80 10000 3.6 120 20:31 09.04.2022
2120 Clouds 4 1017 77 10000 2.68 144 19:59 09.04.2022
2121 Clouds 4 1017 75 10000 2.68 95 19:39 09.04.2022
2122 Clouds 5 1016 73 10000 4.63 150 18:24 09.04.2022
2123 Drizzle 5 1016 72 10000 5.14 150 17:50 09.04.2022
2124 Clouds 6 1016 71 10000 5.14 130 16:59 09.04.2022
2125 Clouds 6 1015 71 10000 5.14 130 16:40 09.04.2022
2126 Clouds 7 1015 72 10000 3.6 100 15:51 09.04.2022
2127 Clouds 7 1015 72 10000 3.09 130 15:26 09.04.2022
2128 Clouds 5 1015 77 10000 2.68 105 14:26 09.04.2022
2129 Mist 5 1014 82 4600 2.06 260 13:34 09.04.2022
2130 Clouds 5 1014 77 10000 3.6 230 12:57 09.04.2022
2131 Clouds 5 1014 73 10000 2.24 260 11:51 09.04.2022
2132 Clouds 4 1014 78 10000 1.54 280 10:52 09.04.2022
2133 Clouds 3 1014 82 10000 2.24 242 10:18 09.04.2022
2134 Clouds 3 1014 82 10000 2.06 330 09:23 09.04.2022
2135 Clouds 3 1013 80 9000 2.57 300 08:26 09.04.2022
2136 Clouds 6 1006 84 10000 6.17 280 04:38 09.04.2022
2137 Clouds 12 1000 60 10000 4.63 230 00:35 09.04.2022
2138 Drizzle 12 1000 57 10000 7.6 227 23:24 08.04.2022
2139 Clouds 12 1001 62 10000 8.05 199 21:53 08.04.2022
2140 Clouds 12 1000 66 10000 6.71 260 20:44 08.04.2022
2141 Clouds 11 1002 72 10000 5.81 250 19:50 08.04.2022
2142 Clouds 11 1002 78 10000 6.71 225 18:56 08.04.2022
2143 Clouds 11 1002 79 10000 2.24 265 18:22 08.04.2022
2144 Clouds 11 1003 73 10000 5.81 211 17:29 08.04.2022
2145 Clouds 11 1003 72 10000 7.6 219 16:58 08.04.2022
2146 Clouds 11 1003 75 10000 6.71 240 16:31 08.04.2022
2147 Clouds 11 1003 70 10000 7.15 219 15:37 08.04.2022
2148 Clouds 13 1003 65 10000 9.83 260 14:52 08.04.2022
2149 Clouds 12 1004 65 10000 9.83 260 14:20 08.04.2022
2150 Clouds 12 1004 72 10000 7.6 255 13:31 08.04.2022
2151 Clouds 12 1004 72 10000 10.28 270 12:55 08.04.2022
2152 Rain 11 1005 76 10000 8.23 180 11:41 08.04.2022
2153 Rain 10 1005 81 10000 6.71 229 10:20 08.04.2022
2154 Rain 9 1005 85 10000 3.09 100 09:20 08.04.2022
2155 Rain 8 1007 83 10000 3.58 228 07:44 08.04.2022
2156 Rain 9 1007 80 10000 4.63 150 06:45 08.04.2022
2157 Clouds 10 1008 79 10000 6.71 213 03:35 08.04.2022
2158 Clouds 10 1007 77 9990 9.39 235 00:31 08.04.2022
2159 Rain 10 1007 76 10000 8.94 245 23:52 07.04.2022
2160 Clouds 10 1006 75 10000 7.6 224 22:55 07.04.2022
2161 Rain 10 1006 74 10000 8.49 270 22:36 07.04.2022
2162 Rain 10 1005 74 10000 8.05 221 22:18 07.04.2022
2163 Clouds 10 1005 73 10000 7.15 270 21:30 07.04.2022
2164 Clouds 10 1004 73 10000 7.6 250 20:55 07.04.2022
2165 Clouds 10 1004 74 10000 8.05 219 20:21 07.04.2022
2166 Rain 9 1004 75 9000 6.26 248 17:43 07.04.2022
2167 Rain 9 1004 76 9000 7.15 275 17:23 07.04.2022
2168 Drizzle 10 1004 73 10000 8.05 258 16:35 07.04.2022
2169 Clouds 10 1005 74 7205 9.39 270 15:56 07.04.2022
2170 Rain 10 1004 72 10000 7.6 260 13:59 07.04.2022
2171 Rain 10 1004 71 10000 7.6 260 13:26 07.04.2022
2172 Rain 11 1005 68 10000 7.6 270 12:28 07.04.2022
2173 Rain 10 1005 65 10000 6.71 245 10:56 07.04.2022
2174 Clouds 10 1006 65 10000 7.15 270 09:34 07.04.2022
2175 Clouds 9 1006 64 10000 4.02 255 08:27 07.04.2022
2176 Clouds 9 1007 71 10000 4.92 226 06:18 07.04.2022
2177 Clouds 9 1008 79 10000 5.36 253 02:38 07.04.2022
2178 Rain 10 1008 69 10000 4.92 264 00:47 07.04.2022
2179 Clouds 10 1008 61 10000 3.13 214 23:39 06.04.2022
2180 Clouds 11 1007 66 10000 2.57 260 22:45 06.04.2022
2181 Clouds 11 1007 66 10000 3.09 280 22:21 06.04.2022
2182 Clouds 11 1006 66 10000 3.09 260 20:54 06.04.2022
2183 Clouds 12 1007 63 10000 4.47 244 20:26 06.04.2022
2184 Clouds 12 1006 66 10000 2.57 220 19:48 06.04.2022
2185 Clouds 13 1006 55 10000 4.12 290 18:48 06.04.2022
2186 Clouds 14 1008 53 10000 3.58 296 17:38 06.04.2022
2187 Clouds 14 1006 50 10000 4.47 292 17:20 06.04.2022
2188 Clouds 15 1007 51 10000 4.92 309 16:34 06.04.2022
2189 Clouds 15 1008 44 10000 4.02 275 15:45 06.04.2022
2190 Clouds 15 1008 49 10000 2.68 250 13:57 06.04.2022
2191 Clouds 14 1009 61 10000 1.54 190 12:37 06.04.2022
2192 Clouds 12 1010 66 10000 1.79 266 11:48 06.04.2022
2193 Clouds 11 1010 69 10000 2.06 120 10:42 06.04.2022
2194 Clouds 10 1010 72 10000 1.79 274 10:18 06.04.2022
2195 Clouds 9 1011 78 10000 2.06 90 09:26 06.04.2022
2196 Clouds 7 1011 87 10000 1.03 0 08:26 06.04.2022
2197 Clouds 6 1012 84 10000 1.12 175 07:37 06.04.2022
2198 Clouds 6 1013 85 10000 1.54 170 02:19 06.04.2022
2199 Clouds 7 1013 79 10000 3.09 110 23:50 05.04.2022
2200 Clouds 8 1013 79 10000 1.54 0 22:28 05.04.2022
2201 Clouds 10 1013 68 10000 2.06 110 21:18 05.04.2022
2202 Clouds 11 1012 66 10000 0 0 20:25 05.04.2022
2203 Clouds 13 1012 50 10000 1.54 0 18:56 05.04.2022
2204 Clouds 12 1013 52 10000 4.12 300 17:31 05.04.2022
2205 Clouds 13 1013 50 10000 2.57 280 16:47 05.04.2022
2206 Clouds 12 1014 51 10000 3.13 286 15:52 05.04.2022
2207 Clouds 12 1015 49 10000 1.79 281 15:33 05.04.2022
2208 Clouds 12 1015 49 10000 1.79 281 15:33 05.04.2022
2209 Clouds 11 1015 49 10000 2.06 100 14:22 05.04.2022
2210 Clouds 10 1016 54 10000 1.03 0 12:56 05.04.2022
2211 Clouds 8 1016 62 10000 3.58 270 11:50 05.04.2022
2212 Clouds 7 1016 64 10000 1.54 0 11:32 05.04.2022
2213 Rain 5 1016 69 10000 2.57 110 09:49 05.04.2022
2214 Clouds 4 1016 72 10000 2.06 90 08:52 05.04.2022
2215 Clouds 3 1015 93 9000 2.57 110 06:43 05.04.2022
2216 Clouds 3 1016 87 8000 1.03 0 00:39 05.04.2022
2217 Clouds 2 1017 87 10000 1.03 0 22:41 04.04.2022
2218 Clouds 3 1016 81 10000 3.6 110 21:57 04.04.2022
2219 Clouds 3 1016 81 10000 0.51 0 21:21 04.04.2022
2220 Clouds 4 1015 70 10000 1.03 0 20:49 04.04.2022
2221 Clear 7 1016 49 10000 2.57 210 19:44 04.04.2022
2222 Clear 7 1016 55 10000 3.13 211 19:25 04.04.2022
2223 Clear 8 1017 47 10000 5.14 220 17:55 04.04.2022
2224 Clear 7 1017 50 10000 4.92 265 16:36 04.04.2022
2225 Clear 7 1017 50 10000 4.92 265 16:36 04.04.2022
2226 Clear 6 1018 54 10000 5.14 280 15:43 04.04.2022
2227 Clear 6 1018 54 10000 5.36 280 15:25 04.04.2022
2228 Clouds 6 1018 57 10000 4.47 285 14:45 04.04.2022
2229 Clouds 5 1019 61 10000 2.24 235 13:22 04.04.2022
2230 Clouds 3 1020 67 10000 1.54 180 11:55 04.04.2022
2231 Clouds 2 1020 70 10000 2.24 270 11:28 04.04.2022
2232 Clouds -1 1020 82 10000 0.51 0 08:36 04.04.2022
2233 Clouds -2 1019 86 10000 1.03 70 03:52 04.04.2022
2234 Clouds 0 1019 80 10000 1.03 0 00:41 04.04.2022
2235 Clouds 1 1019 75 10000 1.54 330 22:36 03.04.2022
2236 Clouds 1 1019 75 10000 1.03 0 21:45 03.04.2022
2237 Clouds 1 1019 75 10000 1.03 0 20:54 03.04.2022
2238 Clouds 1 1019 71 10000 3.58 54 19:49 03.04.2022
2239 Clouds 2 1019 67 10000 4.47 37 18:32 03.04.2022
2240 Clouds 3 1018 66 10000 3.09 360 17:47 03.04.2022
2241 Clouds 3 1018 65 10000 2.68 90 16:57 03.04.2022
2242 Clouds 3 1018 67 10000 4.47 39 16:39 03.04.2022
2243 Clouds 3 1018 66 10000 5.81 13 14:48 03.04.2022
2244 Clouds 3 1018 62 10000 4.12 40 13:53 03.04.2022
2245 Rain 2 1018 69 10000 4.47 57 12:42 03.04.2022
2246 Clouds 1 1018 79 10000 4.92 46 10:58 03.04.2022
2247 Clouds -1 1017 82 10000 4.02 46 09:38 03.04.2022
2248 Clouds -2 1017 82 10000 4.92 28 08:33 03.04.2022
2249 Clouds -1 1015 74 10000 1.54 30 05:38 03.04.2022
2250 Clouds -1 1015 80 10000 2.57 330 01:54 03.04.2022
2251 Clouds -1 1015 84 10000 4.92 32 23:21 02.04.2022
2252 Snow 0 1014 85 10000 3.58 46 22:18 02.04.2022
2253 Clouds 0 1014 83 10000 1.03 0 21:47 02.04.2022
2254 Clouds 0 1013 88 10000 2.68 55 21:18 02.04.2022
2255 Snow 0 1013 86 6000 1.79 55 19:54 02.04.2022
2256 Snow 1 1012 83 8000 3.13 75 18:23 02.04.2022
2257 Snow 1 1011 84 8000 1.54 260 17:53 02.04.2022
2258 Snow 2 1010 81 9000 4.47 28 16:29 02.04.2022
2259 Clouds 2 1009 79 8000 3.6 330 15:22 02.04.2022
2260 Snow 2 1009 80 10000 5.81 40 14:51 02.04.2022
2261 Clouds 2 1008 83 6000 3.6 320 13:51 02.04.2022
2262 Clouds 2 1008 82 1500 2.57 310 13:19 02.04.2022
2263 Snow 1 1007 87 3500 2.68 38 11:33 02.04.2022
2264 Mist 0 1006 90 1500 1.34 34 09:30 02.04.2022
2265 Snow -1 1004 91 2500 2.06 280 06:51 02.04.2022
2266 Clouds -1 1003 88 10000 1.54 270 03:55 02.04.2022
2267 Clouds -1 1003 91 2400 0.51 290 00:19 02.04.2022
2268 Snow -1 1003 91 1700 0.51 210 23:40 01.04.2022
2269 Snow 0 1003 91 1000 1.03 90 21:52 01.04.2022
2270 Snow 0 1003 91 1200 1.03 90 20:52 01.04.2022
2271 Drizzle 0 1003 90 1200 1.03 90 20:30 01.04.2022
2272 Snow 0 1003 90 1500 1.34 225 19:37 01.04.2022
2273 Snow 0 1002 89 2600 1.54 300 18:51 01.04.2022
2274 Snow 0 1002 88 2700 2.06 280 17:59 01.04.2022
2275 Snow 0 1002 89 3000 1.54 280 17:34 01.04.2022
2276 Snow 0 1002 89 1000 3.09 270 15:42 01.04.2022
2277 Snow 1 1002 91 1600 3.09 280 14:26 01.04.2022
2278 Snow 1 1001 89 1500 3.58 267 13:35 01.04.2022
2279 Snow 1 1000 90 1000 3.58 267 12:33 01.04.2022
2280 Snow 1 1000 89 1000 3.58 267 12:33 01.04.2022
2281 Snow 1 1000 89 2000 5.66 320 11:44 01.04.2022
2282 Snow 1 999 90 1600 2.57 310 10:19 01.04.2022
2283 Snow 1 998 89 2300 2.68 11 09:29 01.04.2022
2284 Rain 3 997 86 8000 3.6 330 06:55 01.04.2022
2285 Drizzle 4 997 88 10000 1.03 0 04:53 01.04.2022
2286 Drizzle 4 997 88 8000 1.03 260 04:34 01.04.2022
2287 Rain 5 998 87 8000 1.54 100 01:58 01.04.2022
2288 Rain 5 998 86 10000 1.03 0 00:44 01.04.2022
2289 Rain 6 998 84 10000 2.06 250 21:54 31.03.2022
2290 Drizzle 6 998 85 10000 2.06 240 21:32 31.03.2022
2291 Rain 6 997 84 10000 2.24 233 20:30 31.03.2022
2292 Drizzle 7 997 83 10000 2.68 182 19:50 31.03.2022
2293 Clouds 7 996 84 10000 2.24 232 18:51 31.03.2022
2294 Clouds 7 996 80 5000 4.63 290 17:50 31.03.2022
2295 Clouds 9 995 77 10000 2.68 240 16:39 31.03.2022
2296 Clouds 9 995 77 10000 2.24 234 15:48 31.03.2022
2297 Rain 8 995 80 8000 5.14 270 15:20 31.03.2022
2298 Rain 9 996 77 9000 4.47 260 14:40 31.03.2022
2299 Clouds 9 996 81 10000 2.24 210 12:30 31.03.2022
2300 Clouds 9 996 81 10000 2.24 210 12:30 31.03.2022
2301 Clouds 8 996 84 9000 2.24 207 11:26 31.03.2022
2302 Rain 7 996 85 6000 0.89 214 09:47 31.03.2022
2303 Drizzle 7 996 84 8000 0.51 0 08:23 31.03.2022
2304 Clouds 7 997 84 6000 1.54 140 05:42 31.03.2022
2305 Clouds 8 1000 79 10000 2.06 110 00:32 31.03.2022
2306 Clouds 8 1000 77 10000 1.54 100 22:45 30.03.2022
2307 Clouds 9 1000 75 10000 1.03 0 21:39 30.03.2022
2308 Clouds 10 1000 69 10000 4.02 285 20:54 30.03.2022
2309 Clouds 10 1000 69 10000 4.12 120 20:20 30.03.2022
2310 Clouds 11 1000 71 10000 3.6 150 19:35 30.03.2022
2311 Clouds 12 1000 58 10000 4.63 150 18:28 30.03.2022
2312 Clouds 13 1000 58 10000 3.6 160 17:47 30.03.2022
2313 Clouds 13 1001 56 10000 4.12 140 16:57 30.03.2022
2314 Clouds 13 1001 56 10000 3.6 130 16:38 30.03.2022
2315 Clouds 12 1003 60 10000 2.57 110 15:24 30.03.2022
2316 Clouds 11 1004 71 8000 3.13 280 13:44 30.03.2022
2317 Clouds 10 1004 74 10000 3.13 244 12:57 30.03.2022
2318 Rain 9 1005 73 8000 3.13 250 11:34 30.03.2022
2319 Rain 9 1005 74 8000 3.13 250 11:34 30.03.2022
2320 Drizzle 9 1005 72 7000 3.58 268 10:28 30.03.2022
2321 Drizzle 9 1005 68 8000 3.13 242 09:24 30.03.2022
2322 Clouds 10 1005 58 10000 3.13 197 07:33 30.03.2022
2323 Clouds 11 1005 68 10000 3.09 240 05:41 30.03.2022
2324 Clouds 12 1006 58 10000 3.58 260 03:59 30.03.2022
2325 Clouds 11 1007 54 10000 1.54 0 00:42 30.03.2022
2326 Clouds 13 1008 62 10000 1.79 222 22:28 29.03.2022
2327 Clouds 13 1008 63 10000 2.06 160 21:45 29.03.2022
2328 Clouds 14 1008 56 10000 1.54 0 20:53 29.03.2022
2329 Clouds 15 1008 54 10000 2.68 217 20:18 29.03.2022
2330 Clouds 16 1008 27 10000 5.14 270 18:55 29.03.2022
2331 Clouds 17 1009 42 10000 4.92 266 18:19 29.03.2022
2332 Clouds 17 1009 39 10000 5.14 260 17:22 29.03.2022
2333 Clouds 17 1009 40 10000 5.14 260 16:56 29.03.2022
2334 Clouds 18 1010 41 10000 7.6 270 15:57 29.03.2022
2335 Clouds 17 1011 45 10000 4.12 290 14:52 29.03.2022
2336 Clouds 17 1012 44 10000 4.02 279 13:56 29.03.2022
2337 Clear 15 1013 47 10000 2.24 225 12:51 29.03.2022
2338 Clear 14 1014 51 10000 1.34 83 11:43 29.03.2022
2339 Clear 11 1014 49 10000 1.03 0 10:30 29.03.2022
2340 Clear 9 1015 52 10000 0.51 0 09:33 29.03.2022
2341 Clouds 5 1015 60 10000 0.51 0 06:58 29.03.2022
2342 Clouds 6 1017 76 10000 0.45 146 03:54 29.03.2022
2343 Clouds 7 1018 71 10000 0.51 0 00:33 29.03.2022
2344 Clouds 9 1019 68 10000 1.54 0 23:22 28.03.2022
2345 Clouds 9 1019 68 10000 0.45 288 22:51 28.03.2022
2346 Clouds 10 1019 66 10000 0.89 288 22:23 28.03.2022
2347 Clear 10 1019 68 10000 1.54 180 20:54 28.03.2022
2348 Clear 13 1019 59 10000 0.89 288 20:20 28.03.2022
2349 Clear 16 1018 33 10000 1.03 0 19:41 28.03.2022
2350 Clear 17 1020 66 10000 1.79 285 18:55 28.03.2022
2351 Clear 19 1019 29 10000 1.03 0 18:36 28.03.2022
2352 Clear 19 1021 38 10000 2.24 275 17:38 28.03.2022
2353 Clear 19 1022 36 10000 3.58 240 16:19 28.03.2022
2354 Clear 18 1023 39 10000 3.6 350 14:27 28.03.2022
2355 Clear 17 1024 42 10000 2.68 235 13:47 28.03.2022
2356 Clear 14 1026 37 10000 0.89 46 11:58 28.03.2022
2357 Clear 12 1026 46 10000 1.79 323 10:50 28.03.2022
2358 Clear 9 1027 51 10000 0.51 0 09:41 28.03.2022
2359 Clear 7 1027 58 10000 0.51 0 09:19 28.03.2022
2360 Clear 3 1027 65 10000 0.51 0 08:22 28.03.2022
2361 Clear 3 1027 78 10000 0.51 0 07:27 28.03.2022
2362 Clear 4 1027 77 10000 0.51 0 03:27 28.03.2022
2363 Clear 8 1028 70 10000 0.45 155 23:24 27.03.2022
2364 Clear 9 1027 67 10000 1.34 127 22:23 27.03.2022
2365 Clear 9 1027 63 10000 1.54 80 21:41 27.03.2022
2366 Clear 10 1025 50 10000 1.03 0 20:54 27.03.2022
2367 Clear 15 1025 41 10000 1.03 0 19:46 27.03.2022
2368 Clear 19 1025 22 10000 1.54 0 18:54 27.03.2022
2369 Clear 18 1026 44 10000 2.06 280 18:26 27.03.2022
2370 Clear 18 1026 45 10000 2.06 10 17:38 27.03.2022
2371 Clear 18 1026 38 10000 1.79 110 15:59 27.03.2022
2372 Clear 18 1026 38 10000 1.79 110 15:59 27.03.2022
2373 Clear 17 1027 43 10000 2.06 270 14:26 27.03.2022
2374 Clear 17 1027 31 10000 1.54 0 13:54 27.03.2022
2375 Clear 17 1027 31 10000 1.54 0 13:54 27.03.2022
2376 Clear 13 1028 40 10000 1.54 0 11:52 27.03.2022
2377 Clear 9 1028 49 10000 0.51 0 10:28 27.03.2022
2378 Clear 3 1028 61 10000 0.45 71 08:21 27.03.2022
2379 Clear 4 1027 75 10000 1.26 158 05:44 27.03.2022
2380 Clear 7 1026 78 10000 0.45 51 00:47 27.03.2022
2381 Clear 8 1026 89 10000 1.57 109 23:30 26.03.2022
2382 Clear 10 1027 54 10000 1.79 69 22:29 26.03.2022
2383 Clear 6 1025 70 10000 1.03 0 21:32 26.03.2022
2384 Clear 11 1024 52 10000 1.03 0 20:20 26.03.2022
2385 Clear 15 1023 33 10000 1.54 180 18:59 26.03.2022
2386 Clear 17 1023 35 10000 3.09 360 17:46 26.03.2022
2387 Clear 17 1024 49 10000 4.92 73 17:28 26.03.2022
2388 Clear 18 1024 43 10000 5.81 29 16:24 26.03.2022
2389 Clear 18 1025 46 10000 4.12 310 14:50 26.03.2022
2390 Clear 17 1025 48 10000 4.12 280 13:52 26.03.2022
2391 Clear 16 1026 39 10000 3.09 240 12:41 26.03.2022
2392 Clear 13 1026 55 10000 2.06 240 11:28 26.03.2022
2393 Clear 8 1026 53 10000 2.24 34 09:23 26.03.2022
2394 Clear 6 1026 60 10000 0.89 104 08:28 26.03.2022
2395 Clear 4 1025 71 10000 1.02 102 05:54 26.03.2022
2396 Clear 5 1025 68 10000 1.34 105 03:58 26.03.2022
2397 Clear 8 1025 68 10000 1.34 88 23:21 25.03.2022
2398 Clouds 10 1024 72 10000 1.59 78 21:28 25.03.2022
2399 Clouds 10 1026 58 10000 1.59 78 20:45 25.03.2022
2400 Clear 13 1023 42 10000 1.03 0 19:28 25.03.2022
2401 Clear 16 1023 27 10000 2.57 30 18:46 25.03.2022
2402 Clear 16 1023 27 10000 2.57 30 18:46 25.03.2022
2403 Clear 16 1023 57 10000 3.6 40 17:35 25.03.2022
2404 Clear 16 1023 57 10000 3.6 40 17:35 25.03.2022
2405 Clear 18 1024 46 10000 6.26 36 16:41 25.03.2022
2406 Clear 18 1024 42 10000 5.81 44 15:52 25.03.2022
2407 Clear 17 1025 43 10000 3.13 90 13:51 25.03.2022
2408 Clear 15 1026 53 10000 3.13 40 12:20 25.03.2022
2409 Clear 11 1027 56 10000 1.03 0 09:52 25.03.2022
2410 Clear 10 1027 59 10000 1.03 0 09:23 25.03.2022
2411 Clear 4 1026 70 7000 1.03 0 07:48 25.03.2022
2412 Clear 4 1026 56 10000 0.9 141 07:21 25.03.2022
2413 Clear 3 1026 75 9000 0.51 0 04:47 25.03.2022
2414 Clear 5 1026 81 10000 1.03 0 00:29 25.03.2022
2415 Clear 8 1026 64 10000 1.4 141 22:29 24.03.2022
2416 Clear 9 1026 62 10000 1.4 141 21:33 24.03.2022
2417 Clear 11 1025 49 10000 1.03 0 19:50 24.03.2022
2418 Clear 16 1024 27 10000 1.54 70 18:49 24.03.2022
2419 Clear 18 1024 24 10000 2.57 10 17:38 24.03.2022
2420 Clear 18 1025 46 10000 3.13 90 16:44 24.03.2022
2421 Clear 18 1026 43 10000 3.09 310 14:59 24.03.2022
2422 Clear 18 1026 42 10000 3.6 320 14:40 24.03.2022
2423 Clear 16 1027 45 10000 3.09 280 13:41 24.03.2022
2424 Clear 14 1028 49 10000 1.34 95 12:39 24.03.2022
2425 Clear 13 1028 53 10000 1.34 140 11:31 24.03.2022
2426 Clear 10 1029 54 10000 0.51 0 09:36 24.03.2022
2427 Clear 7 1029 61 10000 1.54 130 08:39 24.03.2022
2428 Clear 1 1028 73 10000 0 0 06:19 24.03.2022
2429 Clear 4 1028 79 10000 1.03 0 01:28 24.03.2022
2430 Clear 7 1029 73 10000 1.3 150 22:29 23.03.2022
2431 Clear 8 1029 69 10000 0.45 5 21:25 23.03.2022
2432 Clear 8 1029 67 10000 0.45 5 20:47 23.03.2022
2433 Clear 10 1027 49 10000 1.54 290 19:40 23.03.2022
2434 Clear 15 1028 52 10000 3.09 330 18:22 23.03.2022
2435 Clear 17 1026 27 10000 3.09 320 17:36 23.03.2022
2436 Clear 17 1028 42 10000 2.57 350 16:18 23.03.2022
2437 Clear 17 1028 42 10000 2.57 350 16:18 23.03.2022
2438 Clear 16 1028 44 10000 4.12 310 14:49 23.03.2022
2439 Clear 15 1029 46 10000 2.68 256 13:34 23.03.2022
2440 Clear 13 1031 52 10000 2.68 34 11:51 23.03.2022
2441 Clear 8 1031 63 9000 1.54 0 09:21 23.03.2022
2442 Clear 1 1031 71 7000 0.45 149 06:29 23.03.2022
2443 Clear 1 1030 72 8000 0.51 0 03:57 23.03.2022
2444 Clear 4 1030 78 10000 1.57 163 00:29 23.03.2022
2445 Clear 6 1030 73 10000 1.47 156 22:25 22.03.2022
2446 Clear 7 1030 71 10000 0.89 148 21:29 22.03.2022
2447 Clear 8 1049 69 10000 1.34 189 20:34 22.03.2022
2448 Clear 10 1029 62 10000 1.03 330 19:31 22.03.2022
2449 Clear 11 1028 49 10000 0.51 0 18:57 22.03.2022
2450 Clear 14 1028 61 10000 1.54 0 17:46 22.03.2022
2451 Clear 15 1029 47 10000 3.09 290 17:23 22.03.2022
2452 Clear 15 1029 45 10000 1.54 0 15:52 22.03.2022
2453 Clear 15 1029 45 10000 2.06 290 15:21 22.03.2022
2454 Clear 15 1030 46 10000 3.13 48 14:46 22.03.2022
2455 Clear 15 1030 48 10000 3.09 280 14:24 22.03.2022
2456 Clear 13 1031 54 10000 1.54 0 12:41 22.03.2022
2457 Clear 12 1031 46 10000 1.54 270 11:26 22.03.2022
2458 Clear 9 1032 50 10000 1.79 155 10:23 22.03.2022
2459 Clear 4 1032 71 10000 1 170 07:48 22.03.2022
2460 Clear 1 1031 75 9000 1.03 0 05:19 22.03.2022
2461 Clear 2 1031 73 10000 0.51 0 03:38 22.03.2022
2462 Clouds 4 1030 77 10000 0.51 0 23:41 21.03.2022
2463 Clouds 7 1030 73 10000 1.35 147 21:51 21.03.2022
2464 Clouds 7 1030 73 10000 1.35 147 21:51 21.03.2022
2465 Clear 8 1030 68 10000 1.03 0 20:45 21.03.2022
2466 Clear 9 1029 61 10000 1.03 0 20:26 21.03.2022
2467 Clear 9 1029 66 10000 0.51 0 19:53 21.03.2022
2468 Clear 10 1029 63 10000 1.03 0 19:23 21.03.2022
2469 Clear 13 1029 56 10000 3.13 40 17:45 21.03.2022
2470 Clear 14 1029 47 10000 4.02 40 17:18 21.03.2022
2471 Clear 15 1029 46 10000 4.02 36 16:37 21.03.2022
2472 Clear 16 1029 47 10000 3.13 100 15:46 21.03.2022
2473 Clear 15 1029 50 10000 3.13 288 14:51 21.03.2022
2474 Clear 14 1030 53 10000 3.58 67 13:43 21.03.2022
2475 Clear 13 1031 42 10000 2.57 300 12:33 21.03.2022
2476 Clear 12 1031 48 10000 2.24 286 11:44 21.03.2022
2477 Clear 10 1032 53 10000 1.54 0 10:20 21.03.2022
2478 Clear 4 1032 74 10000 0 0 08:29 21.03.2022
2479 Clear 2 1031 71 10000 1.21 153 06:36 21.03.2022
2480 Clear 3 1031 72 10000 0.51 90 02:40 21.03.2022
2481 Clear 5 1030 66 10000 1.03 0 23:40 20.03.2022
2482 Clear 6 1030 78 10000 0.45 221 22:43 20.03.2022
2483 Clear 6 1029 82 10000 1.46 151 21:50 20.03.2022
2484 Clear 6 1030 75 10000 1.03 70 21:20 20.03.2022
2485 Clear 6 1029 70 10000 1.03 0 20:43 20.03.2022
2486 Clear 7 1028 67 10000 1.03 0 19:57 20.03.2022
2487 Clouds 11 1028 56 10000 2.06 280 19:26 20.03.2022
2488 Clear 13 1029 64 10000 2.24 279 17:52 20.03.2022
2489 Clouds 14 1028 53 10000 4.12 310 17:30 20.03.2022
2490 Clear 14 1028 50 10000 3.13 329 16:52 20.03.2022
2491 Clear 15 1028 52 10000 2.57 270 15:27 20.03.2022
2492 Clear 14 1028 49 10000 3.13 347 13:49 20.03.2022
2493 Clear 12 1029 50 10000 2.06 260 12:29 20.03.2022
2494 Clear 10 1029 51 10000 1.03 0 10:55 20.03.2022
2495 Clouds 5 1029 67 10000 0.45 188 08:42 20.03.2022
2496 Clouds 1 1028 75 10000 1.46 172 06:55 20.03.2022
2497 Clouds 2 1027 71 10000 1.29 162 04:23 20.03.2022
2498 Clouds 2 1027 70 5000 0.89 180 01:29 20.03.2022
2499 Clouds 3 1026 63 10000 1.79 142 00:37 20.03.2022
2500 Clouds 4 1026 81 10000 0.89 61 22:56 19.03.2022
2501 Clouds 6 1026 73 8000 0.51 0 21:27 19.03.2022
2502 Clouds 7 1027 76 10000 1.79 65 20:28 19.03.2022
2503 Clouds 9 1027 67 8000 3.13 66 18:58 19.03.2022
2504 Clouds 11 1027 59 7000 3.6 40 18:23 19.03.2022
2505 Clouds 11 1027 60 8000 4.92 93 17:35 19.03.2022
2506 Clouds 12 1028 59 9000 7.15 95 15:43 19.03.2022
2507 Clear 12 1029 63 10000 4.92 69 14:34 19.03.2022
2508 Clear 11 1031 54 10000 5.36 90 12:59 19.03.2022
2509 Clear 10 1031 55 10000 4.47 19 12:39 19.03.2022
2510 Clear 9 1031 56 10000 3.58 32 11:51 19.03.2022
2511 Clouds 8 1032 57 9000 2.68 115 10:45 19.03.2022
2512 Clouds 4 1032 68 10000 1.34 61 06:29 19.03.2022
2513 Clouds 5 1032 62 10000 1.79 69 03:24 19.03.2022
2514 Clouds 6 1032 60 10000 2.68 55 01:41 19.03.2022
2515 Clouds 7 1032 60 10000 3.13 73 23:36 18.03.2022
2516 Clouds 8 1032 59 10000 5.36 53 22:27 18.03.2022
2517 Clouds 8 1032 58 10000 6.71 63 21:37 18.03.2022
2518 Clouds 9 1032 63 8000 5.81 49 19:51 18.03.2022
2519 Clouds 9 1031 64 8000 5.36 69 19:21 18.03.2022
2520 Clouds 9 1031 68 10000 5.81 69 17:43 18.03.2022
2521 Clouds 9 1031 68 7000 6.71 84 16:47 18.03.2022
2522 Clouds 9 1032 71 6000 6.71 69 14:51 18.03.2022
2523 Clouds 9 1032 72 6000 7.15 74 14:21 18.03.2022
2524 Clouds 8 1032 75 5000 8.05 76 12:26 18.03.2022
2525 Clouds 8 1032 77 6000 7.6 32 10:47 18.03.2022
2526 Clouds 7 1031 78 6000 7.15 51 09:28 18.03.2022
2527 Clouds 7 1031 79 6000 6.26 39 08:30 18.03.2022
2528 Clouds 7 1031 78 6000 7.15 61 06:34 18.03.2022
2529 Clouds 8 1030 76 7000 6.26 54 02:51 18.03.2022
2530 Clouds 10 1029 74 8000 6.26 62 00:22 18.03.2022
2531 Clouds 10 1029 74 8000 6.26 62 00:22 18.03.2022
2532 Clouds 10 1029 74 9000 6.26 16 23:22 17.03.2022
2533 Clouds 10 1029 73 9000 7.15 23 22:24 17.03.2022
2534 Clouds 11 1028 73 10000 7.6 32 21:48 17.03.2022
2535 Clouds 11 1028 74 10000 7.6 46 21:21 17.03.2022
2536 Clouds 11 1027 71 10000 6.26 24 20:42 17.03.2022
2537 Clouds 11 1027 70 10000 6.71 30 19:47 17.03.2022
2538 Clouds 12 1026 67 10000 6.71 38 18:57 17.03.2022
2539 Clouds 12 1026 66 10000 6.26 27 18:37 17.03.2022
2540 Clear 15 1025 58 10000 7.15 28 16:48 17.03.2022
2541 Clear 16 1024 53 10000 6.26 41 15:44 17.03.2022
2542 Clear 16 1024 55 10000 5.36 22 15:24 17.03.2022
2543 Clear 16 1025 55 10000 5.36 355 14:28 17.03.2022
2544 Clear 14 1025 66 10000 3.58 80 12:51 17.03.2022
2545 Clear 14 1025 70 10000 4.02 17 12:22 17.03.2022
2546 Clear 12 1025 75 10000 2.68 40 11:27 17.03.2022
2547 Clouds 10 1025 88 8000 2.06 120 09:57 17.03.2022
2548 Mist 7 1025 87 9000 0 0 08:34 17.03.2022
2549 Fog 6 1024 86 8000 1.54 290 07:33 17.03.2022
2550 Clouds 6 1024 86 10000 0.75 152 05:47 17.03.2022
2551 Mist 7 1022 86 3800 0.51 0 01:23 17.03.2022
2552 Clouds 8 1022 81 10000 0.99 172 23:45 16.03.2022
2553 Mist 9 1022 83 4500 0 0 22:45 16.03.2022
2554 Mist 9 1022 82 4700 0.51 0 22:21 16.03.2022
2555 Clouds 9 1022 77 10000 0.76 171 21:37 16.03.2022
2556 Clear 11 1021 77 10000 1.54 310 19:40 16.03.2022
2557 Clear 11 1021 75 10000 1.54 290 19:19 16.03.2022
2558 Clear 12 1021 71 10000 2.06 280 18:36 16.03.2022
2559 Clear 14 1021 67 10000 2.57 280 17:41 16.03.2022
2560 Clear 15 1020 67 10000 2.57 270 16:56 16.03.2022
2561 Clear 15 1020 65 10000 3.09 290 15:55 16.03.2022
2562 Clear 15 1021 68 10000 3.6 310 14:25 16.03.2022
2563 Clear 15 1022 58 10000 3.09 290 13:24 16.03.2022
2564 Clear 13 1023 63 10000 1.03 0 11:54 16.03.2022
2565 Clear 12 1023 68 10000 0.51 0 11:20 16.03.2022
2566 Clear 10 1024 75 10000 1.03 170 10:22 16.03.2022
2567 Clouds 7 1023 75 9000 1.03 100 08:51 16.03.2022
2568 Fog 5 1024 86 5000 0 0 04:45 16.03.2022
2569 Clouds 6 1025 86 8000 1.54 0 00:48 16.03.2022
2570 Fog 7 1025 86 1200 0.51 0 22:38 15.03.2022
2571 Clouds 8 1024 84 8000 0.89 76 21:52 15.03.2022
2572 Clouds 9 1024 81 9000 1.03 300 20:18 15.03.2022
2573 Clear 10 1023 79 10000 1.54 0 18:54 15.03.2022
2574 Clouds 12 1023 74 10000 1.79 213 16:55 15.03.2022
2575 Clouds 12 1023 75 10000 2.24 215 16:20 15.03.2022
2576 Clouds 12 1023 78 10000 3.6 300 14:57 15.03.2022
2577 Clouds 11 1023 79 10000 3.6 300 14:34 15.03.2022
2578 Clouds 11 1024 85 10000 3.09 330 13:28 15.03.2022
2579 Clouds 8 1025 94 9000 3.6 320 12:21 15.03.2022
2580 Clouds 8 1025 89 8000 3.6 310 11:28 15.03.2022
2581 Drizzle 7 1027 93 7000 1.03 60 09:39 15.03.2022
2582 Drizzle 6 1028 83 7000 2.57 110 08:32 15.03.2022
2583 Rain 6 1028 83 4000 2.57 130 07:50 15.03.2022
2584 Rain 6 1028 85 4800 1.54 120 06:51 15.03.2022
2585 Rain 7 1029 67 10000 1.03 60 02:38 15.03.2022
2586 Clouds 7 1028 64 10000 1.34 175 23:39 14.03.2022
2587 Clouds 7 1028 60 10000 0.89 173 23:21 14.03.2022
2588 Clouds 7 1028 63 10000 0.51 280 22:19 14.03.2022
2589 Clear 8 1028 60 10000 0.51 0 21:22 14.03.2022
2590 Clear 9 1028 73 10000 1.03 0 20:35 14.03.2022
2591 Clear 9 1027 69 10000 1.03 0 19:59 14.03.2022
2592 Clear 11 1026 72 10000 1.03 0 18:31 14.03.2022
2593 Clear 13 1026 44 10000 3.58 13 17:44 14.03.2022
2594 Clear 14 1027 53 10000 3.58 14 16:57 14.03.2022
2595 Clear 14 1027 54 10000 2.68 51 15:34 14.03.2022
2596 Clear 13 1028 42 10000 2.24 81 14:33 14.03.2022
2597 Clear 10 1028 56 10000 2.06 260 11:53 14.03.2022
2598 Clear 8 1029 67 10000 2.24 85 10:35 14.03.2022
2599 Clear 7 1028 72 10000 1.54 0 09:39 14.03.2022
2600 Clear 6 1028 75 10000 1.54 160 09:20 14.03.2022
2601 Clear 5 1028 82 10000 0.89 146 08:49 14.03.2022
2602 Clouds 2 1027 81 10000 1.03 40 07:21 14.03.2022
2603 Rain 5 1025 76 10000 3.6 330 04:27 14.03.2022
2604 Rain 6 1023 69 10000 8.05 275 01:52 14.03.2022
2605 Clouds 8 1021 63 10000 7.72 250 00:38 14.03.2022
2606 Clouds 11 1016 43 10000 1.03 0 21:56 13.03.2022
2607 Clouds 9 1017 79 10000 1.79 275 21:27 13.03.2022
2608 Rain 9 1015 59 10000 1.54 180 20:49 13.03.2022
2609 Rain 10 1016 76 10000 1.54 180 20:26 13.03.2022
2610 Rain 11 1014 50 10000 1.54 0 19:43 13.03.2022
2611 Rain 11 1015 70 10000 1.54 0 19:24 13.03.2022
2612 Clouds 11 1013 52 10000 2.06 310 18:49 13.03.2022
2613 Clouds 12 1015 58 10000 2.06 310 18:26 13.03.2022
2614 Clouds 14 1012 38 10000 2.57 280 17:39 13.03.2022
2615 Clouds 14 1014 57 10000 2.06 290 16:48 13.03.2022
2616 Clouds 14 1014 50 10000 2.06 290 16:27 13.03.2022
2617 Clouds 14 1014 50 10000 3.58 240 15:43 13.03.2022
2618 Clouds 14 1014 52 10000 3.6 270 14:49 13.03.2022
2619 Clouds 13 1015 53 10000 4.47 245 13:30 13.03.2022
2620 Clear 13 1015 52 10000 4.92 274 12:26 13.03.2022
2621 Clear 12 1015 51 10000 1.03 0 11:45 13.03.2022
2622 Clouds 11 1016 53 10000 2.57 120 10:51 13.03.2022
2623 Clouds 10 1016 59 10000 2.57 120 10:30 13.03.2022
2624 Clouds 8 1016 46 10000 5.36 125 09:43 13.03.2022
2625 Clouds 7 1016 52 10000 1.34 80 08:51 13.03.2022
2626 Clouds 6 1017 56 10000 1.34 80 08:31 13.03.2022
2627 Clouds 5 1017 56 10000 2.24 86 07:34 13.03.2022
2628 Clouds 3 1017 63 10000 1.16 135 05:39 13.03.2022
2629 Clouds 3 1017 71 10000 0.51 0 01:48 13.03.2022
2630 Clouds 4 1017 77 8000 1.79 166 23:28 12.03.2022
2631 Clouds 6 1017 74 10000 1.74 154 21:43 12.03.2022
2632 Clear 7 1016 70 10000 0.45 64 20:20 12.03.2022
2633 Clear 8 1016 73 10000 1.03 0 19:46 12.03.2022
2634 Clear 11 1015 40 10000 0 0 18:41 12.03.2022
2635 Clear 11 1016 60 10000 2.68 28 18:19 12.03.2022
2636 Clear 13 1017 50 10000 3.6 320 16:32 12.03.2022
2637 Clear 13 1017 51 10000 2.68 51 15:52 12.03.2022
2638 Clear 13 1017 58 10000 4.12 320 15:21 12.03.2022
2639 Clouds 13 1017 52 10000 2.68 20 13:54 12.03.2022
2640 Clouds 13 1017 52 10000 2.68 20 13:54 12.03.2022
2641 Clear 12 1019 54 10000 2.24 15 12:28 12.03.2022
2642 Clear 11 1019 53 10000 2.24 14 11:53 12.03.2022
2643 Clear 11 1019 55 10000 2.68 63 11:33 12.03.2022
2644 Clear 10 1020 44 10000 1.54 0 10:26 12.03.2022
2645 Clear 8 1020 55 10000 1.54 140 09:43 12.03.2022
2646 Clouds 5 1019 70 10000 0.51 0 07:58 12.03.2022
2647 Clouds 5 1019 65 10000 0.96 91 06:40 12.03.2022
2648 Clouds 5 1019 70 6000 0.51 0 00:31 12.03.2022
2649 Clouds 5 1018 68 7000 1.54 190 23:43 11.03.2022
2650 Clouds 6 1018 62 10000 0.89 164 22:32 11.03.2022
2651 Clouds 5 1017 71 8000 1.03 0 21:24 11.03.2022
2652 Clouds 5 1016 71 10000 0.89 150 20:46 11.03.2022
2653 Clouds 6 1016 70 10000 0.89 236 20:26 11.03.2022
2654 Clouds 7 1016 67 10000 0.51 0 19:33 11.03.2022
2655 Clouds 11 1016 51 9000 1.54 330 18:30 11.03.2022
2656 Clouds 12 1015 45 10000 3.09 300 17:24 11.03.2022
2657 Clear 14 1015 44 10000 2.68 335 15:59 11.03.2022
2658 Clear 13 1016 58 10000 3.09 250 15:32 11.03.2022
2659 Clear 12 1017 56 10000 2.68 24 13:42 11.03.2022
2660 Clear 11 1017 48 10000 3.13 5 12:39 11.03.2022
2661 Clear 10 1017 48 10000 3.58 33 12:19 11.03.2022
2662 Clouds 7 1018 58 10000 2.57 320 10:44 11.03.2022
2663 Clouds 5 1019 64 10000 1.03 0 09:35 11.03.2022
2664 Clouds 1 1019 77 9000 0.51 0 08:28 11.03.2022
2665 Clouds 1 1018 74 8000 0.51 0 07:48 11.03.2022
2666 Clouds 0 1019 68 8000 1.03 0 06:42 11.03.2022
2667 Clouds 0 1019 71 6000 1.03 0 04:37 11.03.2022
2668 Clouds 0 1020 73 8000 0.51 0 01:29 11.03.2022
2669 Clouds 3 1020 79 10000 0.89 128 22:32 10.03.2022
2670 Clouds 3 1020 77 10000 0.45 128 21:53 10.03.2022
2671 Clouds 4 1020 76 10000 0.89 126 21:25 10.03.2022
2672 Clouds 5 1020 74 10000 0.89 82 20:34 10.03.2022
2673 Clear 7 1020 70 10000 1.03 240 19:20 10.03.2022
2674 Clear 13 1019 38 10000 2.57 240 17:50 10.03.2022
2675 Clear 13 1020 35 10000 2.06 270 16:52 10.03.2022
2676 Clear 13 1021 34 10000 2.06 290 15:28 10.03.2022
2677 Clear 11 1022 52 8000 3.13 304 13:42 10.03.2022
2678 Clear 10 1022 44 10000 3.09 290 12:38 10.03.2022
2679 Clear 8 1024 50 10000 1.03 0 11:28 10.03.2022
2680 Clear 4 1024 69 8000 1.03 0 09:42 10.03.2022
2681 Clear -1 1024 73 5000 1.54 0 07:48 10.03.2022
2682 Mist -2 1024 84 4500 0.51 0 05:30 10.03.2022
2683 Clear 0 1024 82 4800 1.34 196 01:59 10.03.2022
2684 Clear 1 1023 77 6000 0.51 0 23:32 09.03.2022
2685 Clear 2 1023 76 10000 1.03 110 22:20 09.03.2022
2686 Clear 2 1023 74 10000 1.54 120 21:36 09.03.2022
2687 Clear 4 1024 69 10000 0.45 179 20:31 09.03.2022
2688 Clear 7 1022 61 10000 1.03 0 18:35 09.03.2022
2689 Clear 11 1022 41 10000 2.06 270 17:28 09.03.2022
2690 Clear 12 1022 41 10000 2.06 320 16:36 09.03.2022
2691 Clear 12 1022 39 10000 1.03 0 15:32 09.03.2022
2692 Clear 11 1022 42 10000 1.54 0 13:58 09.03.2022
2693 Clear 10 1023 47 10000 2.57 320 12:59 09.03.2022
2694 Clear 9 1023 49 10000 1.54 0 12:19 09.03.2022
2695 Clear 7 1023 50 10000 1.34 319 11:36 09.03.2022
2696 Clear 5 1024 60 10000 0.51 0 10:39 09.03.2022
2697 Clear 1 1023 77 8000 0 0 08:59 09.03.2022
2698 Clear -1 1023 82 6000 0.51 0 08:25 09.03.2022
2699 Mist -2 1023 76 3400 0 0 03:50 09.03.2022
2700 Clouds -1 1022 83 4900 0.51 0 00:52 09.03.2022
2701 Mist -1 1021 82 5000 0.51 0 23:18 08.03.2022
2702 Clouds 0 1021 77 5000 0.51 0 22:44 08.03.2022
2703 Clouds 1 1021 80 7000 0.51 0 21:24 08.03.2022
2704 Clear 1 1020 71 10000 0.51 0 20:49 08.03.2022
2705 Clouds 2 1019 72 8000 1.03 80 19:53 08.03.2022
2706 Clear 5 1018 49 10000 2.06 300 18:44 08.03.2022
2707 Clear 8 1017 45 10000 3.6 310 17:40 08.03.2022
2708 Clear 8 1018 51 10000 2.06 290 16:29 08.03.2022
2709 Clear 8 1018 46 10000 1.54 270 14:20 08.03.2022
2710 Clear 5 1019 56 10000 2.06 240 12:44 08.03.2022
2711 Clear 3 1019 61 10000 2.57 300 11:45 08.03.2022
2712 Clear 2 1019 66 7000 1.54 0 10:55 08.03.2022
2713 Clear 1 1019 68 7000 1.34 267 10:19 08.03.2022
2714 Clear -5 1020 70 10000 0.66 51 07:33 08.03.2022
2715 Clear -4 1019 67 10000 0.74 58 05:43 08.03.2022
2716 Clear -2 1020 81 10000 2.24 58 23:52 07.03.2022
2717 Clear -1 1020 77 10000 1.34 59 21:59 07.03.2022
2718 Clear -1 1019 77 8000 1.34 73 21:32 07.03.2022
2719 Clear 0 1018 71 10000 1.79 65 20:49 07.03.2022
2720 Clear 1 1019 74 10000 1.34 78 20:20 07.03.2022
2721 Clear 2 1019 71 10000 3.13 57 19:33 07.03.2022
2722 Clear 3 1018 56 10000 2.68 73 18:44 07.03.2022
2723 Clear 4 1018 66 10000 3.58 19 17:50 07.03.2022
2724 Clear 5 1018 58 10000 4.02 21 16:55 07.03.2022
2725 Clear 6 1018 56 10000 4.02 35 15:50 07.03.2022
2726 Clear 5 1019 59 10000 3.6 300 13:52 07.03.2022
2727 Clear 3 1019 61 10000 3.13 38 12:28 07.03.2022
2728 Clear 1 1019 56 10000 3.13 33 10:38 07.03.2022
2729 Clear -2 1019 67 10000 2.24 24 08:57 07.03.2022
2730 Clear -3 1018 74 10000 1.79 96 04:51 07.03.2022
2731 Clear -1 1019 79 10000 2.68 51 00:23 07.03.2022
2732 Clear -1 1019 79 10000 2.24 71 23:35 06.03.2022
2733 Clear -1 1019 76 10000 3.13 26 22:42 06.03.2022
2734 Clear -1 1018 74 10000 2.68 55 21:58 06.03.2022
2735 Clear 0 1018 70 10000 1.79 50 20:49 06.03.2022
2736 Clear 1 1018 70 10000 2.24 57 20:22 06.03.2022
2737 Clear 3 1017 52 10000 4.92 56 18:56 06.03.2022
2738 Clear 3 1017 60 10000 4.92 59 18:23 06.03.2022
2739 Clear 5 1017 56 10000 5.81 39 17:21 06.03.2022
2740 Clear 6 1017 56 10000 4.92 32 16:41 06.03.2022
2741 Clear 6 1017 55 8000 4.47 53 15:52 06.03.2022
2742 Clear 6 1017 56 8000 4.12 50 14:49 06.03.2022
2743 Clear 6 1017 56 8000 4.12 50 14:49 06.03.2022
2744 Clear 6 1017 56 8000 4.12 50 14:31 06.03.2022
2745 Clouds 5 1018 60 8000 4.47 95 13:18 06.03.2022
2746 Clouds 4 1018 61 8000 3.58 33 12:35 06.03.2022
2747 Clear 2 1018 54 10000 3.58 18 10:59 06.03.2022
2748 Clear 0 1018 60 10000 3.58 59 10:22 06.03.2022
2749 Clear -3 1018 70 10000 1.79 76 08:29 06.03.2022
2750 Clear -3 1018 70 10000 1.79 76 08:29 06.03.2022
2751 Clear -3 1018 70 10000 1.79 76 08:29 06.03.2022
2752 Clear -3 1018 70 10000 1.79 76 08:29 06.03.2022
2753 Clear -3 1018 70 10000 1.79 76 08:29 06.03.2022
2754 Clear -4 1018 76 10000 1.34 62 07:34 06.03.2022
2755 Clear -3 1017 74 10000 0.89 76 05:32 06.03.2022
2756 Clear -1 1017 76 10000 1.79 62 00:49 06.03.2022
2757 Clear -1 1017 75 10000 1.79 69 00:29 06.03.2022
2758 Clear -1 1017 73 10000 1.79 54 23:21 05.03.2022
2759 Clear -1 1017 71 10000 1.34 75 22:47 05.03.2022
2760 Clear 0 1017 67 10000 0.89 65 21:46 05.03.2022
2761 Clear 0 1017 67 10000 0.89 55 21:21 05.03.2022
2762 Clear 2 1017 60 10000 2.24 74 19:26 05.03.2022
2763 Clear 3 1016 45 10000 2.24 69 18:53 05.03.2022
2764 Clear 5 1016 55 10000 4.47 15 17:53 05.03.2022
2765 Clear 7 1016 44 10000 3.58 31 16:32 05.03.2022
2766 Clear 8 1015 30 10000 3.09 330 15:31 05.03.2022
2767 Clear 7 1016 30 10000 4.12 300 14:45 05.03.2022
2768 Clear 7 1016 32 10000 4.12 300 14:26 05.03.2022
2769 Clear 6 1016 38 10000 3.6 290 13:21 05.03.2022
2770 Clear 4 1017 48 10000 2.57 280 11:48 05.03.2022
2771 Clear 3 1017 49 10000 1.79 339 11:18 05.03.2022
2772 Clear 1 1017 61 10000 1.34 47 09:59 05.03.2022
2773 Clear -1 1017 69 10000 0 0 08:59 05.03.2022
2774 Clear -3 1017 66 10000 1.04 64 07:38 05.03.2022
2775 Clear -3 1017 67 10000 1.05 78 05:43 05.03.2022
2776 Clear -1 1017 60 10000 2.24 86 02:27 05.03.2022
2777 Clear 0 1017 58 10000 1.34 81 23:37 04.03.2022
2778 Clear 1 1017 56 10000 0.89 96 22:42 04.03.2022
2779 Clear 2 1017 54 10000 0.89 97 21:48 04.03.2022
2780 Clear 1 1016 60 10000 1.03 30 20:54 04.03.2022
2781 Clear 2 1016 52 10000 2.24 55 20:24 04.03.2022
2782 Clear 4 1015 46 10000 1.54 0 19:36 04.03.2022
2783 Clear 6 1015 28 10000 3.6 40 18:44 04.03.2022
2784 Clear 8 1015 29 10000 5.36 57 17:32 04.03.2022
2785 Clear 9 1015 27 10000 4.47 5 16:46 04.03.2022
2786 Clear 10 1015 25 10000 4.47 355 15:29 04.03.2022
2787 Clear 10 1015 29 10000 4.47 42 14:29 04.03.2022
2788 Clear 9 1015 33 10000 4.92 24 13:26 04.03.2022
2789 Clear 7 1016 50 10000 4.02 32 11:41 04.03.2022
2790 Clear 5 1016 58 10000 2.68 27 10:50 04.03.2022
2791 Clear 3 1016 66 10000 2.24 77 09:42 04.03.2022
2792 Clear 1 1017 65 10000 2.14 48 08:36 04.03.2022
2793 Clear 0 1016 67 10000 1.39 55 07:34 04.03.2022
2794 Clear 1 1016 71 10000 0.89 68 03:53 04.03.2022
2795 Clear 2 1015 68 10000 1.34 69 00:24 04.03.2022
2796 Clear 4 1016 66 10000 0.89 68 22:26 03.03.2022
2797 Clear 4 1016 65 10000 0.89 68 21:41 03.03.2022
2798 Clear 5 1015 69 10000 0.51 0 21:21 03.03.2022
2799 Clear 6 1014 65 10000 0.51 0 19:52 03.03.2022
2800 Clear 8 1013 58 10000 2.06 20 18:54 03.03.2022
2801 Clear 10 1014 48 10000 1.79 30 18:23 03.03.2022
2802 Clear 12 1014 39 10000 3.58 22 17:30 03.03.2022
2803 Clear 13 1014 35 10000 2.24 42 16:24 03.03.2022
2804 Clear 13 1014 31 10000 2.06 280 15:23 03.03.2022
2805 Clear 13 1014 34 10000 2.57 330 14:43 03.03.2022
2806 Clear 12 1015 41 10000 1.54 0 13:24 03.03.2022
2807 Clear 10 1016 47 10000 1.34 328 12:22 03.03.2022
2808 Clear 7 1017 60 10000 2.06 140 10:47 03.03.2022
2809 Clear 5 1017 69 10000 1.03 0 09:38 03.03.2022
2810 Clear 1 1017 78 7000 1.03 0 07:50 03.03.2022
2811 Clouds 0 1017 79 7000 0.51 0 06:36 03.03.2022
2812 Clouds 3 1019 81 7000 0.51 0 02:42 03.03.2022
2813 Clouds 4 1020 76 10000 1.03 0 23:34 02.03.2022
2814 Clouds 5 1020 76 10000 1.54 100 22:52 02.03.2022
2815 Clouds 5 1020 74 9000 1.03 0 21:34 02.03.2022
2816 Clouds 5 1020 71 10000 1.54 0 20:53 02.03.2022
2817 Clouds 6 1020 69 10000 0.45 89 20:24 02.03.2022
2818 Clouds 6 1020 67 10000 0 0 19:36 02.03.2022
2819 Clouds 8 1020 60 10000 1.54 280 18:48 02.03.2022
2820 Clouds 8 1020 56 10000 1.54 320 18:19 02.03.2022
2821 Clouds 9 1019 51 10000 1.79 49 17:34 02.03.2022
2822 Clouds 10 1020 49 10000 1.79 36 16:51 02.03.2022
2823 Clouds 11 1020 43 10000 2.06 300 14:49 02.03.2022
2824 Clear 10 1021 43 10000 4.12 300 13:30 02.03.2022
2825 Clear 8 1021 47 10000 3.09 310 12:45 02.03.2022
2826 Clear 7 1022 49 10000 2.68 277 11:59 02.03.2022
2827 Clear 6 1022 53 10000 2.68 294 11:25 02.03.2022
2828 Clear 5 1022 61 10000 1.03 0 10:25 02.03.2022
2829 Clear 2 1023 69 10000 0.51 0 09:25 02.03.2022
2830 Clear -1 1023 71 10000 0 0 07:52 02.03.2022
2831 Clear -2 1023 74 10000 0 0 07:23 02.03.2022
2832 Clouds -2 1024 83 10000 0 0 03:46 02.03.2022
2833 Clouds 0 1025 83 10000 0.51 0 00:39 02.03.2022
2834 Clouds 1 1025 73 10000 0.51 0 22:50 01.03.2022
2835 Clouds 1 1025 72 10000 0.51 0 22:31 01.03.2022
2836 Clouds 2 1025 72 10000 1.03 0 21:25 01.03.2022
2837 Clear 2 1025 73 10000 1.54 100 20:37 01.03.2022
2838 Clear 3 1025 70 10000 1.03 0 20:18 01.03.2022
2839 Clear 5 1025 60 10000 1.54 270 18:52 01.03.2022
2840 Clear 6 1025 56 10000 1.54 280 18:21 01.03.2022
2841 Clear 9 1025 37 10000 2.06 260 17:37 01.03.2022
2842 Clear 9 1025 45 10000 1.54 280 16:35 01.03.2022
2843 Clear 10 1026 41 10000 2.06 290 15:47 01.03.2022
2844 Clear 9 1026 42 10000 1.79 250 14:41 01.03.2022
2845 Clear 9 1027 42 10000 1.79 279 14:23 01.03.2022
2846 Clear 8 1026 47 10000 2.57 280 13:26 01.03.2022
2847 Clear 7 1026 51 10000 1.54 340 12:35 01.03.2022
2848 Clear 4 1027 64 10000 1.03 0 10:52 01.03.2022
2849 Clear 1 1027 72 10000 0.89 144 09:27 01.03.2022
2850 Clear -2 1027 79 10000 0.51 120 08:19 01.03.2022
2851 Clear -3 1026 75 10000 1.03 0 06:47 01.03.2022
2852 Clear 0 1027 68 10000 1.34 85 02:57 01.03.2022
2853 Clear 1 1027 67 10000 2.24 68 00:47 01.03.2022
2854 Clear 0 1026 74 10000 2.68 78 23:36 28.02.2022
2855 Clear 1 1026 78 10000 1.54 120 22:30 28.02.2022
2856 Clear 1 1027 77 10000 1.54 0 21:43 28.02.2022
2857 Clear 2 1027 69 10000 0.51 0 20:34 28.02.2022
2858 Clear 3 1027 52 10000 1.03 0 19:51 28.02.2022
2859 Clear 6 1026 39 10000 1.03 0 18:50 28.02.2022
2860 Clear 9 1026 34 10000 2.57 50 17:37 28.02.2022
2861 Clear 8 1027 39 10000 4.92 21 17:18 28.02.2022
2862 Clear 9 1027 41 10000 3.09 360 15:59 28.02.2022
2863 Clear 9 1028 41 10000 4.12 270 14:32 28.02.2022
2864 Clear 8 1028 40 10000 2.24 14 13:52 28.02.2022
2865 Clear 7 1028 42 10000 1.34 61 13:19 28.02.2022
2866 Clear 5 1029 53 10000 1.79 15 11:59 28.02.2022
2867 Clear 4 1029 54 10000 1.03 0 11:19 28.02.2022
2868 Clear 3 1029 62 10000 1.03 0 10:22 28.02.2022
2869 Clear 1 1029 68 10000 0.89 116 09:44 28.02.2022
2870 Clear -1 1029 74 10000 0.51 0 08:54 28.02.2022
2871 Clear -3 1029 72 10000 0 0 07:59 28.02.2022
2872 Clear -3 1029 74 10000 0.68 111 06:31 28.02.2022
2873 Clear -2 1029 68 10000 0.89 121 04:31 28.02.2022
2874 Clouds -1 1028 64 10000 1.34 101 00:53 28.02.2022
2875 Clouds -1 1027 79 10000 2.24 53 22:53 27.02.2022
2876 Clouds 0 1027 61 10000 1.34 90 22:32 27.02.2022
2877 Clear 0 1027 78 10000 2.57 100 21:42 27.02.2022
2878 Clear 0 1027 79 10000 1.03 0 20:50 27.02.2022
2879 Clear 1 1027 76 10000 1.03 0 20:18 27.02.2022
2880 Clear 1 1026 74 10000 0.51 0 19:49 27.02.2022
2881 Clear 2 1026 73 10000 0.51 0 19:22 27.02.2022
2882 Clear 4 1025 41 10000 1.03 0 18:37 27.02.2022
2883 Clear 5 1026 61 10000 4.47 61 17:52 27.02.2022
2884 Clear 6 1025 54 10000 6.26 33 16:30 27.02.2022
2885 Clear 6 1025 55 10000 5.81 32 15:24 27.02.2022
2886 Clear 4 1027 65 10000 0.45 120 12:37 27.02.2022
2887 Clear 3 1027 57 10000 2.68 28 11:54 27.02.2022
2888 Clear 1 1028 63 10000 2.68 38 10:37 27.02.2022
2889 Clear 0 1027 67 10000 2.24 44 09:58 27.02.2022
2890 Clear -1 1027 71 10000 3.58 29 09:24 27.02.2022
2891 Clear -2 1027 71 10000 2.24 46 08:51 27.02.2022
2892 Clear -3 1027 70 10000 1.79 60 06:30 27.02.2022
2893 Clear -2 1026 70 10000 1.34 74 04:19 27.02.2022
2894 Clear -1 1027 68 10000 4.02 49 00:31 27.02.2022
2895 Clear 1 1027 60 10000 5.36 42 22:50 26.02.2022
2896 Clear 1 1027 73 10000 4.47 46 21:34 26.02.2022
2897 Clear 2 1027 69 10000 4.92 41 20:43 26.02.2022
2898 Clear 2 1028 69 10000 4.92 57 19:58 26.02.2022
2899 Clear 2 1028 69 10000 4.02 28 19:34 26.02.2022
2900 Clear 3 1028 68 10000 0.45 100 18:40 26.02.2022
2901 Clear 5 1028 66 10000 4.63 0 17:40 26.02.2022
2902 Clear 6 1028 59 10000 5.81 63 16:48 26.02.2022
2903 Clear 6 1028 60 10000 4.92 74 15:45 26.02.2022
2904 Clear 7 1028 59 10000 6.71 29 15:20 26.02.2022
2905 Clear 6 1028 60 10000 6.26 41 14:52 26.02.2022
2906 Clear 6 1029 61 10000 6.71 44 14:25 26.02.2022
2907 Clouds 6 1029 50 10000 5.81 38 13:18 26.02.2022
2908 Clear 5 1030 59 10000 6.26 44 11:54 26.02.2022
2909 Clouds 4 1030 62 10000 6.26 58 11:28 26.02.2022
2910 Clouds 3 1030 68 10000 4.92 65 10:39 26.02.2022
2911 Fog 1 1031 83 10000 1.34 67 08:48 26.02.2022
2912 Clouds -1 1030 86 7000 1.34 101 06:51 26.02.2022
2913 Clouds 2 1030 72 10000 2.06 100 00:50 26.02.2022
2914 Clouds 2 1029 67 10000 1.54 150 22:47 25.02.2022
2915 Clouds 3 1028 73 10000 0.51 0 21:40 25.02.2022
2916 Clouds 3 1028 72 10000 2.06 310 21:21 25.02.2022
2917 Clouds 3 1028 75 10000 1.54 280 20:32 25.02.2022
2918 Clouds 4 1027 61 10000 1.03 0 18:41 25.02.2022
2919 Clouds 6 1027 56 10000 5.66 310 17:23 25.02.2022
2920 Clouds 6 1027 53 10000 4.12 320 16:21 25.02.2022
2921 Clouds 7 1027 53 10000 5.81 323 15:43 25.02.2022
2922 Clouds 7 1027 52 10000 5.36 275 15:20 25.02.2022
2923 Clouds 6 1027 53 10000 5.14 300 14:42 25.02.2022
2924 Clouds 6 1027 53 10000 4.47 268 13:36 25.02.2022
2925 Clouds 6 1027 52 10000 4.47 263 12:55 25.02.2022
2926 Clouds 5 1027 49 10000 4.02 295 11:28 25.02.2022
2927 Clouds 4 1027 61 10000 4.47 240 10:29 25.02.2022
2928 Clear 4 1027 67 10000 2.68 225 09:57 25.02.2022
2929 Clear 3 1027 76 10000 1.54 0 09:18 25.02.2022
2930 Clouds 2 1026 79 10000 1.03 220 07:41 25.02.2022
2931 Clouds 2 1025 78 10000 2.06 110 05:48 25.02.2022
2932 Snow 3 1024 75 10000 4.63 250 03:34 25.02.2022
2933 Clouds 8 1020 61 10000 4.92 265 23:47 24.02.2022
2934 Clouds 9 1019 62 10000 2.68 225 21:56 24.02.2022
2935 Clouds 9 1020 62 10000 3.6 270 21:38 24.02.2022
2936 Clouds 9 1020 64 10000 1.34 280 21:19 24.02.2022
2937 Clouds 9 1019 62 10000 3.13 275 19:38 24.02.2022
2938 Clouds 9 1019 55 10000 2.06 240 18:43 24.02.2022
2939 Clouds 10 1019 56 10000 4.92 236 18:19 24.02.2022
2940 Clouds 10 1018 53 10000 5.81 260 17:33 24.02.2022
2941 Clouds 10 1018 54 10000 5.66 260 16:49 24.02.2022
2942 Clouds 11 1018 53 10000 8.05 234 16:23 24.02.2022
2943 Clouds 11 1019 57 10000 6.26 270 14:54 24.02.2022
2944 Clouds 10 1019 56 10000 7.15 240 14:35 24.02.2022
2945 Clouds 10 1019 61 10000 6.71 207 13:39 24.02.2022
2946 Clear 9 1019 65 10000 5.81 233 12:50 24.02.2022
2947 Clear 6 1020 80 10000 2.06 300 10:41 24.02.2022
2948 Clear 3 1020 80 10000 1.03 130 09:18 24.02.2022
2949 Clear 2 1020 82 10000 0.45 155 08:40 24.02.2022
2950 Clouds 1 1020 84 10000 1.03 0 05:53 24.02.2022
2951 Clouds 2 1023 83 10000 1.03 0 01:56 24.02.2022
2952 Clouds 3 1024 81 10000 0.51 0 23:31 23.02.2022
2953 Clouds 5 1024 74 10000 0.45 161 21:43 23.02.2022
2954 Clouds 5 1024 73 10000 0.45 94 20:31 23.02.2022
2955 Clear 6 1024 72 10000 0.51 0 19:48 23.02.2022
2956 Clear 8 1024 66 10000 0.51 0 18:32 23.02.2022
2957 Clear 8 1024 66 10000 0.51 0 18:32 23.02.2022
2958 Clear 8 1024 66 10000 0.51 0 18:32 23.02.2022
2959 Clouds 10 1024 53 10000 2.06 350 17:44 23.02.2022
2960 Clouds 12 1025 55 10000 3.09 320 15:19 23.02.2022
2961 Clouds 10 1027 61 10000 2.68 35 12:50 23.02.2022
2962 Clouds 10 1027 62 10000 3.58 35 12:24 23.02.2022
2963 Clouds 8 1028 71 10000 3.6 120 10:35 23.02.2022
2964 Clouds 6 1028 78 10000 1.01 115 08:59 23.02.2022
2965 Clouds 5 1028 81 10000 1.03 0 08:23 23.02.2022
2966 Clouds 5 1028 78 10000 3.6 110 06:53 23.02.2022
2967 Clouds 6 1027 73 10000 2.06 100 00:47 23.02.2022
2968 Clouds 6 1027 73 10000 1.54 100 23:39 22.02.2022
2969 Clouds 6 1027 71 10000 1.03 0 22:41 22.02.2022
2970 Clouds 7 1027 67 10000 1.79 275 21:50 22.02.2022
2971 Clouds 6 1027 67 10000 3.13 280 21:31 22.02.2022
2972 Clouds 7 1027 67 10000 4.12 270 20:59 22.02.2022
2973 Clouds 7 1027 67 10000 3.09 290 20:31 22.02.2022
2974 Clouds 7 1026 68 10000 4.47 260 19:47 22.02.2022
2975 Clouds 7 1026 65 10000 3.13 261 19:28 22.02.2022
2976 Clouds 8 1026 64 10000 3.13 237 18:23 22.02.2022
2977 Clouds 8 1026 59 10000 3.13 260 17:26 22.02.2022
2978 Clouds 9 1026 59 10000 4.92 275 16:41 22.02.2022
2979 Clouds 9 1025 57 10000 5.14 270 15:59 22.02.2022
2980 Clouds 9 1026 61 10000 4.12 280 14:48 22.02.2022
2981 Clouds 8 1027 70 10000 4.92 270 12:48 22.02.2022
2982 Clouds 6 1027 80 10000 4.47 242 10:53 22.02.2022
2983 Clouds 4 1027 87 10000 5.66 280 08:53 22.02.2022
2984 Rain 4 1025 88 10000 2.68 280 07:27 22.02.2022
2985 Clouds 3 1025 91 10000 1.79 244 06:52 22.02.2022
2986 Clouds 4 1022 88 10000 5.14 270 02:47 22.02.2022
2987 Drizzle 4 1020 87 7000 5.14 260 23:18 21.02.2022
2988 Clouds 4 1019 88 7000 5.66 250 21:56 21.02.2022
2989 Rain 4 1018 85 7000 6.69 240 20:37 21.02.2022
2990 Clouds 4 1016 82 10000 4.92 263 18:47 21.02.2022
2991 Rain 4 1015 80 5000 6.26 248 17:41 21.02.2022
2992 Rain 5 1015 77 10000 7.15 269 15:26 21.02.2022
2993 Clouds 5 1015 74 10000 6.26 250 14:22 21.02.2022
2994 Rain 6 1015 71 10000 7.72 240 13:30 21.02.2022
2995 Clouds 6 1015 65 10000 8.05 232 12:24 21.02.2022
2996 Clouds 5 1015 68 10000 7.15 255 11:20 21.02.2022
2997 Clouds 4 1016 77 10000 4.12 180 09:54 21.02.2022
2998 Clouds 8 1011 65 10000 9.83 260 05:35 21.02.2022
2999 Clouds 8 1017 60 10000 7.2 230 00:20 21.02.2022
3000 Clouds 8 1018 59 10000 6.26 219 22:28 20.02.2022
3001 Clouds 8 1019 62 10000 6.26 219 21:43 20.02.2022
3002 Clouds 8 1019 62 10000 5.36 189 21:19 20.02.2022
3003 Clouds 8 1019 61 10000 5.81 219 20:41 20.02.2022
3004 Clouds 8 1020 60 10000 5.81 271 19:42 20.02.2022
3005 Clouds 8 1020 59 10000 4.47 270 18:52 20.02.2022
3006 Clouds 8 1020 57 10000 2.68 270 18:34 20.02.2022
3007 Clouds 9 1020 54 10000 5.36 275 17:52 20.02.2022
3008 Clouds 10 1020 53 10000 5.81 275 15:54 20.02.2022
3009 Clouds 9 1022 52 10000 6.71 275 14:52 20.02.2022
3010 Clouds 9 1023 52 10000 7.15 284 13:33 20.02.2022
3011 Clouds 9 1023 52 10000 6.26 260 12:34 20.02.2022
3012 Clouds 7 1024 59 10000 4.92 263 10:47 20.02.2022
3013 Clouds 6 1024 59 10000 4.47 283 10:20 20.02.2022
3014 Clouds 5 1024 61 10000 3.58 238 08:51 20.02.2022
3015 Clouds 3 1023 54 10000 4.47 260 00:54 20.02.2022
3016 Clouds 3 1023 58 10000 4.02 244 00:30 20.02.2022
3017 Clear 2 1023 61 10000 2.24 205 23:18 19.02.2022
3018 Clear 3 1022 63 10000 4.12 250 22:22 19.02.2022
3019 Clear 3 1022 64 10000 4.47 232 21:34 19.02.2022
3020 Clear 4 1022 60 10000 3.09 240 19:53 19.02.2022
3021 Clouds 4 1021 57 10000 2.57 260 19:30 19.02.2022
3022 Clouds 5 1021 53 10000 2.24 256 18:33 19.02.2022
3023 Clear 7 1020 51 10000 3.6 300 17:37 19.02.2022
3024 Clouds 8 1020 48 10000 3.58 270 16:28 19.02.2022
3025 Clouds 8 1021 50 10000 4.12 290 15:18 19.02.2022
3026 Clouds 8 1021 51 10000 5.14 270 14:49 19.02.2022
3027 Clouds 7 1021 55 10000 4.92 270 13:45 19.02.2022
3028 Clouds 6 1022 63 10000 3.6 230 11:38 19.02.2022
3029 Clouds 6 1021 75 10000 3.58 240 09:57 19.02.2022
3030 Clouds 5 1020 80 10000 4.02 244 06:58 19.02.2022
3031 Clouds 5 1019 80 10000 4.12 230 03:54 19.02.2022
3032 Clouds 7 1016 74 10000 8.23 280 23:33 18.02.2022
3033 Rain 8 1015 77 9000 8.75 280 21:53 18.02.2022
3034 Rain 11 1013 76 10000 6.26 277 20:51 18.02.2022
3035 Rain 12 1012 74 10000 7.72 270 19:53 18.02.2022
3036 Clouds 14 1011 43 10000 3.58 265 18:50 18.02.2022
3037 Clouds 14 1011 50 10000 4.47 251 18:22 18.02.2022
3038 Clouds 14 1011 46 10000 5.36 202 17:51 18.02.2022
3039 Clear 14 1009 50 10000 9.83 270 14:54 18.02.2022
3040 Clear 13 1011 54 10000 6.71 251 13:55 18.02.2022
3041 Clouds 11 1012 60 10000 2.57 120 12:53 18.02.2022
3042 Clouds 11 1013 61 10000 3.13 257 12:33 18.02.2022
3043 Clouds 9 1014 67 10000 2.24 244 11:27 18.02.2022
3044 Clouds 8 1014 73 10000 2.06 100 10:23 18.02.2022
3045 Clouds 6 1016 74 10000 2.57 110 06:56 18.02.2022
3046 Clouds 6 1017 74 10000 3.09 110 05:39 18.02.2022
3047 Clouds 9 1020 69 10000 3.6 290 23:31 17.02.2022
3048 Clouds 9 1020 72 10000 4.92 246 21:45 17.02.2022
3049 Clouds 9 1020 70 10000 4.92 256 21:19 17.02.2022
3050 Clouds 9 1020 68 10000 4.63 270 20:37 17.02.2022
3051 Clouds 9 1020 67 10000 5.36 208 19:48 17.02.2022
3052 Clouds 10 1020 66 10000 5.14 280 18:41 17.02.2022
3053 Clouds 10 1019 65 10000 6.71 249 17:50 17.02.2022
3054 Clouds 11 1018 71 10000 6.26 239 16:25 17.02.2022
3055 Clouds 10 1018 81 10000 7.6 219 15:32 17.02.2022
3056 Clouds 11 1018 80 10000 6.17 300 14:26 17.02.2022
3057 Clouds 12 1017 72 10000 8.23 230 12:36 17.02.2022
3058 Clouds 11 1017 74 10000 6.71 260 11:23 17.02.2022
3059 Clouds 11 1016 75 10000 9.83 255 08:52 17.02.2022
3060 Clouds 10 1016 83 10000 7.15 255 01:45 17.02.2022
3061 Mist 7 1015 92 3100 3.13 233 23:19 16.02.2022
3062 Clouds 7 1015 92 5000 2.06 300 21:40 16.02.2022
3063 Clouds 7 1016 92 10000 2.24 265 19:47 16.02.2022
3064 Clouds 6 1015 90 10000 1.03 270 18:38 16.02.2022
3065 Drizzle 6 1015 91 10000 1.54 160 17:53 16.02.2022
3066 Clouds 6 1015 89 10000 1.79 142 15:39 16.02.2022
3067 Clouds 6 1015 88 10000 1.03 0 15:18 16.02.2022
3068 Drizzle 5 1016 89 10000 3.09 300 12:59 16.02.2022
3069 Rain 4 1015 88 10000 1.34 270 11:58 16.02.2022
3070 Rain 4 1015 89 10000 1.54 300 11:26 16.02.2022
3071 Snow 3 1016 89 10000 1.03 0 10:33 16.02.2022
3072 Snow 3 1016 84 10000 0.45 286 07:54 16.02.2022
3073 Rain 3 1016 80 10000 2.15 211 06:26 16.02.2022
3074 Clouds 1 1020 86 10000 2.57 110 23:45 15.02.2022
3075 Clouds 1 1020 83 10000 2.24 198 22:29 15.02.2022
3076 Clouds 2 1020 81 10000 2.24 180 21:47 15.02.2022
3077 Clouds 2 1020 83 10000 2.68 215 21:27 15.02.2022
3078 Clouds 2 1020 82 10000 3.13 200 20:56 15.02.2022
3079 Clouds 2 1020 82 10000 2.24 216 19:57 15.02.2022
3080 Clouds 3 1020 83 10000 1.54 170 18:56 15.02.2022
3081 Clouds 4 1020 81 10000 1.54 0 18:21 15.02.2022
3082 Clouds 4 1019 82 10000 2.24 205 17:50 15.02.2022
3083 Clouds 5 1019 81 10000 3.09 240 16:50 15.02.2022
3084 Clouds 5 1019 82 10000 3.09 230 15:28 15.02.2022
3085 Clouds 6 1018 75 10000 4.63 240 13:27 15.02.2022
3086 Clouds 6 1018 75 10000 3.58 245 12:37 15.02.2022
3087 Clouds 5 1018 81 10000 3.13 242 11:27 15.02.2022
3088 Clouds 4 1017 87 10000 4.63 260 09:31 15.02.2022
3089 Mist 3 1014 91 2400 2.68 231 06:58 15.02.2022
3090 Clouds 3 1013 91 1500 0.51 0 04:54 15.02.2022
3091 Mist 4 1012 88 5000 1.03 120 23:33 14.02.2022
3092 Drizzle 4 1012 88 10000 1.03 360 21:36 14.02.2022
3093 Drizzle 4 1012 87 10000 2.06 330 20:37 14.02.2022
3094 Rain 4 1011 85 10000 2.57 330 19:34 14.02.2022
3095 Rain 4 1011 85 10000 1.54 300 18:44 14.02.2022
3096 Rain 5 1011 84 9000 4.12 260 18:22 14.02.2022
3097 Rain 5 1011 79 10000 3.6 260 17:26 14.02.2022
3098 Rain 6 1010 75 9000 4.12 290 16:24 14.02.2022
3099 Clouds 7 1009 51 10000 2.68 267 14:29 14.02.2022
3100 Clouds 7 1009 52 10000 1.03 0 13:31 14.02.2022
3101 Clouds 6 1010 50 10000 1.03 120 12:48 14.02.2022
3102 Clouds 5 1010 58 10000 1.03 0 11:54 14.02.2022
3103 Clouds 4 1010 60 10000 1.03 180 10:56 14.02.2022
3104 Clouds 1 1011 74 10000 1.03 0 08:45 14.02.2022
3105 Clouds -1 1011 74 10000 0.51 0 07:32 14.02.2022
3106 Clear -1 1013 72 10000 0.89 135 02:27 14.02.2022
3107 Clear 1 1014 71 10000 3.09 110 22:42 13.02.2022
3108 Clear 1 1015 74 10000 2.57 100 22:24 13.02.2022
3109 Clear 1 1015 76 10000 3.09 110 21:32 13.02.2022
3110 Clear 2 1015 76 10000 2.06 110 20:36 13.02.2022
3111 Clear 2 1015 70 10000 1.79 130 19:45 13.02.2022
3112 Clear 4 1016 67 10000 0.51 0 18:49 13.02.2022
3113 Clear 5 1016 60 10000 0.51 0 18:28 13.02.2022
3114 Clear 9 1017 47 10000 1.03 0 15:54 13.02.2022
3115 Clear 9 1017 47 10000 0.89 255 15:24 13.02.2022
3116 Clear 8 1018 48 10000 2.24 265 14:31 13.02.2022
3117 Clear 7 1020 51 10000 1.54 150 12:51 13.02.2022
3118 Clear 5 1021 61 10000 0.51 0 11:44 13.02.2022
3119 Clear 3 1021 69 10000 1.03 0 10:34 13.02.2022
3120 Clear 1 1022 70 10000 0.89 235 09:46 13.02.2022
3121 Clear -2 1023 73 10000 0.45 235 07:49 13.02.2022
3122 Clouds -1 1026 74 10000 1.03 0 00:35 13.02.2022
3123 Clouds -1 1026 76 10000 0.51 0 23:42 12.02.2022
3124 Clouds -1 1026 78 10000 1.03 0 22:33 12.02.2022
3125 Clear 0 1025 72 10000 0.51 0 21:31 12.02.2022
3126 Clear 0 1026 71 10000 2.06 90 20:47 12.02.2022
3127 Clear 1 1026 69 10000 2.06 100 19:35 12.02.2022
3128 Clear 2 1026 67 10000 1.03 0 18:53 12.02.2022
3129 Clear 2 1026 67 10000 1.03 0 18:35 12.02.2022
3130 Clear 4 1026 59 10000 1.54 200 17:20 12.02.2022
3131 Clear 5 1026 55 10000 1.03 0 16:29 12.02.2022
3132 Clear 5 1027 53 10000 1.34 331 15:51 12.02.2022
3133 Clear 5 1027 54 10000 3.09 310 14:44 12.02.2022
3134 Clear 5 1027 55 10000 1.79 220 14:24 12.02.2022
3135 Clear 1 1029 69 10000 2.06 110 11:18 12.02.2022
3136 Clear -1 1029 82 10000 2.06 130 09:51 12.02.2022
3137 Clear -2 1029 79 10000 0.53 122 09:27 12.02.2022
3138 Clear -3 1028 79 10000 0.89 186 08:45 12.02.2022
3139 Clear -3 1028 80 10000 2.24 34 05:40 12.02.2022
3140 Clear -3 1029 81 8000 1.34 108 04:33 12.02.2022
3141 Clear -2 1030 79 10000 1.79 55 02:18 12.02.2022
3142 Clear 0 1032 77 10000 2.24 84 22:55 11.02.2022
3143 Clear 0 1032 77 10000 2.68 84 22:18 11.02.2022
3144 Clear 1 1032 78 10000 1.03 0 20:43 11.02.2022
3145 Clear 1 1032 73 10000 3.13 88 19:48 11.02.2022
3146 Clear 2 1032 69 10000 3.58 97 19:27 11.02.2022
3147 Clear 3 1032 64 10000 2.68 76 18:26 11.02.2022
3148 Clear 5 1031 58 10000 3.58 78 17:26 11.02.2022
3149 Clear 6 1030 56 10000 4.47 19 16:26 11.02.2022
3150 Clouds 6 1030 64 10000 3.13 114 14:44 11.02.2022
3151 Clouds 6 1030 64 10000 3.13 61 14:44 11.02.2022
3152 Clouds 6 1030 65 10000 3.13 117 14:23 11.02.2022
3153 Clouds 6 1031 71 10000 3.13 80 13:59 11.02.2022
3154 Clouds 6 1031 72 10000 4.02 91 13:39 11.02.2022
3155 Clouds 5 1031 78 10000 3.58 80 12:19 11.02.2022
3156 Clouds 4 1030 85 10000 0.51 0 10:24 11.02.2022
3157 Clouds 3 1028 85 10000 2.06 260 08:49 11.02.2022
3158 Clouds 3 1028 83 10000 4.63 300 08:27 11.02.2022
3159 Rain 4 1026 84 10000 2.68 279 07:22 11.02.2022
3160 Clouds 7 1023 79 10000 1.79 209 02:40 11.02.2022
3161 Clouds 7 1023 78 10000 3.09 270 02:19 11.02.2022
3162 Clouds 7 1023 74 10000 2.57 80 23:20 10.02.2022
3163 Clouds 8 1024 62 10000 1.03 0 21:53 10.02.2022
3164 Clouds 8 1024 76 10000 3.09 140 21:21 10.02.2022
3165 Drizzle 9 1024 57 10000 4.12 170 20:45 10.02.2022
3166 Clouds 8 1025 48 10000 1.03 0 19:26 10.02.2022
3167 Clouds 9 1024 57 10000 1.54 310 18:47 10.02.2022
3168 Clouds 10 1025 55 10000 5.66 280 17:27 10.02.2022
3169 Clouds 11 1025 50 10000 6.71 283 16:57 10.02.2022
3170 Clear 12 1025 44 10000 5.81 270 15:59 10.02.2022
3171 Clear 13 1025 42 10000 5.81 271 15:33 10.02.2022
3172 Clear 13 1025 43 10000 5.81 261 14:49 10.02.2022
3173 Clear 12 1025 46 10000 4.92 291 14:26 10.02.2022
3174 Clear 11 1025 51 10000 4.47 281 13:30 10.02.2022
3175 Clear 11 1026 50 10000 1.03 0 12:51 10.02.2022
3176 Clear 8 1026 61 10000 2.24 269 11:34 10.02.2022
3177 Clear 7 1026 62 10000 2.06 150 10:56 10.02.2022
3178 Clear 4 1027 63 10000 2.57 120 10:18 10.02.2022
3179 Clear 2 1027 70 10000 1.34 115 09:25 10.02.2022
3180 Clear 0 1026 73 10000 1.03 0 07:36 10.02.2022
3181 Clouds 0 1027 69 10000 1.54 0 05:51 10.02.2022
3182 Clouds 1 1027 77 10000 0.51 0 01:52 10.02.2022
3183 Clouds 1 1027 75 7000 0.51 0 00:50 10.02.2022
3184 Clouds 1 1027 70 10000 0 0 00:29 10.02.2022
3185 Clouds 1 1028 73 10000 0.51 0 23:24 09.02.2022
3186 Clouds 2 1028 73 10000 0.51 0 22:36 09.02.2022
3187 Clear 2 1028 73 10000 0.51 0 21:52 09.02.2022
3188 Clear 2 1028 72 10000 0.89 188 21:30 09.02.2022
3189 Clear 2 1028 70 10000 1.03 0 20:48 09.02.2022
3190 Clear 3 1028 69 10000 1.03 0 20:29 09.02.2022
3191 Clear 3 1028 69 10000 0.51 90 19:56 09.02.2022
3192 Clear 4 1028 68 10000 0.51 0 19:32 09.02.2022
3193 Clear 7 1027 56 10000 0.51 0 17:38 09.02.2022
3194 Clear 9 1028 51 10000 1.54 210 16:52 09.02.2022
3195 Clear 10 1028 48 10000 1.54 0 15:51 09.02.2022
3196 Clear 10 1029 48 10000 1.54 0 14:42 09.02.2022
3197 Clear 8 1030 55 10000 1.03 0 12:28 09.02.2022
3198 Clear 5 1031 68 10000 0 0 10:55 09.02.2022
3199 Clear 5 1031 68 10000 0 0 10:55 09.02.2022
3200 Clear 4 1031 67 10000 1.03 230 10:30 09.02.2022
3201 Clear 1 1031 70 10000 0.51 0 09:40 09.02.2022
3202 Clear 0 1031 71 10000 0.51 0 09:19 09.02.2022
3203 Clouds -1 1032 64 10000 1.29 184 07:55 09.02.2022
3204 Clouds -1 1032 78 10000 0.51 0 05:30 09.02.2022
3205 Clouds -1 1032 73 10000 0.51 0 03:50 09.02.2022
3206 Clouds -1 1032 77 10000 0.51 0 00:53 09.02.2022
3207 Clear 0 1032 75 10000 0.51 0 23:33 08.02.2022
3208 Clear 0 1033 70 10000 0.51 110 22:47 08.02.2022
3209 Clear 1 1033 69 10000 1.34 160 22:21 08.02.2022
3210 Clear 1 1032 66 10000 0.51 60 21:42 08.02.2022
3211 Clear 1 1033 67 10000 0 0 21:21 08.02.2022
3212 Clear 2 1032 65 10000 0.51 0 20:44 08.02.2022
3213 Clear 2 1032 64 10000 0.51 0 19:46 08.02.2022
3214 Clear 4 1032 60 10000 1.03 0 18:38 08.02.2022
3215 Clear 6 1031 60 10000 1.54 210 17:42 08.02.2022
3216 Clear 8 1032 48 10000 1.54 190 16:30 08.02.2022
3217 Clear 9 1032 45 10000 1.54 0 15:30 08.02.2022
3218 Clear 9 1032 43 10000 1.34 271 14:38 08.02.2022
3219 Clear 7 1033 49 10000 0.89 261 13:24 08.02.2022
3220 Clear 5 1034 60 10000 1.03 0 11:38 08.02.2022
3221 Clear 2 1035 66 10000 1.34 255 10:23 08.02.2022
3222 Clear 0 1035 78 10000 1.03 130 09:44 08.02.2022
3223 Clear -2 1035 76 10000 1.03 100 07:53 08.02.2022
3224 Clouds -2 1034 79 10000 0.51 150 05:41 08.02.2022
3225 Clouds -2 1034 79 10000 0.51 0 04:39 08.02.2022
3226 Clouds -2 1034 80 10000 0.51 0 04:21 08.02.2022
3227 Clouds -2 1034 80 10000 1.03 300 03:36 08.02.2022
3228 Clouds -2 1034 79 10000 2.06 80 03:18 08.02.2022
3229 Clouds -2 1033 74 10000 2.06 80 02:58 08.02.2022
3230 Clear -2 1033 78 10000 2.57 120 02:36 08.02.2022
3231 Clear -2 1033 78 10000 2.57 110 02:18 08.02.2022
3232 Clear -2 1033 77 10000 2.06 120 01:44 08.02.2022
3233 Clear -2 1033 77 10000 2.06 120 01:24 08.02.2022
3234 Clear -2 1033 84 10000 1.54 90 00:54 08.02.2022
3235 Clear -1 1033 76 10000 1.03 0 23:54 07.02.2022
3236 Clear -1 1032 77 10000 0.51 0 23:36 07.02.2022
3237 Clear -1 1032 77 10000 0.51 0 23:18 07.02.2022
3238 Clear -1 1032 75 10000 0.51 0 22:19 07.02.2022
3239 Clear 0 1032 75 10000 2.57 90 21:55 07.02.2022
3240 Clear -1 1032 74 10000 2.57 90 21:29 07.02.2022
3241 Clear 0 1031 74 10000 1.54 0 20:56 07.02.2022
3242 Clear 0 1031 73 10000 1.54 0 20:38 07.02.2022
3243 Clear 1 1031 69 10000 1.03 0 19:49 07.02.2022
3244 Clear 1 1031 67 10000 1.03 0 19:31 07.02.2022
3245 Clear 4 1029 54 10000 2.57 280 17:52 07.02.2022
3246 Clear 5 1029 45 10000 3.09 300 16:52 07.02.2022
3247 Clouds 6 1029 45 10000 3.13 275 15:49 07.02.2022
3248 Clouds 6 1029 48 10000 4.63 290 14:48 07.02.2022
3249 Clouds 6 1029 51 10000 5.66 280 13:28 07.02.2022
3250 Clouds 5 1028 53 10000 4.47 265 12:38 07.02.2022
3251 Clouds 4 1028 56 10000 5.36 265 11:57 07.02.2022
3252 Clouds 4 1028 57 10000 1.79 290 11:34 07.02.2022
3253 Clouds 4 1027 61 10000 1.34 285 10:49 07.02.2022
3254 Clouds 4 1026 64 10000 1.79 290 10:29 07.02.2022
3255 Clouds 3 1026 69 10000 3.13 275 09:53 07.02.2022
3256 Clouds 2 1025 71 10000 3.09 320 09:18 07.02.2022
3257 Clouds 2 1024 67 10000 4.12 290 08:24 07.02.2022
3258 Clouds 3 1021 82 10000 2.68 280 06:52 07.02.2022
3259 Clouds 3 1021 84 10000 0.45 285 06:33 07.02.2022
3260 Clouds 6 1014 80 10000 6.71 275 02:56 07.02.2022
3261 Clouds 6 1014 72 10000 7.15 255 00:42 07.02.2022
3262 Clouds 6 1015 73 10000 7.6 260 23:42 06.02.2022
3263 Clouds 5 1016 73 10000 6.26 265 22:47 06.02.2022
3264 Clouds 5 1017 73 10000 7.6 270 21:52 06.02.2022
3265 Clouds 5 1017 72 10000 5.81 270 21:30 06.02.2022
3266 Clouds 5 1017 72 10000 5.36 270 20:52 06.02.2022
3267 Clouds 5 1018 72 10000 6.26 285 20:28 06.02.2022
3268 Clouds 5 1019 71 10000 4.92 265 19:37 06.02.2022
3269 Rain 5 1019 70 10000 8.94 270 18:38 06.02.2022
3270 Rain 5 1019 64 10000 6.71 275 17:55 06.02.2022
3271 Clouds 6 1019 57 10000 5.81 270 16:56 06.02.2022
3272 Clouds 6 1020 54 10000 4.92 250 16:38 06.02.2022
3273 Clouds 6 1020 57 10000 5.36 220 15:47 06.02.2022
3274 Clouds 6 1021 58 10000 7.6 240 15:26 06.02.2022
3275 Clouds 6 1022 58 10000 4.92 255 14:33 06.02.2022
3276 Clear 5 1022 59 10000 6.71 255 13:25 06.02.2022
3277 Clear 6 1022 57 10000 8.49 245 12:49 06.02.2022
3278 Clear 5 1023 62 10000 7.6 250 11:23 06.02.2022
3279 Clear 3 1024 68 10000 4.02 255 09:56 06.02.2022
3280 Clouds 1 1025 73 10000 2.57 90 08:49 06.02.2022
3281 Clear 1 1025 72 10000 4.12 100 07:36 06.02.2022
3282 Clouds -1 1025 77 10000 1.03 0 05:30 06.02.2022
3283 Clouds -1 1027 74 10000 1.03 0 02:26 06.02.2022
3284 Clouds -1 1027 74 10000 1.54 0 01:32 06.02.2022
3285 Clear -1 1027 72 10000 0.51 0 00:24 06.02.2022
3286 Clear 0 1026 69 10000 0.51 0 22:20 05.02.2022
3287 Clear 1 1027 67 10000 1.03 0 20:59 05.02.2022
3288 Clear 1 1026 62 10000 0.51 0 20:24 05.02.2022
3289 Clear 2 1026 58 10000 1.03 0 19:45 05.02.2022
3290 Clear 3 1026 58 10000 1.03 0 18:52 05.02.2022
3291 Clear 6 1025 49 10000 0.45 280 17:38 05.02.2022
3292 Clouds 7 1025 42 10000 1.79 265 16:48 05.02.2022
3293 Clear 8 1025 36 10000 2.06 260 15:33 05.02.2022
3294 Clear 7 1025 41 10000 2.06 300 14:47 05.02.2022
3295 Clouds 6 1025 55 10000 0.51 0 12:47 05.02.2022
3296 Clear 5 1026 60 10000 0.45 120 11:49 05.02.2022
3297 Clear 4 1025 69 10000 0.51 0 10:46 05.02.2022
3298 Clouds 3 1025 78 10000 0.51 0 09:52 05.02.2022
3299 Clouds 2 1025 77 10000 0.51 0 09:25 05.02.2022
3300 Clouds 3 1024 78 10000 2.57 270 07:38 05.02.2022
3301 Clouds 4 1023 83 10000 2.06 270 06:56 05.02.2022
3302 Clouds 5 1022 85 5000 0.89 280 03:55 05.02.2022
3303 Clouds 5 1021 83 10000 2.24 280 01:19 05.02.2022
3304 Clouds 6 1020 78 10000 2.24 285 00:42 05.02.2022
3305 Clouds 6 1020 78 10000 0.89 260 23:38 04.02.2022
3306 Clouds 6 1020 81 10000 2.24 280 23:20 04.02.2022
3307 Drizzle 6 1020 76 10000 0.89 285 21:37 04.02.2022
3308 Clouds 6 1019 74 10000 2.06 0 21:18 04.02.2022
3309 Clouds 6 1019 73 10000 1.79 275 20:50 04.02.2022
3310 Clouds 6 1019 72 10000 4.63 140 19:33 04.02.2022
3311 Clouds 7 1018 71 10000 1.79 255 17:27 04.02.2022
3312 Clouds 8 1017 70 10000 2.24 270 15:38 04.02.2022
3313 Clouds 8 1017 72 10000 3.58 270 14:51 04.02.2022
3314 Clouds 6 1018 88 2500 1.03 0 12:43 04.02.2022
3315 Fog 5 1018 88 500 1.03 0 11:46 04.02.2022
3316 Fog 4 1018 92 600 1.54 130 11:18 04.02.2022
3317 Fog 3 1018 93 400 2.06 140 10:30 04.02.2022
3318 Fog 1 1019 90 250 2.57 130 08:34 04.02.2022
3319 Fog 1 1019 91 150 1.03 0 05:19 04.02.2022
3320 Fog 2 1018 91 350 2.06 340 02:39 04.02.2022
3321 Mist 3 1017 94 3900 0.51 0 00:26 04.02.2022
3322 Mist 3 1018 90 3000 1.03 110 22:55 03.02.2022
3323 Clouds 3 1017 92 5000 1.03 0 22:22 03.02.2022
3324 Clouds 4 1017 90 8000 1.03 280 21:41 03.02.2022
3325 Clouds 4 1018 89 10000 1.54 20 20:26 03.02.2022
3326 Clear 4 1018 89 10000 1.03 0 19:57 03.02.2022
3327 Clear 4 1018 88 10000 0.89 285 19:23 03.02.2022
3328 Clear 4 1018 87 10000 1.03 310 18:24 03.02.2022
3329 Clouds 5 1018 86 10000 0.51 0 17:27 03.02.2022
3330 Clear 6 1019 85 10000 1.34 250 15:44 03.02.2022
3331 Clear 6 1019 84 10000 2.68 225 14:22 03.02.2022
3332 Clouds 5 1021 89 10000 0.51 0 12:32 03.02.2022
3333 Fog 2 1023 93 150 0.51 260 08:59 03.02.2022
3334 Fog 1 1023 89 200 0.51 0 08:19 03.02.2022
3335 Clouds 3 1025 87 10000 3.09 100 02:56 03.02.2022
3336 Clouds 4 1026 87 5000 0.51 0 00:29 03.02.2022
3337 Clouds 5 1026 84 10000 2.06 140 22:41 02.02.2022
3338 Clouds 6 1026 83 10000 3.09 100 21:52 02.02.2022
3339 Clouds 6 1026 84 10000 3.09 90 21:29 02.02.2022
3340 Clouds 6 1026 84 10000 2.57 130 20:27 02.02.2022
3341 Clouds 6 1026 83 10000 3.09 100 19:48 02.02.2022
3342 Clouds 6 1026 83 10000 2.57 130 19:00 02.02.2022
3343 Clouds 7 1026 81 10000 2.57 130 18:25 02.02.2022
3344 Clouds 7 1025 76 10000 2.24 275 17:22 02.02.2022
3345 Clouds 7 1025 72 10000 3.13 270 16:59 02.02.2022
3346 Clouds 7 1025 79 10000 3.13 275 15:49 02.02.2022
3347 Clouds 6 1024 81 10000 2.68 270 12:47 02.02.2022
3348 Clouds 6 1024 79 10000 3.58 270 11:51 02.02.2022
3349 Clouds 6 1024 79 10000 1.34 275 11:30 02.02.2022
3350 Clouds 5 1023 81 10000 3.58 285 09:18 02.02.2022
3351 Clouds 5 1022 82 10000 4.02 280 04:57 02.02.2022
3352 Clouds 3 1023 80 10000 6.71 270 22:36 01.02.2022
3353 Clouds 2 1023 82 10000 1.79 260 20:58 01.02.2022
3354 Clouds 2 1023 83 6000 3.13 265 19:39 01.02.2022
3355 Clouds 3 1023 67 10000 4.47 285 17:37 01.02.2022
3356 Clouds 3 1023 65 10000 3.58 260 16:31 01.02.2022
3357 Clouds 3 1026 66 10000 2.24 240 13:27 01.02.2022
3358 Clouds 2 1027 69 10000 4.02 265 12:28 01.02.2022
3359 Clouds 1 1027 75 10000 2.24 265 08:52 01.02.2022
3360 Clouds 1 1023 79 3800 4.02 270 02:21 01.02.2022
3361 Clouds 1 1022 79 10000 3.13 270 23:38 31.01.2022
3362 Mist 1 1022 79 2600 2.24 275 22:42 31.01.2022
3363 Clouds 2 1021 77 10000 0.89 275 21:35 31.01.2022
3364 Clouds 2 1020 75 10000 2.24 270 20:35 31.01.2022
3365 Clouds 2 1020 78 10000 0.45 225 19:58 31.01.2022
3366 Clouds 2 1019 84 10000 1.79 230 18:32 31.01.2022
3367 Snow 2 1019 84 10000 1.79 230 18:32 31.01.2022
3368 Clouds 2 1019 81 10000 6.26 270 17:57 31.01.2022
3369 Clouds 2 1018 82 10000 0.51 0 17:24 31.01.2022
3370 Mist 3 1018 80 5000 5.14 270 16:23 31.01.2022
3371 Clouds 3 1017 81 10000 3.58 270 14:53 31.01.2022
3372 Clouds 4 1017 79 10000 3.58 270 13:31 31.01.2022
3373 Rain 4 1017 77 10000 8.49 270 12:38 31.01.2022
3374 Clouds 4 1018 76 10000 5.36 255 11:26 31.01.2022
3375 Clouds 4 1018 74 10000 7.15 270 10:48 31.01.2022
3376 Clouds 4 1018 72 10000 5.81 250 09:37 31.01.2022
3377 Clouds 3 1019 70 10000 8.05 245 08:56 31.01.2022
3378 Clouds 3 1020 72 10000 4.92 260 08:20 31.01.2022
3379 Clouds 3 1020 74 10000 2.24 270 07:40 31.01.2022
3380 Clouds 1 1021 83 10000 2.57 360 05:25 31.01.2022
3381 Clouds -1 1024 84 10000 0.51 0 00:24 31.01.2022
3382 Clear 0 1025 80 10000 0.89 185 22:33 30.01.2022
3383 Clear 0 1026 83 10000 0.51 0 21:46 30.01.2022
3384 Clear 1 1026 81 10000 1.03 0 21:24 30.01.2022
3385 Clear 1 1026 81 10000 1.03 0 20:53 30.01.2022
3386 Clear 2 1026 80 10000 1.03 30 20:31 30.01.2022
3387 Clear 2 1026 77 10000 1.03 0 19:56 30.01.2022
3388 Clear 3 1027 74 10000 2.06 260 18:52 30.01.2022
3389 Clear 4 1027 70 10000 1.54 260 18:22 30.01.2022
3390 Clouds 6 1027 72 10000 3.09 310 17:31 30.01.2022
3391 Clouds 6 1027 72 10000 3.09 310 17:31 30.01.2022
3392 Clouds 8 1028 66 10000 3.09 300 16:43 30.01.2022
3393 Clouds 8 1028 66 10000 3.09 320 16:23 30.01.2022
3394 Clouds 8 1028 66 10000 3.09 320 16:23 30.01.2022
3395 Clouds 8 1028 65 10000 3.6 260 15:55 30.01.2022
3396 Clouds 9 1028 65 10000 2.06 0 15:33 30.01.2022
3397 Clouds 9 1028 63 10000 1.03 0 14:48 30.01.2022
3398 Clouds 9 1029 63 10000 1.54 120 13:49 30.01.2022
3399 Clouds 8 1030 66 10000 2.57 130 12:46 30.01.2022
3400 Clouds 6 1031 69 10000 3.13 90 11:23 30.01.2022
3401 Clouds 5 1031 70 10000 2.57 90 10:26 30.01.2022
3402 Clouds 4 1031 73 10000 2.06 60 09:23 30.01.2022
3403 Clouds 4 1031 73 10000 0.51 0 08:00 30.01.2022
3404 Clouds 4 1031 67 10000 0.51 0 02:44 30.01.2022
3405 Clouds 3 1031 67 10000 1.03 0 01:54 30.01.2022
3406 Clouds 3 1032 72 10000 1.03 0 23:49 29.01.2022
3407 Clouds 3 1032 79 10000 1.54 90 22:57 29.01.2022
3408 Clouds 3 1032 70 10000 0.51 0 21:35 29.01.2022
3409 Clouds 3 1032 62 10000 2.57 80 20:57 29.01.2022
3410 Clouds 4 1032 63 10000 1.54 0 19:52 29.01.2022
3411 Clouds 4 1032 67 10000 2.06 80 19:31 29.01.2022
3412 Clouds 4 1032 64 10000 1.54 100 18:44 29.01.2022
3413 Clear 5 1031 66 10000 1.54 0 17:54 29.01.2022
3414 Clear 7 1031 42 10000 2.06 140 16:59 29.01.2022
3415 Clear 8 1032 43 10000 3.58 230 15:27 29.01.2022
3416 Clouds 7 1033 56 10000 3.13 265 13:48 29.01.2022
3417 Clear 6 1033 61 10000 3.13 265 13:27 29.01.2022
3418 Clear 6 1034 64 10000 1.03 0 12:58 29.01.2022
3419 Clouds 4 1034 65 10000 1.03 0 11:39 29.01.2022
3420 Clear 2 1034 79 10000 0.51 0 10:32 29.01.2022
3421 Clouds -1 1033 81 10000 1.03 0 08:19 29.01.2022
3422 Clouds -1 1034 87 10000 1.54 130 02:26 29.01.2022
3423 Fog -1 1035 86 7000 0.51 0 00:31 29.01.2022
3424 Clouds -1 1035 86 10000 0.51 0 23:29 28.01.2022
3425 Clouds 0 1035 86 8000 0.51 0 22:46 28.01.2022
3426 Clouds 0 1035 86 6000 0.51 0 22:19 28.01.2022
3427 Clear 1 1035 80 10000 1.54 120 20:41 28.01.2022
3428 Clear 1 1034 89 10000 1.54 130 19:56 28.01.2022
3429 Clear 1 1063 84 10000 0.51 0 18:52 28.01.2022
3430 Clear 4 1034 69 10000 1.54 260 17:53 28.01.2022
3431 Clear 6 1034 63 10000 1.54 210 15:52 28.01.2022
3432 Clear 7 1034 69 10000 1.03 170 14:50 28.01.2022
3433 Clouds 6 1035 81 10000 1.79 105 12:42 28.01.2022
3434 Clouds 5 1036 83 10000 3.6 100 11:49 28.01.2022
3435 Clouds 2 1036 92 6000 1.54 0 10:26 28.01.2022
3436 Mist 1 1035 93 3000 0.51 140 09:46 28.01.2022
3437 Mist 0 1034 90 4800 0.51 0 07:41 28.01.2022
3438 Clouds 1 1033 89 6000 0.51 0 05:31 28.01.2022
3439 Clouds 1 1032 89 7000 1.03 0 03:50 28.01.2022
3440 Clouds 0 1032 90 5000 1.54 0 02:25 28.01.2022
3441 Drizzle 0 1032 89 5000 1.54 280 01:37 28.01.2022
3442 Clouds 0 1032 90 8000 0.51 0 00:39 28.01.2022
3443 Mist -1 1031 90 4900 1.54 260 22:18 27.01.2022
3444 Mist -2 1030 90 3000 1.54 50 21:34 27.01.2022
3445 Clouds -1 1030 90 8000 0.51 0 20:59 27.01.2022
3446 Clear -1 1030 88 10000 1.54 0 19:37 27.01.2022
3447 Clear 0 1029 87 10000 1.03 0 18:18 27.01.2022
3448 Clear 1 1029 84 10000 0.89 265 16:45 27.01.2022
3449 Clear 2 1029 93 10000 1.03 0 13:48 27.01.2022
3450 Clear 0 1030 93 10000 1.03 0 12:48 27.01.2022
3451 Clouds -2 1031 100 8000 0.51 0 11:24 27.01.2022
3452 Fog -2 1031 93 6000 1.03 0 09:47 27.01.2022
3453 Fog -4 1031 90 900 2.06 120 08:39 27.01.2022
3454 Fog -4 1030 89 200 1.03 240 07:23 27.01.2022
3455 Fog -3 1030 90 150 1.03 110 02:59 27.01.2022
3456 Fog -2 1031 90 200 1.03 0 23:52 26.01.2022
3457 Fog -2 1031 90 200 0.51 0 22:27 26.01.2022
3458 Fog -2 1031 90 250 0.51 0 21:41 26.01.2022
3459 Fog -2 1031 89 300 0.51 0 20:42 26.01.2022
3460 Fog -2 1031 90 300 0.51 0 20:23 26.01.2022
3461 Mist -1 1031 90 3000 1.54 330 19:28 26.01.2022
3462 Mist -1 1031 89 5000 1.54 290 18:46 26.01.2022
3463 Fog -1 1031 88 7000 1.03 220 17:52 26.01.2022
3464 Clear 0 1031 86 8000 1.03 220 17:24 26.01.2022
3465 Clear 1 1031 85 9000 1.54 180 16:40 26.01.2022
3466 Clouds 3 1030 89 7000 2.57 240 15:50 26.01.2022
3467 Clouds 2 1030 93 8000 0.51 0 14:23 26.01.2022
3468 Clear 1 1033 65 10000 0.49 281 11:56 26.01.2022
3469 Fog -2 1032 97 700 0.51 0 10:45 26.01.2022
3470 Fog -2 1032 95 450 1.54 0 09:49 26.01.2022
3471 Fog -3 1032 88 300 0 0 08:32 26.01.2022
3472 Fog -3 1031 91 250 1.54 200 06:20 26.01.2022
3473 Fog -3 1031 91 250 1.54 200 06:20 26.01.2022
3474 Fog -2 1032 90 200 1.54 0 00:18 26.01.2022
3475 Fog -2 1032 90 200 1.03 0 23:28 25.01.2022
3476 Fog -2 1032 88 150 1.03 220 22:48 25.01.2022
3477 Fog -2 1032 88 150 1.03 0 22:18 25.01.2022
3478 Fog -1 1032 89 100 0.51 0 21:22 25.01.2022
3479 Fog -1 1032 89 100 1.54 240 20:44 25.01.2022
3480 Fog -1 1032 88 150 1.03 0 19:53 25.01.2022
3481 Fog -1 1032 88 150 1.03 0 19:53 25.01.2022
3482 Fog 0 1032 88 250 1.03 0 18:43 25.01.2022
3483 Fog 0 1032 92 450 2.57 140 17:45 25.01.2022
3484 Mist 1 1032 88 3500 0.89 265 16:47 25.01.2022
3485 Clouds 2 1062 88 5000 1.54 140 16:21 25.01.2022
3486 Clouds 2 1032 92 4000 1.54 140 15:38 25.01.2022
3487 Mist 1 1032 100 3000 0 0 14:58 25.01.2022
3488 Mist 0 1033 93 2500 1.03 240 13:46 25.01.2022
3489 Fog -1 1034 100 900 1.03 0 10:59 25.01.2022
3490 Fog -2 1033 91 400 0.51 0 09:20 25.01.2022
3491 Fog -3 1033 89 300 0.51 0 07:30 25.01.2022
3492 Fog -3 1033 88 250 0.89 275 06:51 25.01.2022
3493 Fog -2 1033 87 600 1.54 220 05:22 25.01.2022
3494 Clouds -2 1032 84 10000 0.78 155 23:37 24.01.2022
3495 Mist -2 1032 86 2600 0 0 23:19 24.01.2022
3496 Mist -2 1032 88 3500 0.51 0 22:59 24.01.2022
3497 Mist -2 1032 88 3500 0.51 0 22:41 24.01.2022
3498 Mist -2 1032 86 3500 0.51 80 21:55 24.01.2022
3499 Mist -2 1032 87 3300 0 0 21:29 24.01.2022
3500 Mist -2 1032 85 4000 0 0 20:32 24.01.2022
3501 Clear -2 1032 85 5000 0 0 19:52 24.01.2022
3502 Clear -1 1032 84 6000 0 0 19:30 24.01.2022
3503 Clear 0 1032 81 7000 2.06 260 18:19 24.01.2022
3504 Clear 1 1031 79 10000 2.06 260 17:24 24.01.2022
3505 Clear 2 1031 77 10000 2.57 260 16:55 24.01.2022
3506 Clear 2 1031 76 10000 1.54 0 16:19 24.01.2022
3507 Clear 2 1031 82 10000 1.54 0 14:43 24.01.2022
3508 Clouds 1 1032 78 7000 1.54 220 13:26 24.01.2022
3509 Clouds 1 1032 79 7000 0.51 0 12:30 24.01.2022
3510 Clouds 1 1032 81 7000 1.03 250 10:46 24.01.2022
3511 Clouds 0 1032 84 7000 1.03 0 09:48 24.01.2022
3512 Clouds -1 1031 83 7000 1.54 110 08:41 24.01.2022
3513 Clouds 0 1031 84 10000 1.54 110 06:41 24.01.2022
3514 Clouds -1 1032 84 8000 1.54 140 01:31 24.01.2022
3515 Clouds -1 1031 81 10000 0.74 106 00:38 24.01.2022
3516 Clouds -1 1031 81 10000 0.45 136 00:20 24.01.2022
3517 Clouds -1 1031 81 10000 0.95 88 22:37 23.01.2022
3518 Clouds -1 1031 80 10000 0.82 101 21:50 23.01.2022
3519 Clear -1 1031 83 7000 0.51 0 21:26 23.01.2022
3520 Clear -1 1031 83 7000 0.51 0 20:45 23.01.2022
3521 Clear -1 1031 80 10000 1.03 0 19:52 23.01.2022
3522 Clear 0 1031 78 10000 1.03 0 18:52 23.01.2022
3523 Clear 1 1031 78 10000 2.57 300 17:50 23.01.2022
3524 Clear 2 1046 76 10000 3.09 20 16:48 23.01.2022
3525 Clear 3 1030 74 10000 3.09 280 15:18 23.01.2022
3526 Clear 3 1032 75 10000 0.45 170 14:31 23.01.2022
3527 Clear 3 1032 75 10000 0.45 170 14:31 23.01.2022
3528 Clouds 2 1032 77 10000 2.06 290 13:22 23.01.2022
3529 Clear 2 1032 81 10000 1.79 150 12:36 23.01.2022
3530 Clear 2 1032 80 10000 2.24 90 12:18 23.01.2022
3531 Clear 1 1033 84 10000 1.03 120 11:23 23.01.2022
3532 Clear -1 1033 84 10000 0.45 90 10:28 23.01.2022
3533 Clear -1 1033 86 10000 1.54 180 09:51 23.01.2022
3534 Clouds -2 1033 82 10000 1.34 92 08:59 23.01.2022
3535 Clouds -3 1032 82 10000 0.45 186 05:58 23.01.2022
3536 Clear -2 1032 81 10000 0.51 190 01:53 23.01.2022
3537 Clear -2 1032 80 10000 1.03 0 01:33 23.01.2022
3538 Clear -2 1033 79 10000 0.51 0 00:23 23.01.2022
3539 Clear -2 1033 79 10000 1.03 70 23:57 22.01.2022
3540 Clear -1 1033 77 10000 1.03 70 22:46 22.01.2022
3541 Clear -1 1033 76 10000 1.54 130 21:36 22.01.2022
3542 Clear 0 1033 75 10000 1.54 120 20:23 22.01.2022
3543 Clear 0 1033 78 10000 1.03 110 19:21 22.01.2022
3544 Clear 1 1032 77 10000 0 0 18:25 22.01.2022
3545 Clear 2 1032 62 10000 1.54 80 17:41 22.01.2022
3546 Clear 4 1032 60 10000 1.03 190 16:56 22.01.2022
3547 Clear 5 1032 61 10000 1.54 0 15:53 22.01.2022
3548 Clear 5 1032 61 10000 0.45 35 15:32 22.01.2022
3549 Clear 4 1032 63 10000 2.24 40 13:51 22.01.2022
3550 Clear 3 1033 63 10000 3.13 115 12:53 22.01.2022
3551 Clear 3 1033 65 10000 2.68 90 12:29 22.01.2022
3552 Clouds 2 1033 66 10000 2.24 90 11:44 22.01.2022
3553 Clouds 0 1033 72 10000 2.57 160 10:29 22.01.2022
3554 Clouds -1 1033 73 10000 2.06 130 09:59 22.01.2022
3555 Clouds -2 1033 74 10000 3.09 80 08:53 22.01.2022
3556 Clouds -3 1032 73 10000 2.57 120 07:56 22.01.2022
3557 Clear -3 1032 72 10000 1.34 74 04:53 22.01.2022
3558 Clouds -2 1032 66 10000 1.03 110 01:49 22.01.2022
3559 Clouds -2 1032 62 10000 1.03 140 23:46 21.01.2022
3560 Clear -2 1032 59 10000 1.35 90 22:41 21.01.2022
3561 Clear -2 1032 76 10000 0.51 0 20:45 21.01.2022
3562 Clear -1 1032 76 10000 0.51 0 18:41 21.01.2022
3563 Clouds 0 1032 58 10000 2.57 30 17:45 21.01.2022
3564 Clear 2 1031 67 10000 2.24 80 15:47 21.01.2022
3565 Clear 2 1031 69 10000 1.79 90 13:55 21.01.2022
3566 Clear 1 1031 54 10000 0.89 120 12:39 21.01.2022
3567 Clouds 1 1031 64 10000 2.68 115 11:28 21.01.2022
3568 Clear -1 1032 74 10000 1.34 95 10:22 21.01.2022
3569 Clear -2 1030 79 10000 0 0 08:25 21.01.2022
3570 Clear -2 1030 79 10000 0 0 08:25 21.01.2022
3571 Clouds -2 1030 74 10000 1.03 0 07:26 21.01.2022
3572 Clouds 0 1029 74 10000 0.51 0 00:59 21.01.2022
3573 Clouds 1 1029 76 10000 2.06 0 22:45 20.01.2022
3574 Clouds 1 1029 79 10000 1.03 0 21:48 20.01.2022
3575 Clouds 1 1028 75 10000 0 0 20:56 20.01.2022
3576 Clouds 1 1028 76 10000 1.54 90 19:21 20.01.2022
3577 Clouds 2 1028 72 10000 0.51 0 18:51 20.01.2022
3578 Clouds 2 1028 67 10000 3.09 300 17:32 20.01.2022
3579 Clouds 3 1028 68 10000 1.54 310 15:46 20.01.2022
3580 Clouds 3 1027 69 10000 2.06 310 15:25 20.01.2022
3581 Clouds 4 1027 70 10000 1.34 280 13:54 20.01.2022
3582 Clouds 4 1027 70 10000 1.34 280 13:54 20.01.2022
3583 Clouds 3 1028 76 10000 0.89 275 12:43 20.01.2022
3584 Clouds 3 1028 78 10000 1.03 0 12:21 20.01.2022
3585 Clouds 2 1028 82 10000 1.03 230 10:55 20.01.2022
3586 Clouds 1 1027 83 10000 1.54 80 09:43 20.01.2022
3587 Clouds 1 1027 81 10000 2.57 100 08:36 20.01.2022
3588 Clouds 1 1027 81 10000 0.51 0 06:18 20.01.2022
3589 Clouds 2 1027 74 10000 2.57 310 23:56 19.01.2022
3590 Clouds 2 1027 77 10000 1.34 255 22:37 19.01.2022
3591 Clouds 2 1027 78 7000 1.03 0 21:26 19.01.2022
3592 Clouds 2 1026 77 7000 1.03 0 20:55 19.01.2022
3593 Clouds 2 1026 77 8000 1.03 80 20:24 19.01.2022
3594 Clouds 2 1027 78 6000 2.06 110 18:49 19.01.2022
3595 Clouds 2 1027 78 6000 2.06 110 18:49 19.01.2022
3596 Clouds 3 1026 78 6000 0.89 95 17:50 19.01.2022
3597 Clouds 3 1026 78 6000 1.54 0 17:18 19.01.2022
3598 Clouds 4 1026 83 6000 3.09 140 14:55 19.01.2022
3599 Clouds 3 1028 83 7000 2.06 110 13:20 19.01.2022
3600 Clouds 2 1029 87 6000 2.57 110 11:54 19.01.2022
3601 Clouds 1 1030 88 6000 3.09 110 11:22 19.01.2022
3602 Clouds 0 1031 87 6000 3.09 120 09:35 19.01.2022
3603 Clouds -1 1030 86 6000 2.06 90 08:20 19.01.2022
3604 Clouds -1 1031 84 7000 1.54 120 05:19 19.01.2022
3605 Clear -1 1033 86 5000 1.03 0 23:53 18.01.2022
3606 Mist -1 1033 86 4400 1.03 130 23:18 18.01.2022
3607 Clear -1 1033 85 5000 1.03 80 21:43 18.01.2022
3608 Clear 0 1033 84 6000 0 0 20:21 18.01.2022
3609 Clear 0 1033 82 10000 0 0 19:39 18.01.2022
3610 Clear 1 1033 82 10000 1.03 300 19:21 18.01.2022
3611 Clear 2 1033 78 10000 1.54 0 18:18 18.01.2022
3612 Clear 3 1032 76 10000 2.06 340 17:31 18.01.2022
3613 Clear 4 1032 74 10000 0.45 105 16:18 18.01.2022
3614 Clear 4 1032 73 10000 1.34 95 15:25 18.01.2022
3615 Clear 5 1032 73 10000 1.34 105 14:18 18.01.2022
3616 Clear 3 1033 79 10000 2.24 145 11:31 18.01.2022
3617 Clouds 1 1033 87 10000 2.24 83 09:59 18.01.2022
3618 Clouds -1 1033 83 10000 2.68 67 08:29 18.01.2022
3619 Clouds -1 1033 86 10000 2.68 65 07:42 18.01.2022
3620 Clouds 0 1034 82 10000 2.06 120 00:38 18.01.2022
3621 Clouds 1 1035 81 10000 1.03 0 22:39 17.01.2022
3622 Clouds 1 1035 74 10000 1.67 73 21:41 17.01.2022
3623 Clouds 1 1035 79 10000 0 0 20:39 17.01.2022
3624 Clear 1 1035 78 10000 0 0 18:46 17.01.2022
3625 Clear 2 1035 77 10000 0 0 18:24 17.01.2022
3626 Clear 4 1034 72 10000 1.03 0 17:19 17.01.2022
3627 Clear 5 1034 67 10000 4.12 310 15:47 17.01.2022
3628 Clear 6 1033 63 10000 1.03 0 14:58 17.01.2022
3629 Clear 6 1034 65 10000 1.54 200 14:22 17.01.2022
3630 Clear 5 1035 72 10000 2.24 85 13:18 17.01.2022
3631 Clear 4 1035 77 10000 2.06 90 11:51 17.01.2022
3632 Clear 2 1035 82 10000 0.51 60 10:47 17.01.2022
3633 Clear -1 1036 83 10000 2.06 90 09:35 17.01.2022
3634 Mist -1 1034 82 10000 1.03 0 08:43 17.01.2022
3635 Mist -1 1034 86 4100 1.03 150 07:20 17.01.2022
3636 Clouds -1 1033 87 5000 0.51 0 00:59 17.01.2022
3637 Mist -1 1033 87 3400 2.06 100 23:27 16.01.2022
3638 Fog -1 1032 88 450 1.54 130 20:50 16.01.2022
3639 Fog -1 1031 88 600 1.54 0 19:56 16.01.2022
3640 Fog -1 1030 87 150 1.54 0 18:45 16.01.2022
3641 Fog 0 1030 85 200 1.54 100 17:47 16.01.2022
3642 Fog 1 1029 84 300 1.54 160 16:52 16.01.2022
3643 Fog 2 1028 83 500 1.03 150 15:39 16.01.2022
3644 Mist 3 1028 83 1200 1.03 0 14:29 16.01.2022
3645 Mist 3 1028 83 1200 1.03 0 14:29 16.01.2022
3646 Mist 1 1029 88 500 1.54 130 12:57 16.01.2022
3647 Fog 0 1030 93 700 1.54 140 11:56 16.01.2022
3648 Fog -1 1029 100 350 1.54 160 11:27 16.01.2022
3649 Fog -2 1028 97 150 1.03 0 10:27 16.01.2022
3650 Fog -2 1028 95 150 0.51 0 09:57 16.01.2022
3651 Fog -2 1028 92 900 0.45 105 09:23 16.01.2022
3652 Fog -2 1028 92 500 2.06 130 08:52 16.01.2022
3653 Fog -2 1026 91 250 1.03 0 05:51 16.01.2022
3654 Fog -2 1026 87 150 1.03 0 00:18 16.01.2022
3655 Fog -2 1025 88 150 2.06 110 22:38 15.01.2022
3656 Fog -2 1025 87 300 0.51 200 21:21 15.01.2022
3657 Fog -2 1026 85 150 0.51 190 20:43 15.01.2022
3658 Fog -1 1025 85 50 0.51 0 19:58 15.01.2022
3659 Fog -1 1025 85 100 0 0 19:23 15.01.2022
3660 Fog 0 1026 84 100 1.03 150 17:49 15.01.2022
3661 Fog 2 1026 80 150 0.89 120 16:42 15.01.2022
3662 Fog 4 1025 79 1000 1.03 0 14:32 15.01.2022
3663 Fog 2 1027 85 300 1.54 140 12:33 15.01.2022
3664 Fog 0 1027 87 300 1.03 0 11:19 15.01.2022
3665 Fog -3 1028 88 300 1.03 240 09:21 15.01.2022
3666 Clouds -3 1030 85 5000 0.51 110 00:52 15.01.2022
3667 Mist -2 1031 84 4700 0.51 0 21:57 14.01.2022
3668 Clear -1 1031 83 10000 0.51 0 20:51 14.01.2022
3669 Clear -1 1032 82 10000 0.51 0 20:23 14.01.2022
3670 Clear -1 1032 81 7000 0.51 0 19:48 14.01.2022
3671 Clear 0 1032 79 10000 1.03 0 18:28 14.01.2022
3672 Clear 2 1033 72 10000 1.54 0 16:50 14.01.2022
3673 Clear 3 1033 68 10000 1.03 0 15:48 14.01.2022
3674 Clear 4 1033 71 6000 1.03 0 14:47 14.01.2022
3675 Clear 4 1034 74 10000 1.15 38 13:47 14.01.2022
3676 Clear 2 1035 76 10000 0.89 32 12:31 14.01.2022
3677 Fog 0 1036 86 900 1.54 140 11:27 14.01.2022
3678 Fog -3 1036 91 400 1.54 100 09:50 14.01.2022
3679 Mist -4 1036 90 3200 0.51 0 08:51 14.01.2022
3680 Clouds -5 1036 87 6000 1.03 0 07:21 14.01.2022
3681 Mist -4 1037 85 4900 0.51 0 01:37 14.01.2022
3682 Clear -3 1037 84 6000 0.51 0 23:32 13.01.2022
3683 Clear -3 1037 81 10000 1.03 120 21:40 13.01.2022
3684 Clear -3 1037 80 10000 0.51 30 21:22 13.01.2022
3685 Clear -2 1037 77 10000 1.03 0 19:40 13.01.2022
3686 Clear -2 1037 77 10000 1.03 0 19:22 13.01.2022
3687 Clear -1 1036 73 10000 1.03 0 17:54 13.01.2022
3688 Clear 1 1036 68 10000 2.06 240 16:21 13.01.2022
3689 Clear 2 1036 68 10000 3.09 230 15:37 13.01.2022
3690 Clear 2 1036 70 10000 3.09 280 14:47 13.01.2022
3691 Clear 1 1037 78 6000 1.03 0 12:45 13.01.2022
3692 Clear -3 1037 87 6000 1.03 140 10:25 13.01.2022
3693 Clear -4 1037 87 10000 1.79 59 09:20 13.01.2022
3694 Clear -4 1037 85 10000 1.79 49 08:27 13.01.2022
3695 Clear -4 1036 86 10000 1.79 70 07:24 13.01.2022
3696 Clear -5 1037 86 10000 2.68 76 05:59 13.01.2022
3697 Clear -5 1037 85 10000 2.24 76 05:19 13.01.2022
3698 Clear -4 1037 84 10000 0.89 90 02:33 13.01.2022
3699 Clear -4 1036 80 10000 1.79 69 00:56 13.01.2022
3700 Clear -3 1036 82 9000 0.51 0 23:49 12.01.2022
3701 Clear -3 1036 82 9000 0.51 0 23:49 12.01.2022
3702 Clear -3 1036 81 9000 0.51 0 23:24 12.01.2022
3703 Clear -3 1036 80 10000 0 0 21:57 12.01.2022
3704 Clear -2 1036 79 10000 1.79 90 21:23 12.01.2022
3705 Clear -2 1036 78 10000 1.03 60 20:57 12.01.2022
3706 Clear -2 1035 76 10000 1.03 0 19:55 12.01.2022
3707 Clear -1 1035 75 10000 1.34 60 18:43 12.01.2022
3708 Clear -1 1035 74 10000 2.24 60 17:50 12.01.2022
3709 Clear 1 1034 69 10000 1.54 30 16:38 12.01.2022
3710 Clear 2 1034 67 10000 1.34 85 14:49 12.01.2022
3711 Clear 1 1034 69 10000 3.13 95 13:32 12.01.2022
3712 Clear 0 1034 74 10000 2.24 90 11:59 12.01.2022
3713 Clouds -3 1034 78 10000 2.24 75 08:43 12.01.2022
3714 Clear -4 1033 81 10000 2.06 110 07:52 12.01.2022
3715 Clear -3 1033 81 10000 2.06 110 07:32 12.01.2022
3716 Clouds 0 1031 76 10000 3.13 95 23:53 11.01.2022
3717 Clouds 0 1031 77 10000 1.79 95 22:57 11.01.2022
3718 Clouds 0 1031 76 10000 1.79 105 22:23 11.01.2022
3719 Clouds 0 1031 75 10000 2.24 90 21:25 11.01.2022
3720 Clouds 0 1030 78 10000 1.34 80 20:21 11.01.2022
3721 Clouds 1 1029 75 10000 2.24 120 18:43 11.01.2022
3722 Clouds 1 1028 74 10000 2.24 110 17:35 11.01.2022
3723 Clouds 2 1028 73 10000 3.13 75 16:38 11.01.2022
3724 Clouds 3 1028 71 10000 6.26 115 15:56 11.01.2022
3725 Clouds 3 1028 70 10000 2.68 90 14:43 11.01.2022
3726 Clouds 3 1028 71 10000 5.36 95 13:56 11.01.2022
3727 Clouds 3 1028 71 10000 1.79 80 13:36 11.01.2022
3728 Clouds 3 1028 74 10000 2.24 80 12:51 11.01.2022
3729 Clouds 2 1028 75 10000 1.54 80 12:22 11.01.2022
3730 Clouds 1 1028 84 10000 0.45 80 10:24 11.01.2022
3731 Clouds 0 1027 85 10000 1.54 110 07:35 11.01.2022
3732 Clouds 0 1026 86 10000 0.51 0 01:47 11.01.2022
3733 Clouds 0 1025 84 10000 1.54 0 00:22 11.01.2022
3734 Clouds 1 1025 84 10000 1.54 0 23:37 10.01.2022
3735 Clouds 0 1025 88 10000 1.03 0 22:19 10.01.2022
3736 Clouds 1 1025 86 10000 2.68 37 21:54 10.01.2022
3737 Clouds 1 1025 86 10000 3.13 39 21:31 10.01.2022
3738 Clouds 0 1025 87 10000 1.03 0 20:58 10.01.2022
3739 Clouds 1 1024 87 10000 0.51 0 20:29 10.01.2022
3740 Clear 1 1024 85 10000 1.03 0 19:45 10.01.2022
3741 Clear 1 1024 85 10000 2.06 40 19:22 10.01.2022
3742 Clouds 1 1023 85 10000 1.03 0 18:50 10.01.2022
3743 Clouds 1 1023 85 10000 1.03 0 18:31 10.01.2022
3744 Clear 2 1021 80 10000 0.45 70 16:42 10.01.2022
3745 Clear 3 1021 79 10000 0.45 105 15:55 10.01.2022
3746 Clouds 3 1020 82 10000 0.89 95 14:39 10.01.2022
3747 Clouds 2 1019 89 10000 2.06 50 12:31 10.01.2022
3748 Clouds 1 1018 91 10000 0.51 0 11:25 10.01.2022
3749 Clouds 1 1018 93 10000 0.51 0 10:45 10.01.2022
3750 Clouds 0 1016 94 7000 1.03 0 08:57 10.01.2022
3751 Clouds 0 1013 94 6000 2.06 250 05:51 10.01.2022
3752 Clouds 1 1010 94 6000 1.79 270 01:33 10.01.2022
3753 Clouds 1 1010 93 5000 1.03 0 00:36 10.01.2022
3754 Clouds 1 1010 92 1600 1.54 130 23:54 09.01.2022
3755 Clouds 1 1009 91 3700 0.51 0 22:43 09.01.2022
3756 Clouds 2 1008 91 3600 1.54 130 21:47 09.01.2022
3757 Clouds 2 1008 91 3600 1.54 130 21:25 09.01.2022
3758 Clouds 2 1008 91 3600 1.54 130 21:25 09.01.2022
3759 Drizzle 2 1008 90 10000 2.57 90 20:58 09.01.2022
3760 Clouds 2 1008 90 10000 2.06 130 20:39 09.01.2022
3761 Clouds 2 1008 91 10000 2.57 120 20:21 09.01.2022
3762 Clouds 2 1008 89 10000 2.06 110 19:38 09.01.2022
3763 Clouds 2 1008 89 10000 2.06 100 19:18 09.01.2022
3764 Clouds 2 1008 88 10000 1.34 265 18:37 09.01.2022
3765 Clouds 2 1007 86 10000 0.45 280 17:48 09.01.2022
3766 Clouds 3 1007 85 10000 0.51 0 17:29 09.01.2022
3767 Clouds 3 1007 85 10000 3.13 260 16:40 09.01.2022
3768 Clouds 3 1007 84 10000 3.13 250 15:40 09.01.2022
3769 Clouds 3 1007 83 10000 1.79 230 14:58 09.01.2022
3770 Clouds 3 1007 85 10000 0.89 250 14:24 09.01.2022
3771 Clouds 3 1007 82 10000 3.58 240 13:48 09.01.2022
3772 Clouds 3 1008 82 10000 3.58 250 11:56 09.01.2022
3773 Clouds 3 1008 85 10000 2.68 285 11:26 09.01.2022
3774 Clouds 2 1008 86 10000 1.79 215 09:55 09.01.2022
3775 Clouds 2 1008 87 10000 2.68 255 09:20 09.01.2022
3776 Clouds 3 1007 86 10000 4.92 270 06:57 09.01.2022
3777 Clouds 3 1001 92 6000 1.54 290 01:30 09.01.2022
3778 Drizzle 2 1002 91 10000 1.54 350 00:38 09.01.2022
3779 Rain 2 1003 91 10000 1.34 285 23:34 08.01.2022
3780 Clouds 2 1005 87 10000 2.24 270 22:48 08.01.2022
3781 Clouds 3 1007 84 10000 0.51 0 21:28 08.01.2022
3782 Clouds 3 1009 82 10000 2.06 80 20:44 08.01.2022
3783 Clouds 3 1009 82 10000 2.06 80 20:44 08.01.2022
3784 Clouds 3 1010 80 10000 0.51 0 20:22 08.01.2022
3785 Clouds 3 1011 79 10000 2.06 60 19:22 08.01.2022
3786 Clouds 3 1013 79 10000 2.24 260 17:43 08.01.2022
3787 Clouds 3 1013 77 10000 2.57 300 16:57 08.01.2022
3788 Clouds 4 1015 73 10000 1.03 320 15:34 08.01.2022
3789 Clouds 4 1017 73 10000 1.79 265 14:25 08.01.2022
3790 Clouds 3 1018 77 10000 3.58 270 12:35 08.01.2022
3791 Clouds 2 1019 80 10000 3.6 270 10:43 08.01.2022
3792 Clouds 2 1019 80 10000 2.24 270 10:23 08.01.2022
3793 Clouds 2 1019 80 10000 2.24 270 10:23 08.01.2022
3794 Clouds 2 1019 83 10000 2.24 275 09:34 08.01.2022
3795 Mist 2 1016 85 4100 3.13 275 06:22 08.01.2022
3796 Clouds 1 1015 84 10000 1.03 0 01:46 08.01.2022
3797 Clouds 1 1016 85 10000 0.51 0 00:22 08.01.2022
3798 Clouds 1 1019 83 10000 4.12 110 22:21 07.01.2022
3799 Clouds 1 1019 82 10000 3.09 100 20:35 07.01.2022
3800 Clouds 1 1019 82 10000 3.09 100 20:35 07.01.2022
3801 Clouds 1 1020 85 10000 3.09 110 19:34 07.01.2022
3802 Clouds 1 1019 88 7000 2.06 140 18:49 07.01.2022
3803 Clouds 0 1020 88 7000 2.06 140 18:26 07.01.2022
3804 Clouds 0 1019 86 10000 1.54 170 17:24 07.01.2022
3805 Clouds 1 1019 84 8000 2.06 130 15:55 07.01.2022
3806 Clouds 1 1020 74 10000 3.58 275 13:52 07.01.2022
3807 Clouds 1 1020 71 10000 1.34 265 12:57 07.01.2022
3808 Clouds 1 1020 71 10000 1.79 245 12:25 07.01.2022
3809 Clouds -3 1021 81 10000 1.03 0 06:47 07.01.2022
3810 Clouds -3 1021 82 10000 1.03 0 02:54 07.01.2022
3811 Clouds -2 1021 82 10000 0.51 0 01:52 07.01.2022
3812 Clouds -2 1021 81 10000 0.45 135 01:27 07.01.2022
3813 Clouds -2 1021 82 10000 2.06 100 00:55 07.01.2022
3814 Clouds -2 1021 81 10000 0.51 210 22:42 06.01.2022
3815 Clouds -1 1021 80 10000 1.03 60 21:22 06.01.2022
3816 Clear -1 1021 79 10000 1.03 140 20:20 06.01.2022
3817 Clear 0 1020 79 10000 1.03 90 19:40 06.01.2022
3818 Clouds 1 1020 75 10000 1.03 220 17:53 06.01.2022
3819 Clouds 2 1020 74 10000 1.03 60 17:32 06.01.2022
3820 Clouds 3 1020 71 10000 1.54 60 16:40 06.01.2022
3821 Clouds 3 1020 68 10000 1.54 0 15:45 06.01.2022
3822 Clouds 3 1019 67 10000 2.57 70 15:23 06.01.2022
3823 Clouds 3 1019 66 10000 1.03 0 14:21 06.01.2022
3824 Clouds 3 1019 65 10000 1.54 160 13:46 06.01.2022
3825 Clouds 3 1019 68 10000 1.79 100 12:43 06.01.2022
3826 Clouds 2 1020 70 10000 1.34 105 11:41 06.01.2022
3827 Clouds 1 1020 71 10000 0.45 90 11:21 06.01.2022
3828 Clouds -1 1019 76 10000 2.06 100 08:50 06.01.2022
3829 Snow -1 1016 80 10000 2.06 110 00:42 06.01.2022
3830 Clouds -1 1016 86 10000 2.06 110 23:36 05.01.2022
3831 Clouds 0 1016 87 10000 2.06 100 22:54 05.01.2022
3832 Clouds 0 1015 88 10000 2.57 120 22:30 05.01.2022
3833 Clouds 0 1015 88 10000 0.51 0 21:46 05.01.2022
3834 Clouds -1 1016 85 10000 1.03 0 20:49 05.01.2022
3835 Clouds 0 1015 83 10000 2.06 120 19:59 05.01.2022
3836 Clouds 0 1015 83 10000 2.06 100 18:38 05.01.2022
3837 Clouds 0 1015 77 10000 1.54 0 17:23 05.01.2022
3838 Clouds 1 1014 68 10000 1.54 330 16:38 05.01.2022
3839 Clouds 2 1014 62 10000 3.09 260 15:20 05.01.2022
3840 Clouds 3 1013 66 10000 1.34 280 13:51 05.01.2022
3841 Clouds 2 1013 67 10000 3.09 330 12:51 05.01.2022
3842 Clouds 2 1010 87 10000 0 0 09:30 05.01.2022
3843 Clouds 3 1008 86 10000 4.02 275 07:42 05.01.2022
3844 Clouds 3 1007 89 10000 5.14 130 04:58 05.01.2022
3845 Clouds 5 1005 83 8000 5.66 270 00:44 05.01.2022
3846 Rain 7 1003 79 10000 3.58 270 23:27 04.01.2022
3847 Rain 9 1002 68 10000 2.24 265 22:42 04.01.2022
3848 Clouds 13 1001 57 10000 4.92 270 21:21 04.01.2022
3849 Clear 14 1000 52 10000 7.15 270 19:20 04.01.2022
3850 Clouds 14 1001 51 10000 6.71 270 17:44 04.01.2022
3851 Clouds 15 1001 50 10000 5.36 275 16:42 04.01.2022
3852 Clouds 15 1001 50 10000 6.26 270 16:23 04.01.2022
3853 Clouds 14 1002 54 10000 6.71 275 14:53 04.01.2022
3854 Clouds 14 1002 55 10000 7.6 280 14:34 04.01.2022
3855 Clouds 15 1003 55 10000 5.81 265 13:27 04.01.2022
3856 Clouds 11 1005 71 10000 2.06 260 10:41 04.01.2022
3857 Clouds 10 1005 79 10000 0 0 09:20 04.01.2022
3858 Clouds 9 1006 86 10000 1.54 160 08:28 04.01.2022
3859 Drizzle 9 1010 70 10000 4.02 260 02:31 04.01.2022
3860 Clouds 9 1012 69 10000 1.03 0 00:41 04.01.2022
3861 Clouds 9 1014 66 10000 1.03 0 23:19 03.01.2022
3862 Clouds 9 1015 67 10000 2.57 120 21:52 03.01.2022
3863 Clouds 9 1015 68 10000 2.57 120 21:32 03.01.2022
3864 Clouds 9 1017 65 10000 1.54 130 19:56 03.01.2022
3865 Clouds 10 1017 66 10000 1.79 255 18:48 03.01.2022
3866 Clouds 10 1017 66 10000 1.34 280 18:27 03.01.2022
3867 Clouds 10 1018 64 10000 4.63 270 16:58 03.01.2022
3868 Clouds 11 1020 59 10000 7.6 250 14:56 03.01.2022
3869 Clouds 12 1020 58 10000 4.92 260 14:30 03.01.2022
3870 Clouds 11 1022 61 10000 4.02 265 12:46 03.01.2022
3871 Clouds 10 1022 63 10000 2.68 255 11:35 03.01.2022
3872 Rain 10 1023 65 10000 3.13 275 10:27 03.01.2022
3873 Clouds 9 1023 64 10000 4.02 255 08:47 03.01.2022
3874 Clouds 9 1023 67 10000 3.58 260 07:34 03.01.2022
3875 Clouds 9 1023 67 10000 3.58 260 07:34 03.01.2022
3876 Clouds 10 1024 70 10000 2.68 290 23:55 02.01.2022
3877 Clouds 9 1024 75 10000 1.54 0 23:22 02.01.2022
3878 Clouds 8 1024 79 10000 1.34 295 22:53 02.01.2022
3879 Clouds 8 1024 77 10000 0.89 80 21:42 02.01.2022
3880 Clouds 7 1023 81 10000 0.51 0 20:33 02.01.2022
3881 Clouds 7 1023 82 10000 0.51 0 19:55 02.01.2022
3882 Clouds 7 1023 85 10000 1.54 0 19:30 02.01.2022
3883 Clouds 7 1023 84 10000 1.03 0 18:44 02.01.2022
3884 Clouds 6 1023 84 10000 2.57 80 17:54 02.01.2022
3885 Clouds 7 1023 77 10000 1.03 0 17:36 02.01.2022
3886 Clouds 7 1023 78 10000 1.54 0 17:18 02.01.2022
3887 Clouds 9 1023 66 10000 2.06 130 16:25 02.01.2022
3888 Clouds 10 1023 57 10000 2.57 120 14:22 02.01.2022
3889 Clouds 9 1025 57 10000 1.54 170 12:50 02.01.2022
3890 Clouds 8 1025 72 10000 1.54 270 11:58 02.01.2022
3891 Clouds 7 1025 74 10000 0.51 0 11:26 02.01.2022
3892 Clear 5 1025 78 10000 1.54 0 10:46 02.01.2022
3893 Clear 3 1024 76 10000 1.03 0 08:46 02.01.2022
3894 Fog 3 1024 73 3800 0.51 0 05:21 02.01.2022
3895 Clouds 3 1026 81 7000 1.03 0 01:41 02.01.2022
3896 Clouds 4 1027 81 7000 0.51 0 23:39 01.01.2022
3897 Clouds 4 1027 79 10000 0.51 0 22:57 01.01.2022
3898 Clouds 4 1027 81 10000 0.51 0 22:22 01.01.2022
3899 Clouds 4 1027 81 10000 0.51 0 21:43 01.01.2022
3900 Clouds 4 1027 82 10000 1.03 0 20:53 01.01.2022
3901 Clouds 4 1027 83 10000 1.54 110 19:57 01.01.2022
3902 Clear 5 1027 82 10000 0.51 0 18:58 01.01.2022
3903 Clear 6 1027 81 10000 0.51 100 17:58 01.01.2022
3904 Clear 8 1027 78 10000 1.54 0 16:37 01.01.2022
3905 Clear 9 1027 75 10000 2.06 100 16:19 01.01.2022
3906 Clear 11 1027 71 10000 0.45 125 15:26 01.01.2022
3907 Clear 11 1028 69 10000 0.51 0 13:46 01.01.2022
3908 Clear 9 1029 73 10000 0.51 0 12:49 01.01.2022
3909 Clear 7 1029 74 10000 0.51 0 11:56 01.01.2022
3910 Clear 7 1030 78 10000 0.51 0 11:22 01.01.2022
3911 Fog 5 1030 81 10000 0.51 0 10:27 01.01.2022
3912 Fog 4 1030 76 150 0.51 0 09:45 01.01.2022
3913 Fog 3 1029 76 250 0 0 08:26 01.01.2022
3914 Fog 3 1029 75 250 0.51 0 07:44 01.01.2022
3915 Fog 3 1029 87 100 1.03 150 06:47 01.01.2022
3916 Fog 3 1029 89 350 0.51 320 05:27 01.01.2022
3917 Mist 3 1029 90 2000 1.03 0 04:38 01.01.2022
3918 Mist 5 1029 84 1500 1.03 0 01:59 01.01.2022
3919 Fog 5 1029 91 2700 0.51 0 23:36 31.12.2021
3920 Mist 6 1029 86 3800 0.45 295 21:53 31.12.2021
3921 Clouds 6 1029 89 7000 2.57 100 20:38 31.12.2021
3922 Clear 6 1029 87 10000 0.45 83 19:30 31.12.2021
3923 Clear 4 1027 100 8000 0.51 0 18:37 31.12.2021
3924 Clear 8 1028 87 10000 0.45 82 17:40 31.12.2021
3925 Clear 8 1027 89 10000 3.09 90 17:18 31.12.2021
3926 Clear 10 1027 88 10000 0.45 82 16:25 31.12.2021
3927 Clear 10 1027 86 10000 2.57 110 15:57 31.12.2021
3928 Clear 11 1027 83 10000 0.51 0 15:28 31.12.2021
3929 Clouds 11 1027 87 10000 2.06 140 14:56 31.12.2021
3930 Clear 11 1028 87 10000 1.34 207 14:30 31.12.2021
3931 Clear 10 1027 85 10000 1.79 258 13:36 31.12.2021
3932 Clouds 10 1027 87 10000 1.79 319 12:45 31.12.2021
3933 Clouds 10 1027 87 10000 1.79 319 12:45 31.12.2021
3934 Clouds 9 1026 93 10000 1.35 227 11:51 31.12.2021
3935 Fog 8 1027 95 500 1.34 90 11:30 31.12.2021
3936 Fog 7 1027 97 750 0.51 0 10:38 31.12.2021
3937 Fog 7 1027 95 450 1.34 95 09:55 31.12.2021
3938 Clouds 7 1027 94 10000 0.89 106 09:32 31.12.2021
3939 Fog 5 1026 95 600 0.89 105 08:39 31.12.2021
3940 Clouds 6 1027 94 10000 1.57 180 07:31 31.12.2021
3941 Clouds 9 1027 94 10000 0.89 95 23:32 30.12.2021
3942 Clouds 9 1026 92 10000 3.6 80 22:33 30.12.2021
3943 Clouds 9 1025 94 10000 3.6 80 21:59 30.12.2021
3944 Clouds 9 1025 94 10000 3.6 80 21:59 30.12.2021
3945 Clouds 10 1025 93 10000 3.6 80 21:37 30.12.2021
3946 Clouds 10 1025 92 10000 3.09 90 20:47 30.12.2021
3947 Clouds 10 1026 91 10000 3.09 90 20:28 30.12.2021
3948 Clouds 10 1026 91 10000 3.09 80 19:48 30.12.2021
3949 Clouds 11 1026 92 10000 2.57 80 18:51 30.12.2021
3950 Clouds 11 1026 91 10000 2.57 80 18:20 30.12.2021
3951 Clouds 13 1025 88 10000 1.54 60 16:27 30.12.2021
3952 Clouds 13 1024 86 10000 2.06 120 15:52 30.12.2021
3953 Clouds 13 1024 86 10000 2.06 120 15:52 30.12.2021
3954 Clouds 14 1024 86 10000 1.34 255 14:41 30.12.2021
3955 Clouds 14 1024 87 10000 1.79 225 13:57 30.12.2021
3956 Clouds 13 1025 92 10000 2.57 100 12:52 30.12.2021
3957 Clouds 12 1026 93 10000 0.51 0 11:22 30.12.2021
3958 Clouds 11 1025 94 10000 1.03 0 09:59 30.12.2021
3959 Clouds 10 1025 93 10000 1.54 140 09:23 30.12.2021
3960 Clouds 11 1024 91 9000 3.09 100 06:54 30.12.2021
3961 Clouds 11 1022 90 10000 1.03 0 04:20 30.12.2021
3962 Clouds 11 1022 89 10000 1.03 0 03:39 30.12.2021
3963 Clouds 12 1021 86 10000 1.34 280 00:35 30.12.2021
3964 Clouds 12 1020 87 10000 1.79 270 23:31 29.12.2021
3965 Clouds 12 1019 88 10000 2.68 305 22:30 29.12.2021
3966 Clouds 11 1019 91 10000 4.02 270 21:53 29.12.2021
3967 Drizzle 11 1017 94 6000 1.03 0 20:40 29.12.2021
3968 Clouds 10 1017 94 6000 1.03 130 19:54 29.12.2021
3969 Clouds 10 1016 93 6000 2.06 100 19:25 29.12.2021
3970 Mist 9 1016 94 5000 2.06 90 18:19 29.12.2021
3971 Mist 7 1016 94 5000 2.06 80 17:29 29.12.2021
3972 Mist 7 1016 94 4200 2.06 90 16:58 29.12.2021
3973 Drizzle 7 1015 94 3000 2.06 80 16:19 29.12.2021
3974 Drizzle 7 1015 94 3400 0.89 90 14:46 29.12.2021
3975 Rain 6 1015 92 6000 1.03 80 12:49 29.12.2021
3976 Rain 6 1015 92 6000 1.03 80 12:27 29.12.2021
3977 Rain 6 1015 89 10000 4.12 150 10:36 29.12.2021
3978 Rain 7 1015 83 10000 2.68 250 08:37 29.12.2021
3979 Clouds 8 1013 76 10000 3.13 275 06:48 29.12.2021
3980 Clouds 8 1032 76 10000 3.6 290 06:27 29.12.2021
3981 Clouds 8 1013 75 10000 1.79 275 05:44 29.12.2021
3982 Clouds 8 1013 77 10000 2.68 270 03:46 29.12.2021
3983 Clouds 8 1011 79 10000 3.58 265 00:25 29.12.2021
3984 Clouds 8 1010 77 10000 4.02 260 23:56 28.12.2021
3985 Clouds 8 1009 82 10000 4.02 270 22:50 28.12.2021
3986 Clouds 8 1009 82 10000 3.13 275 22:24 28.12.2021
3987 Clouds 8 1008 80 10000 6.26 265 21:54 28.12.2021
3988 Rain 8 1008 81 10000 4.92 260 20:54 28.12.2021
3989 Clouds 8 1009 84 10000 6.26 270 19:50 28.12.2021
3990 Clouds 8 1009 87 10000 4.92 260 18:50 28.12.2021
3991 Clouds 8 1008 87 10000 1.79 260 18:23 28.12.2021
3992 Rain 8 1008 82 10000 5.36 260 17:25 28.12.2021
3993 Clouds 10 1007 78 10000 4.02 260 15:52 28.12.2021
3994 Clouds 10 1007 78 10000 7.15 250 15:29 28.12.2021
3995 Rain 10 1007 80 10000 5.36 255 14:54 28.12.2021
3996 Clouds 10 1007 82 10000 5.36 245 14:22 28.12.2021
3997 Clouds 10 1006 84 10000 6.17 230 13:54 28.12.2021
3998 Clouds 10 1006 85 10000 5.14 220 13:33 28.12.2021
3999 Clouds 10 1005 85 10000 5.66 230 12:55 28.12.2021
4000 Clouds 9 1005 90 10000 2.06 110 12:18 28.12.2021
4001 Mist 7 1005 94 5000 1.54 310 09:32 28.12.2021
4002 Rain 6 1004 93 6000 2.06 90 07:33 28.12.2021
4003 Clouds 5 1004 92 5000 0.51 0 03:31 28.12.2021
4004 Clouds 5 1007 90 7000 1.54 130 23:37 27.12.2021
4005 Clouds 6 1007 92 10000 3.09 90 22:20 27.12.2021
4006 Clouds 6 1007 91 10000 4.12 80 21:30 27.12.2021
4007 Clouds 6 1007 92 10000 1.54 80 20:32 27.12.2021
4008 Clouds 6 1007 93 10000 3.09 90 19:47 27.12.2021
4009 Clouds 6 1035 93 10000 3.09 90 19:27 27.12.2021
4010 Rain 5 1006 94 4000 2.06 90 17:51 27.12.2021
4011 Mist 5 1005 94 4000 2.06 90 17:28 27.12.2021
4012 Clouds 5 1005 94 10000 3.09 100 15:56 27.12.2021
4013 Drizzle 5 1005 94 10000 1.03 0 15:19 27.12.2021
4014 Clouds 5 1004 94 10000 1.03 0 14:22 27.12.2021
4015 Clouds 5 1004 94 10000 0 0 12:52 27.12.2021
4016 Fog 4 1005 94 4000 1.54 110 10:40 27.12.2021
4017 Fog 4 1005 94 4000 1.54 110 10:22 27.12.2021
4018 Fog 3 1005 94 200 1.03 70 08:43 27.12.2021
4019 Fog 3 1005 91 300 0.51 0 07:34 27.12.2021
4020 Mist 3 1006 91 200 0.51 0 06:27 27.12.2021
4021 Mist 5 1008 93 4700 2.57 90 01:52 27.12.2021
4022 Mist 5 1008 94 700 0.51 0 23:49 26.12.2021
4023 Mist 5 1008 93 3700 1.03 0 23:19 26.12.2021
4024 Mist 5 1008 93 5000 0.51 0 21:37 26.12.2021
4025 Rain 6 1008 94 7000 2.06 70 19:55 26.12.2021
4026 Rain 6 1008 93 10000 2.57 100 18:45 26.12.2021
4027 Clouds 6 1008 93 10000 1.54 70 18:21 26.12.2021
4028 Clouds 7 1008 92 10000 1.54 0 15:53 26.12.2021
4029 Clouds 6 1008 92 10000 0.51 0 13:51 26.12.2021
4030 Rain 6 1028 92 10000 0.51 0 13:32 26.12.2021
4031 Clouds 6 1008 92 10000 1.03 0 12:36 26.12.2021
4032 Clouds 6 1008 93 10000 2.06 150 11:24 26.12.2021
4033 Clouds 5 1008 92 7000 1.03 0 09:35 26.12.2021
4034 Clouds 4 1008 92 6000 1.54 90 08:50 26.12.2021
4035 Clouds 4 1008 92 6000 1.54 90 08:27 26.12.2021
4036 Drizzle 4 1007 92 4700 0.51 0 02:19 26.12.2021
4037 Drizzle 4 1007 92 5000 0.51 0 00:43 26.12.2021
4038 Rain 4 1007 93 5000 1.54 140 23:48 25.12.2021
4039 Drizzle 4 1007 92 2900 1.03 120 22:39 25.12.2021
4040 Mist 4 1007 94 1300 1.54 120 22:20 25.12.2021
4041 Fog 4 1007 94 250 1.54 110 20:27 25.12.2021
4042 Fog 4 1007 93 5000 0.51 0 19:19 25.12.2021
4043 Fog 4 1007 93 2500 1.54 0 18:39 25.12.2021
4044 Clouds 5 1006 92 5000 1.03 0 16:52 25.12.2021
4045 Clouds 6 1006 90 9000 1.03 0 15:48 25.12.2021
4046 Clouds 6 1006 89 10000 1.54 0 14:24 25.12.2021
4047 Clouds 6 1006 89 10000 2.57 100 12:42 25.12.2021
4048 Clouds 4 1007 92 10000 0.51 0 11:21 25.12.2021
4049 Clouds 3 1007 91 8000 0.51 0 09:49 25.12.2021
4050 Clouds 1 1007 91 5000 0.51 30 07:39 25.12.2021
4051 Clouds 3 1008 90 8000 1.54 80 01:45 25.12.2021
4052 Clouds 3 1009 89 10000 1.54 230 00:27 25.12.2021
4053 Clouds 4 1009 88 10000 2.06 120 22:28 24.12.2021
4054 Clouds 4 1009 86 10000 3.09 90 19:36 24.12.2021
4055 Clouds 4 1009 86 10000 1.54 110 19:18 24.12.2021
4056 Clouds 5 1010 79 10000 1.03 0 16:50 24.12.2021
4057 Clouds 5 1010 77 10000 1.03 180 15:54 24.12.2021
4058 Clouds 6 1010 77 10000 1.03 130 15:34 24.12.2021
4059 Clouds 6 1010 75 10000 1.54 80 14:40 24.12.2021
4060 Clouds 6 1010 75 10000 1.54 80 14:19 24.12.2021
4061 Clouds 5 1011 77 10000 2.57 100 13:34 24.12.2021
4062 Clouds 4 1011 79 10000 2.06 80 12:47 24.12.2021
4063 Clouds 4 1012 79 10000 3.6 80 11:52 24.12.2021
4064 Clouds 4 1012 82 10000 3.6 80 11:25 24.12.2021
4065 Clouds 4 1012 77 10000 3.09 70 10:46 24.12.2021
4066 Clouds 2 1013 83 10000 1.34 170 09:32 24.12.2021
4067 Clear 1 1013 79 10000 1.03 250 08:23 24.12.2021
4068 Clouds 1 1013 82 10000 0.51 0 07:46 24.12.2021
4069 Clouds 2 1015 83 10000 1.03 0 01:30 24.12.2021
4070 Clouds 2 1016 82 10000 0 0 23:55 23.12.2021
4071 Clouds 2 1017 82 10000 0.51 0 22:56 23.12.2021
4072 Clouds 2 1017 83 10000 0.51 0 22:37 23.12.2021
4073 Clouds 2 1017 81 10000 0.51 0 22:18 23.12.2021
4074 Clouds 2 1017 80 10000 1.54 100 20:56 23.12.2021
4075 Clouds 2 1017 81 10000 3.09 100 19:47 23.12.2021
4076 Clouds 3 1017 79 10000 2.06 90 18:34 23.12.2021
4077 Clouds 3 1017 79 10000 2.57 110 17:55 23.12.2021
4078 Clouds 3 1017 78 10000 1.34 105 16:43 23.12.2021
4079 Clouds 3 1017 77 10000 4.12 110 16:23 23.12.2021
4080 Clouds 3 1017 77 10000 3.09 130 15:31 23.12.2021
4081 Clouds 3 1018 83 10000 2.06 140 14:49 23.12.2021
4082 Clouds 3 1018 83 10000 2.06 140 14:30 23.12.2021
4083 Clouds 1 1019 89 4000 2.57 160 12:53 23.12.2021
4084 Clouds -1 1020 91 4000 2.57 130 10:43 23.12.2021
4085 Clouds -2 1020 89 4000 2.57 160 09:35 23.12.2021
4086 Clouds -3 1020 89 4000 2.57 150 08:59 23.12.2021
4087 Clouds -3 1020 89 5000 0.89 100 06:51 23.12.2021
4088 Clouds -3 1021 89 5000 1.54 50 04:30 23.12.2021
4089 Clouds -3 1022 86 7000 0.45 115 22:57 22.12.2021
4090 Clouds -3 1022 87 6000 0.45 105 22:39 22.12.2021
4091 Clouds -3 1022 86 6000 2.06 190 21:54 22.12.2021
4092 Clouds -3 1040 87 9000 1.79 210 21:29 22.12.2021
4093 Clouds -3 1023 88 7000 0.45 230 20:44 22.12.2021
4094 Clouds -3 1023 88 7000 1.79 245 20:25 22.12.2021
4095 Clouds -3 1023 86 10000 1.03 0 19:19 22.12.2021
4096 Clouds -3 1023 85 10000 2.57 170 17:42 22.12.2021
4097 Clouds -2 1023 85 10000 0.89 125 16:38 22.12.2021
4098 Clouds -1 1023 88 8000 1.03 0 15:39 22.12.2021
4099 Clouds -2 1023 88 8000 1.03 0 13:32 22.12.2021
4100 Clouds -2 1024 83 8000 0.51 0 12:39 22.12.2021
4101 Clouds -3 1024 87 7000 1.54 150 09:54 22.12.2021
4102 Clouds -3 1024 86 7000 1.54 150 09:35 22.12.2021
4103 Clouds -3 1023 86 8000 2.57 190 07:25 22.12.2021
4104 Clouds -3 1023 86 6000 2.06 60 05:42 22.12.2021
4105 Clouds -3 1023 86 7000 2.06 80 05:24 22.12.2021
4106 Clouds -3 1023 86 10000 2.57 100 04:47 22.12.2021
4107 Clouds -3 1023 86 7000 2.06 100 04:24 22.12.2021
4108 Clouds -3 1023 86 6000 2.06 90 03:32 22.12.2021
4109 Clouds -3 1023 83 6000 3.13 95 00:33 22.12.2021
4110 Clouds -3 1023 90 9000 3.6 130 22:52 21.12.2021
4111 Clouds -3 1023 90 10000 3.09 140 22:27 21.12.2021
4112 Clouds -3 1023 88 7000 3.6 140 21:43 21.12.2021
4113 Clouds -3 1023 88 8000 2.06 140 20:54 21.12.2021
4114 Clouds -3 1022 88 10000 1.54 100 20:20 21.12.2021
4115 Clouds -2 1023 87 8000 2.06 80 19:41 21.12.2021
4116 Clouds -2 1022 87 8000 3.09 120 18:43 21.12.2021
4117 Clouds -2 1022 82 8000 3.13 95 18:21 21.12.2021
4118 Clouds -2 1023 86 8000 2.57 120 17:41 21.12.2021
4119 Clouds -1 1022 84 9000 1.79 90 15:55 21.12.2021
4120 Clouds -1 1022 83 10000 1.79 95 15:20 21.12.2021
4121 Clouds 0 1021 83 10000 1.34 85 13:50 21.12.2021
4122 Clouds -1 1022 83 10000 0.89 95 13:29 21.12.2021
4123 Clouds -2 1023 87 10000 1.79 85 10:56 21.12.2021
4124 Clouds -2 1023 87 8000 2.24 130 10:21 21.12.2021
4125 Clouds -2 1023 88 7000 3.09 120 09:19 21.12.2021
4126 Clouds -2 1022 89 7000 2.57 120 07:55 21.12.2021
4127 Clouds -2 1022 90 10000 3.6 130 07:26 21.12.2021
4128 Clouds -2 1021 88 9000 3.6 160 05:31 21.12.2021
4129 Clouds -2 1021 86 9000 2.57 130 02:40 21.12.2021
4130 Clouds -2 1022 89 7000 1.03 0 23:58 20.12.2021
4131 Clouds -2 1022 89 10000 2.06 100 23:24 20.12.2021
4132 Clouds -2 1022 90 7000 2.06 80 22:28 20.12.2021
4133 Clouds -2 1022 90 10000 2.06 110 21:43 20.12.2021
4134 Clouds -2 1023 90 10000 2.57 90 21:23 20.12.2021
4135 Clouds -2 1024 90 7000 2.06 110 20:42 20.12.2021
4136 Clouds -2 1024 92 7000 3.09 110 19:50 20.12.2021
4137 Clouds -2 1024 91 8000 3.09 100 19:30 20.12.2021
4138 Clouds -1 1023 88 10000 2.57 100 18:53 20.12.2021
4139 Clouds -1 1023 89 9000 2.57 100 17:52 20.12.2021
4140 Clouds -1 1023 89 9000 2.57 100 17:23 20.12.2021
4141 Clouds -1 1023 88 9000 2.57 110 16:38 20.12.2021
4142 Clouds 0 1023 88 10000 3.09 120 15:48 20.12.2021
4143 Clouds 1 1023 90 8000 2.57 120 14:42 20.12.2021
4144 Clouds 1 1023 97 10000 3.49 47 12:51 20.12.2021
4145 Clouds 0 1024 93 10000 2.81 48 11:19 20.12.2021
4146 Clouds -2 1024 93 5000 1.54 100 09:47 20.12.2021
4147 Clouds -2 1024 91 5000 1.54 170 08:58 20.12.2021
4148 Clouds -2 1024 91 5000 1.54 170 08:40 20.12.2021
4149 Clouds -3 1024 92 5000 1.03 0 07:49 20.12.2021
4150 Clouds -3 1023 92 6000 1.54 0 06:47 20.12.2021
4151 Fog -3 1024 92 1200 1.03 90 03:42 20.12.2021
4152 Mist -2 1024 93 2100 1.03 0 23:51 19.12.2021
4153 Fog -2 1025 93 800 1.54 60 22:45 19.12.2021
4154 Fog -2 1025 92 800 1.03 0 21:49 19.12.2021
4155 Mist -2 1025 92 1100 1.03 0 21:26 19.12.2021
4156 Mist -2 1025 92 1000 2.06 130 20:30 19.12.2021
4157 Mist -2 1025 91 1500 2.57 160 19:46 19.12.2021
4158 Mist -2 1026 92 1300 0.45 90 18:57 19.12.2021
4159 Mist -2 1026 93 1200 1.34 95 18:24 19.12.2021
4160 Mist -1 1026 92 1500 1.54 120 17:46 19.12.2021
4161 Mist -1 1026 92 1200 1.54 0 17:18 19.12.2021
4162 Mist 0 1027 95 1500 1.54 60 16:24 19.12.2021
4163 Mist 0 1027 95 1500 0.51 0 15:26 19.12.2021
4164 Mist 0 1027 99 1500 1.54 0 14:50 19.12.2021
4165 Mist 0 1028 95 1500 1.03 0 13:46 19.12.2021
4166 Mist 0 1029 95 2500 1.03 0 13:21 19.12.2021
4167 Mist 0 1029 95 2000 1.54 0 12:33 19.12.2021
4168 Mist 0 1029 95 2000 1.54 0 12:33 19.12.2021
4169 Mist 0 1030 95 3400 1.03 0 11:40 19.12.2021
4170 Mist -1 1031 92 3000 1.03 0 10:53 19.12.2021
4171 Mist -1 1031 92 2000 1.54 0 10:23 19.12.2021
4172 Mist -1 1031 92 2000 1.54 0 10:23 19.12.2021
4173 Mist -2 1031 91 2000 2.06 170 09:26 19.12.2021
4174 Mist -2 1031 90 2600 1.34 95 07:47 19.12.2021
4175 Clouds -2 1033 89 5000 1.03 0 02:35 19.12.2021
4176 Clouds -2 1033 89 10000 0.45 171 00:55 19.12.2021
4177 Clouds -2 1033 89 10000 0.45 171 00:55 19.12.2021
4178 Clouds -2 1033 90 5000 1.03 0 23:52 18.12.2021
4179 Mist -2 1034 89 4900 1.03 120 22:31 18.12.2021
4180 Clouds -2 1033 88 5000 0.51 120 21:54 18.12.2021
4181 Clouds -2 1033 87 5000 0.51 120 21:33 18.12.2021
4182 Clear -1 1033 89 10000 0.51 0 20:43 18.12.2021
4183 Clear -1 1033 85 10000 1.54 120 19:50 18.12.2021
4184 Clear -1 1033 86 10000 1.54 0 19:19 18.12.2021
4185 Clouds 0 1033 84 7000 2.06 140 18:18 18.12.2021
4186 Clear 0 1032 85 10000 1.54 90 17:46 18.12.2021
4187 Clear 3 1032 80 10000 1.54 130 16:23 18.12.2021
4188 Clear 4 1031 79 10000 2.57 130 15:25 18.12.2021
4189 Clear 4 1031 78 9000 0.45 85 14:22 18.12.2021
4190 Clouds 3 1032 84 7000 0.45 115 12:39 18.12.2021
4191 Clouds 1 1033 88 6000 1.79 90 10:52 18.12.2021
4192 Clouds 0 1033 88 5000 2.24 100 09:33 18.12.2021
4193 Clouds -1 1033 86 5000 2.68 90 08:41 18.12.2021
4194 Clouds -1 1033 90 6000 2.57 80 08:18 18.12.2021
4195 Clouds 0 1034 88 10000 1.54 120 01:48 18.12.2021
4196 Clouds 0 1035 88 10000 2.57 120 00:27 18.12.2021
4197 Clouds 0 1035 90 10000 2.57 110 23:37 17.12.2021
4198 Clouds 1 1035 89 9000 1.03 60 21:55 17.12.2021
4199 Clouds 1 1035 89 10000 1.54 110 20:51 17.12.2021
4200 Clouds 1 1035 89 8000 1.54 140 20:28 17.12.2021
4201 Clouds 1 1035 88 8000 1.54 0 18:54 17.12.2021
4202 Clouds 1 1035 88 9000 1.54 190 18:21 17.12.2021
4203 Clouds 1 1035 84 10000 2.57 170 17:26 17.12.2021
4204 Clouds 1 1035 83 10000 3.09 150 16:44 17.12.2021
4205 Clouds 2 1035 86 10000 1.34 100 16:19 17.12.2021
4206 Clouds 3 1035 85 10000 2.57 150 15:19 17.12.2021
4207 Clouds 3 1035 85 10000 1.54 160 14:34 17.12.2021
4208 Clouds 3 1036 85 10000 0.45 95 12:45 17.12.2021
4209 Clouds 2 1036 87 10000 2.06 100 11:22 17.12.2021
4210 Clouds 2 1036 90 8000 1.03 0 09:55 17.12.2021
4211 Clouds 1 1036 88 7000 1.03 0 08:58 17.12.2021
4212 Clouds 1 1035 89 7000 1.03 100 08:20 17.12.2021
4213 Clouds 1 1034 88 7000 1.54 150 05:25 17.12.2021
4214 Clouds 1 1033 88 9000 0.45 120 02:52 17.12.2021
4215 Clouds 1 1034 88 10000 1.34 70 22:52 16.12.2021
4216 Clouds 1 1034 90 10000 2.68 110 22:23 16.12.2021
4217 Clouds 1 1034 90 10000 2.68 110 22:23 16.12.2021
4218 Clouds 1 1034 88 10000 1.34 105 21:45 16.12.2021
4219 Clouds 1 1035 90 10000 0.45 60 21:20 16.12.2021
4220 Clouds 2 1035 90 10000 0.45 110 20:27 16.12.2021
4221 Clouds 1 1035 90 10000 0.45 90 19:35 16.12.2021
4222 Clouds 1 1035 92 10000 0.89 120 18:37 16.12.2021
4223 Clouds 1 1035 92 10000 3.13 100 17:49 16.12.2021
4224 Clouds 1 1035 92 10000 0.89 115 17:19 16.12.2021
4225 Clouds 2 1035 92 10000 1.79 110 16:20 16.12.2021
4226 Clouds 2 1034 95 10000 0.45 55 14:50 16.12.2021
4227 Clouds 2 1035 95 8000 1.03 0 12:48 16.12.2021
4228 Clouds 1 1035 96 8000 2.57 110 11:19 16.12.2021
4229 Clouds 1 1035 96 7000 2.57 120 10:46 16.12.2021
4230 Clouds 1 1035 95 7000 2.06 100 09:59 16.12.2021
4231 Clouds 0 1034 95 10000 2.57 90 07:21 16.12.2021
4232 Clouds 0 1034 96 9000 2.57 130 06:19 16.12.2021
4233 Clouds 0 1033 96 6000 2.06 120 00:53 16.12.2021
4234 Mist 0 1033 95 4600 0.51 0 23:21 15.12.2021
4235 Clouds 0 1047 95 6000 1.54 120 22:26 15.12.2021
4236 Fog 0 1032 96 800 1.03 0 21:49 15.12.2021
4237 Fog 0 1032 96 650 1.03 0 21:26 15.12.2021
4238 Mist 0 1032 95 2200 1.34 260 19:55 15.12.2021
4239 Mist 0 1031 95 2500 1.03 0 19:22 15.12.2021
4240 Mist 0 1031 95 1500 0.51 0 18:26 15.12.2021
4241 Mist 0 1031 95 1500 0.51 0 17:49 15.12.2021
4242 Mist 0 1031 95 1300 1.54 0 17:27 15.12.2021
4243 Mist 1 1030 97 1400 3.09 280 16:25 15.12.2021
4244 Mist 1 1030 95 1500 3.6 290 15:42 15.12.2021
4245 Mist 1 1030 95 1400 3.09 270 15:24 15.12.2021
4246 Mist 2 1030 85 1000 1.03 0 13:58 15.12.2021
4247 Fog 1 1031 94 1300 1.54 290 11:57 15.12.2021
4248 Fog 0 1031 97 300 0 0 10:23 15.12.2021
4249 Fog -1 1030 94 250 1.54 0 08:34 15.12.2021
4250 Fog -1 1030 94 200 1.54 190 05:59 15.12.2021
4251 Fog -1 1030 94 200 1.03 0 00:45 15.12.2021
4252 Fog -1 1030 95 350 0.51 0 23:32 14.12.2021
4253 Fog 0 1030 94 250 1.03 0 22:45 14.12.2021
4254 Fog 0 1030 94 150 0.51 0 21:48 14.12.2021
4255 Fog 1 1030 94 150 1.03 260 20:24 14.12.2021
4256 Fog 0 1029 94 500 1.54 0 19:39 14.12.2021
4257 Fog 1 1029 96 550 0.45 270 18:42 14.12.2021
4258 Fog 1 1029 96 300 2.06 140 17:57 14.12.2021
4259 Mist 1 1029 94 1000 3.09 140 16:58 14.12.2021
4260 Mist 1 1029 94 1000 3.09 140 16:35 14.12.2021
4261 Fog 3 1028 94 350 1.03 0 14:39 14.12.2021
4262 Fog 3 1029 99 400 1.03 0 13:24 14.12.2021
4263 Mist 1 1029 96 1100 1.54 100 11:56 14.12.2021
4264 Fog 1 1030 100 1000 1.54 110 11:22 14.12.2021
4265 Fog 0 1029 96 250 1.03 0 09:55 14.12.2021
4266 Fog -1 1029 98 350 1.34 255 09:22 14.12.2021
4267 Fog -1 1029 94 750 1.34 255 08:23 14.12.2021
4268 Fog -1 1029 95 600 2.57 140 07:42 14.12.2021
4269 Fog -1 1029 95 200 0.51 180 00:35 14.12.2021
4270 Clouds -2 1029 95 5000 1.03 150 22:49 13.12.2021
4271 Fog -2 1029 93 7000 0.51 0 21:49 13.12.2021
4272 Clouds -1 1029 95 6000 0.51 0 20:58 13.12.2021
4273 Clouds -1 1029 94 6000 0 0 20:29 13.12.2021
4274 Mist -1 1030 90 5000 0 0 19:51 13.12.2021
4275 Clear 0 1029 90 10000 2.06 130 17:56 13.12.2021
4276 Clear 0 1029 89 10000 1.54 90 17:23 13.12.2021
4277 Clear 2 1028 86 10000 1.54 140 15:49 13.12.2021
4278 Clear 3 1028 82 10000 1.54 0 15:18 13.12.2021
4279 Clear 3 1029 78 10000 2.06 150 13:38 13.12.2021
4280 Clouds 2 1030 84 10000 1.03 200 12:42 13.12.2021
4281 Fog 2 1030 88 4000 0.51 0 11:54 13.12.2021
4282 Fog 1 1029 90 4000 0.51 0 11:35 13.12.2021
4283 Fog 0 1030 88 1000 0.51 0 10:41 13.12.2021
4284 Clear -3 1029 92 10000 0.51 0 08:52 13.12.2021
4285 Clear -3 1029 92 10000 0.51 140 07:37 13.12.2021
4286 Clouds -3 1028 93 9000 0.51 0 05:23 13.12.2021
4287 Clouds -2 1029 93 10000 0 0 00:42 13.12.2021
4288 Clouds -2 1029 93 10000 0.51 0 21:59 12.12.2021
4289 Clouds -1 1029 92 10000 0.51 0 21:33 12.12.2021
4290 Clear -1 1029 92 10000 2.06 100 19:38 12.12.2021
4291 Clear 0 1029 90 10000 0.51 0 18:28 12.12.2021
4292 Clouds 1 1029 86 10000 1.03 190 16:58 12.12.2021
4293 Clouds 1 1029 86 10000 1.03 200 16:27 12.12.2021
4294 Clouds 2 1029 85 10000 1.54 0 15:41 12.12.2021
4295 Clouds 2 1028 85 10000 1.54 120 15:21 12.12.2021
4296 Rain 1 1044 88 10000 1.54 60 14:30 12.12.2021
4297 Clouds 1 1029 91 10000 1.03 200 12:56 12.12.2021
4298 Clouds 0 1029 91 10000 1.03 280 12:26 12.12.2021
4299 Clouds 0 1029 95 10000 1.03 0 11:43 12.12.2021
4300 Fog -1 1029 94 750 0.51 0 10:56 12.12.2021
4301 Fog -1 1029 93 500 1.03 0 10:22 12.12.2021
4302 Fog -3 1028 93 450 1.03 0 08:54 12.12.2021
4303 Clouds -3 1028 93 7000 1.54 0 07:31 12.12.2021
4304 Fog -3 1027 94 5000 1.54 120 05:56 12.12.2021
4305 Fog -3 1026 96 350 2.06 80 04:55 12.12.2021
4306 Fog -2 1026 94 350 1.03 250 02:58 12.12.2021
4307 Clouds 0 1025 92 8000 1.54 90 23:31 11.12.2021
4308 Clouds 0 1025 92 5000 1.54 110 22:22 11.12.2021
4309 Clouds 1 1025 92 7000 1.03 90 21:51 11.12.2021
4310 Clouds 1 1024 92 8000 1.54 70 20:24 11.12.2021
4311 Clouds 1 1023 92 10000 2.06 120 19:21 11.12.2021
4312 Clouds 2 1023 93 9000 1.54 90 18:51 11.12.2021
4313 Clouds 2 1023 93 8000 1.03 110 18:19 11.12.2021
4314 Drizzle 2 1022 91 10000 1.03 80 16:59 11.12.2021
4315 Clouds 2 1021 90 10000 2.57 130 15:48 11.12.2021
4316 Clouds 2 1020 90 8000 2.57 120 14:54 11.12.2021
4317 Clouds 2 1019 90 10000 1.34 265 12:42 11.12.2021
4318 Snow 2 1018 88 10000 1.34 280 11:24 11.12.2021
4319 Rain 2 1016 90 8000 1.34 275 09:45 11.12.2021
4320 Rain 2 1016 90 8000 1.34 275 09:45 11.12.2021
4321 Snow 1 1014 88 10000 1.79 260 07:32 11.12.2021
4322 Clouds 1 1009 88 10000 3.13 270 00:51 11.12.2021
4323 Clouds 1 1008 91 10000 3.13 270 23:49 10.12.2021
4324 Rain 1 1007 90 10000 3.13 270 23:18 10.12.2021
4325 Snow 1 1007 92 10000 3.13 270 21:52 10.12.2021
4326 Clouds 2 1005 89 10000 3.13 270 20:57 10.12.2021
4327 Clouds 2 1004 90 10000 2.68 285 19:21 10.12.2021
4328 Clouds 2 1002 90 10000 2.24 275 17:54 10.12.2021
4329 Clouds 2 1000 92 9000 4.47 265 16:55 10.12.2021
4330 Rain 2 999 92 9000 5.81 260 15:51 10.12.2021
4331 Clouds 2 999 92 8000 5.36 255 15:29 10.12.2021
4332 Rain 2 998 91 9000 4.92 260 14:59 10.12.2021
4333 Snow 2 997 92 5000 2.68 270 13:51 10.12.2021
4334 Clouds 2 997 91 10000 1.54 90 13:25 10.12.2021
4335 Snow 1 997 94 3500 2.57 120 12:34 10.12.2021
4336 Snow 0 997 93 2500 2.57 110 11:28 10.12.2021
4337 Snow -1 997 93 600 0.89 295 09:54 10.12.2021
4338 Mist -1 997 91 3000 0.51 0 08:32 10.12.2021
4339 Clouds -3 1021 92 10000 1.34 295 05:57 10.12.2021
4340 Clouds -3 1002 89 10000 1.03 0 02:48 10.12.2021
4341 Clouds -3 1007 100 10000 3.09 100 23:54 09.12.2021
4342 Fog -2 1008 100 10000 2.06 100 23:20 09.12.2021
4343 Clouds -1 1008 93 10000 2.06 100 22:24 09.12.2021
4344 Clouds -1 1009 93 10000 2.57 120 21:50 09.12.2021
4345 Clouds -1 1009 100 10000 1.03 0 20:41 09.12.2021
4346 Clouds -1 1009 100 10000 1.03 0 20:41 09.12.2021
4347 Clouds 0 1009 93 10000 1.54 130 20:20 09.12.2021
4348 Clouds 0 1009 93 10000 2.57 120 19:21 09.12.2021
4349 Clouds 0 1009 93 10000 1.03 0 18:36 09.12.2021
4350 Clouds 1 1009 93 10000 2.06 140 17:51 09.12.2021
4351 Clouds 1 1009 92 10000 2.57 140 17:25 09.12.2021
4352 Clouds 2 1009 87 10000 3.09 130 16:53 09.12.2021
4353 Clouds 3 1010 86 10000 1.03 160 15:32 09.12.2021
4354 Clouds 3 1010 85 10000 2.24 265 14:46 09.12.2021
4355 Clouds 3 1010 88 10000 2.57 120 13:20 09.12.2021
4356 Clouds 3 1010 90 10000 1.54 150 12:37 09.12.2021
4357 Clouds 2 1010 91 8000 1.03 300 11:21 09.12.2021
4358 Mist 1 1009 95 3900 0.51 50 08:54 09.12.2021
4359 Mist 1 1007 96 4000 1.03 0 06:21 09.12.2021
4360 Snow 1 1006 96 2700 1.03 0 03:40 09.12.2021
4361 Fog 1 1004 96 600 1.03 170 23:43 08.12.2021
4362 Drizzle 1 1004 96 750 1.03 210 23:21 08.12.2021
4363 Snow 1 1004 96 500 0.51 310 22:47 08.12.2021
4364 Fog 1 1003 96 1000 0 0 21:40 08.12.2021
4365 Snow 1 1003 96 2000 0.51 0 20:59 08.12.2021
4366 Snow 1 1003 94 3000 0.51 0 19:58 08.12.2021
4367 Snow 1 1003 94 3000 0.51 0 19:58 08.12.2021
4368 Snow 1 1003 94 3000 0.51 0 19:58 08.12.2021
4369 Snow 1 1003 93 3000 1.54 100 19:33 08.12.2021
4370 Snow 1 1003 94 3000 2.06 90 18:40 08.12.2021
4371 Snow 2 1002 93 3000 2.06 90 17:34 08.12.2021
4372 Snow 2 1002 93 3200 1.79 90 15:49 08.12.2021
4373 Snow 2 1002 93 4000 2.57 110 15:28 08.12.2021
4374 Snow 2 1002 93 3000 1.54 110 14:30 08.12.2021
4375 Rain 2 1003 94 2400 1.34 100 10:55 08.12.2021
4376 Snow 2 1003 94 4000 2.06 120 10:31 08.12.2021
4377 Snow 2 1003 94 4000 2.06 120 10:31 08.12.2021
4378 Snow 2 1002 95 3000 0 0 08:55 08.12.2021
4379 Snow 2 1024 95 4400 1.03 130 07:25 08.12.2021
4380 Snow 2 1004 93 8000 2.06 90 02:30 08.12.2021
4381 Clouds 2 1005 92 10000 1.03 0 23:33 07.12.2021
4382 Clouds 2 1006 91 10000 3.09 100 21:43 07.12.2021
4383 Clouds 2 1006 92 10000 2.06 100 21:23 07.12.2021
4384 Clouds 2 1007 92 10000 1.54 100 20:20 07.12.2021
4385 Clouds 2 1009 92 10000 0.51 0 18:43 07.12.2021
4386 Clouds 2 1008 89 10000 1.03 0 17:52 07.12.2021
4387 Clouds 2 1010 89 10000 1.54 0 17:19 07.12.2021
4388 Clear 3 1010 89 10000 2.06 240 16:31 07.12.2021
4389 Clouds 4 1011 82 10000 1.03 250 15:33 07.12.2021
4390 Clear 5 1013 81 10000 0.45 95 14:18 07.12.2021
4391 Clouds 4 1015 86 10000 1.34 220 12:49 07.12.2021
4392 Clouds 4 1016 86 10000 1.34 271 11:27 07.12.2021
4393 Clouds 3 1016 87 10000 2.57 130 10:33 07.12.2021
4394 Clouds 1 1017 93 7000 0.89 225 08:26 07.12.2021
4395 Rain 1 1017 92 10000 0.89 225 06:18 07.12.2021
4396 Clouds 1 1016 92 10000 0.89 225 05:33 07.12.2021
4397 Snow 1 1014 90 10000 1.54 100 23:47 06.12.2021
4398 Clouds 0 1014 89 10000 2.06 90 22:46 06.12.2021
4399 Clouds 0 1014 90 10000 3.09 150 22:23 06.12.2021
4400 Snow 0 1015 92 10000 1.03 0 21:51 06.12.2021
4401 Clouds 0 1015 90 9000 0.51 0 20:33 06.12.2021
4402 Clear 0 1014 93 10000 2.06 100 19:55 06.12.2021
4403 Clear 0 1014 93 10000 2.57 100 19:20 06.12.2021
4404 Clouds 0 1014 100 10000 1.03 130 18:23 06.12.2021
4405 Clouds 0 1015 93 10000 1.03 0 17:40 06.12.2021
4406 Clouds 2 1016 89 10000 0.51 0 16:32 06.12.2021
4407 Clouds 2 1016 90 10000 0 0 15:38 06.12.2021
4408 Clouds 3 1016 92 5000 1.34 235 13:46 06.12.2021
4409 Clouds 2 1016 92 5000 1.34 235 13:46 06.12.2021
4410 Clouds 2 1016 93 5000 0.51 0 12:39 06.12.2021
4411 Mist 1 1016 95 3000 1.54 170 10:38 06.12.2021
4412 Clouds 0 1015 94 5281 0.56 160 08:45 06.12.2021
4413 Mist 0 1032 94 2800 0.51 0 06:39 06.12.2021
4414 Snow 0 1008 93 1300 0.51 90 22:54 05.12.2021
4415 Snow 0 1007 93 10000 1.54 110 21:43 05.12.2021
4416 Snow 0 1007 92 7000 1.03 0 21:19 05.12.2021
4417 Clouds 0 1006 92 9000 1.03 150 20:19 05.12.2021
4418 Clouds 1 1006 90 10000 1.54 130 19:33 05.12.2021
4419 Snow 1 1006 89 10000 2.06 110 18:43 05.12.2021
4420 Rain 1 1006 89 10000 2.57 120 18:19 05.12.2021
4421 Rain 1 1006 88 10000 2.57 120 17:48 05.12.2021
4422 Clouds 2 1005 89 10000 2.06 110 16:47 05.12.2021
4423 Clouds 2 1005 91 10000 2.57 110 16:26 05.12.2021
4424 Clouds 3 1005 91 10000 2.06 130 15:34 05.12.2021
4425 Clouds 3 1005 92 10000 0.51 0 14:37 05.12.2021
4426 Clouds 3 1005 92 5000 1.54 330 14:19 05.12.2021
4427 Rain 2 1005 90 10000 4.02 250 13:22 05.12.2021
4428 Clouds 3 1005 90 10000 1.34 250 12:40 05.12.2021
4429 Clouds 3 1005 90 10000 1.54 150 12:18 05.12.2021
4430 Clouds 2 1006 91 10000 1.03 0 11:20 05.12.2021
4431 Rain 2 1006 92 10000 2.57 90 09:59 05.12.2021
4432 Clouds 1 1006 92 10000 1.54 0 07:55 05.12.2021
4433 Rain 2 1007 89 10000 0.51 0 03:27 05.12.2021
4434 Clouds 2 1009 88 10000 0.45 115 23:34 04.12.2021
4435 Clouds 4 1007 91 10000 4.12 220 21:54 04.12.2021
4436 Thunderstorm 3 1006 91 2200 0.45 205 20:55 04.12.2021
4437 Clouds 6 1003 86 10000 3.13 265 19:55 04.12.2021
4438 Clouds 6 1003 85 10000 4.92 270 19:32 04.12.2021
4439 Clouds 7 1004 87 10000 4.47 270 18:20 04.12.2021
4440 Rain 7 1004 85 10000 4.02 265 17:38 04.12.2021
4441 Clouds 7 1003 89 10000 4.92 260 16:49 04.12.2021
4442 Clouds 7 1003 89 5000 2.24 255 16:30 04.12.2021
4443 Rain 6 1003 90 3000 3.09 120 15:22 04.12.2021
4444 Clouds 6 1004 94 9986 0.45 91 11:50 04.12.2021
4445 Rain 5 1005 94 9986 3.04 210 11:32 04.12.2021
4446 Mist 5 1004 93 3500 0.51 0 10:44 04.12.2021
4447 Rain 5 1005 95 9101 3.22 202 08:47 04.12.2021
4448 Snow 3 1048 96 2400 1.03 0 06:26 04.12.2021
4449 Snow 2 1007 95 5000 1.03 240 04:42 04.12.2021
4450 Snow 1 1011 85 7000 1.54 0 00:18 04.12.2021
4451 Snow 1 1012 83 10000 0.51 0 23:26 03.12.2021
4452 Clouds 1 1012 84 10000 1.03 150 22:46 03.12.2021
4453 Clouds 0 1013 83 10000 1.54 130 21:26 03.12.2021
4454 Clouds 0 1014 83 10000 0.51 0 20:52 03.12.2021
4455 Clouds 0 1015 82 10000 1.66 190 19:50 03.12.2021
4456 Clouds 0 1015 80 10000 2.06 100 18:34 03.12.2021
4457 Clouds 0 1034 80 10000 2.57 150 17:59 03.12.2021
4458 Clear 2 1016 74 10000 0.45 235 15:47 03.12.2021
4459 Snow 2 1017 75 10000 0.45 210 12:54 03.12.2021
4460 Snow 1 1017 77 10000 2.06 130 12:19 03.12.2021
4461 Snow -1 1017 84 10000 3.09 130 10:55 03.12.2021
4462 Clear -4 1016 90 10000 2.57 120 08:27 03.12.2021
4463 Clear -4 1016 90 10000 2.06 110 07:43 03.12.2021
4464 Clouds -2 1014 88 10000 2.06 100 04:44 03.12.2021
4465 Clouds -1 1012 87 10000 1.03 0 00:48 03.12.2021
4466 Clouds 0 1012 87 10000 1.03 0 23:47 02.12.2021
4467 Clouds 0 1011 85 10000 1.03 0 22:36 02.12.2021
4468 Clouds 0 1010 86 10000 1.54 0 21:41 02.12.2021
4469 Clouds 0 1010 87 10000 0.51 0 20:40 02.12.2021
4470 Clouds 0 1010 88 10000 1.03 0 20:20 02.12.2021
4471 Snow 1 1008 87 10000 1.54 250 18:35 02.12.2021
4472 Drizzle 1 1005 88 10000 1.54 130 16:33 02.12.2021
4473 Snow 2 1003 88 1600 4.12 300 15:30 02.12.2021
4474 Rain 3 1002 86 10000 3.6 250 14:51 02.12.2021
4475 Clouds 5 1002 86 10000 2.68 280 13:26 02.12.2021
4476 Clouds 4 1003 90 10000 3.13 270 12:19 02.12.2021
4477 Clouds 4 1003 90 8000 1.54 100 10:41 02.12.2021
4478 Clouds 4 1004 90 10000 1.03 0 09:25 02.12.2021
4479 Rain 4 1003 89 10000 1.34 260 06:46 02.12.2021
4480 Rain 5 1004 87 10000 2.24 250 00:57 02.12.2021
4481 Clouds 5 1004 86 10000 0.45 265 23:34 01.12.2021
4482 Drizzle 6 1005 86 10000 2.24 235 22:25 01.12.2021
4483 Clouds 6 1005 84 10000 4.47 265 21:42 01.12.2021
4484 Clouds 6 1005 86 10000 6.26 250 20:18 01.12.2021
4485 Clouds 6 1005 86 10000 3.13 265 19:37 01.12.2021
4486 Clouds 6 1005 88 10000 4.02 265 17:51 01.12.2021
4487 Rain 6 1004 87 10000 4.02 275 16:59 01.12.2021
4488 Rain 6 1004 87 10000 3.13 230 15:47 01.12.2021
4489 Rain 7 1005 84 10000 3.58 270 14:30 01.12.2021
4490 Clouds 6 1005 84 9000 2.68 230 13:36 01.12.2021
4491 Clouds 5 1009 88 7000 2.06 70 10:44 01.12.2021
4492 Mist 4 1010 86 5000 2.06 70 10:20 01.12.2021
4493 Fog 4 1011 88 500 1.34 300 08:51 01.12.2021
4494 Fog 3 1012 89 500 4.02 265 07:56 01.12.2021
4495 Fog 3 1012 89 400 2.68 280 07:27 01.12.2021
4496 Mist 2 1015 89 4800 1.79 160 03:55 01.12.2021
4497 Clouds 3 1016 88 8000 0.89 100 03:20 01.12.2021
4498 Clouds 2 1019 88 10000 1.03 0 00:20 01.12.2021
4499 Clouds 2 1019 88 10000 1.03 0 00:20 01.12.2021
4500 Clouds 2 1020 88 10000 1.54 350 23:29 30.11.2021
4501 Clouds 2 1038 88 10000 1.03 0 22:31 30.11.2021
4502 Snow 2 1021 87 10000 1.54 180 20:47 30.11.2021
4503 Snow 1 1021 86 10000 1.03 140 20:24 30.11.2021
4504 Snow 1 1021 85 10000 1.03 0 19:39 30.11.2021
4505 Mist 1 1021 83 5000 1.03 0 18:53 30.11.2021
4506 Snow 2 1021 75 10000 0.45 250 17:45 30.11.2021
4507 Rain 3 1021 65 10000 6.26 275 15:57 30.11.2021
4508 Clouds 2 1021 68 10000 1.34 270 14:34 30.11.2021
4509 Clouds 2 1022 69 10000 4.92 255 13:41 30.11.2021
4510 Clouds 2 1021 72 10000 2.06 120 12:54 30.11.2021
4511 Clouds 1 1022 72 10000 2.24 260 11:59 30.11.2021
4512 Clouds 1 1022 73 10000 2.68 250 11:25 30.11.2021
4513 Snow 1 1023 73 10000 3.13 245 10:36 30.11.2021
4514 Clouds -1 1023 78 10000 3.58 250 08:57 30.11.2021
4515 Clouds -1 1023 78 10000 1.79 250 08:32 30.11.2021
4516 Clouds -1 1022 77 10000 1.34 250 07:56 30.11.2021
4517 Clouds -2 1021 80 10000 3.09 120 06:37 30.11.2021
4518 Clouds 0 1019 74 10000 2.57 130 01:50 30.11.2021
4519 Clouds -1 1038 76 10000 1.79 250 01:27 30.11.2021
4520 Clouds 0 1020 77 10000 2.68 250 23:40 29.11.2021
4521 Clouds 0 1020 77 10000 2.24 255 23:18 29.11.2021
4522 Clouds 0 1020 76 10000 2.24 255 22:38 29.11.2021
4523 Clouds 0 1019 76 10000 2.24 265 21:54 29.11.2021
4524 Clouds 0 1018 80 10000 0.89 285 21:20 29.11.2021
4525 Clouds 0 1018 77 10000 1.34 270 20:48 29.11.2021
4526 Snow -1 1017 79 10000 1.79 270 19:59 29.11.2021
4527 Snow -1 1017 80 10000 1.34 260 19:40 29.11.2021
4528 Clouds -1 1016 80 10000 1.03 0 18:59 29.11.2021
4529 Clouds -3 1020 92 10000 1.47 218 18:41 29.11.2021
4530 Clouds -3 1017 92 10000 1.18 268 17:21 29.11.2021
4531 Clouds -3 1017 92 10000 1.18 268 16:45 29.11.2021
4532 Clouds 0 1015 85 10000 1.78 306 16:24 29.11.2021
4533 Clouds 1 1013 76 10000 2.04 310 14:46 29.11.2021
4534 Snow 2 1012 73 10000 2.11 314 13:52 29.11.2021
4535 Rain 2 1012 79 7149 1.48 301 12:58 29.11.2021
4536 Rain 1 1011 85 5033 1.21 275 12:19 29.11.2021
4537 Snow 0 1011 91 3157 0.83 271 11:28 29.11.2021
4538 Snow 0 1010 93 380 0.78 279 09:58 29.11.2021
4539 Snow 0 1004 100 5000 1.03 190 07:26 29.11.2021
4540 Snow 0 1003 93 3900 1.03 30 05:51 29.11.2021
4541 Snow 1 1000 80 10000 3.6 260 01:24 29.11.2021
4542 Snow 1 999 86 5000 4.63 250 23:54 28.11.2021
4543 Snow 1 999 86 5000 4.63 250 23:36 28.11.2021
4544 Snow 1 999 80 10000 5.14 260 22:18 28.11.2021
4545 Snow 1 998 80 10000 5.14 260 21:39 28.11.2021
4546 Snow 2 998 80 10000 5.14 260 20:40 28.11.2021
4547 Snow 2 998 80 10000 4.63 250 19:44 28.11.2021
4548 Snow 2 997 80 10000 3.6 240 18:40 28.11.2021
4549 Snow 2 997 80 10000 3.6 240 18:40 28.11.2021
4550 Snow 1 997 80 10000 3.6 240 18:18 28.11.2021
4551 Snow 0 997 100 10000 1.03 0 17:34 28.11.2021
4552 Snow 1 996 93 2000 1.03 0 16:47 28.11.2021
4553 Snow 1 996 93 4000 1.54 50 16:28 28.11.2021
4554 Snow 1 996 93 2000 1.54 40 15:50 28.11.2021
4555 Rain 1 996 80 1500 2.57 240 14:55 28.11.2021
4556 Snow 2 996 80 10000 3.09 250 14:28 28.11.2021
4557 Snow 2 996 87 7000 1.03 0 12:54 28.11.2021
4558 Clouds 1 998 88 3904 2.18 257 11:39 28.11.2021
4559 Snow 1 996 100 10000 1.54 110 10:34 28.11.2021
4560 Clouds 0 998 86 10000 1.67 251 09:51 28.11.2021
4561 Clouds 0 998 86 10000 1.67 251 09:30 28.11.2021
4562 Clouds 0 996 93 10000 0.51 0 00:52 28.11.2021
4563 Clouds -1 996 93 10000 2.57 120 21:54 27.11.2021
4564 Clouds -1 995 86 10000 1.03 0 19:51 27.11.2021
4565 Rain 2 994 80 10000 1.03 0 18:26 27.11.2021
4566 Clouds 4 994 70 10000 4.12 280 16:19 27.11.2021
4567 Clouds 4 993 75 10000 2.57 280 14:51 27.11.2021
4568 Clouds 3 993 81 10000 4.12 260 13:39 27.11.2021
4569 Clouds 3 992 81 7000 6.69 280 12:19 27.11.2021
4570 Clouds 2 991 100 10000 2.57 60 10:27 27.11.2021
4571 Rain 1 991 100 7000 1.03 0 09:18 27.11.2021
4572 Snow 1 990 100 10000 1.54 100 06:59 27.11.2021
4573 Snow 1 991 93 10000 0.51 0 04:53 27.11.2021
4574 Clouds 1 994 93 10000 2.06 70 00:25 27.11.2021
4575 Clouds 3 995 75 10000 2.06 0 22:51 26.11.2021
4576 Clouds 3 996 70 10000 2.06 0 22:24 26.11.2021
4577 Clouds 1 996 93 10000 2.06 0 21:33 26.11.2021
4578 Clouds 1 997 93 10000 1.03 0 20:42 26.11.2021
4579 Clouds 2 998 93 10000 1.03 0 19:56 26.11.2021
4580 Clouds 1 998 93 10000 2.57 90 19:18 26.11.2021
4581 Clouds 2 999 87 10000 2.57 90 17:46 26.11.2021
4582 Clouds 2 1000 87 10000 3.09 100 17:21 26.11.2021
4583 Clouds 3 1001 87 10000 2.57 90 15:23 26.11.2021
4584 Clouds 2 1002 90 10000 1.03 0 13:35 26.11.2021
4585 Clouds 2 1002 90 10000 1.03 0 13:35 26.11.2021
4586 Snow 1 1004 92 4000 2.06 260 10:46 26.11.2021
4587 Snow 1 1004 92 2000 3.09 280 09:55 26.11.2021
4588 Snow 1 1004 92 3000 2.57 280 08:56 26.11.2021
4589 Snow 1 1004 92 3400 2.06 270 08:21 26.11.2021
4590 Snow 1 1004 91 2500 2.57 270 06:48 26.11.2021
4591 Mist 1 1004 91 3200 3.09 270 06:24 26.11.2021
4592 Snow 1 1005 89 7000 1.03 320 03:47 26.11.2021
4593 Drizzle 2 1006 89 5000 2.06 280 01:27 26.11.2021
4594 Drizzle 2 1006 89 5000 2.06 280 01:27 26.11.2021
4595 Clouds 2 1008 91 6000 3.09 280 22:43 25.11.2021
4596 Rain 3 1008 90 9000 1.03 260 21:21 25.11.2021
4597 Rain 3 1008 90 10000 0 0 19:55 25.11.2021
4598 Rain 3 1008 90 10000 0.51 110 18:45 25.11.2021
4599 Clouds 3 1008 90 10000 1.54 120 17:29 25.11.2021
4600 Rain 3 1008 89 10000 1.03 150 16:58 25.11.2021
4601 Rain 3 1008 89 10000 1.03 150 16:29 25.11.2021
4602 Clouds 3 1007 93 6000 2.06 340 14:56 25.11.2021
4603 Rain 3 1008 87 9000 2.57 310 13:25 25.11.2021
4604 Clouds 2 1008 93 4000 2.06 320 12:20 25.11.2021
4605 Clouds 3 1008 87 4000 2.06 280 11:48 25.11.2021
4606 Clouds 2 1029 91 5000 0.51 0 09:25 25.11.2021
4607 Clouds 2 1011 90 10000 1.54 80 04:24 25.11.2021
4608 Clouds 2 1012 89 10000 0.89 250 02:45 25.11.2021
4609 Clouds 3 1014 87 10000 0.51 0 22:44 24.11.2021
4610 Clouds 3 1014 87 10000 0.51 0 22:21 24.11.2021
4611 Clouds 3 1015 87 10000 1.54 290 21:28 24.11.2021
4612 Clouds 3 1015 86 10000 0.51 0 20:42 24.11.2021
4613 Clouds 3 1015 86 10000 1.03 0 20:18 24.11.2021
4614 Clouds 3 1016 85 10000 0.51 0 18:30 24.11.2021
4615 Clouds 3 1017 84 10000 1.03 0 17:24 24.11.2021
4616 Clouds 4 1017 86 10000 0.51 0 15:23 24.11.2021
4617 Clouds 4 1018 86 10000 1.03 0 14:47 24.11.2021
4618 Clouds 4 1018 87 10000 1.54 350 14:19 24.11.2021
4619 Clouds 4 1018 87 10000 1.54 350 14:19 24.11.2021
4620 Clouds 3 1020 83 10000 1.54 0 11:51 24.11.2021
4621 Clouds 4 1021 86 10000 1.54 0 11:20 24.11.2021
4622 Clouds 3 1021 87 10000 1.03 0 10:47 24.11.2021
4623 Clouds 3 1021 86 10000 1.54 290 10:21 24.11.2021
4624 Clouds 2 1022 82 10000 2.06 300 07:52 24.11.2021
4625 Clouds 3 1021 86 10000 2.06 290 06:54 24.11.2021
4626 Clouds 3 1022 86 10000 2.57 250 03:50 24.11.2021
4627 Clouds 3 1024 81 10000 3.09 260 00:32 24.11.2021
4628 Clouds 3 1023 85 10000 1.03 20 22:40 23.11.2021
4629 Clouds 3 1023 87 10000 1.03 0 21:54 23.11.2021
4630 Clouds 3 1023 85 10000 1.03 0 21:36 23.11.2021
4631 Clouds 3 1024 85 10000 1.03 0 19:37 23.11.2021
4632 Clouds 3 1024 86 10000 1.03 0 19:37 23.11.2021
4633 Clouds 3 1037 86 10000 1.54 0 18:41 23.11.2021
4634 Clouds 4 1024 86 10000 1.03 0 18:18 23.11.2021
4635 Clouds 4 1023 85 10000 1.54 0 16:57 23.11.2021
4636 Clouds 4 1023 85 10000 2.57 0 15:59 23.11.2021
4637 Clouds 4 1023 85 10000 0.45 100 15:22 23.11.2021
4638 Clouds 4 1024 85 10000 1.34 80 13:50 23.11.2021
4639 Clouds 4 1024 85 10000 2.06 10 11:42 23.11.2021
4640 Clouds 4 1023 86 10000 4.63 20 09:59 23.11.2021
4641 Clouds 4 1023 87 10000 0.45 150 08:46 23.11.2021
4642 Clouds 4 1022 86 10000 0.45 135 06:39 23.11.2021
4643 Clouds 4 1021 85 10000 0.45 95 03:45 23.11.2021
4644 Clouds 5 1021 83 10000 1.34 90 00:54 23.11.2021
4645 Clouds 5 1021 82 10000 2.68 100 23:21 22.11.2021
4646 Clouds 5 1021 80 10000 4.02 85 22:33 22.11.2021
4647 Clouds 5 1020 84 10000 0.45 90 21:48 22.11.2021
4648 Clouds 5 1020 84 10000 2.24 90 21:29 22.11.2021
4649 Clouds 5 1020 85 10000 0.45 95 20:50 22.11.2021
4650 Clouds 5 1020 86 10000 1.34 130 19:47 22.11.2021
4651 Clouds 5 1037 86 10000 2.24 90 19:18 22.11.2021
4652 Clouds 5 1019 87 10000 1.79 90 18:37 22.11.2021
4653 Clouds 4 1018 88 10000 2.68 75 17:18 22.11.2021
4654 Clouds 4 1018 88 10000 4.12 10 15:43 22.11.2021
4655 Clouds 4 1017 90 10000 4.12 20 13:57 22.11.2021
4656 Clouds 4 1016 91 10000 1.79 95 11:50 22.11.2021
4657 Clouds 4 1016 91 10000 1.54 0 10:39 22.11.2021
4658 Clouds 4 1015 92 10000 0.45 90 09:26 22.11.2021
4659 Clouds 4 1014 93 10000 2.68 110 08:39 22.11.2021
4660 Drizzle 4 1012 94 6000 2.06 280 04:33 22.11.2021
4661 Clouds 4 1012 95 8000 0.51 0 23:24 21.11.2021
4662 Clouds 4 1012 95 8000 1.54 100 22:48 21.11.2021
4663 Clouds 4 1012 95 5000 3.09 130 21:48 21.11.2021
4664 Clouds 4 1011 94 6000 2.57 110 20:41 21.11.2021
4665 Mist 4 1012 93 5000 1.03 0 19:46 21.11.2021
4666 Mist 4 1011 94 4000 0.51 0 18:18 21.11.2021
4667 Mist 4 1011 94 3000 1.03 0 17:37 21.11.2021
4668 Clouds 5 1010 93 7000 4.12 300 15:28 21.11.2021
4669 Clouds 5 1010 100 10000 2.06 290 14:45 21.11.2021
4670 Mist 6 1011 67 3000 0.51 0 13:40 21.11.2021
4671 Mist 3 1012 93 1100 0.51 0 12:35 21.11.2021
4672 Mist 5 1013 71 1200 0.51 0 11:42 21.11.2021
4673 Fog 2 1013 100 1000 1.54 0 10:55 21.11.2021
4674 Fog 3 1014 100 800 1.03 0 10:18 21.11.2021
4675 Fog 2 1015 98 800 2.06 130 08:42 21.11.2021
4676 Fog 1 1016 95 800 2.06 150 08:22 21.11.2021
4677 Fog 1 1016 95 800 0.45 115 07:43 21.11.2021
4678 Fog 2 1017 95 500 1.54 160 05:49 21.11.2021
4679 Fog 2 1017 95 550 1.34 245 05:19 21.11.2021
4680 Fog 1 1018 94 250 0.51 0 03:18 21.11.2021
4681 Fog 2 1019 95 650 1.79 235 02:50 21.11.2021
4682 Fog 1 1020 94 400 1.03 0 00:54 21.11.2021
4683 Fog 1 1021 94 600 1.34 250 23:43 20.11.2021
4684 Fog 1 1022 94 550 1.34 285 21:40 20.11.2021
4685 Fog 2 1022 94 550 1.34 260 20:54 20.11.2021
4686 Fog 2 1023 93 350 2.57 140 18:46 20.11.2021
4687 Fog 2 1023 93 350 1.34 230 18:46 20.11.2021
4688 Fog 2 1023 94 300 2.06 100 18:26 20.11.2021
4689 Mist 3 1023 97 1800 1.03 0 17:26 20.11.2021
4690 Mist 3 1023 97 3000 1.54 0 16:42 20.11.2021
4691 Clouds 4 1024 100 5000 0.51 0 14:46 20.11.2021
4692 Clouds 6 1025 72 5000 1.03 0 14:23 20.11.2021
4693 Fog 0 1027 100 800 1.03 0 11:57 20.11.2021
4694 Fog 1 1027 100 550 0.51 0 10:35 20.11.2021
4695 Fog 1 1028 100 300 1.03 230 09:39 20.11.2021
4696 Fog 0 1028 95 250 0.51 0 07:28 20.11.2021
4697 Fog 1 1029 95 200 1.03 0 05:27 20.11.2021
4698 Fog 1 1029 95 200 1.03 210 04:50 20.11.2021
4699 Fog 1 1029 95 200 1.03 210 04:50 20.11.2021
4700 Fog 1 1050 94 200 1.03 0 01:55 20.11.2021
4701 Fog 1 1031 94 200 1.54 0 00:40 20.11.2021
4702 Fog 2 1031 94 150 0.51 0 22:58 19.11.2021
4703 Fog 2 1031 94 200 1.03 0 21:58 19.11.2021
4704 Fog 2 1031 92 200 1.03 0 20:58 19.11.2021
4705 Fog 2 1031 92 200 1.03 0 20:36 19.11.2021
4706 Fog 2 1031 91 500 1.54 330 19:50 19.11.2021
4707 Fog 3 1031 90 900 1.54 320 18:54 19.11.2021
4708 Fog 3 1031 89 800 2.57 300 18:22 19.11.2021
4709 Fog 4 1030 89 10000 1.54 320 17:26 19.11.2021
4710 Clear 7 1030 81 10000 3.09 300 15:51 19.11.2021
4711 Clouds 7 1031 93 10000 1.03 0 13:28 19.11.2021
4712 Clouds 3 1032 97 10000 1.03 0 10:27 19.11.2021
4713 Clouds 3 1032 97 10000 1.03 0 10:27 19.11.2021
4714 Clouds 2 1032 93 10000 1.54 90 09:37 19.11.2021
4715 Clouds 1 1032 92 9000 2.57 50 08:20 19.11.2021
4716 Clouds 1 1032 90 6000 0.51 0 04:51 19.11.2021
4717 Fog 1 1032 91 100 0.51 0 02:27 19.11.2021
4718 Fog 1 1032 89 3300 0.51 0 23:51 18.11.2021
4719 Fog 2 1032 88 10000 0.51 0 21:55 18.11.2021
4720 Fog 3 1032 88 10000 0.51 0 20:49 18.11.2021
4721 Clear 3 1031 87 10000 1.03 260 20:30 18.11.2021
4722 Clear 4 1031 86 10000 1.03 0 19:49 18.11.2021
4723 Clear 4 1031 87 10000 1.03 0 19:29 18.11.2021
4724 Clouds 5 1031 82 10000 1.03 0 18:28 18.11.2021
4725 Clouds 5 1031 81 10000 1.03 0 17:51 18.11.2021
4726 Clouds 5 1031 81 10000 1.03 0 17:51 18.11.2021
4727 Clouds 7 1031 76 10000 0.51 0 16:44 18.11.2021
4728 Clouds 8 1030 77 10000 1.03 250 15:32 18.11.2021
4729 Clouds 8 1030 76 10000 1.79 170 13:31 18.11.2021
4730 Clear 8 1030 77 10000 0.89 295 12:34 18.11.2021
4731 Clear 7 1031 82 10000 1.03 140 11:42 18.11.2021
4732 Clear 6 1031 84 10000 0.51 0 11:24 18.11.2021
4733 Clouds 4 1030 93 10000 1.03 0 09:44 18.11.2021
4734 Fog 2 1030 91 10000 0.51 0 07:35 18.11.2021
4735 Clouds 2 1029 90 7000 1.03 0 05:55 18.11.2021
4736 Clouds 2 1029 88 10000 1.19 82 05:36 18.11.2021
4737 Clouds 4 1029 85 10000 1.54 290 01:24 18.11.2021
4738 Clouds 4 1029 85 10000 1.54 290 01:24 18.11.2021
4739 Clouds 4 1028 88 10000 1.03 210 23:18 17.11.2021
4740 Clouds 4 1028 88 10000 0.51 0 22:21 17.11.2021
4741 Clouds 4 1027 89 10000 1.03 0 21:53 17.11.2021
4742 Clouds 4 1027 89 10000 1.03 0 21:34 17.11.2021
4743 Clouds 5 1026 87 10000 2.06 300 18:47 17.11.2021
4744 Clouds 5 1025 87 10000 0.51 0 17:28 17.11.2021
4745 Clouds 6 1024 88 10000 2.06 280 14:52 17.11.2021
4746 Clouds 6 1024 88 10000 2.57 290 12:42 17.11.2021
4747 Clouds 6 1024 89 10000 1.03 0 11:52 17.11.2021
4748 Clouds 6 1024 89 10000 1.03 170 10:49 17.11.2021
4749 Clouds 5 1023 91 8000 0.51 0 09:27 17.11.2021
4750 Clouds 5 1022 91 10000 1.03 110 07:45 17.11.2021
4751 Clouds 5 1021 90 5000 0.51 180 06:20 17.11.2021
4752 Clouds 5 1021 89 9000 2.06 80 02:42 17.11.2021
4753 Clouds 6 1021 88 10000 1.54 100 23:27 16.11.2021
4754 Clouds 6 1021 88 10000 2.06 130 21:48 16.11.2021
4755 Clouds 6 1021 88 10000 2.06 140 20:19 16.11.2021
4756 Clouds 6 1021 87 10000 0.51 0 18:56 16.11.2021
4757 Clouds 6 1021 87 10000 0.51 0 18:36 16.11.2021
4758 Clouds 6 1021 87 10000 0.51 0 18:36 16.11.2021
4759 Clouds 6 1021 87 10000 2.06 120 17:44 16.11.2021
4760 Clouds 6 1021 87 10000 0.51 0 16:58 16.11.2021
4761 Clouds 7 1021 87 10000 1.03 160 16:18 16.11.2021
4762 Clouds 7 1021 86 10000 1.54 0 15:41 16.11.2021
4763 Clouds 7 1022 88 10000 1.34 245 12:40 16.11.2021
4764 Clouds 6 1022 91 10000 1.54 120 10:21 16.11.2021
4765 Clouds 6 1022 91 10000 1.54 80 09:38 16.11.2021
4766 Clouds 5 1022 92 10000 1.54 80 07:34 16.11.2021
4767 Clouds 5 1022 92 10000 0.51 0 05:27 16.11.2021
4768 Clouds 5 1022 91 10000 2.06 280 23:24 15.11.2021
4769 Clouds 6 1021 91 10000 2.06 250 22:40 15.11.2021
4770 Clouds 6 1021 91 9000 2.06 260 21:56 15.11.2021
4771 Clouds 5 1021 90 10000 3.09 250 21:30 15.11.2021
4772 Clouds 6 1020 90 10000 2.06 250 20:32 15.11.2021
4773 Clouds 6 1020 89 10000 2.57 270 18:53 15.11.2021
4774 Clouds 6 1019 87 10000 0.45 95 16:59 15.11.2021
4775 Clouds 6 1019 88 10000 1.54 0 15:48 15.11.2021
4776 Clouds 6 1019 88 10000 1.54 0 15:30 15.11.2021
4777 Clouds 7 1019 87 10000 0.45 130 13:53 15.11.2021
4778 Clouds 6 1020 89 10000 2.57 340 12:18 15.11.2021
4779 Clouds 7 1020 89 10000 1.03 0 09:31 15.11.2021
4780 Clouds 7 1019 89 10000 1.54 250 08:57 15.11.2021
4781 Clouds 6 1019 90 10000 2.57 340 06:32 15.11.2021
4782 Clouds 7 1019 90 10000 2.06 0 00:34 15.11.2021
4783 Clouds 7 1019 90 10000 0.45 125 22:41 14.11.2021
4784 Clouds 7 1018 91 10000 0.45 60 21:18 14.11.2021
4785 Clouds 8 1018 89 10000 0.45 140 19:18 14.11.2021
4786 Clouds 8 1018 89 10000 1.03 0 18:54 14.11.2021
4787 Clouds 8 1018 89 10000 1.03 0 18:36 14.11.2021
4788 Clouds 8 1017 88 10000 0.45 95 18:18 14.11.2021
4789 Clouds 8 1017 87 10000 2.06 0 17:57 14.11.2021
4790 Clouds 8 1017 86 10000 0.45 55 17:39 14.11.2021
4791 Clouds 8 1017 86 10000 1.34 90 17:21 14.11.2021
4792 Clouds 8 1017 87 10000 1.54 0 16:55 14.11.2021
4793 Clouds 9 1017 87 10000 1.54 0 16:37 14.11.2021
4794 Clouds 9 1016 86 10000 0.45 75 16:18 14.11.2021
4795 Clouds 9 1016 85 10000 0.45 85 15:19 14.11.2021
4796 Clouds 9 1016 86 10000 0.45 70 14:37 14.11.2021
4797 Clouds 9 1016 87 10000 1.54 10 14:18 14.11.2021
4798 Clouds 9 1016 88 10000 1.03 0 13:40 14.11.2021
4799 Clouds 9 1016 92 10000 2.06 250 12:52 14.11.2021
4800 Clouds 8 1017 93 10000 0.45 110 12:21 14.11.2021
4801 Clouds 8 1017 94 4000 0.51 0 10:54 14.11.2021
4802 Mist 8 1017 94 4000 1.03 250 10:30 14.11.2021
4803 Mist 7 1017 95 2500 0.51 0 09:18 14.11.2021
4804 Fog 7 1016 93 2600 0.51 0 08:43 14.11.2021
4805 Mist 6 1016 94 2600 0 0 04:46 14.11.2021
4806 Fog 7 1017 92 800 0.51 0 22:28 13.11.2021
4807 Fog 7 1017 92 3500 1.03 0 21:59 13.11.2021
4808 Mist 7 1017 91 5000 1.03 0 21:29 13.11.2021
4809 Clouds 8 1017 91 5000 1.03 140 20:26 13.11.2021
4810 Clouds 8 1017 89 10000 2.06 80 18:54 13.11.2021
4811 Clouds 8 1017 88 10000 1.54 80 18:28 13.11.2021
4812 Clouds 8 1017 89 10000 2.06 120 17:32 13.11.2021
4813 Clouds 9 1017 85 10000 1.03 0 15:42 13.11.2021
4814 Clouds 9 1017 89 10000 1.03 0 14:39 13.11.2021
4815 Clouds 8 1018 90 10000 1.03 0 13:46 13.11.2021
4816 Clouds 8 1017 87 10000 1.03 140 12:40 13.11.2021
4817 Clouds 8 1018 93 8000 1.03 0 11:46 13.11.2021
4818 Mist 7 1018 100 4000 3.09 100 10:57 13.11.2021
4819 Mist 7 1018 98 4000 2.06 90 10:29 13.11.2021
4820 Mist 6 1019 100 4000 2.57 100 09:42 13.11.2021
4821 Fog 6 1019 98 2500 2.06 110 09:22 13.11.2021
4822 Fog 5 1019 99 700 2.06 130 08:41 13.11.2021
4823 Fog 4 1019 94 500 1.54 130 07:25 13.11.2021
4824 Fog 4 1019 95 200 1.54 210 04:36 13.11.2021
4825 Fog 4 1019 94 200 0.51 0 02:27 13.11.2021
4826 Fog 4 1018 96 650 2.57 270 23:27 12.11.2021
4827 Fog 5 1018 97 300 2.06 310 21:52 12.11.2021
4828 Clear 5 1018 95 7000 1.54 310 20:20 12.11.2021
4829 Clear 5 1018 92 10000 1.03 0 19:31 12.11.2021
4830 Clear 6 1018 90 10000 0.51 0 18:53 12.11.2021
4831 Clouds 7 1018 85 10000 3.6 290 17:36 12.11.2021
4832 Clear 11 1017 68 10000 2.57 280 15:51 12.11.2021
4833 Clear 10 1018 90 10000 1.54 130 13:25 12.11.2021
4834 Fog 7 1020 78 250 0.51 0 11:23 12.11.2021
4835 Fog 3 1020 100 150 1.03 0 09:54 12.11.2021
4836 Fog 3 1020 99 150 1.54 120 08:45 12.11.2021
4837 Fog 3 1020 93 50 1.03 240 06:34 12.11.2021
4838 Fog 4 1022 91 150 0.51 0 23:43 11.11.2021
4839 Fog 4 1023 90 150 1.03 300 22:46 11.11.2021
4840 Fog 4 1023 89 400 0.51 0 21:43 11.11.2021
4841 Fog 5 1023 88 700 0.51 0 20:51 11.11.2021
4842 Clear 6 1023 87 10000 0.51 0 19:36 11.11.2021
4843 Clear 7 1023 87 10000 0.51 0 18:25 11.11.2021
4844 Clear 7 1023 86 10000 0.51 300 17:40 11.11.2021
4845 Clear 13 1023 63 10000 2.06 250 15:21 11.11.2021
4846 Clear 13 1023 64 10000 2.06 280 14:38 11.11.2021
4847 Clear 14 1022 59 10000 1.54 270 14:19 11.11.2021
4848 Clear 12 1023 65 10000 1.03 0 13:35 11.11.2021
4849 Clear 10 1023 67 10000 0.51 0 12:23 11.11.2021
4850 Clouds 5 1024 74 1400 2.06 130 09:54 11.11.2021
4851 Fog 2 1024 93 250 0.51 0 08:28 11.11.2021
4852 Fog 2 1023 93 200 1.03 120 06:45 11.11.2021
4853 Fog 3 1023 92 100 0.51 0 00:38 11.11.2021
4854 Fog 3 1023 92 150 0.51 0 22:41 10.11.2021
4855 Fog 3 1023 91 7000 1.03 0 21:53 10.11.2021
4856 Fog 4 1046 89 7000 1.03 0 20:55 10.11.2021
4857 Clear 4 1023 85 10000 1.03 0 19:55 10.11.2021
4858 Clear 4 1023 85 10000 1.03 0 19:35 10.11.2021
4859 Clear 6 1023 83 10000 0 0 17:19 10.11.2021
4860 Clear 8 1022 83 10000 1.03 90 15:46 10.11.2021
4861 Clear 9 1023 67 10000 1.03 120 14:24 10.11.2021
4862 Clear 8 1023 61 10000 0.51 0 13:31 10.11.2021
4863 Clear 5 1024 87 10000 0.51 0 11:40 10.11.2021
4864 Mist 2 1024 97 4000 0.51 0 09:18 10.11.2021
4865 Mist 1 1024 100 3000 1.03 340 08:41 10.11.2021
4866 Fog 1 1024 95 900 0.51 0 06:45 10.11.2021
4867 Mist 1 1024 89 3700 1.54 270 05:58 10.11.2021
4868 Clouds 1 1026 88 5000 1.03 0 01:56 10.11.2021
4869 Clouds 2 1026 86 10000 1.03 110 21:59 09.11.2021
4870 Clear 2 1026 86 10000 1.03 50 20:39 09.11.2021
4871 Clear 3 1025 84 10000 1.03 290 19:29 09.11.2021
4872 Clear 3 1025 82 10000 1.03 0 18:48 09.11.2021
4873 Clear 6 1024 73 10000 2.57 220 16:40 09.11.2021
4874 Clouds 7 1024 73 10000 3.09 290 15:20 09.11.2021
4875 Clouds 6 1024 77 10000 4.12 290 13:31 09.11.2021
4876 Clouds 5 1024 80 10000 3.09 300 12:28 09.11.2021
4877 Clouds 5 1024 84 10000 3.09 280 10:55 09.11.2021
4878 Clouds 4 1024 87 10000 0.51 0 09:59 09.11.2021
4879 Clouds 3 1024 87 9000 0.51 0 08:54 09.11.2021
4880 Clouds 2 1023 90 9000 1.54 140 07:28 09.11.2021
4881 Clouds 1 1023 85 10000 1.54 100 02:35 09.11.2021
4882 Clouds 2 1023 84 10000 0.51 0 01:51 09.11.2021
4883 Clear 3 1023 82 10000 2.06 20 00:39 09.11.2021
4884 Clouds 3 1022 84 10000 0.51 0 23:30 08.11.2021
4885 Clear 4 1022 80 10000 1.03 0 22:38 08.11.2021
4886 Clear 4 1022 75 10000 2.06 40 21:45 08.11.2021
4887 Clouds 5 1021 82 10000 2.57 20 20:34 08.11.2021
4888 Clouds 6 1022 74 10000 2.57 20 19:27 08.11.2021
4889 Clouds 7 1022 75 10000 2.57 340 17:41 08.11.2021
4890 Clouds 8 1021 73 10000 2.68 95 15:49 08.11.2021
4891 Clouds 8 1021 74 10000 0.89 95 14:56 08.11.2021
4892 Clouds 8 1021 74 10000 2.06 0 14:25 08.11.2021
4893 Clouds 8 1021 74 10000 0.45 90 12:59 08.11.2021
4894 Clouds 8 1021 76 10000 1.79 125 11:54 08.11.2021
4895 Clouds 7 1021 81 10000 3.58 110 10:49 08.11.2021
4896 Clouds 5 1022 86 10000 0.45 75 08:57 08.11.2021
4897 Clouds 5 1021 86 10000 2.06 80 08:18 08.11.2021
4898 Clouds 4 1021 87 10000 1.54 60 06:56 08.11.2021
4899 Clouds 5 1021 86 10000 2.06 100 03:35 08.11.2021
4900 Clouds 5 1021 82 10000 2.06 130 01:24 08.11.2021
4901 Clouds 5 1021 79 10000 1.03 170 22:58 07.11.2021
4902 Clouds 5 1022 82 10000 2.06 100 21:25 07.11.2021
4903 Clouds 5 1022 81 10000 2.06 60 20:25 07.11.2021
4904 Clouds 6 1022 75 10000 2.06 90 18:35 07.11.2021
4905 Clouds 7 1021 76 10000 1.03 0 17:42 07.11.2021
4906 Clouds 9 1022 67 10000 0.89 280 16:26 07.11.2021
4907 Clear 9 1022 66 10000 1.79 235 15:25 07.11.2021
4908 Clear 9 1022 68 10000 1.03 0 14:27 07.11.2021
4909 Clear 8 1023 70 10000 0.51 0 12:50 07.11.2021
4910 Clear 7 1023 73 10000 1.03 0 11:41 07.11.2021
4911 Clear 1 1025 90 10000 1.54 150 08:59 07.11.2021
4912 Clouds 0 1027 88 8000 2.06 90 02:58 07.11.2021
4913 Clouds 0 1027 86 10000 0.89 48 02:22 07.11.2021
4914 Clear 1 1027 86 10000 1.54 120 22:56 06.11.2021
4915 Clear 1 1027 86 10000 1.03 0 21:58 06.11.2021
4916 Clear 2 1027 85 10000 0.51 0 20:59 06.11.2021
4917 Clear 2 1027 83 9000 0.51 0 20:18 06.11.2021
4918 Clear 6 1027 70 10000 2.06 0 17:31 06.11.2021
4919 Clear 7 1027 67 10000 3.6 40 16:32 06.11.2021
4920 Clouds 8 1050 75 10000 2.06 0 13:41 06.11.2021
4921 Clouds 7 1028 78 10000 1.03 0 12:56 06.11.2021
4922 Clouds 6 1029 86 10000 1.03 220 11:18 06.11.2021
4923 Clear 3 1030 92 10000 1.34 103 08:49 06.11.2021
4924 Clear 2 1028 91 10000 1.42 103 04:50 06.11.2021
4925 Clouds 3 1028 90 10000 2.24 49 00:36 06.11.2021
4926 Clouds 3 1028 89 10000 0.89 91 23:29 05.11.2021
4927 Clouds 4 1028 87 10000 2.24 76 22:33 05.11.2021
4928 Clear 4 1026 87 10000 0.51 0 20:32 05.11.2021
4929 Clouds 5 1026 86 10000 1.03 0 19:51 05.11.2021
4930 Clouds 6 1026 83 10000 0.51 0 18:51 05.11.2021
4931 Clouds 6 1025 81 10000 1.54 0 18:29 05.11.2021
4932 Clouds 8 1024 76 10000 2.57 360 16:45 05.11.2021
4933 Clouds 9 1023 70 10000 2.57 350 14:22 05.11.2021
4934 Clouds 8 1023 70 10000 1.03 0 12:27 05.11.2021
4935 Clouds 6 1022 87 10000 1.03 0 09:47 05.11.2021
4936 Clouds 4 1021 90 10000 2.06 110 08:31 05.11.2021
4937 Clouds 4 1044 89 10000 0.51 0 06:22 05.11.2021
4938 Clouds 4 1018 88 10000 2.06 130 02:38 05.11.2021
4939 Clouds 4 1018 88 10000 1.54 0 02:19 05.11.2021
4940 Clouds 4 1017 87 10000 2.06 130 23:57 04.11.2021
4941 Clouds 4 1016 88 10000 1.54 0 22:36 04.11.2021
4942 Clouds 4 1016 86 10000 2.57 110 22:18 04.11.2021
4943 Clouds 4 1017 86 10000 1.54 100 21:27 04.11.2021
4944 Clouds 5 1015 85 10000 1.54 100 20:29 04.11.2021
4945 Clouds 5 1015 83 10000 1.54 0 19:49 04.11.2021
4946 Clouds 5 1016 81 10000 1.03 100 19:27 04.11.2021
4947 Clouds 5 1014 81 10000 1.03 0 18:26 04.11.2021
4948 Clouds 5 1014 77 10000 1.54 250 17:26 04.11.2021
4949 Clouds 7 1012 74 10000 3.6 230 15:46 04.11.2021
4950 Clouds 7 1011 77 10000 6.17 230 13:45 04.11.2021
4951 Clouds 6 1010 83 10000 2.57 250 10:35 04.11.2021
4952 Clouds 5 1008 82 10000 1.54 80 08:41 04.11.2021
4953 Clouds 5 1007 84 10000 1.54 100 07:36 04.11.2021
4954 Clouds 4 1008 86 10000 0.51 0 06:59 04.11.2021
4955 Drizzle 6 1003 90 10000 0.51 0 23:18 03.11.2021
4956 Clouds 6 1004 91 10000 0.51 0 22:23 03.11.2021
4957 Clouds 6 1003 92 10000 0.51 0 21:37 03.11.2021
4958 Clouds 6 1003 92 10000 0.51 0 21:37 03.11.2021
4959 Clouds 6 1003 92 10000 1.54 90 20:44 03.11.2021
4960 Clouds 6 1003 91 10000 1.03 0 20:25 03.11.2021
4961 Clouds 6 1003 91 10000 1.03 0 19:33 03.11.2021
4962 Clouds 7 1002 91 10000 0.51 0 18:27 03.11.2021
4963 Clouds 7 1002 91 10000 0.51 0 18:27 03.11.2021
4964 Clouds 7 1002 91 10000 1.03 0 17:42 03.11.2021
4965 Rain 7 1002 90 10000 0.51 0 16:48 03.11.2021
4966 Clouds 7 1001 90 10000 2.57 140 15:49 03.11.2021
4967 Rain 7 1001 91 10000 1.03 0 15:30 03.11.2021
4968 Drizzle 7 1001 90 10000 3.6 160 13:41 03.11.2021
4969 Rain 7 1002 93 8000 0.51 0 11:35 03.11.2021
4970 Rain 6 1002 93 10000 1.03 0 10:50 03.11.2021
4971 Rain 5 1002 92 10000 1.03 0 09:46 03.11.2021
4972 Clouds 5 1001 92 10000 1.03 0 08:53 03.11.2021
4973 Clear 4 1000 93 10000 2.06 160 07:40 03.11.2021
4974 Clouds 4 1000 93 10000 1.03 300 06:32 03.11.2021
4975 Clouds 4 1000 91 10000 3.09 90 04:22 03.11.2021
4976 Rain 5 1003 90 10000 1.54 0 00:58 03.11.2021
4977 Rain 5 1003 91 10000 0.51 0 23:21 02.11.2021
4978 Clouds 5 1004 89 10000 1.03 0 21:57 02.11.2021
4979 Clear 5 1004 88 10000 1.54 150 20:43 02.11.2021
4980 Clear 6 1005 86 10000 1.54 0 19:57 02.11.2021
4981 Clear 6 1005 85 10000 2.06 120 19:27 02.11.2021
4982 Clear 7 1005 83 10000 3.09 280 18:35 02.11.2021
4983 Clear 8 1005 80 10000 2.06 330 17:44 02.11.2021
4984 Clear 9 1005 74 10000 4.12 260 17:21 02.11.2021
4985 Clouds 10 1005 71 10000 2.57 260 15:58 02.11.2021
4986 Clouds 10 1005 74 10000 4.63 260 14:56 02.11.2021
4987 Clouds 8 1006 87 10000 4.63 270 13:30 02.11.2021
4988 Clouds 8 1006 88 7000 7.72 270 12:52 02.11.2021
4989 Clouds 10 1006 77 10000 5.14 260 11:39 02.11.2021
4990 Clouds 9 1005 82 10000 3.09 230 10:55 02.11.2021
4991 Clouds 9 1005 83 10000 3.09 230 10:32 02.11.2021
4992 Clouds 8 1005 92 10000 1.54 0 09:45 02.11.2021
4993 Clouds 7 1005 94 8000 1.03 140 07:46 02.11.2021
4994 Drizzle 6 1004 94 10000 0 0 05:42 02.11.2021
4995 Clouds 6 1004 91 10000 0.51 0 03:22 02.11.2021
4996 Rain 7 1006 91 10000 2.57 70 23:58 01.11.2021
4997 Clouds 8 1007 89 10000 2.06 190 21:49 01.11.2021
4998 Clouds 8 1007 87 10000 2.57 220 20:44 01.11.2021
4999 Clouds 8 1007 89 7000 1.03 0 20:18 01.11.2021
5000 Clouds 8 1007 88 10000 1.03 0 19:41 01.11.2021
5001 Clouds 10 1006 89 10000 2.57 120 18:25 01.11.2021
5002 Clouds 10 1006 88 10000 2.06 120 17:43 01.11.2021
5003 Clouds 10 1006 85 10000 3.09 150 16:57 01.11.2021
5004 Clouds 11 1006 86 10000 2.57 180 16:23 01.11.2021
5005 Clouds 11 1006 87 10000 4.12 170 15:29 01.11.2021
5006 Clouds 11 1006 86 10000 3.09 160 14:47 01.11.2021
5007 Clouds 11 1007 88 10000 2.57 130 14:26 01.11.2021
5008 Clouds 10 1007 91 10000 1.03 0 13:50 01.11.2021
5009 Rain 10 1008 91 10000 2.06 310 12:36 01.11.2021
5010 Rain 9 1008 91 10000 2.57 100 11:30 01.11.2021
5011 Rain 9 1009 91 10000 0.89 195 10:20 01.11.2021
5012 Rain 9 1029 92 10000 1.34 265 08:18 01.11.2021
5013 Rain 9 1008 92 10000 1.34 275 07:46 01.11.2021
5014 Rain 10 1006 92 7000 0.51 0 03:51 01.11.2021
5015 Clouds 10 1006 87 10000 1.03 0 01:44 01.11.2021
5016 Clouds 9 1007 90 10000 2.06 110 22:48 31.10.2021
5017 Clouds 10 1008 90 10000 1.03 0 20:50 31.10.2021
5018 Clear 11 1028 88 10000 0.51 0 19:22 31.10.2021
5019 Clear 11 1028 87 10000 0.51 0 18:41 31.10.2021
5020 Clear 12 1008 85 10000 0 0 17:54 31.10.2021
5021 Clear 15 1008 77 10000 1.54 200 16:25 31.10.2021
5022 Clouds 16 1008 73 10000 3.09 310 14:39 31.10.2021
5023 Clear 15 1009 77 10000 2.57 300 12:50 31.10.2021
5024 Clear 14 1010 78 10000 1.03 0 11:42 31.10.2021
5025 Fog 12 1011 83 8000 2.06 210 10:47 31.10.2021
5026 Fog 9 1038 95 150 1.54 120 09:22 31.10.2021
5027 Fog 8 1012 94 150 0.51 0 08:37 31.10.2021
5028 Rain 9 1015 92 5000 1.03 0 01:57 31.10.2021
5029 Clouds 9 1014 90 9000 0.51 0 23:41 30.10.2021
5030 Clouds 9 1013 88 8000 1.54 0 21:36 30.10.2021
5031 Clouds 9 1013 89 10000 1.54 70 20:52 30.10.2021
5032 Clouds 9 1011 86 10000 0.51 0 19:19 30.10.2021
5033 Rain 10 1010 84 10000 0.51 0 17:27 30.10.2021
5034 Rain 9 1009 86 10000 1.54 170 15:26 30.10.2021
5035 Drizzle 8 1008 85 10000 2.57 310 13:40 30.10.2021
5036 Rain 8 1007 84 10000 1.54 0 13:21 30.10.2021
5037 Rain 8 1009 83 10000 1.03 0 12:57 30.10.2021
5038 Rain 7 1009 82 10000 1.54 0 11:46 30.10.2021
5039 Rain 6 1007 83 10000 2.06 320 10:32 30.10.2021
5040 Clouds 5 1007 85 10000 1.03 0 08:53 30.10.2021
5041 Clouds 3 1008 88 5000 1.03 0 07:29 30.10.2021
5042 Fog 4 1010 85 6000 0.51 0 05:39 30.10.2021
5043 Clouds 6 1013 85 10000 1.03 0 00:56 30.10.2021
5044 Fog 6 1015 86 10000 1.03 0 22:53 29.10.2021
5045 Fog 6 1033 86 10000 1.54 130 22:32 29.10.2021
5046 Clouds 8 1014 84 7000 0 0 20:46 29.10.2021
5047 Clear 8 1014 83 10000 1.03 0 20:24 29.10.2021
5048 Clear 11 1013 78 10000 0.51 0 18:36 29.10.2021
5049 Clear 13 1013 72 10000 3.6 290 16:54 29.10.2021
5050 Clear 15 1013 60 10000 2.06 280 15:21 29.10.2021
5051 Clear 11 1015 61 10000 1.03 260 12:24 29.10.2021
5052 Clouds 6 1015 100 9000 0.51 0 10:46 29.10.2021
5053 Fog 5 1015 93 1000 0.51 240 08:47 29.10.2021
5054 Fog 5 1018 90 250 0.51 0 00:37 29.10.2021
5055 Fog 5 1019 90 6000 0.51 0 23:27 28.10.2021
5056 Fog 5 1037 90 450 0.51 0 22:19 28.10.2021
5057 Fog 7 1019 89 5000 0 0 20:54 28.10.2021
5058 Fog 7 1019 88 10000 1.03 110 19:51 28.10.2021
5059 Clear 10 1019 79 10000 2.57 270 18:27 28.10.2021
5060 Clear 13 1019 65 10000 2.57 290 17:19 28.10.2021
5061 Clear 14 1019 58 10000 2.57 300 16:20 28.10.2021
5062 Clear 13 1020 58 10000 3.6 280 14:39 28.10.2021
5063 Clouds 11 1022 71 8000 2.06 280 13:29 28.10.2021
5064 Clouds 10 1022 70 7000 2.06 280 12:44 28.10.2021
5065 Fog 6 1023 93 200 1.03 0 10:58 28.10.2021
5066 Fog 6 1023 94 150 2.06 140 09:40 28.10.2021
5067 Fog 5 1023 93 100 2.57 140 09:22 28.10.2021
5068 Fog 5 1023 93 150 1.03 170 08:35 28.10.2021
5069 Fog 5 1023 91 100 0 0 07:40 28.10.2021
5070 Fog 5 1024 91 150 0.51 0 00:40 28.10.2021
5071 Clear 6 1024 89 10000 0.87 172 22:36 27.10.2021
5072 Fog 6 1024 90 4400 0.51 80 21:34 27.10.2021
5073 Mist 7 1024 89 3400 0 0 20:58 27.10.2021
5074 Mist 7 1024 89 3400 0 0 20:39 27.10.2021
5075 Clear 8 1024 87 8000 1.03 290 19:44 27.10.2021
5076 Clear 9 1024 85 10000 1.03 0 18:55 27.10.2021
5077 Clear 12 1024 85 10000 4.12 290 16:49 27.10.2021
5078 Clouds 12 1024 85 10000 4.63 290 16:24 27.10.2021
5079 Clouds 13 1024 74 7000 5.14 280 15:23 27.10.2021
5080 Clouds 12 1025 75 8000 4.63 270 13:42 27.10.2021
5081 Fog 8 1026 96 9000 0 0 10:59 27.10.2021
5082 Fog 7 1026 97 9000 0 0 10:36 27.10.2021
5083 Clouds 5 1027 90 10000 1.03 103 08:58 27.10.2021
5084 Clouds 5 1048 89 10000 1.13 93 07:38 27.10.2021
5085 Fog 5 1042 90 150 0.51 0 05:37 27.10.2021
5086 Clouds 7 1026 86 10000 0.97 109 01:21 27.10.2021
5087 Fog 7 1026 89 7000 0.51 0 00:39 27.10.2021
5088 Clouds 7 1027 87 9000 1.03 120 23:52 26.10.2021
5089 Clouds 8 1027 84 10000 0.45 70 22:43 26.10.2021
5090 Clouds 9 1027 84 10000 0.89 70 22:20 26.10.2021
5091 Clouds 9 1027 84 10000 1.03 0 21:32 26.10.2021
5092 Clouds 10 1026 79 10000 1.1 97 19:34 26.10.2021
5093 Clear 11 1025 82 10000 1.03 0 18:54 26.10.2021
5094 Clouds 13 1025 67 10000 0.51 0 17:36 26.10.2021
5095 Clouds 15 1025 67 10000 2.57 290 15:40 26.10.2021
5096 Clouds 13 1026 74 10000 1.34 200 12:33 26.10.2021
5097 Clouds 10 1026 84 10000 0.51 0 10:48 26.10.2021
5098 Rain 8 1025 83 10000 1.03 0 08:24 26.10.2021
5099 Rain 8 1024 84 10000 0.51 0 07:21 26.10.2021
5100 Clouds 8 1024 85 10000 0.51 0 00:19 26.10.2021
5101 Clouds 8 1023 86 10000 0.51 0 23:28 25.10.2021
5102 Clear 8 1023 86 6000 0.51 0 22:28 25.10.2021
5103 Clear 8 1023 84 10000 1.54 110 21:42 25.10.2021
5104 Clear 9 1022 81 10000 0.51 0 20:26 25.10.2021
5105 Clear 10 1022 79 10000 0.51 0 19:43 25.10.2021
5106 Clear 11 1022 77 10000 0.51 0 19:21 25.10.2021
5107 Clear 12 1021 77 10000 2.06 230 18:33 25.10.2021
5108 Clear 15 1021 62 10000 1.79 245 16:43 25.10.2021
5109 Clear 15 1021 60 10000 1.54 250 14:47 25.10.2021
5110 Clear 12 1023 72 10000 1.03 0 12:31 25.10.2021
5111 Clouds 9 1024 81 10000 0 0 10:30 25.10.2021
5112 Clear 5 1024 84 10000 1.03 120 08:57 25.10.2021
5113 Clouds 6 1024 86 10000 0.51 0 06:27 25.10.2021
5114 Clouds 5 1024 84 10000 0.51 0 02:44 25.10.2021
5115 Clouds 6 1025 81 10000 0.51 170 00:49 25.10.2021
5116 Clouds 6 1025 81 10000 0.51 170 00:31 25.10.2021
5117 Clouds 6 1024 81 10000 0.51 250 23:33 24.10.2021
5118 Clouds 6 1024 82 10000 1.03 0 22:37 24.10.2021
5119 Clouds 6 1024 81 10000 1.03 0 22:19 24.10.2021
5120 Clear 7 1024 80 10000 1.03 90 20:54 24.10.2021
5121 Clear 7 1024 80 10000 1.03 50 20:28 24.10.2021
5122 Clear 9 1024 77 10000 1.03 0 19:29 24.10.2021
5123 Clear 11 1024 72 10000 1.54 240 18:28 24.10.2021
5124 Clear 12 1024 69 10000 2.06 230 17:35 24.10.2021
5125 Clear 15 1026 60 10000 1.03 0 15:55 24.10.2021
5126 Clear 14 1026 62 10000 1.03 0 14:25 24.10.2021
5127 Clear 12 1026 62 10000 1.03 0 12:58 24.10.2021
5128 Clear 8 1027 84 10000 1.54 120 11:44 24.10.2021
5129 Clear 6 1027 86 10000 1.03 130 10:56 24.10.2021
5130 Fog 4 1027 93 10000 0 0 10:00 24.10.2021
5131 Fog 1 1026 89 5000 1.03 140 07:41 24.10.2021
5132 Clouds 3 1027 84 10000 1.03 50 01:21 24.10.2021
5133 Clear 4 1027 82 10000 0.51 0 23:47 23.10.2021
5134 Clear 5 1026 77 10000 0.51 0 22:18 23.10.2021
5135 Clear 7 1027 72 10000 1.54 0 20:36 23.10.2021
5136 Clear 8 1026 65 10000 2.06 10 18:59 23.10.2021
5137 Clear 10 1026 63 10000 2.57 10 18:29 23.10.2021
5138 Clear 10 1026 62 10000 0.45 115 17:43 23.10.2021
5139 Clear 12 1026 59 10000 1.34 90 16:23 23.10.2021
5140 Clear 11 1026 58 10000 0.45 40 14:27 23.10.2021
5141 Clouds 4 1026 82 10000 0.51 0 03:34 23.10.2021
5142 Clouds 5 1026 79 10000 2.06 320 00:19 23.10.2021
5143 Clouds 5 1025 78 10000 1.54 0 22:53 22.10.2021
5144 Clear 7 1024 78 10000 1.54 290 20:37 22.10.2021
5145 Clouds 10 1023 71 10000 1.03 0 18:44 22.10.2021
5146 Clouds 11 1022 62 10000 2.57 340 17:43 22.10.2021
5147 Clouds 12 1021 66 10000 1.79 105 15:26 22.10.2021
5148 Clouds 12 1022 74 10000 2.06 270 13:52 22.10.2021
5149 Clouds 11 1021 83 10000 1.34 250 11:24 22.10.2021
5150 Clouds 10 1021 84 10000 0.45 270 10:41 22.10.2021
5151 Clouds 10 1020 84 10000 0.51 0 09:56 22.10.2021
5152 Clouds 9 1019 80 10000 1.79 290 08:36 22.10.2021
5153 Clouds 9 1019 80 10000 0.51 0 07:22 22.10.2021
5154 Clouds 10 1018 69 10000 0.51 0 02:57 22.10.2021
5155 Clouds 11 1018 64 10000 3.09 190 23:55 21.10.2021
5156 Clouds 10 1018 65 10000 0.89 250 23:35 21.10.2021
5157 Clear 11 1018 62 10000 1.79 285 21:52 21.10.2021
5158 Clouds 11 1017 63 10000 1.34 285 20:40 21.10.2021
5159 Clouds 11 1017 63 10000 0.51 0 20:18 21.10.2021
5160 Clouds 12 1035 61 10000 0.51 0 19:29 21.10.2021
5161 Clear 13 1016 56 10000 2.57 250 18:45 21.10.2021
5162 Clouds 14 1016 51 10000 3.58 260 17:56 21.10.2021
5163 Clouds 14 1016 49 10000 4.47 275 17:37 21.10.2021
5164 Clouds 15 1016 47 10000 5.81 275 15:35 21.10.2021
5165 Clouds 15 1016 46 10000 5.81 275 15:35 21.10.2021
5166 Clear 15 1016 49 10000 2.24 255 14:58 21.10.2021
5167 Clouds 15 1016 51 10000 8.05 235 14:37 21.10.2021
5168 Clouds 15 1017 54 10000 7.6 275 13:19 21.10.2021
5169 -273 0 0 0 0 0 10:41 21.10.2021
5170 -273 0 0 0 0 0 10:41 21.10.2021
5171 -273 0 0 0 0 0 10:41 21.10.2021
5172 Clouds 13 1017 64 10000 7.6 260 10:40 21.10.2021
5173 Clouds 13 1014 76 10000 8.23 280 08:21 21.10.2021
5174 Clouds 13 1013 79 10000 7.6 265 07:28 21.10.2021
5175 Rain 15 1008 70 7591 3.58 260 03:29 21.10.2021
5176 Clouds 14 1011 76 10000 0.51 0 23:25 20.10.2021
5177 Clouds 14 1013 75 10000 1.03 0 21:51 20.10.2021
5178 Clouds 14 1013 76 10000 1.03 0 21:29 20.10.2021
5179 Clouds 14 1014 74 10000 2.06 0 20:49 20.10.2021
5180 Clouds 15 1014 67 10000 1.34 292 20:28 20.10.2021
5181 Clouds 15 1015 74 10000 1.03 0 19:51 20.10.2021
5182 Clear 16 1015 67 10000 1.03 0 18:54 20.10.2021
5183 Clouds 17 1016 62 10000 2.06 80 17:45 20.10.2021
5184 Clouds 19 1018 52 10000 5.81 270 15:26 20.10.2021
5185 Clear 12 1021 78 10000 2.57 90 10:25 20.10.2021
5186 Fog 8 1021 86 10000 0.51 0 08:37 20.10.2021
5187 Clouds 8 1024 82 9000 0.51 0 03:21 20.10.2021
5188 Clouds 9 1025 82 10000 0.51 0 00:43 20.10.2021
5189 Clouds 10 1025 80 10000 0.51 0 23:59 19.10.2021
5190 Clouds 11 1026 78 10000 1.54 0 21:43 19.10.2021
5191 Clear 11 1026 77 10000 1.03 70 20:54 19.10.2021
5192 Clear 12 1026 77 10000 0.51 0 20:22 19.10.2021
5193 Clear 13 1025 75 10000 0.51 0 19:41 19.10.2021
5194 Clear 14 1025 70 10000 0.51 0 18:53 19.10.2021
5195 Clear 14 1025 70 10000 0.51 0 18:53 19.10.2021
5196 Clouds 16 1025 63 6000 1.03 200 17:58 19.10.2021
5197 Clear 19 1026 51 10000 1.03 0 15:39 19.10.2021
5198 Clear 18 1026 53 10000 1.03 0 15:19 19.10.2021
5199 Clouds 17 1027 54 10000 0 0 14:23 19.10.2021
5200 Clouds 15 1028 64 10000 1.03 140 13:29 19.10.2021
5201 Clouds 12 1028 77 10000 0 0 11:32 19.10.2021
5202 Clouds 12 1028 77 10000 0 0 11:32 19.10.2021
5203 Clouds 10 1029 79 10000 1.03 0 10:23 19.10.2021
5204 Clouds 9 1028 80 10000 0.51 0 08:58 19.10.2021
5205 Clouds 8 1028 80 10000 0.89 152 06:50 19.10.2021
5206 Clouds 9 1028 80 10000 0.51 0 00:24 19.10.2021
5207 Clouds 9 1027 81 10000 0.51 0 23:50 18.10.2021
5208 Clouds 9 1027 80 10000 0.51 0 23:19 18.10.2021
5209 Clouds 9 1027 80 10000 0.51 0 22:53 18.10.2021
5210 Clear 10 1026 83 10000 1.03 0 21:19 18.10.2021
5211 Clear 10 1026 82 10000 0.51 0 20:41 18.10.2021
5212 Clear 11 1025 80 10000 1.03 0 19:53 18.10.2021
5213 Clear 12 1025 76 10000 0.51 0 19:30 18.10.2021
5214 Clear 13 1025 75 10000 0.51 0 18:54 18.10.2021
5215 Clear 18 1025 52 10000 1.03 230 15:32 18.10.2021
5216 Clear 17 1025 56 10000 1.03 0 14:26 18.10.2021
5217 Clear 8 1059 86 10000 2.06 130 10:43 18.10.2021
5218 Clear 7 1026 77 10000 0.51 0 09:31 18.10.2021
5219 Clouds 6 1024 80 10000 1.03 120 05:32 18.10.2021
5220 Clouds 7 1023 86 10000 0.51 0 23:37 17.10.2021
5221 Clouds 8 1023 83 9000 0.51 0 21:55 17.10.2021
5222 Clear 8 1022 87 10000 2.57 120 21:18 17.10.2021
5223 Fog 9 1022 86 10000 1.03 0 20:38 17.10.2021
5224 Clear 10 1021 85 10000 1.03 0 19:42 17.10.2021
5225 Clear 11 1021 83 10000 0.51 0 19:23 17.10.2021
5226 Clear 14 1021 77 10000 2.06 280 17:34 17.10.2021
5227 Clear 16 1021 69 10000 2.06 280 15:46 17.10.2021
5228 Clear 15 1020 69 10000 2.57 280 14:26 17.10.2021
5229 Clear 14 1020 70 10000 2.57 280 13:56 17.10.2021
5230 Fog 10 1021 81 10000 2.06 260 11:58 17.10.2021
5231 Mist 7 1021 93 3000 1.03 0 10:44 17.10.2021
5232 Fog 6 1021 95 100 0.51 0 09:43 17.10.2021
5233 Fog 4 1021 89 150 0.51 0 07:39 17.10.2021
5234 Fog 5 1021 87 750 0.51 0 00:55 17.10.2021
5235 Mist 6 1021 87 4300 0.51 0 00:23 17.10.2021
5236 Clear 8 1021 86 5000 1.54 80 21:52 16.10.2021
5237 Clear 9 1021 83 6000 0.51 0 20:32 16.10.2021
5238 Clear 10 1021 78 10000 0.51 0 19:46 16.10.2021
5239 Clear 11 1020 78 10000 0.51 0 19:23 16.10.2021
5240 Clear 11 1019 83 10000 0.51 0 18:56 16.10.2021
5241 Clear 12 1020 72 10000 2.57 280 18:38 16.10.2021
5242 Clear 13 1020 71 10000 2.06 270 18:18 16.10.2021
5243 Clear 14 1020 66 10000 2.06 290 17:27 16.10.2021
5244 Clear 15 1019 66 10000 0.45 115 15:33 16.10.2021
5245 Clear 12 1022 83 10000 0.89 317 12:30 16.10.2021
5246 Clouds 9 1021 91 10000 0.51 0 10:48 16.10.2021
5247 Fog 4 1021 90 150 0.51 0 08:32 16.10.2021
5248 Fog 6 1020 88 3400 1.03 40 01:26 16.10.2021
5249 Clouds 7 1020 87 9000 0.51 0 23:57 15.10.2021
5250 Clouds 7 1020 86 6000 0 0 23:24 15.10.2021
5251 Clouds 8 1020 83 8000 0.51 0 22:20 15.10.2021
5252 Clear 9 1038 82 10000 0.51 0 21:29 15.10.2021
5253 Clear 9 1020 81 10000 0.51 0 20:50 15.10.2021
5254 Clear 11 1019 79 10000 0.51 0 19:38 15.10.2021
5255 Clouds 13 1019 72 10000 1.03 0 18:41 15.10.2021
5256 Clouds 14 1019 68 10000 1.03 0 17:58 15.10.2021
5257 Clouds 15 1018 61 10000 0.51 0 15:37 15.10.2021
5258 Clouds 14 1019 65 10000 1.03 0 13:34 15.10.2021
5259 Clear 10 1021 75 10000 1.03 0 11:41 15.10.2021
5260 Clear 8 1021 82 10000 1.54 310 10:58 15.10.2021
5261 Clear 7 1021 86 10000 1.03 0 10:19 15.10.2021
5262 Clouds 2 1022 87 10000 0.51 120 06:47 15.10.2021
5263 Clear 3 1024 85 10000 1.54 120 02:21 15.10.2021
5264 Clear 4 1041 84 9000 0.51 0 00:22 15.10.2021
5265 Clear 5 1037 83 10000 0.51 0 22:52 14.10.2021
5266 Clear 5 1024 84 10000 0.51 0 22:52 14.10.2021
5267 Clear 6 1024 80 10000 1.03 0 21:46 14.10.2021
5268 Clear 6 1024 78 10000 1.34 171 20:55 14.10.2021
5269 Clear 7 1024 77 10000 0.51 0 20:19 14.10.2021
5270 Clear 8 1024 79 10000 1.03 0 19:40 14.10.2021
5271 Clear 12 1024 56 10000 1.54 350 17:39 14.10.2021
5272 Clear 12 1024 56 10000 1.54 350 17:39 14.10.2021
5273 Clear 13 1041 56 10000 2.57 330 16:56 14.10.2021
5274 Clear 14 1024 57 10000 2.57 320 16:21 14.10.2021
5275 Clear 12 1025 65 10000 4.12 250 14:44 14.10.2021
5276 Clear 12 1025 66 10000 2.57 280 14:24 14.10.2021
5277 Clear 9 1027 79 10000 1.03 0 11:56 14.10.2021
5278 Clear 7 1027 89 10000 0.51 0 10:43 14.10.2021
5279 Clear 2 1028 91 10000 2.24 86 07:39 14.10.2021
5280 Clear 3 1027 86 10000 1.79 67 03:51 14.10.2021
5281 Clouds 5 1028 87 10000 1.34 78 00:31 14.10.2021
5282 Clear 5 1027 88 10000 0.51 0 22:32 13.10.2021
5283 Clear 5 1027 86 10000 1.03 0 21:34 13.10.2021
5284 Clouds 6 1027 83 10000 1.79 70 20:23 13.10.2021
5285 Clouds 8 1026 75 10000 1.03 0 19:19 13.10.2021
5286 Clouds 9 1026 69 10000 1.54 40 18:37 13.10.2021
5287 Clouds 12 1024 62 10000 3.09 340 15:54 13.10.2021
5288 Clouds 11 1024 64 10000 2.57 310 14:46 13.10.2021
5289 Clouds 11 1024 67 10000 2.57 310 14:23 13.10.2021
5290 Clouds 10 1024 78 10000 2.57 0 12:24 13.10.2021
5291 Clouds 9 1024 81 10000 2.06 50 11:35 13.10.2021
5292 Mist 8 1024 94 5000 0 0 09:26 13.10.2021
5293 Mist 8 1022 93 4000 0.51 0 07:48 13.10.2021
5294 Rain 8 1021 90 5000 1.54 0 02:51 13.10.2021
5295 Rain 9 1021 90 7000 1.03 0 02:19 13.10.2021
5296 Clouds 9 1022 85 10000 1.54 40 23:31 12.10.2021
5297 Clouds 9 1021 85 10000 0.51 0 22:48 12.10.2021
5298 Clouds 9 1022 83 10000 0.51 0 22:23 12.10.2021
5299 Clouds 10 1021 80 10000 1.03 0 20:50 12.10.2021
5300 Clouds 10 1021 79 10000 0.51 0 20:24 12.10.2021
5301 Clouds 11 1020 75 10000 1.03 0 18:58 12.10.2021
5302 Clouds 11 1020 73 10000 1.03 0 18:23 12.10.2021
5303 Clouds 12 1020 64 10000 0.51 0 16:47 12.10.2021
5304 Clouds 12 1021 64 10000 1.03 0 16:19 12.10.2021
5305 Clouds 12 1021 68 10000 1.54 310 14:51 12.10.2021
5306 Clouds 12 1021 73 10000 0.51 0 13:45 12.10.2021
5307 Clouds 11 1022 77 10000 2.06 110 12:40 12.10.2021
5308 Clouds 8 1023 89 10000 2.06 80 10:38 12.10.2021
5309 Clear 5 1023 91 10000 1.54 0 09:20 12.10.2021
5310 Clouds 4 1024 90 10000 0.89 102 08:00 12.10.2021
5311 Clouds 4 1023 90 10000 4.12 80 06:42 12.10.2021
5312 Clouds 4 1024 89 10000 2.06 120 04:35 12.10.2021
5313 Clouds 5 1025 83 7000 0.51 0 01:30 12.10.2021
5314 Clouds 6 1025 84 10000 1.03 0 23:41 11.10.2021
5315 Clouds 7 1025 81 10000 1.54 0 22:59 11.10.2021
5316 Clouds 7 1025 84 10000 1.03 0 22:29 11.10.2021
5317 Clear 8 1025 79 10000 0.51 0 21:19 11.10.2021
5318 Clear 9 1026 61 10000 1.03 0 19:46 11.10.2021
5319 Clear 11 1025 54 10000 1.03 0 18:59 11.10.2021
5320 Clear 13 1025 49 10000 2.57 310 17:59 11.10.2021
5321 Clear 14 1024 50 10000 4.63 290 16:39 11.10.2021
5322 Clear 14 1026 52 10000 2.57 220 15:52 11.10.2021
5323 Clear 14 1025 55 10000 2.57 220 15:32 11.10.2021
5324 Clear 13 1025 57 10000 2.57 240 14:46 11.10.2021
5325 Clear 12 1026 65 10000 2.57 300 13:38 11.10.2021
5326 Clear 10 1026 76 10000 1.03 0 11:52 11.10.2021
5327 Clear 6 1026 91 10000 1.54 250 10:43 11.10.2021
5328 Clouds 5 1025 97 10000 2.06 90 09:44 11.10.2021
5329 Fog 2 1026 92 2500 0 0 07:29 11.10.2021
5330 Clear 4 1025 91 10000 0.51 0 01:41 11.10.2021
5331 Mist 5 1025 88 4600 0.51 0 00:50 11.10.2021
5332 Clear 5 1026 88 9000 0.51 0 00:28 11.10.2021
5333 Clear 7 1026 86 10000 2.06 280 21:57 10.10.2021
5334 Clear 7 1026 85 10000 2.06 280 21:32 10.10.2021
5335 Clear 7 1026 84 10000 0 0 20:48 10.10.2021
5336 Clear 8 1025 80 10000 0 0 20:21 10.10.2021
5337 Clear 8 1025 81 10000 0 0 19:59 10.10.2021
5338 Clear 9 1025 78 10000 0 0 19:36 10.10.2021
5339 Clear 12 1024 63 10000 1.54 0 18:37 10.10.2021
5340 Clear 14 1025 70 10000 3.6 290 16:57 10.10.2021
5341 Clear 14 1025 73 10000 3.6 300 15:47 10.10.2021
5342 Clouds 13 1025 76 10000 4.63 250 14:42 10.10.2021
5343 Clouds 12 1025 80 10000 2.57 280 13:34 10.10.2021
5344 Clouds 11 1025 83 10000 1.54 230 12:35 10.10.2021
5345 Fog 7 1025 95 1000 1.03 220 10:44 10.10.2021
5346 Fog 5 1025 95 150 1.03 210 09:31 10.10.2021
5347 Fog 4 1025 93 100 1.03 110 08:54 10.10.2021
5348 Fog 3 1025 93 100 0.51 0 07:28 10.10.2021
5349 Fog 5 1025 92 3800 0.51 0 03:20 10.10.2021
5350 Mist 6 1025 90 4900 1.03 0 00:58 10.10.2021
5351 Mist 6 1025 90 4900 1.03 0 00:29 10.10.2021
5352 Clouds 7 1025 88 10000 1.03 130 22:53 09.10.2021
5353 Clouds 9 1025 84 10000 0.51 0 21:47 09.10.2021
5354 Clouds 9 1025 82 10000 1.03 0 21:29 09.10.2021
5355 Clouds 10 1025 79 10000 1.03 80 19:45 09.10.2021
5356 Clouds 11 1025 82 10000 1.54 0 19:20 09.10.2021
5357 Clouds 12 1025 78 10000 1.54 0 18:33 09.10.2021
5358 Clouds 12 1025 78 10000 2.06 10 17:20 09.10.2021
5359 Clouds 13 1025 79 10000 2.06 30 16:19 09.10.2021
5360 Clouds 12 1025 83 10000 2.06 0 13:45 09.10.2021
5361 Clouds 11 1024 85 10000 2.06 350 12:40 09.10.2021
5362 Clouds 11 1024 87 9000 2.06 260 11:48 09.10.2021
5363 Clouds 10 1024 90 8000 2.06 260 10:42 09.10.2021
5364 Clouds 10 1024 90 7000 2.06 240 09:52 09.10.2021
5365 Clouds 9 1023 92 7000 2.06 270 08:30 09.10.2021
5366 Clouds 9 1023 94 8000 1.54 270 07:49 09.10.2021
5367 Clouds 8 1023 92 6000 1.03 270 05:29 09.10.2021
5368 Clouds 9 1023 90 9000 1.03 0 02:59 09.10.2021
5369 Clouds 9 1023 90 9000 1.03 0 02:40 09.10.2021
5370 Clouds 11 1023 84 10000 3.09 10 23:51 08.10.2021
5371 Clouds 12 1023 80 10000 2.06 340 22:55 08.10.2021
5372 Clouds 12 1024 80 10000 1.54 0 22:24 08.10.2021
5373 Clouds 12 1024 81 10000 1.03 0 21:18 08.10.2021
5374 Clouds 13 1024 78 10000 0 0 18:59 08.10.2021
5375 Clouds 13 1024 76 10000 0 0 17:36 08.10.2021
5376 Clouds 14 1024 75 10000 1.03 0 16:51 08.10.2021
5377 Clouds 13 1047 76 10000 2.06 20 16:23 08.10.2021
5378 Clouds 12 1024 79 10000 2.06 0 13:57 08.10.2021
5379 Clouds 12 1024 81 10000 1.54 0 12:56 08.10.2021
5380 Clouds 11 1025 81 10000 1.54 40 11:33 08.10.2021
5381 Clouds 11 1025 82 10000 1.03 0 10:41 08.10.2021
5382 Clouds 10 1025 88 10000 1.03 140 09:25 08.10.2021
5383 Clouds 10 1025 82 10000 1.54 0 23:59 07.10.2021
5384 Clouds 10 1024 80 10000 2.06 0 23:19 07.10.2021
5385 Clouds 11 1025 80 10000 1.54 0 21:46 07.10.2021
5386 Clouds 11 1025 80 10000 1.54 0 21:23 07.10.2021
5387 Clouds 11 1025 77 10000 2.57 10 20:22 07.10.2021
5388 Clouds 11 1025 75 10000 1.03 0 19:29 07.10.2021
5389 Clouds 12 1025 73 10000 2.06 0 18:24 07.10.2021
5390 Clouds 13 1025 70 10000 2.57 30 17:24 07.10.2021
5391 Clouds 13 1025 68 10000 3.09 20 15:50 07.10.2021
5392 Clouds 13 1025 71 10000 3.6 20 13:52 07.10.2021
5393 Clouds 13 1025 72 10000 3.6 20 13:34 07.10.2021
5394 Clouds 12 1026 77 10000 2.57 20 12:40 07.10.2021
5395 Clouds 11 1026 85 10000 1.03 0 10:52 07.10.2021
5396 Clouds 11 1026 85 10000 1.03 0 10:52 07.10.2021
5397 Clouds 10 1026 89 10000 0.51 0 10:19 07.10.2021
5398 Clouds 9 1026 93 10000 1.03 110 09:33 07.10.2021
5399 Clouds 8 1026 92 10000 1.03 0 08:41 07.10.2021
5400 Clouds 8 1026 93 10000 1.54 110 07:43 07.10.2021
5401 Clouds 8 1026 92 10000 1.54 100 07:19 07.10.2021
5402 Clouds 9 1026 91 10000 2.57 130 02:26 07.10.2021
5403 Rain 9 1026 93 10000 1.03 130 00:29 07.10.2021
5404 Drizzle 9 1026 91 10000 0.51 0 22:51 06.10.2021
5405 Rain 9 1026 88 10000 2.06 110 21:53 06.10.2021
5406 Clouds 9 1026 85 10000 3.6 140 20:38 06.10.2021
5407 Clouds 9 1025 86 10000 2.06 120 19:53 06.10.2021
5408 Clouds 10 1025 88 10000 1.54 100 18:41 06.10.2021
5409 Clouds 11 1024 81 10000 5.66 250 16:58 06.10.2021
5410 Clouds 13 1023 69 10000 2.57 200 15:30 06.10.2021
5411 Clouds 12 1023 77 10000 3.09 260 14:22 06.10.2021
5412 Clouds 12 1023 72 10000 3.6 230 12:59 06.10.2021
5413 Clouds 11 1023 71 10000 3.6 230 12:41 06.10.2021
5414 Clouds 11 1023 75 10000 4.63 260 12:21 06.10.2021
5415 Clouds 10 1023 85 10000 1.54 120 10:21 06.10.2021
5416 Clouds 9 1022 89 10000 1.54 0 09:39 06.10.2021
5417 Drizzle 8 1022 89 10000 2.06 0 08:42 06.10.2021
5418 Clouds 8 1021 88 10000 1.03 0 07:48 06.10.2021
5419 Clouds 8 1020 86 10000 1.03 0 05:26 06.10.2021
5420 Clouds 11 1019 83 10000 1.54 0 00:29 06.10.2021
5421 Clouds 11 1043 85 10000 3.6 260 23:58 05.10.2021
5422 Clouds 11 1018 85 10000 3.6 260 23:39 05.10.2021
5423 Clouds 11 1018 85 10000 5.66 250 23:20 05.10.2021
5424 Rain 11 1018 86 10000 5.66 240 22:28 05.10.2021
5425 Clouds 11 1017 87 10000 4.63 250 21:49 05.10.2021
5426 Drizzle 12 1015 89 10000 5.14 300 20:42 05.10.2021
5427 Clouds 12 1014 87 10000 5.14 290 20:24 05.10.2021
5428 Clouds 13 1014 82 10000 6.17 290 19:43 05.10.2021
5429 Clouds 14 1013 77 10000 3.09 270 18:57 05.10.2021
5430 Rain 15 1013 80 10000 2.57 280 16:48 05.10.2021
5431 Clouds 15 1013 81 10000 1.54 0 14:38 05.10.2021
5432 Clouds 15 1014 86 10000 2.57 110 13:35 05.10.2021
5433 Clouds 13 1014 87 10000 1.03 0 12:47 05.10.2021
5434 Clouds 13 1014 89 10000 1.03 0 12:18 05.10.2021
5435 Clouds 12 1014 92 10000 0.51 0 11:19 05.10.2021
5436 Drizzle 11 1014 93 5000 1.03 0 09:26 05.10.2021
5437 Drizzle 11 1014 94 1900 1.03 320 05:25 05.10.2021
5438 Clouds 11 1016 92 10000 0.51 0 23:54 04.10.2021
5439 Clouds 12 1017 92 10000 0.51 0 22:38 04.10.2021
5440 Clouds 11 1017 90 10000 0.51 0 20:29 04.10.2021
5441 Clouds 12 1018 85 10000 1.03 0 18:34 04.10.2021
5442 Clouds 13 1019 85 10000 1.03 0 16:34 04.10.2021
5443 Clouds 13 1019 88 10000 2.06 290 15:31 04.10.2021
5444 Clouds 12 1019 84 10000 1.03 0 14:43 04.10.2021
5445 Drizzle 12 1020 84 10000 1.03 0 13:57 04.10.2021
5446 Clouds 12 1021 84 10000 0.51 0 13:25 04.10.2021
5447 Clouds 12 1021 89 10000 0.51 0 12:27 04.10.2021
5448 Clouds 11 1022 92 6000 2.06 130 11:31 04.10.2021
5449 Clouds 11 1021 92 7000 1.54 310 10:18 04.10.2021
5450 Clouds 11 1020 91 10000 0 0 08:42 04.10.2021
5451 Clouds 11 1019 94 10000 1.03 220 07:37 04.10.2021
5452 Rain 12 1018 93 5000 0.51 0 00:40 04.10.2021
5453 Clouds 13 1017 91 8000 1.03 40 22:37 03.10.2021
5454 Clouds 14 1016 89 10000 2.57 340 21:41 03.10.2021
5455 Drizzle 14 1015 88 10000 3.09 320 21:22 03.10.2021
5456 Rain 16 1014 80 10000 1.03 0 19:59 03.10.2021
5457 Clouds 16 1013 79 10000 1.54 0 19:30 03.10.2021
5458 Clouds 18 1011 75 10000 4.12 300 18:27 03.10.2021
5459 Rain 19 1008 63 10000 2.06 300 17:28 03.10.2021
5460 Clouds 21 1008 62 10000 0.51 0 14:47 03.10.2021
5461 Clouds 20 1008 61 10000 1.03 0 14:18 03.10.2021
5462 Clouds 20 1008 61 10000 1.03 0 13:34 03.10.2021
5463 Clouds 18 1009 73 10000 1.54 130 12:29 03.10.2021
5464 Clouds 15 1009 85 10000 2.06 90 10:43 03.10.2021
5465 Clouds 12 1009 90 10000 2.06 100 08:43 03.10.2021
5466 Clouds 13 1011 89 10000 1.03 0 01:51 03.10.2021
5467 Clouds 14 1012 90 10000 1.03 0 22:40 02.10.2021
5468 Clear 15 1012 89 10000 1.54 120 21:21 02.10.2021
5469 Clear 16 1012 83 10000 0.51 0 19:50 02.10.2021
5470 Clouds 18 1011 80 10000 1.38 133 18:54 02.10.2021
5471 Clear 21 1013 58 10000 1.54 0 17:57 02.10.2021
5472 Clear 22 1013 61 10000 2.06 250 17:21 02.10.2021
5473 Clear 22 1015 57 10000 1.54 0 15:29 02.10.2021
5474 Clouds 17 1026 52 10000 3.09 290 16:50 30.09.2021
5475 Clouds 17 1027 54 10000 3.6 300 15:36 30.09.2021
5476 Clouds 16 1028 57 10000 1.03 0 13:20 30.09.2021
5477 Clouds 14 1029 65 10000 1.54 220 11:37 30.09.2021
5478 Clear 13 1029 68 10000 0.51 0 10:43 30.09.2021
5479 Clear 11 1029 77 10000 0.51 0 09:32 30.09.2021
5480 Clouds 9 1028 88 10000 1.03 110 08:29 30.09.2021
5481 Clouds 9 1029 84 10000 0.51 0 07:23 30.09.2021
5482 Clouds 11 1029 79 10000 0.51 0 04:52 30.09.2021
5483 Clouds 12 1029 80 10000 1.03 0 01:19 30.09.2021
5484 Drizzle 12 1029 80 10000 1.03 0 23:55 29.09.2021
5485 Clouds 13 1028 78 10000 1.03 0 22:28 29.09.2021
5486 Clouds 13 1028 74 10000 2.06 270 21:24 29.09.2021
5487 Clouds 14 1026 71 10000 5.14 320 20:24 29.09.2021
5488 Clouds 14 1026 62 10000 4.12 280 19:43 29.09.2021
5489 Clouds 16 1025 62 10000 4.12 230 18:28 29.09.2021
5490 Clouds 17 1024 60 10000 3.09 270 17:34 29.09.2021
5491 Clouds 18 1024 58 10000 5.14 250 16:46 29.09.2021
5492 Clouds 18 1023 58 10000 6.17 270 15:49 29.09.2021
5493 Clouds 18 1023 58 10000 6.17 250 14:39 29.09.2021
5494 Clouds 18 1024 63 10000 5.14 260 13:42 29.09.2021
5495 Clouds 17 1024 66 10000 4.63 290 12:50 29.09.2021
5496 Clouds 17 1024 68 10000 4.63 290 11:55 29.09.2021
5497 Clouds 15 1024 70 10000 3.09 260 10:47 29.09.2021
5498 Clouds 14 1024 81 10000 2.06 320 09:50 29.09.2021
5499 Clouds 13 1024 86 10000 1.54 330 09:18 29.09.2021
5500 Clouds 13 1023 82 10000 1.54 310 07:31 29.09.2021
5501 Rain 13 1022 78 10000 5.14 280 03:40 29.09.2021
5502 Clouds 14 1021 89 10000 0.51 0 23:26 28.09.2021
5503 Clouds 14 1021 88 10000 1.03 0 22:23 28.09.2021
5504 Clouds 14 1021 88 10000 0.51 0 21:37 28.09.2021
5505 Clouds 15 1021 85 10000 0.51 0 20:36 28.09.2021
5506 Clouds 16 1021 78 10000 0 0 19:43 28.09.2021
5507 Clouds 17 1021 76 10000 2.06 310 18:46 28.09.2021
5508 Clouds 18 1020 70 10000 1.03 0 17:54 28.09.2021
5509 Clouds 18 1021 70 10000 2.57 340 15:56 28.09.2021
5510 Clouds 18 1022 71 10000 1.54 220 13:44 28.09.2021
5511 Clouds 17 1023 74 10000 2.06 270 12:47 28.09.2021
5512 Clouds 17 1023 74 10000 2.57 290 12:19 28.09.2021
5513 Clouds 16 1023 76 10000 1.54 290 11:45 28.09.2021
5514 Clouds 15 1024 78 10000 2.06 300 10:57 28.09.2021
5515 Clouds 14 1024 80 10000 1.03 0 09:53 28.09.2021
5516 Clouds 13 1024 82 10000 1.03 0 08:58 28.09.2021
5517 Clouds 13 1024 82 10000 1.03 0 08:38 28.09.2021
5518 Clouds 13 1024 81 10000 1.03 260 07:31 28.09.2021
5519 Clouds 14 1025 81 10000 0.51 0 05:28 28.09.2021
5520 Clouds 15 1024 80 10000 1.03 0 01:23 28.09.2021
5521 Clouds 15 1023 91 10000 0.51 0 00:25 28.09.2021
5522 Clouds 15 1023 91 10000 0.51 0 23:41 27.09.2021
5523 Clouds 15 1022 92 10000 0.51 0 22:55 27.09.2021
5524 Clouds 17 1023 82 10000 0.51 0 21:44 27.09.2021
5525 Clouds 17 1021 88 10000 0.51 0 20:44 27.09.2021
5526 Clouds 18 1021 81 10000 0.51 0 19:55 27.09.2021
5527 Clouds 19 1021 78 10000 1.54 220 19:27 27.09.2021
5528 Clouds 19 1023 76 10000 0.89 254 18:50 27.09.2021
5529 Clouds 21 1020 67 10000 1.03 0 17:29 27.09.2021
5530 Clouds 21 1020 68 10000 1.54 0 16:49 27.09.2021
5531 Clouds 20 1020 70 10000 2.57 300 15:45 27.09.2021
5532 Clouds 20 1020 71 10000 2.06 300 15:18 27.09.2021
5533 Clouds 19 1021 74 10000 0.51 0 13:32 27.09.2021
5534 Clouds 18 1021 80 10000 1.03 0 11:40 27.09.2021
5535 Clear 16 1021 84 10000 0.51 0 10:36 27.09.2021
5536 Fog 13 1021 93 10000 0.51 0 08:59 27.09.2021
5537 Clouds 13 1021 90 10000 0.51 0 05:22 27.09.2021
5538 Clouds 13 1021 91 9000 2.06 150 03:21 27.09.2021
5539 Clouds 14 1022 90 7000 1.54 140 22:38 26.09.2021
5540 Clouds 15 1021 89 8000 1.03 70 21:53 26.09.2021
5541 Clouds 15 1021 88 10000 0.51 0 21:25 26.09.2021
5542 Clear 16 1021 88 10000 0.51 0 20:22 26.09.2021
5543 Clear 16 1020 87 10000 1.03 0 19:52 26.09.2021
5544 Clear 19 1019 78 10000 1.54 190 18:47 26.09.2021
5545 Clear 20 1020 73 10000 1.54 120 17:57 26.09.2021
5546 Clouds 20 1020 74 10000 2.57 150 17:24 26.09.2021
5547 Clouds 20 1020 75 10000 1.03 0 16:57 26.09.2021
5548 Clouds 20 1020 76 10000 2.57 290 16:20 26.09.2021
5549 Clouds 19 1021 78 10000 2.57 320 15:22 26.09.2021
5550 Clouds 19 1021 84 10000 3.09 310 13:57 26.09.2021
5551 Clouds 18 1021 86 10000 3.6 310 13:21 26.09.2021
5552 Rain 17 1021 89 10000 1.54 330 12:25 26.09.2021
5553 Rain 17 1021 91 10000 2.06 330 11:42 26.09.2021
5554 Clouds 17 1021 92 10000 2.06 300 10:37 26.09.2021
5555 Rain 17 1021 91 10000 2.06 130 09:21 26.09.2021
5556 Rain 16 1020 94 10000 1.03 0 07:56 26.09.2021
5557 Clouds 17 1021 89 10000 2.57 60 00:23 26.09.2021
5558 Clouds 17 1021 89 10000 2.57 60 00:23 26.09.2021
5559 Rain 17 1021 87 6000 4.12 110 23:33 25.09.2021
5560 Clouds 18 1021 86 10000 3.6 60 22:38 25.09.2021
5561 Rain 18 1019 93 10000 3.6 70 21:55 25.09.2021
5562 Rain 18 1019 91 10000 3.6 70 21:33 25.09.2021
5563 Thunderstorm 19 1019 84 10000 2.06 90 20:50 25.09.2021
5564 Clear 20 1018 78 10000 1.03 290 19:31 25.09.2021
5565 Clear 22 1018 69 10000 2.57 270 18:25 25.09.2021
5566 Clear 24 1018 57 10000 3.6 270 16:28 25.09.2021
5567 Clear 23 1019 57 10000 1.03 0 13:58 25.09.2021
5568 Clear 22 1019 57 10000 1.03 0 13:33 25.09.2021
5569 Clear 20 1020 62 10000 1.03 0 12:28 25.09.2021
5570 Clear 17 1019 73 10000 3.09 80 10:36 25.09.2021
5571 Clear 15 1020 85 10000 0.51 0 09:45 25.09.2021
5572 Fog 12 1020 91 10000 0.51 0 08:29 25.09.2021
5573 Clear 11 1020 93 10000 0.51 0 07:20 25.09.2021
5574 Clear 13 1020 89 10000 0 0 00:49 25.09.2021
5575 Clear 15 1020 86 10000 1.03 0 21:54 24.09.2021
5576 Clear 16 1020 86 10000 0.51 0 20:50 24.09.2021
5577 Clear 17 1019 83 10000 1.03 0 20:19 24.09.2021
5578 Clear 21 1018 61 10000 1.54 200 18:35 24.09.2021
5579 Clear 22 1019 57 10000 1.54 260 17:56 24.09.2021
5580 Clear 23 1019 53 10000 1.54 260 17:37 24.09.2021
5581 Clear 23 1019 52 10000 2.06 320 17:18 24.09.2021
5582 Clear 22 1021 56 10000 1.54 0 14:34 24.09.2021
5583 Clear 21 1021 65 10000 1.03 0 13:19 24.09.2021
5584 Clear 20 1022 68 10000 0.51 0 12:41 24.09.2021
5585 Clear 19 1022 68 10000 1.54 140 12:23 24.09.2021
5586 Clear 14 1022 86 10000 0.51 0 10:27 24.09.2021
5587 Fog 12 1022 94 10000 0.51 0 08:57 24.09.2021
5588 Fog 10 1022 93 8000 0 0 07:39 24.09.2021
5589 Clear 10 1022 92 10000 1.03 0 06:50 24.09.2021
5590 Clear 10 1022 90 10000 1.03 0 05:21 24.09.2021
5591 Mist 13 1023 92 4700 1.03 0 00:44 24.09.2021
5592 Clouds 13 1023 92 5000 0.51 0 22:35 23.09.2021
5593 Clouds 15 1024 89 10000 1.43 168 21:56 23.09.2021
5594 Clear 15 1022 89 10000 0 0 20:36 23.09.2021
5595 Clear 16 1022 87 10000 0 0 20:18 23.09.2021
5596 Clear 21 1021 70 10000 2.57 290 18:25 23.09.2021
5597 Clear 21 1022 68 10000 3.09 290 15:37 23.09.2021
5598 Clear 20 1023 70 10000 2.06 310 15:18 23.09.2021
5599 Clouds 19 1023 72 10000 2.06 320 13:49 23.09.2021
5600 Clouds 18 1025 76 10000 2.06 320 13:23 23.09.2021
5601 Clouds 17 1023 74 10000 3.09 280 12:53 23.09.2021
5602 Clouds 16 1024 78 8000 1.03 0 12:23 23.09.2021
5603 Clouds 15 1023 84 10000 1.54 0 11:55 23.09.2021
5604 Clouds 12 1024 92 8000 2.06 140 10:27 23.09.2021
5605 Clouds 11 1024 94 6000 0.51 0 09:53 23.09.2021
5606 Mist 10 1024 94 5000 0.51 0 08:38 23.09.2021
5607 Fog 8 1024 91 150 1.54 0 05:27 23.09.2021
5608 Clear 11 1024 88 10000 0.51 0 23:45 22.09.2021
5609 Clear 12 1025 85 10000 0.51 0 22:42 22.09.2021
5610 Clear 12 1025 83 10000 1.03 0 21:57 22.09.2021
5611 Clear 12 1025 82 10000 1.03 0 21:34 22.09.2021
5612 Clear 13 1025 76 10000 1.03 0 20:57 22.09.2021
5613 Clear 16 1024 70 10000 2.06 0 19:33 22.09.2021
5614 Clear 16 1025 69 10000 3.09 20 18:40 22.09.2021
5615 Clear 17 1025 70 10000 3.6 360 18:22 22.09.2021
5616 Clouds 18 1027 67 10000 4.47 14 16:41 22.09.2021
5617 Clouds 18 1026 66 10000 3.09 310 15:38 22.09.2021
5618 Clouds 17 1026 69 10000 2.06 340 14:25 22.09.2021
5619 Clouds 15 1027 80 10000 1.54 0 12:19 22.09.2021
5620 Clouds 13 1028 86 10000 1.03 0 10:57 22.09.2021
5621 Clouds 10 1029 94 8000 1.54 0 09:28 22.09.2021
5622 Fog 8 1028 94 350 1.03 80 08:31 22.09.2021
5623 Fog 7 1028 93 100 1.03 210 07:25 22.09.2021
5624 Clouds 8 1060 91 10000 1.14 63 06:18 22.09.2021
5625 Fog 8 1027 91 150 0.51 0 05:38 22.09.2021
5626 Fog 9 1028 90 7000 1.03 60 03:52 22.09.2021
5627 Clouds 11 1030 86 10000 0.45 63 00:37 22.09.2021
5628 Clouds 11 1027 93 10000 1.03 0 23:30 21.09.2021
5629 Clear 12 1029 91 10000 1.39 78 21:38 21.09.2021
5630 Clear 14 1029 81 10000 1.8 54 20:27 21.09.2021
5631 Clear 16 1029 74 10000 2.24 66 19:23 21.09.2021
5632 Clear 18 1028 66 10000 3.13 55 17:49 21.09.2021
5633 Clouds 18 1027 62 10000 2.06 320 16:40 21.09.2021
5634 Clouds 19 1026 59 10000 3.6 40 15:55 21.09.2021
5635 Clouds 18 1027 61 10000 3.6 340 14:58 21.09.2021
5636 Clouds 17 1027 64 10000 3.6 30 13:57 21.09.2021
5637 Clouds 17 1027 69 10000 2.57 350 13:39 21.09.2021
5638 Clouds 16 1027 75 10000 2.06 270 12:40 21.09.2021
5639 Fog 11 1026 100 5000 0.51 0 10:33 21.09.2021
5640 Fog 10 1025 100 150 0.51 0 08:41 21.09.2021
5641 Fog 10 1024 93 150 1.03 0 07:20 21.09.2021
5642 Fog 10 1023 100 350 1.03 0 01:52 21.09.2021
5643 Clouds 12 1022 100 9000 0.51 0 22:42 20.09.2021
5644 Clouds 12 1021 100 10000 1.03 260 21:41 20.09.2021
5645 Clouds 13 1021 94 10000 1.03 0 20:58 20.09.2021
5646 Clouds 14 1021 88 10000 1.03 250 19:40 20.09.2021
5647 Clouds 14 1020 85 10000 1.54 290 17:52 20.09.2021
5648 Rain 14 1020 84 10000 1.54 0 16:57 20.09.2021
5649 Rain 15 1020 84 10000 2.06 260 15:57 20.09.2021
5650 Rain 15 1020 84 10000 2.06 260 15:33 20.09.2021
5651 Rain 15 1020 83 10000 1.54 230 14:25 20.09.2021
5652 Rain 14 1020 87 10000 1.03 0 12:44 20.09.2021
5653 Rain 14 1020 86 10000 1.03 0 12:21 20.09.2021
5654 Rain 14 1020 86 10000 1.03 0 12:21 20.09.2021
5655 Rain 13 1019 90 10000 1.54 0 10:36 20.09.2021
5656 Clouds 12 1019 92 10000 1.03 110 09:44 20.09.2021
5657 Drizzle 12 1019 94 10000 1.03 0 09:25 20.09.2021
5658 Rain 11 1019 92 10000 1.54 50 08:31 20.09.2021
5659 Clouds 11 1019 91 10000 2.06 50 02:29 20.09.2021
5660 Clouds 11 1019 91 10000 1.54 80 22:47 19.09.2021
5661 Clouds 11 1018 91 10000 2.06 80 21:47 19.09.2021
5662 Clouds 11 1018 89 10000 2.06 80 20:58 19.09.2021
5663 Drizzle 12 1018 88 10000 2.57 120 19:54 19.09.2021
5664 Drizzle 12 1018 86 10000 3.6 100 18:42 19.09.2021
5665 Rain 12 1017 85 10000 5.66 130 17:23 19.09.2021
5666 Rain 12 1017 86 10000 6.17 130 16:32 19.09.2021
5667 Rain 11 1017 87 9000 4.63 150 15:31 19.09.2021
5668 Rain 11 1042 90 8000 4.12 140 14:48 19.09.2021
5669 Rain 12 1017 91 6000 4.12 160 13:49 19.09.2021
5670 Rain 12 1017 91 8000 2.06 120 12:52 19.09.2021
5671 Rain 12 1017 91 6000 2.57 130 11:42 19.09.2021
5672 Rain 12 1017 91 6000 1.54 140 11:21 19.09.2021
5673 Rain 13 1016 91 7000 1.03 100 09:50 19.09.2021
5674 Rain 13 1016 90 8000 1.03 0 09:21 19.09.2021
5675 Rain 13 1014 90 10000 4.12 310 06:43 19.09.2021
5676 Clouds 13 1014 89 5000 0.51 0 00:20 19.09.2021
5677 Clear 14 1013 89 10000 0.51 0 22:54 18.09.2021
5678 Clouds 15 1014 91 10000 0 0 21:40 18.09.2021
5679 Clear 16 1013 85 10000 0 0 20:46 18.09.2021
5680 Clear 19 1013 68 10000 0 0 19:41 18.09.2021
5681 Clear 19 1014 73 10000 2.57 20 19:21 18.09.2021
5682 Clear 20 1014 66 10000 2.57 340 18:38 18.09.2021
5683 Clear 21 1014 65 10000 2.57 320 17:59 18.09.2021
5684 Clear 22 1015 63 10000 2.57 350 16:34 18.09.2021
5685 Clear 20 1016 71 10000 3.09 270 13:51 18.09.2021
5686 Clouds 20 1016 74 10000 2.57 270 13:31 18.09.2021
5687 Clouds 19 1017 76 10000 3.09 260 12:51 18.09.2021
5688 Clouds 17 1017 80 10000 1.54 0 11:42 18.09.2021
5689 Clouds 15 1017 89 10000 0.51 0 10:37 18.09.2021
5690 Fog 14 1017 91 800 0.51 0 09:52 18.09.2021
5691 Fog 13 1017 94 400 1.03 0 09:20 18.09.2021
5692 Fog 10 1017 93 900 1.03 150 07:36 18.09.2021
5693 Clear 13 1018 90 10000 0.45 57 00:42 18.09.2021
5694 Clear 13 1018 90 10000 0.45 57 00:42 18.09.2021
5695 Clear 14 1018 89 10000 0.65 117 23:52 17.09.2021
5696 Clear 14 1018 88 10000 0.45 57 22:42 17.09.2021
5697 Clear 14 1018 88 10000 0.98 87 22:21 17.09.2021
5698 Clear 15 1016 86 10000 0.51 0 21:24 17.09.2021
5699 Clear 19 1015 73 10000 1.54 0 19:29 17.09.2021
5700 Clouds 21 1015 62 10000 2.06 290 17:55 17.09.2021
5701 Clouds 21 1015 62 10000 2.06 320 16:27 17.09.2021
5702 Clouds 19 1016 73 10000 2.57 300 14:24 17.09.2021
5703 Clouds 17 1017 86 10000 1.03 0 11:30 17.09.2021
5704 Clouds 15 1017 94 8000 1.03 0 09:24 17.09.2021
5705 Mist 13 1017 92 5000 1.54 300 07:35 17.09.2021
5706 Clouds 15 1018 92 10000 0.51 0 03:58 17.09.2021
5707 Clouds 16 1019 93 7000 1.03 300 23:36 16.09.2021
5708 Clouds 16 1019 94 10000 0 0 22:33 16.09.2021
5709 Clouds 16 1018 93 10000 1.54 80 21:52 16.09.2021
5710 Clouds 16 1018 92 10000 1.03 80 21:27 16.09.2021
5711 Clouds 17 1018 90 8000 1.03 140 20:24 16.09.2021
5712 Rain 19 1018 86 4000 3.6 320 18:24 16.09.2021
5713 Rain 19 1019 87 4000 3.6 320 17:58 16.09.2021
5714 Clouds 20 1018 79 10000 2.06 300 15:24 16.09.2021
5715 Clouds 20 1018 83 10000 2.57 250 14:33 16.09.2021
5716 Clouds 19 1019 82 10000 1.54 140 12:53 16.09.2021
5717 Clouds 19 1019 84 10000 1.54 140 12:33 16.09.2021
5718 Clouds 19 1019 86 10000 1.03 0 11:44 16.09.2021
5719 Clouds 19 1019 86 10000 1.03 0 11:44 16.09.2021
5720 Clouds 18 1019 92 10000 0.51 0 10:34 16.09.2021
5721 Clouds 17 1019 94 10000 1.03 0 09:59 16.09.2021
5722 Rain 16 1018 94 5000 1.03 0 08:43 16.09.2021
5723 Rain 16 1018 94 5000 1.03 0 08:43 16.09.2021
5724 Rain 16 1018 92 10000 1.54 90 07:43 16.09.2021
5725 Clouds 16 1018 92 10000 1.03 130 06:54 16.09.2021
5726 Rain 16 1018 92 10000 1.54 110 05:57 16.09.2021
5727 Rain 17 1018 93 6000 1.03 0 02:57 16.09.2021
5728 Clouds 17 1018 91 10000 0.51 0 00:45 16.09.2021
5729 Clouds 18 1018 88 10000 1.03 0 22:47 15.09.2021
5730 Clouds 18 1017 89 10000 1.54 80 21:56 15.09.2021
5731 Clouds 18 1017 88 10000 1.54 80 21:30 15.09.2021
5732 Clouds 18 1017 88 10000 1.54 80 21:30 15.09.2021
5733 Clouds 18 1017 88 10000 1.54 80 21:30 15.09.2021
5734 Clouds 19 1017 85 6000 1.03 0 20:23 15.09.2021
5735 Clouds 20 1016 77 10000 2.06 120 19:29 15.09.2021
5736 Clouds 21 1015 73 10000 0.51 0 18:25 15.09.2021
5737 Clouds 22 1015 78 10000 2.06 300 17:26 15.09.2021
5738 Clouds 21 1016 76 10000 1.03 0 16:20 15.09.2021
5739 Clouds 20 1017 83 9000 1.03 0 14:46 15.09.2021
5740 Clouds 20 1017 81 9000 1.03 0 14:24 15.09.2021
5741 Rain 20 1017 81 10000 1.03 0 13:39 15.09.2021
5742 Clouds 20 1017 82 10000 2.06 320 13:21 15.09.2021
5743 Clouds 20 1017 85 10000 0.51 0 12:21 15.09.2021
5744 Clouds 19 1017 87 10000 0.51 0 11:41 15.09.2021
5745 Rain 19 1018 88 10000 1.03 0 10:56 15.09.2021
5746 Clouds 18 1017 90 10000 1.54 0 09:30 15.09.2021
5747 Rain 18 1017 89 10000 2.06 130 08:26 15.09.2021
5748 Clouds 18 1016 90 10000 0.51 0 05:54 15.09.2021
5749 Clouds 19 1018 87 10000 1.54 90 23:55 14.09.2021
5750 Clouds 20 1018 81 10000 0.51 0 21:55 14.09.2021
5751 Clouds 20 1018 80 10000 0.51 0 20:55 14.09.2021
5752 Clouds 22 1017 74 10000 1.03 0 19:51 14.09.2021
5753 Clouds 24 1017 56 10000 1.54 0 17:53 14.09.2021
5754 Clouds 25 1017 57 10000 1.54 0 17:28 14.09.2021
5755 Clouds 24 1018 59 10000 2.06 280 15:39 14.09.2021
5756 Clouds 25 1018 56 10000 3.09 280 14:31 14.09.2021
5757 Clear 24 1018 58 10000 2.06 310 12:46 14.09.2021
5758 Clear 21 1018 64 10000 1.54 130 10:55 14.09.2021
5759 Clear 19 1018 76 10000 0.51 0 09:51 14.09.2021
5760 Clear 16 1018 86 10000 0.51 0 08:48 14.09.2021
5761 Clear 14 1018 86 10000 0.51 0 06:47 14.09.2021
5762 Clear 16 1018 83 10000 2.57 90 00:41 14.09.2021
5763 Clear 17 1018 80 10000 2.57 80 22:53 13.09.2021
5764 Clear 17 1018 78 10000 1.03 0 22:24 13.09.2021
5765 Clear 17 1017 87 10000 1.54 90 21:53 13.09.2021
5766 Clouds 18 1017 81 6000 1.03 0 20:51 13.09.2021
5767 Clear 23 1017 61 10000 1.03 0 19:26 13.09.2021
5768 Clear 25 1016 48 10000 1.03 0 18:43 13.09.2021
5769 Clouds 26 1017 49 10000 1.54 290 16:51 13.09.2021
5770 Clouds 26 1018 53 10000 2.06 300 15:32 13.09.2021
5771 Clear 23 1020 62 10000 1.54 0 12:54 13.09.2021
5772 Clear 20 1020 73 10000 1.03 0 10:58 13.09.2021
5773 Clear 20 1020 73 10000 1.03 0 10:58 13.09.2021
5774 Clear 17 1020 86 10000 0.51 0 09:41 13.09.2021
5775 Fog 12 1019 93 400 0.51 0 07:27 13.09.2021
5776 Clear 16 1019 89 10000 1.54 0 23:41 12.09.2021
5777 Clear 16 1019 84 10000 0.51 0 22:26 12.09.2021
5778 Clear 16 1019 84 10000 0.51 0 22:26 12.09.2021
5779 Clear 16 1019 84 10000 0.51 0 22:26 12.09.2021
5780 Clear 17 1019 81 10000 0.51 0 21:37 12.09.2021
5781 Clear 18 1017 77 10000 1.54 0 20:34 12.09.2021
5782 Clouds 20 1018 69 10000 1.54 340 19:54 12.09.2021
5783 Clouds 21 1018 67 10000 1.54 40 19:20 12.09.2021
5784 Clouds 23 1018 57 10000 2.06 310 18:29 12.09.2021
5785 Clouds 23 1018 57 10000 3.09 330 16:33 12.09.2021
5786 Clouds 23 1019 57 10000 1.54 0 14:59 12.09.2021
5787 Clouds 22 1019 62 10000 1.54 240 13:49 12.09.2021
5788 Clear 19 1021 71 10000 0.51 0 11:31 12.09.2021
5789 Clouds 16 1020 83 10000 1.54 0 09:35 12.09.2021
5790 Clouds 14 1020 92 10000 0.51 0 08:38 12.09.2021
5791 Clouds 14 1020 87 10000 0.51 340 02:39 12.09.2021
5792 Clouds 17 1020 83 10000 0.51 0 23:38 11.09.2021
5793 Clouds 17 1020 82 10000 0.51 0 21:56 11.09.2021
5794 Clouds 19 1019 71 10000 1.03 0 20:59 11.09.2021
5795 Clouds 21 1020 60 10000 2.06 310 19:25 11.09.2021
5796 Clouds 22 1020 54 10000 3.09 250 17:38 11.09.2021
5797 Clouds 22 1020 61 10000 3.09 270 15:51 11.09.2021
5798 Clouds 21 1021 62 10000 3.6 280 13:49 11.09.2021
5799 Clouds 22 1021 61 10000 2.57 0 12:50 11.09.2021
5800 Clouds 20 1021 70 10000 1.03 0 11:19 11.09.2021
5801 Clouds 17 1045 83 10000 2.06 110 09:38 11.09.2021
5802 Clouds 14 1021 90 9000 1.54 0 07:45 11.09.2021
5803 Clouds 14 1021 90 8000 1.54 90 06:50 11.09.2021
5804 Clouds 16 1021 87 10000 2.06 100 23:38 10.09.2021
5805 Clouds 16 1021 86 10000 2.06 120 22:25 10.09.2021
5806 Clouds 16 1021 86 10000 2.06 100 21:54 10.09.2021
5807 Clouds 17 1020 81 10000 0.51 0 20:24 10.09.2021
5808 Clouds 19 1019 70 10000 4.63 280 18:28 10.09.2021
5809 Clouds 20 1019 66 10000 3.6 280 16:54 10.09.2021
5810 Clouds 21 1019 67 10000 2.57 0 14:49 10.09.2021
5811 Clouds 19 1019 76 10000 1.54 280 12:22 10.09.2021
5812 Clouds 16 1018 91 7000 2.06 70 08:48 10.09.2021
5813 Drizzle 16 1018 92 4500 0 0 07:50 10.09.2021
5814 Clouds 16 1018 87 8000 0.51 0 02:31 10.09.2021
5815 Clouds 17 1018 81 10000 3.09 60 22:32 09.09.2021
5816 Clouds 17 1018 77 10000 1.03 0 21:45 09.09.2021
5817 Clouds 18 1018 78 10000 1.03 0 20:46 09.09.2021
5818 Clouds 19 1018 70 10000 1.03 0 19:54 09.09.2021
5819 Clouds 20 1017 70 10000 2.57 280 18:32 09.09.2021
5820 Clouds 21 1017 68 10000 2.57 300 16:40 09.09.2021
5821 Rain 21 1043 68 10000 3.09 290 15:42 09.09.2021
5822 Rain 20 1018 70 10000 2.57 290 12:53 09.09.2021
5823 Clouds 19 1043 79 10000 0 0 11:45 09.09.2021
5824 Clouds 18 1018 83 10000 1.03 0 09:50 09.09.2021
5825 Rain 17 1017 82 10000 2.57 110 08:47 09.09.2021
5826 Clouds 16 1018 81 10000 1.59 165 06:26 09.09.2021
5827 Clouds 16 1016 89 10000 0.51 0 02:36 09.09.2021
5828 Clouds 17 1016 87 10000 0 0 22:42 08.09.2021
5829 Clear 19 1015 82 10000 1.03 0 21:31 08.09.2021
5830 Clear 22 1014 68 10000 2.06 210 19:56 08.09.2021
5831 Clear 26 1014 58 10000 0.51 0 18:58 08.09.2021
5832 Clouds 26 1015 49 10000 0.51 0 18:29 08.09.2021
5833 Clouds 27 1016 44 10000 2.06 230 17:56 08.09.2021
5834 Clear 27 1016 48 10000 3.09 250 16:32 08.09.2021
5835 Clear 25 1017 51 10000 1.54 270 14:25 08.09.2021
5836 Clear 23 1018 58 10000 1.03 0 12:46 08.09.2021
5837 Clear 22 1018 62 10000 0 0 12:26 08.09.2021
5838 Clear 21 1019 67 10000 1.03 0 11:30 08.09.2021
5839 Clear 20 1019 70 10000 1.03 0 10:33 08.09.2021
5840 Clear 18 1019 79 10000 0.51 0 09:59 08.09.2021
5841 Clear 15 1020 89 10000 1.03 250 08:31 08.09.2021
5842 Fog 13 1020 90 10000 0.51 80 07:32 08.09.2021
5843 Mist 13 1020 87 4500 0.51 0 05:28 08.09.2021
5844 Clear 17 1020 87 10000 0.51 0 22:43 07.09.2021
5845 Clear 18 1020 86 10000 0.51 0 21:52 07.09.2021
5846 Clouds 23 1020 53 10000 1.54 350 19:52 07.09.2021
5847 Clear 24 1020 54 10000 1.54 320 18:45 07.09.2021
5848 Clear 25 1022 47 10000 2.57 290 17:49 07.09.2021
5849 Clear 26 1022 46 10000 2.06 280 16:33 07.09.2021
5850 Clear 25 1023 48 10000 2.57 310 15:36 07.09.2021
5851 Clear 24 1024 54 10000 1.54 0 14:42 07.09.2021
5852 Clear 22 1025 59 10000 1.03 0 12:41 07.09.2021
5853 Clear 21 1025 64 10000 1.03 200 11:37 07.09.2021
5854 Clear 20 1025 69 10000 1.03 180 10:41 07.09.2021
5855 Clear 13 1025 87 10000 1.54 50 08:25 07.09.2021
5856 Clouds 12 1024 87 7000 1.03 60 06:45 07.09.2021
5857 Clouds 13 1024 88 9000 0.51 0 05:40 07.09.2021
5858 Clear 14 1025 84 10000 0.51 0 02:34 07.09.2021
5859 Clear 15 1025 82 10000 0.51 0 00:43 07.09.2021
5860 Clear 16 1025 80 10000 1.03 0 23:34 06.09.2021
5861 Clear 16 1023 84 10000 1.03 0 22:53 06.09.2021
5862 Clear 16 1023 84 10000 1.03 0 22:32 06.09.2021
5863 Clear 20 1022 69 10000 1.03 0 20:55 06.09.2021
5864 Clear 24 1023 52 10000 2.06 10 19:23 06.09.2021
5865 Clear 25 1022 43 10000 2.06 340 18:46 06.09.2021
5866 Clear 25 1023 44 10000 1.54 350 18:23 06.09.2021
5867 Clear 26 1023 38 10000 2.06 0 17:36 06.09.2021
5868 Clear 26 1024 42 10000 3.09 250 15:49 06.09.2021
5869 Clear 25 1024 51 10000 2.57 260 13:47 06.09.2021
5870 Clear 23 1024 55 10000 2.06 240 12:47 06.09.2021
5871 Clear 20 1025 65 10000 1.03 0 10:44 06.09.2021
5872 Fog 13 1024 87 10000 1.03 0 07:59 06.09.2021
5873 Clouds 13 1046 86 7000 0.51 50 04:45 06.09.2021
5874 Clouds 16 1024 77 10000 1.23 143 23:34 05.09.2021
5875 Clear 17 1022 81 10000 0.51 0 22:47 05.09.2021
5876 Clouds 18 1021 82 10000 1.03 60 21:57 05.09.2021
5877 Clouds 18 1020 78 10000 0.51 0 21:30 05.09.2021
5878 Clouds 23 1019 50 10000 2.06 340 19:56 05.09.2021
5879 Clouds 24 1019 50 10000 2.06 330 18:41 05.09.2021
5880 Clouds 25 1020 40 10000 2.06 300 17:29 05.09.2021
5881 Clear 26 1020 45 10000 3.09 280 15:27 05.09.2021
5882 Clear 25 1021 51 10000 3.09 280 14:19 05.09.2021
5883 Clear 23 1021 59 10000 1.54 130 12:26 05.09.2021
5884 Clear 20 1021 67 10000 3.09 80 10:48 05.09.2021
5885 Clear 18 1021 69 10000 2.57 70 10:23 05.09.2021
5886 Clear 18 1021 69 10000 2.57 70 10:23 05.09.2021
5887 Clear 16 1021 78 10000 2.57 100 09:21 05.09.2021
5888 Clear 12 1020 87 10000 1.03 0 07:31 05.09.2021
5889 Clear 15 1019 81 10000 1.03 0 00:48 05.09.2021
5890 Clear 16 1019 81 10000 1.54 70 00:21 05.09.2021
5891 Clear 16 1019 81 10000 1.54 0 23:32 04.09.2021
5892 Clear 16 1018 86 10000 1.03 0 22:35 04.09.2021
5893 Clear 17 1017 85 10000 1.03 0 21:55 04.09.2021
5894 Clear 23 1016 59 10000 1.54 320 19:41 04.09.2021
5895 Clouds 24 1017 48 10000 2.57 330 18:19 04.09.2021
5896 Clouds 25 1017 43 10000 4.63 300 15:53 04.09.2021
5897 Clear 22 1018 59 10000 1.03 260 12:22 04.09.2021
5898 Clear 20 1019 64 10000 0 0 11:18 04.09.2021
5899 Clear 15 1019 87 10000 0.51 0 08:58 04.09.2021
5900 Clouds 15 1019 85 10000 0.51 0 02:32 04.09.2021
5901 Clouds 16 1021 81 10000 0.89 49 00:23 04.09.2021
5902 Clouds 16 1021 79 10000 1.05 146 23:23 03.09.2021
5903 Clouds 17 1018 84 10000 0.51 0 21:53 03.09.2021
5904 Clouds 17 1018 84 10000 0.51 0 21:33 03.09.2021
5905 Clear 18 1017 78 10000 1.03 0 20:41 03.09.2021
5906 Clear 22 1017 50 10000 1.54 350 19:46 03.09.2021
5907 Clouds 24 1017 50 10000 2.06 330 18:52 03.09.2021
5908 Clear 25 1018 50 10000 2.06 0 17:40 03.09.2021
5909 Clouds 25 1019 49 10000 2.06 260 16:23 03.09.2021
5910 Clouds 24 1021 51 10000 1.54 240 14:47 03.09.2021
5911 Clouds 21 1022 67 10000 1.03 0 11:56 03.09.2021
5912 Clouds 18 1023 77 10000 1.03 0 10:22 03.09.2021
5913 Clouds 14 1045 92 10000 1.03 0 08:39 03.09.2021
5914 Fog 11 1045 93 7000 0.51 0 07:37 03.09.2021
5915 Clear 14 1023 86 10000 0.51 0 00:24 03.09.2021
5916 Clear 14 1023 86 10000 0.51 0 00:24 03.09.2021
5917 Clear 16 1022 79 10000 0.51 0 22:54 02.09.2021
5918 Clear 18 1022 69 10000 1.54 0 21:19 02.09.2021
5919 Clouds 22 1022 54 10000 3.09 360 19:24 02.09.2021
5920 Clear 25 1023 49 10000 3.09 300 17:22 02.09.2021
5921 Clear 24 1023 54 10000 4.12 280 15:48 02.09.2021
5922 Clear 22 1024 60 10000 3.09 260 13:51 02.09.2021
5923 Clear 20 1024 65 10000 1.03 0 12:21 02.09.2021
5924 Clear 19 1025 66 10000 1.03 0 11:33 02.09.2021
5925 Clear 14 1025 80 10000 1.03 120 09:30 02.09.2021
5926 Fog 10 1025 92 10000 0 0 07:45 02.09.2021
5927 Fog 10 1025 91 10000 0 0 06:47 02.09.2021
5928 Clear 12 1025 87 10000 0 0 02:44 02.09.2021
5929 Clear 12 1025 84 10000 0.51 0 01:53 02.09.2021
5930 Clear 12 1047 85 10000 1.03 120 01:18 02.09.2021
5931 Clear 14 1025 77 10000 0.51 0 23:34 01.09.2021
5932 Clear 14 1024 77 10000 1.03 0 22:31 01.09.2021
5933 Clear 15 1023 77 10000 1.54 0 21:33 01.09.2021
5934 Clear 21 1023 49 10000 1.54 0 19:55 01.09.2021
5935 Clear 22 1024 51 10000 3.09 340 17:58 01.09.2021
5936 Clear 22 1024 50 10000 3.09 320 17:18 01.09.2021
5937 Clear 22 1024 52 10000 4.63 20 16:46 01.09.2021
5938 Clear 22 1024 55 10000 3.6 320 15:23 01.09.2021
5939 Clouds 18 1025 69 10000 2.06 300 11:48 01.09.2021
5940 Clouds 16 1025 78 10000 2.06 0 10:55 01.09.2021
5941 Clear 13 1025 91 10000 1.03 0 08:46 01.09.2021
5942 Clouds 12 1026 91 10000 2.24 66 07:50 01.09.2021
5943 Clear 13 1024 84 10000 1.03 340 23:43 31.08.2021
5944 Clear 14 1024 76 10000 1.54 0 22:29 31.08.2021
5945 Clear 17 1022 67 10000 1.54 0 20:56 31.08.2021
5946 Clouds 18 1022 59 10000 2.57 10 19:44 31.08.2021
5947 Clouds 19 1022 60 10000 3.09 360 17:53 31.08.2021
5948 Clouds 20 1022 60 10000 2.57 350 17:33 31.08.2021
5949 Clouds 20 1022 60 10000 4.12 0 16:41 31.08.2021
5950 Clouds 20 1022 58 10000 3.6 320 15:56 31.08.2021
5951 Clouds 18 1022 65 10000 2.57 360 12:55 31.08.2021
5952 Clouds 17 1022 75 10000 0 0 11:25 31.08.2021
5953 Clouds 16 1022 79 10000 0 0 10:45 31.08.2021
5954 Clouds 15 1022 84 10000 0.51 0 09:43 31.08.2021
5955 Clouds 13 1021 92 10000 1.03 0 08:23 31.08.2021
5956 Clouds 12 1021 87 10000 1.79 72 05:57 31.08.2021
5957 Clouds 14 1019 90 10000 0.89 101 00:23 31.08.2021
5958 Clouds 14 1021 84 10000 1.34 80 23:25 30.08.2021
5959 Clouds 15 1019 78 10000 1.03 0 21:42 30.08.2021
5960 Clouds 17 1018 67 10000 1.03 0 20:42 30.08.2021
5961 Clouds 18 1018 63 10000 3.09 330 19:55 30.08.2021
5962 Clouds 18 1019 64 10000 2.57 330 19:28 30.08.2021
5963 Clouds 20 1018 61 10000 2.57 310 18:18 30.08.2021
5964 Clouds 20 1018 63 10000 3.09 300 16:32 30.08.2021
5965 Clouds 20 1018 63 10000 3.09 340 15:50 30.08.2021
5966 Clouds 19 1018 60 10000 5.14 340 14:37 30.08.2021
5967 Clouds 19 1018 64 10000 1.54 0 13:22 30.08.2021
5968 Clouds 18 1018 70 10000 2.57 20 11:48 30.08.2021
5969 Clouds 12 1018 91 10000 0.51 280 08:22 30.08.2021
5970 Clouds 14 1019 76 10000 1.03 10 21:58 29.08.2021
5971 Clouds 15 1019 76 10000 1.54 0 21:19 29.08.2021
5972 Clouds 16 1018 72 10000 1.54 340 19:31 29.08.2021
5973 Clouds 17 1018 71 10000 4.63 300 18:28 29.08.2021
5974 Clouds 18 1019 68 10000 2.06 60 16:25 29.08.2021
5975 Clouds 18 1019 64 10000 2.57 270 14:29 29.08.2021
5976 Clouds 18 1019 62 10000 2.06 330 13:55 29.08.2021
5977 Clouds 18 1019 62 10000 2.06 260 12:58 29.08.2021
5978 Clouds 18 1019 64 10000 1.03 0 12:18 29.08.2021
5979 Clouds 18 1019 64 10000 1.03 0 12:18 29.08.2021
5980 Clouds 17 1019 64 10000 0.51 0 11:40 29.08.2021
5981 Clouds 16 1019 68 10000 1.03 0 10:48 29.08.2021
5982 Clouds 15 1019 71 10000 1.54 70 10:29 29.08.2021
5983 Clouds 14 1019 77 10000 2.57 80 09:32 29.08.2021
5984 Clouds 12 1018 88 10000 1.54 50 04:19 29.08.2021
5985 Clouds 13 1020 82 10000 0.51 0 22:57 28.08.2021
5986 Clouds 16 1018 67 10000 1.03 0 20:33 28.08.2021
5987 Clouds 17 1018 62 10000 2.57 330 19:29 28.08.2021
5988 Clouds 18 1018 57 10000 3.09 320 18:24 28.08.2021
5989 Clouds 18 1018 54 10000 3.09 330 17:46 28.08.2021
5990 Clouds 19 1018 46 10000 2.57 340 16:32 28.08.2021
5991 Clouds 19 1018 50 10000 3.09 340 14:52 28.08.2021
5992 Clouds 19 1018 53 10000 2.57 290 13:58 28.08.2021
5993 Clouds 19 1018 53 10000 2.57 290 13:39 28.08.2021
5994 Clouds 17 1019 57 10000 2.06 0 12:30 28.08.2021
5995 Clouds 15 1019 65 10000 1.54 0 10:46 28.08.2021
5996 Clear 13 1019 72 10000 1.03 0 09:34 28.08.2021
5997 Clouds 10 1019 85 10000 0.89 67 07:26 28.08.2021
5998 Clouds 13 1019 76 10000 0.51 0 23:45 27.08.2021
5999 Clouds 15 1018 69 10000 2.57 300 21:26 27.08.2021
6000 Clouds 16 1016 55 10000 1.54 330 20:35 27.08.2021
6001 Clouds 18 1017 55 10000 2.06 340 19:30 27.08.2021
6002 Clouds 19 1017 51 10000 2.57 340 18:38 27.08.2021
6003 Clouds 19 1017 52 10000 3.6 340 17:38 27.08.2021
6004 Clouds 20 1017 52 10000 3.09 330 16:31 27.08.2021
6005 Clouds 20 1016 50 10000 1.54 0 14:44 27.08.2021
6006 Clouds 19 1017 48 10000 2.06 0 12:56 27.08.2021
6007 Clouds 17 1017 57 10000 2.06 0 11:43 27.08.2021
6008 Clouds 16 1017 65 10000 1.54 310 10:48 27.08.2021
6009 Clouds 15 1017 69 10000 1.54 0 09:58 27.08.2021
6010 Clouds 14 1017 74 10000 1.54 0 08:55 27.08.2021
6011 Clouds 14 1017 74 10000 1.54 0 08:55 27.08.2021
6012 Clouds 13 1016 76 10000 1.03 0 07:39 27.08.2021
6013 Clouds 14 1016 75 10000 1.54 220 05:35 27.08.2021
6014 Clouds 16 1016 67 10000 1.54 0 00:39 27.08.2021
6015 Clouds 16 1017 63 10000 1.54 300 23:52 26.08.2021
6016 Clouds 17 1016 70 10000 1.03 190 22:23 26.08.2021
6017 Clouds 17 1016 65 10000 1.54 280 21:32 26.08.2021
6018 Clouds 19 1015 59 10000 5.14 300 19:30 26.08.2021
6019 Clouds 22 1014 52 10000 5.14 320 17:47 26.08.2021
6020 Clouds 22 1014 51 10000 5.14 320 17:24 26.08.2021
6021 Clouds 23 1015 49 10000 5.66 290 16:26 26.08.2021
6022 Clouds 22 1016 58 10000 5.14 270 13:59 26.08.2021
6023 Clouds 21 1016 62 10000 4.63 260 12:58 26.08.2021
6024 Clouds 21 1016 65 10000 4.63 280 12:31 26.08.2021
6025 Clouds 17 1016 81 10000 1.03 0 10:33 26.08.2021
6026 Fog 13 1017 93 7000 0.51 0 08:35 26.08.2021
6027 Fog 11 1017 93 10000 1.03 0 07:47 26.08.2021
6028 Clouds 14 1018 85 10000 0.51 0 22:55 25.08.2021
6029 Clouds 14 1019 85 10000 1.03 250 22:36 25.08.2021
6030 Clouds 14 1019 85 10000 0.51 0 21:54 25.08.2021
6031 Clouds 16 1018 78 10000 1.03 210 20:49 25.08.2021
6032 Clouds 17 1018 76 10000 1.03 210 20:28 25.08.2021
6033 Clouds 19 1019 67 10000 2.57 270 18:45 25.08.2021
6034 Clouds 20 1019 65 10000 2.06 20 17:43 25.08.2021
6035 Clouds 19 1019 71 10000 1.54 0 15:46 25.08.2021
6036 Clouds 19 1019 72 10000 2.57 350 14:48 25.08.2021
6037 Clouds 19 1019 72 10000 2.57 350 14:30 25.08.2021
6038 Clouds 18 1020 72 10000 3.09 360 13:30 25.08.2021
6039 Clouds 16 1020 77 10000 2.57 320 11:28 25.08.2021
6040 Clouds 16 1020 78 10000 1.54 0 10:55 25.08.2021
6041 Clouds 15 1020 80 10000 1.54 0 09:58 25.08.2021
6042 Clouds 15 1020 79 10000 1.03 0 09:24 25.08.2021
6043 Clouds 15 1020 80 10000 2.06 320 08:32 25.08.2021
6044 Clouds 14 1020 81 10000 1.03 0 04:51 25.08.2021
6045 Clouds 15 1021 76 10000 1.03 0 00:53 25.08.2021
6046 Clouds 16 1021 75 10000 2.57 340 22:50 24.08.2021
6047 Clouds 17 1021 72 10000 3.09 340 20:48 24.08.2021
6048 Clouds 17 1021 72 10000 3.09 340 19:53 24.08.2021
6049 Clouds 18 1021 68 10000 3.09 0 18:51 24.08.2021
6050 Clouds 18 1021 68 10000 4.12 360 17:50 24.08.2021
6051 Clouds 19 1021 68 10000 5.14 330 17:19 24.08.2021
6052 Clouds 20 1021 68 10000 3.09 0 14:34 24.08.2021
6053 Clouds 19 1021 69 10000 4.63 360 13:29 24.08.2021
6054 Clouds 18 1021 71 10000 5.66 360 12:36 24.08.2021
6055 Clouds 17 1021 74 10000 3.09 360 10:48 24.08.2021
6056 Clouds 16 1021 76 10000 3.09 360 10:28 24.08.2021
6057 Clouds 15 1021 80 10000 2.57 10 08:59 24.08.2021
6058 Clouds 14 1021 82 10000 3.09 40 06:55 24.08.2021
6059 Clouds 14 1021 88 10000 2.06 10 05:19 24.08.2021
6060 Clouds 15 1022 83 10000 1.54 350 00:52 24.08.2021
6061 Clear 16 1021 83 10000 0.51 0 23:21 23.08.2021
6062 Clouds 16 1021 82 10000 0.51 0 22:40 23.08.2021
6063 Clouds 18 1022 70 10000 2.06 330 20:49 23.08.2021
6064 Clear 20 1021 65 10000 2.06 360 19:24 23.08.2021
6065 Clouds 21 1021 59 10000 2.57 360 16:41 23.08.2021
6066 Clouds 21 1022 50 10000 2.06 50 14:49 23.08.2021
6067 Clouds 21 1022 55 10000 2.06 10 13:23 23.08.2021
6068 Clouds 20 1023 59 10000 1.54 0 12:20 23.08.2021
6069 Clouds 18 1023 64 10000 1.03 0 10:39 23.08.2021
6070 Clear 17 1023 71 10000 1.54 0 09:48 23.08.2021
6071 Clouds 15 1023 87 10000 1.03 0 08:33 23.08.2021
6072 Clouds 14 1023 88 5000 0.51 70 06:50 23.08.2021
6073 Clouds 14 1023 88 5000 0.51 70 06:30 23.08.2021
6074 Clouds 16 1024 87 10000 0.51 0 00:54 23.08.2021
6075 Clouds 17 1024 76 10000 1.03 330 22:46 22.08.2021
6076 Clouds 17 1024 76 10000 1.03 330 22:26 22.08.2021
6077 Clouds 18 1022 72 10000 2.57 300 20:23 22.08.2021
6078 Clouds 19 1022 69 10000 3.6 280 19:40 22.08.2021
6079 Clouds 21 1021 76 10000 2.57 290 16:48 22.08.2021
6080 Rain 21 1020 85 10000 1.03 0 15:22 22.08.2021
6081 Rain 21 1020 82 7000 2.57 280 14:43 22.08.2021
6082 Clouds 22 1021 69 10000 2.06 270 13:21 22.08.2021
6083 Clouds 22 1021 69 10000 2.06 270 12:55 22.08.2021
6084 Clouds 21 1022 72 10000 1.03 0 12:26 22.08.2021
6085 Clouds 21 1022 77 10000 1.03 170 11:42 22.08.2021
6086 Clouds 19 1022 84 10000 2.57 140 10:31 22.08.2021
6087 Clouds 17 1021 90 10000 3.6 90 08:19 22.08.2021
6088 Rain 17 1021 87 9000 1.03 0 04:57 22.08.2021
6089 Clouds 19 1019 73 10000 2.06 130 23:58 21.08.2021
6090 Clouds 19 1019 76 10000 1.54 90 22:34 21.08.2021
6091 Clear 23 1019 66 10000 1.03 0 20:35 21.08.2021
6092 Clouds 27 1022 37 10000 2.24 223 18:39 21.08.2021
6093 Clear 28 1020 33 10000 4.12 260 17:59 21.08.2021
6094 Clouds 28 1020 40 10000 4.12 280 16:54 21.08.2021
6095 Clouds 28 1020 43 10000 4.12 280 16:28 21.08.2021
6096 Clouds 27 1020 52 10000 2.57 250 15:36 21.08.2021
6097 Clear 27 1020 55 10000 2.06 310 14:47 21.08.2021
6098 Clear 25 1020 58 10000 2.06 330 13:31 21.08.2021
6099 Clear 24 1021 60 10000 1.03 0 12:34 21.08.2021
6100 Clear 19 1021 76 10000 0.51 0 09:29 21.08.2021
6101 Clouds 15 1020 91 5000 0.51 0 05:41 21.08.2021
6102 Clear 18 1021 81 10000 1.04 122 22:56 20.08.2021
6103 Clear 18 1019 81 10000 1.03 0 21:41 20.08.2021
6104 Clear 25 1018 52 10000 1.03 0 18:26 20.08.2021
6105 Clouds 25 1018 54 10000 2.06 260 15:57 20.08.2021
6106 Clouds 23 1019 62 10000 2.06 330 13:36 20.08.2021
6107 Clouds 21 1019 68 10000 1.54 0 11:38 20.08.2021
6108 Clouds 20 1019 73 10000 1.03 0 10:43 20.08.2021
6109 Clouds 18 1019 84 10000 1.03 0 09:41 20.08.2021
6110 Clouds 16 1019 90 10000 1.54 0 08:41 20.08.2021
6111 Clouds 15 1018 91 10000 0.51 0 06:59 20.08.2021
6112 Clouds 15 1018 88 10000 0.51 0 04:22 20.08.2021
6113 Clouds 17 1018 86 10000 0.51 320 00:19 20.08.2021
6114 Clouds 17 1018 81 10000 0 0 23:18 19.08.2021
6115 Clouds 17 1018 82 10000 0.51 0 22:31 19.08.2021
6116 Clouds 19 1017 73 10000 1.54 0 20:32 19.08.2021
6117 Clouds 21 1017 62 10000 1.54 0 19:35 19.08.2021
6118 Clouds 22 1017 54 10000 1.54 290 17:19 19.08.2021
6119 Clouds 22 1018 58 10000 1.03 0 15:53 19.08.2021
6120 Clouds 21 1018 65 10000 2.06 300 13:29 19.08.2021
6121 Clouds 20 1018 65 10000 1.03 0 12:33 19.08.2021
6122 Clouds 19 1019 70 10000 1.03 0 11:24 19.08.2021
6123 Clouds 18 1019 73 10000 1.03 0 10:20 19.08.2021
6124 Clouds 17 1019 76 10000 0.51 0 09:44 19.08.2021
6125 Clouds 17 1019 80 10000 0 0 09:18 19.08.2021
6126 Mist 15 1019 88 2100 1.03 0 06:53 19.08.2021
6127 Clouds 15 1018 94 10000 1.03 0 02:22 19.08.2021
6128 Clouds 14 1018 94 10000 0.51 0 01:48 19.08.2021
6129 Clouds 16 1044 78 10000 0.51 0 22:55 18.08.2021
6130 Clouds 17 1018 75 10000 2.57 300 21:40 18.08.2021
6131 Clouds 19 1019 62 10000 3.09 330 20:31 18.08.2021
6132 Clouds 21 1018 57 10000 2.57 320 19:32 18.08.2021
6133 Clouds 21 1019 53 10000 2.57 250 18:47 18.08.2021
6134 Clouds 22 1019 54 10000 1.03 0 17:57 18.08.2021
6135 Clouds 22 1020 51 10000 2.57 320 15:46 18.08.2021
6136 Clouds 22 1020 54 10000 2.57 320 15:23 18.08.2021
6137 Clear 21 1020 58 10000 2.57 320 14:49 18.08.2021
6138 Clouds 19 1021 60 10000 2.06 0 12:42 18.08.2021
6139 Clouds 19 1021 62 10000 2.06 0 12:24 18.08.2021
6140 Clouds 17 1022 69 10000 1.54 320 10:21 18.08.2021
6141 Clouds 15 1022 82 10000 1.03 180 07:42 18.08.2021
6142 Clouds 15 1022 76 10000 1.03 0 00:43 18.08.2021
6143 Clouds 16 1021 67 10000 3.09 270 22:30 17.08.2021
6144 Clouds 17 1022 61 10000 3.6 280 21:27 17.08.2021
6145 Clouds 17 1021 59 10000 4.12 280 20:44 17.08.2021
6146 Clouds 19 1020 54 10000 3.09 290 18:57 17.08.2021
6147 Clouds 20 1021 50 10000 2.57 250 17:33 17.08.2021
6148 Clouds 20 1021 55 10000 3.09 340 16:34 17.08.2021
6149 Clouds 20 1021 55 10000 3.09 300 15:36 17.08.2021
6150 Clouds 20 1022 55 10000 3.09 270 14:28 17.08.2021
6151 Clouds 18 1023 68 10000 2.57 310 11:54 17.08.2021
6152 Clouds 15 1023 84 10000 1.03 0 09:21 17.08.2021
6153 Clouds 14 1022 91 10000 2.06 160 07:45 17.08.2021
6154 Clouds 14 1022 90 10000 1.54 90 03:26 17.08.2021
6155 Clouds 17 1021 62 10000 3.6 270 22:55 16.08.2021
6156 Clouds 17 1021 63 10000 1.54 0 22:37 16.08.2021
6157 Clouds 17 1020 63 10000 3.6 200 21:54 16.08.2021
6158 Clouds 18 1020 55 10000 3.6 260 20:55 16.08.2021
6159 Clouds 18 1020 54 10000 4.63 270 19:45 16.08.2021
6160 Clouds 19 1020 54 10000 4.63 270 19:23 16.08.2021
6161 Clouds 20 1020 50 10000 5.14 290 18:24 16.08.2021
6162 Clouds 20 1020 48 10000 4.63 270 17:51 16.08.2021
6163 Clouds 21 1018 52 10000 5.66 280 15:40 16.08.2021
6164 Clouds 20 1018 57 10000 3.6 270 14:50 16.08.2021
6165 Clouds 18 1018 67 10000 5.14 290 13:38 16.08.2021
6166 Clouds 19 1017 72 10000 5.14 260 12:41 16.08.2021
6167 Drizzle 19 1017 83 10000 2.06 250 10:38 16.08.2021
6168 Clouds 19 1017 83 10000 3.09 250 08:48 16.08.2021
6169 Clouds 19 1017 78 10000 3.6 240 07:34 16.08.2021
6170 Clouds 19 1016 78 10000 1.54 0 06:44 16.08.2021
6171 Clouds 20 1015 94 10000 1.03 0 02:22 16.08.2021
6172 Clouds 23 1016 83 10000 0.51 0 22:49 15.08.2021
6173 Clear 26 1014 65 10000 1.54 0 20:41 15.08.2021
6174 Clear 28 1015 57 10000 1.54 0 18:47 15.08.2021
6175 Clouds 28 1016 57 10000 2.57 260 17:56 15.08.2021
6176 Clear 29 1016 55 10000 2.57 280 17:34 15.08.2021
6177 Clouds 31 1016 47 10000 3.6 230 16:26 15.08.2021
6178 Clouds 30 1017 56 10000 3.6 290 14:48 15.08.2021
6179 Clouds 29 1017 57 10000 3.6 290 14:26 15.08.2021
6180 Clouds 26 1018 64 10000 1.54 140 11:30 15.08.2021
6181 Clouds 23 1019 69 10000 1.54 130 09:26 15.08.2021
6182 Clear 20 1020 86 10000 1.03 0 03:23 15.08.2021
6183 Clear 21 1021 86 8000 1.03 0 00:38 15.08.2021
6184 Clear 23 1023 80 10000 0.84 138 22:29 14.08.2021
6185 Clear 25 1019 78 10000 1.03 0 20:58 14.08.2021
6186 Clear 29 1019 61 10000 2.57 330 19:44 14.08.2021
6187 Clear 30 1021 55 10000 2.06 300 18:56 14.08.2021
6188 Clear 30 1021 50 10000 4.12 280 16:59 14.08.2021
6189 Clouds 31 1022 51 10000 1.54 0 15:52 14.08.2021
6190 Clear 30 1022 52 10000 2.06 310 14:25 14.08.2021
6191 Clouds 27 1023 57 10000 1.54 0 12:21 14.08.2021
6192 Clouds 25 1024 66 10000 1.54 130 10:48 14.08.2021
6193 Clouds 19 1024 89 10000 1.54 100 07:48 14.08.2021
6194 Clear 21 1025 84 10000 1.54 0 23:54 13.08.2021
6195 Clouds 23 1027 78 10000 0.85 109 22:30 13.08.2021
6196 Clouds 23 1025 79 5000 0.51 0 21:40 13.08.2021
6197 Clear 29 1024 47 10000 2.06 260 18:48 13.08.2021
6198 Clouds 30 1025 41 10000 2.57 280 17:55 13.08.2021
6199 Clear 30 1025 45 10000 1.54 280 16:32 13.08.2021
6200 Clear 29 1025 50 10000 1.54 290 14:30 13.08.2021
6201 Clear 24 1026 63 10000 1.03 0 11:20 13.08.2021
6202 Clouds 22 1026 72 10000 1.03 0 09:49 13.08.2021
6203 Clear 20 1026 85 10000 1.54 150 08:36 13.08.2021
6204 Clear 17 1025 91 10000 1.03 0 07:20 13.08.2021
6205 Clouds 18 1025 87 10000 1.03 0 04:59 13.08.2021
6206 Clouds 22 1023 77 10000 3.09 330 23:37 12.08.2021
6207 Clouds 24 1021 80 10000 0 0 21:20 12.08.2021
6208 Clear 26 1021 72 10000 2.57 330 20:22 12.08.2021
6209 Clouds 28 1020 66 10000 1.54 290 19:45 12.08.2021
6210 Clear 31 1021 49 10000 2.57 280 17:51 12.08.2021
6211 Clear 31 1021 49 10000 2.06 270 16:29 12.08.2021
6212 Clear 31 1021 49 10000 2.06 270 16:29 12.08.2021
6213 Clear 29 1022 47 10000 2.57 270 14:52 12.08.2021
6214 Clear 27 1022 56 10000 1.54 320 12:59 12.08.2021
6215 Clouds 23 1022 63 10000 1.03 0 10:49 12.08.2021
6216 Clouds 17 1022 86 10000 2.06 140 07:56 12.08.2021
6217 Clear 18 1022 85 10000 1.54 100 01:52 12.08.2021
6218 Clouds 20 1024 78 10000 0.45 224 22:54 11.08.2021
6219 Clear 24 1019 74 10000 0 0 20:45 11.08.2021
6220 Clear 28 1020 44 10000 3.6 300 18:28 11.08.2021
6221 Clear 28 1021 46 10000 3.09 300 15:39 11.08.2021
6222 Clear 28 1021 44 10000 2.57 340 15:20 11.08.2021
6223 Clouds 27 1021 46 10000 1.54 300 14:22 11.08.2021
6224 Clouds 25 1022 57 10000 1.03 190 12:30 11.08.2021
6225 Clear 24 1022 60 10000 1.03 0 11:46 11.08.2021
6226 Clear 23 1022 62 10000 2.06 70 11:22 11.08.2021
6227 Clouds 20 1022 74 10000 1.03 0 09:46 11.08.2021
6228 Clouds 16 1022 90 10000 1.03 90 07:59 11.08.2021
6229 Clear 18 1020 85 10000 0.99 139 23:34 10.08.2021
6230 Clear 19 1020 86 10000 1.54 0 22:32 10.08.2021
6231 Clear 21 1019 80 10000 1.03 0 21:19 10.08.2021
6232 Clear 26 1018 42 10000 2.57 260 19:52 10.08.2021
6233 Clear 27 1019 46 10000 2.57 320 18:32 10.08.2021
6234 Clear 27 1020 46 10000 3.6 270 16:37 10.08.2021
6235 Clear 26 1020 53 10000 2.06 310 14:52 10.08.2021
6236 Clear 22 1021 60 10000 1.03 0 12:22 10.08.2021
6237 Clear 18 1022 71 10000 1.54 150 09:51 10.08.2021
6238 Clouds 12 1021 91 10000 0.51 0 06:48 10.08.2021
6239 Clear 12 1021 90 10000 0.51 0 04:58 10.08.2021
6240 Clouds 15 1022 88 10000 0.51 0 23:42 09.08.2021
6241 Clouds 16 1022 85 10000 1.03 120 21:55 09.08.2021
6242 Mist 17 1021 84 3500 1.03 70 21:35 09.08.2021
6243 Rain 20 1021 66 10000 1.03 340 19:36 09.08.2021
6244 Clear 22 1022 54 10000 1.54 250 17:22 09.08.2021
6245 Clear 21 1022 57 10000 4.12 270 15:35 09.08.2021
6246 Clouds 21 1022 58 10000 2.57 290 13:52 09.08.2021
6247 Clouds 21 1022 58 10000 2.57 290 13:27 09.08.2021
6248 Clear 17 1022 72 10000 1.03 140 10:50 09.08.2021
6249 Clear 13 1021 89 10000 0.51 0 08:26 09.08.2021
6250 Clear 13 1021 85 10000 0.51 0 23:27 08.08.2021
6251 Clouds 16 1019 73 10000 1.03 0 21:26 08.08.2021
6252 Clouds 19 1019 48 10000 4.63 280 19:46 08.08.2021
6253 Clouds 21 1018 56 10000 3.09 280 16:54 08.08.2021
6254 Clouds 20 1018 59 10000 4.63 290 15:33 08.08.2021
6255 Clouds 18 1017 67 10000 3.09 260 13:26 08.08.2021
6256 Clouds 17 1017 72 10000 3.6 300 11:25 08.08.2021
6257 Clouds 13 1015 94 10000 2.57 80 06:45 08.08.2021
6258 Clouds 13 1015 92 10000 1.54 90 05:37 08.08.2021
6259 Clouds 14 1014 94 10000 1.03 0 00:31 08.08.2021
6260 Clouds 14 1012 93 10000 1.03 0 22:20 07.08.2021
6261 Clouds 15 1012 91 9000 0.51 0 21:41 07.08.2021
6262 Clouds 15 1012 92 10000 1.03 0 20:35 07.08.2021
6263 Rain 15 1011 91 9000 2.06 130 17:37 07.08.2021
6264 Rain 15 1011 92 7000 3.09 140 16:43 07.08.2021
6265 Rain 15 1010 88 6000 2.57 310 14:28 07.08.2021
6266 Rain 18 1009 75 10000 5.66 280 13:31 07.08.2021
6267 Clouds 19 1008 74 10000 2.06 130 10:24 07.08.2021
6268 Clouds 15 1010 87 10000 1.03 110 05:45 07.08.2021
6269 Clouds 17 1011 78 10000 1.03 310 23:55 06.08.2021
6270 Clouds 19 1011 70 4500 1.03 0 21:25 06.08.2021
6271 Clouds 21 1010 61 10000 2.06 220 20:27 06.08.2021
6272 Clouds 21 1011 59 10000 2.06 220 19:56 06.08.2021
6273 Clouds 23 1011 49 10000 1.34 285 18:30 06.08.2021
6274 Clouds 23 1012 51 10000 4.02 280 15:19 06.08.2021
6275 Clouds 19 1013 72 10000 0.45 195 10:41 06.08.2021
6276 Clouds 17 1013 77 10000 3.09 240 09:26 06.08.2021
6277 Clouds 14 1011 90 10000 2.06 110 07:19 06.08.2021
6278 Clouds 15 1013 83 10000 1.03 0 23:31 05.08.2021
6279 Mist 17 1013 80 3700 0.51 0 21:32 05.08.2021
6280 Clouds 19 1012 58 10000 1.54 230 19:57 05.08.2021
6281 Clouds 20 1011 67 10000 4.02 265 18:58 05.08.2021
6282 Clouds 20 1013 80 10000 1.79 230 16:21 05.08.2021
6283 Clouds 18 1013 87 10000 4.47 260 14:18 05.08.2021
6284 Clouds 17 1014 86 10000 1.54 0 10:53 05.08.2021
6285 Clouds 15 1014 95 10000 2.57 110 08:21 05.08.2021
6286 Rain 14 1015 93 10000 1.54 120 03:45 05.08.2021
6287 Drizzle 15 1015 94 6000 1.03 320 22:41 04.08.2021
6288 Clouds 15 1015 94 10000 2.06 300 21:28 04.08.2021
6289 Rain 15 1015 93 8000 2.06 290 20:41 04.08.2021
6290 Clouds 16 1014 90 10000 2.57 320 17:24 04.08.2021
6291 Rain 15 1015 90 10000 0.51 0 14:59 04.08.2021
6292 Rain 15 1015 91 8000 1.03 0 14:41 04.08.2021
6293 Clouds 14 1016 93 10000 0.45 100 09:30 04.08.2021
6294 Rain 13 1019 89 10000 1.03 0 22:32 03.08.2021
6295 Rain 14 1018 86 10000 1.34 285 20:32 03.08.2021
6296 Rain 16 1018 81 10000 2.06 290 18:58 03.08.2021
6297 -273 0 0 0 0 0 17:31 03.08.2021
6298 Rain 17 1017 74 10000 3.09 280 17:30 03.08.2021
6299 Clouds 18 1017 69 10000 4.02 270 13:57 03.08.2021
6300 Clear 17 1017 77 10000 1.03 140 10:58 03.08.2021
6301 Clouds 16 1018 83 10000 1.03 0 09:50 03.08.2021
6302 Clear 14 1019 86 10000 2.57 100 22:58 02.08.2021
6303 Clouds 20 1018 57 10000 0.45 260 16:40 02.08.2021
6304 Clouds 20 1018 55 10000 3.13 295 15:35 02.08.2021
6305 Clouds 19 1019 72 10000 1.79 230 12:40 02.08.2021
6306 Clouds 18 1019 76 10000 2.68 220 11:57 02.08.2021
6307 Clouds 16 1018 83 10000 0 0 10:26 02.08.2021
6308 Clouds 12 1018 94 10000 1.54 190 07:40 02.08.2021
6309 Clouds 15 1016 86 10000 1.54 50 19:22 01.08.2021
6310 Clouds 16 1015 84 10000 2.24 230 15:52 01.08.2021
6311 Rain 14 1015 91 10000 1.03 290 11:39 01.08.2021
6312 Rain 14 1015 92 10000 1.03 0 10:55 01.08.2021
6313 Drizzle 14 1013 92 10000 1.03 320 03:49 01.08.2021
6314 Rain 15 1014 91 10000 0.51 0 23:43 31.07.2021
6315 Rain 15 1014 88 4800 4.63 290 22:33 31.07.2021
6316 Clouds 21 1012 65 10000 2.57 340 18:20 31.07.2021
6317 Clouds 22 1013 63 10000 3.6 320 16:37 31.07.2021
6318 Clouds 22 1014 69 10000 2.57 340 13:39 31.07.2021
6319 Clouds 20 1015 78 10000 1.03 330 10:28 31.07.2021
6320 Clouds 17 1015 91 7000 1.54 120 03:18 31.07.2021
6321 Clouds 20 1014 87 6000 1.54 320 20:54 30.07.2021
6322 Clouds 21 1014 85 10000 1.34 245 20:22 30.07.2021
6323 Clouds 26 1013 60 10000 3.6 280 14:19 30.07.2021
6324 Clear 26 1015 45 10000 2.06 300 18:53 29.07.2021
6325 Clouds 16 1019 89 10000 0.51 0 07:41 29.07.2021
6326 Clouds 16 1018 88 10000 0.51 0 04:51 29.07.2021
6327 Clouds 19 1019 73 10000 0.43 181 22:21 28.07.2021
6328 Clouds 23 1018 61 10000 1.34 285 17:47 28.07.2021
6329 Clouds 22 1018 69 10000 4.92 270 16:54 28.07.2021
6330 Clouds 16 1036 92 10000 1.03 0 09:39 28.07.2021
6331 Clouds 19 1016 82 10000 2.06 70 23:45 27.07.2021
6332 Clouds 20 1016 72 10000 4.63 170 21:31 27.07.2021
6333 Clouds 24 1015 55 10000 2.06 0 14:53 27.07.2021
6334 Clouds 23 1016 64 10000 1.79 105 12:58 27.07.2021
6335 Clouds 19 1017 85 10000 1.54 90 10:20 27.07.2021
6336 Clouds 17 1018 88 10000 3.09 110 22:23 26.07.2021
6337 Clouds 22 1016 77 10000 5.66 130 15:33 26.07.2021
6338 Clouds 17 1015 94 10000 0.51 0 08:28 26.07.2021
6339 Clouds 17 1015 93 10000 1.03 0 08:28 26.07.2021
6340 Clouds 20 1011 68 10000 3.09 150 20:57 25.07.2021
6341 Clouds 22 1013 70 10000 4.63 170 19:23 25.07.2021
6342 Clouds 22 1013 73 10000 1.34 195 16:22 25.07.2021
6343 Clouds 18 1012 95 8000 2.57 330 10:57 25.07.2021
6344 Clouds 17 1013 93 10000 1.54 320 08:20 25.07.2021
6345 Clouds 17 1014 92 10000 1.03 0 02:34 25.07.2021
6346 Clouds 21 1012 73 10000 1.54 130 20:20 24.07.2021
6347 Rain 24 1012 59 10000 3.09 360 15:50 24.07.2021
6348 Rain 19 1013 81 10000 1.03 0 04:20 24.07.2021
6349 Clear 28 1015 46 10000 2.57 300 14:46 23.07.2021
6350 Clouds 26 1017 51 10000 1.54 320 12:42 23.07.2021
6351 Clear 16 1019 84 10000 0 0 07:34 23.07.2021
6352 Clear 19 1019 86 10000 0.51 0 22:43 22.07.2021
6353 Clear 26 1021 53 10000 2.24 255 13:24 22.07.2021
6354 Clear 22 1022 69 10000 0.51 0 09:53 22.07.2021
6355 Clear 17 1022 82 10000 1.03 0 08:23 22.07.2021
6356 Clear 22 1021 67 10000 0.51 0 21:47 21.07.2021
6357 Clear 23 1020 57 10000 1.54 0 21:29 21.07.2021
6358 Clear 27 1021 47 10000 2.57 310 14:54 21.07.2021
6359 Clear 20 1023 66 10000 0.51 0 09:50 21.07.2021
6360 Clear 20 1023 66 10000 0.51 0 09:50 21.07.2021
6361 Clear 18 1022 77 10000 1.03 0 08:47 21.07.2021
6362 Clear 18 1021 66 10000 1.34 59 23:47 20.07.2021
6363 Clouds 27 1018 41 10000 0.45 155 17:43 20.07.2021
6364 Clear 27 1018 38 10000 0.45 165 16:26 20.07.2021
6365 Clouds 27 1018 40 10000 0.89 250 15:26 20.07.2021
6366 Clear 22 1019 67 10000 1.03 0 11:18 20.07.2021
6367 Clear 16 1019 80 10000 1.03 0 04:48 20.07.2021
6368 Clear 21 1017 72 7000 0.51 0 22:25 19.07.2021
6369 Clouds 27 1018 41 10000 2.68 115 15:26 19.07.2021
6370 Clouds 25 1018 55 10000 1.79 115 12:37 19.07.2021
6371 Clear 24 1019 61 10000 3.6 60 19:44 18.07.2021
6372 Clouds 25 1020 57 10000 1.34 175 15:20 18.07.2021
6373 Clouds 20 1021 78 10000 4.02 120 10:18 18.07.2021
6374 Clouds 19 1023 86 10000 0.51 0 22:27 17.07.2021
6375 Clouds 19 1022 84 10000 1.03 0 21:54 17.07.2021
6376 Clouds 19 1022 83 10000 1.03 0 21:35 17.07.2021
6377 Clouds 19 1022 83 10000 2.57 360 12:34 17.07.2021
6378 Clouds 17 1023 88 10000 2.68 105 10:20 17.07.2021
6379 Clouds 14 1022 93 10000 2.06 70 04:46 17.07.2021
6380 Clouds 19 1020 81 10000 2.24 150 14:23 16.07.2021
6381 Clouds 16 1020 90 10000 0.89 110 09:44 16.07.2021
6382 Clouds 15 1018 93 10000 1.03 0 05:46 16.07.2021
6383 Clouds 17 1016 73 10000 7.2 240 14:20 15.07.2021
6384 Clouds 17 1016 79 10000 5.14 240 13:48 15.07.2021
6385 Clouds 14 1015 91 10000 4.12 140 07:44 15.07.2021
6386 Rain 14 1017 87 10000 2.68 300 21:47 14.07.2021
6387 Clouds 18 1016 69 10000 4.47 280 15:58 14.07.2021
6388 Clouds 15 1015 88 10000 3.6 130 09:52 14.07.2021
6389 Clouds 12 1014 92 10000 1.03 80 23:20 13.07.2021
6390 Rain 13 1016 90 10000 3.6 130 19:59 13.07.2021
6391 Rain 14 1014 90 10000 5.14 140 19:39 13.07.2021
6392 Rain 14 1014 88 9000 4.63 130 19:19 13.07.2021
6393 Rain 14 1015 88 10000 1.34 115 18:43 13.07.2021
6394 Rain 15 1015 87 10000 0.89 145 18:23 13.07.2021
6395 Clouds 15 1014 85 10000 1.79 125 13:21 13.07.2021
6396 Rain 13 1015 93 5000 2.06 130 09:23 13.07.2021
6397 Rain 20 1011 85 10000 1.03 0 20:24 12.07.2021
6398 Rain 24 1012 63 10000 2.57 330 16:46 12.07.2021
6399 Clouds 23 1013 64 10000 3.09 300 12:22 12.07.2021
6400 Clear 16 1016 82 10000 0.51 0 23:22 11.07.2021
6401 Clear 23 1016 54 10000 1.54 0 19:57 11.07.2021
6402 Clouds 20 1020 72 10000 1.54 360 12:41 11.07.2021
6403 Clouds 15 1020 88 8000 3.09 100 23:48 10.07.2021
6404 Clouds 25 1017 51 10000 2.68 295 15:30 10.07.2021
6405 Clear 14 1021 87 10000 0.51 0 07:50 10.07.2021
6406 Clear 14 1022 85 10000 1.54 90 02:18 10.07.2021
6407 Clouds 22 1022 47 10000 2.57 320 18:20 09.07.2021
6408 Clouds 21 1024 59 10000 2.57 0 14:49 09.07.2021
6409 Clouds 17 1025 79 10000 3.09 120 10:26 09.07.2021
6410 Rain 13 1024 93 10000 6.17 160 23:52 08.07.2021
6411 Rain 13 1024 91 10000 2.06 110 22:48 08.07.2021
6412 Rain 15 1023 92 10000 4.12 150 18:57 08.07.2021
6413 Rain 16 1022 93 10000 2.57 110 17:43 08.07.2021
6414 Rain 18 1022 86 10000 1.54 0 13:32 08.07.2021
6415 Clouds 18 1022 82 10000 2.06 300 12:44 08.07.2021
6416 Clouds 18 1022 87 10000 2.57 290 11:32 08.07.2021
6417 Clouds 17 1022 92 10000 3.13 300 09:55 08.07.2021
6418 Rain 16 1020 93 10000 1.54 0 04:47 08.07.2021
6419 Rain 16 1021 91 5000 1.54 50 01:43 08.07.2021
6420 Rain 17 1020 88 10000 3.6 120 22:56 07.07.2021
6421 Rain 17 1020 83 10000 0.51 0 22:19 07.07.2021
6422 Rain 17 1019 84 10000 1.03 0 21:41 07.07.2021
6423 Clouds 18 1019 84 10000 1.03 0 21:22 07.07.2021
6424 Clouds 20 1019 71 10000 3.6 130 19:57 07.07.2021
6425 Clouds 21 1019 72 10000 3.09 120 19:28 07.07.2021
6426 Clouds 21 1019 68 10000 0.45 140 17:36 07.07.2021
6427 Clouds 21 1019 73 10000 2.06 130 15:45 07.07.2021
6428 Clouds 17 1019 87 10000 2.24 120 12:25 07.07.2021
6429 Rain 16 1018 94 10000 1.54 140 08:36 07.07.2021
6430 Clouds 16 1018 93 10000 0.51 0 06:43 07.07.2021
6431 Rain 16 1018 93 10000 0 0 05:42 07.07.2021
6432 Rain 17 1017 91 10000 3.6 150 21:29 06.07.2021
6433 Rain 18 1016 90 8000 2.57 110 19:30 06.07.2021
6434 Rain 18 1016 90 7000 2.06 330 18:47 06.07.2021
6435 Rain 18 1016 89 7000 2.06 330 18:27 06.07.2021
6436 Rain 20 1015 82 10000 3.58 300 13:46 06.07.2021
6437 Clouds 21 1013 76 10000 2.06 330 12:34 06.07.2021
6438 Clear 20 1014 74 10000 1.03 0 09:41 06.07.2021
6439 Clear 19 1013 78 10000 1.03 0 08:33 06.07.2021
6440 Clear 15 1011 83 10000 2.57 90 06:45 06.07.2021
6441 Clear 17 1013 81 10000 3.09 100 01:41 06.07.2021
6442 Clear 18 1014 75 10000 3.09 110 22:43 05.07.2021
6443 Clear 25 1014 50 10000 3.13 300 18:52 05.07.2021
6444 Clouds 24 1015 56 10000 4.02 290 15:45 05.07.2021
6445 Clouds 15 1015 85 10000 2.57 100 07:21 05.07.2021
6446 Clouds 14 1016 85 10000 2.57 100 05:45 05.07.2021
6447 Clouds 14 1016 84 10000 2.57 100 04:40 05.07.2021
6448 Clouds 15 1017 80 10000 0.51 0 23:18 04.07.2021
6449 Clouds 19 1014 56 10000 4.63 270 19:24 04.07.2021
6450 Clouds 19 1013 68 10000 5.14 260 16:51 04.07.2021
6451 Clouds 19 1015 82 10000 1.03 0 12:58 04.07.2021
6452 Clouds 18 1016 88 10000 2.57 130 09:24 04.07.2021
6453 Clouds 15 1018 91 10000 2.06 110 23:34 03.07.2021
6454 Clouds 16 1018 90 10000 0.51 0 22:40 03.07.2021
6455 Rain 21 1018 66 10000 2.57 330 14:58 03.07.2021
6456 Clouds 23 1018 56 10000 2.24 285 12:38 03.07.2021
6457 Clear 19 1019 72 10000 1.03 0 09:30 03.07.2021
6458 Clear 19 1019 72 10000 1.03 0 09:30 03.07.2021
6459 Clear 17 1019 74 10000 1.54 0 08:46 03.07.2021
6460 Clouds 15 1019 81 10000 1.54 0 07:29 03.07.2021
6461 Clouds 24 1020 42 10000 1.03 0 17:28 02.07.2021
6462 Clear 14 1020 87 10000 0 0 07:41 02.07.2021
6463 Clouds 12 1020 89 10000 1.03 0 06:24 02.07.2021
6464 Clouds 16 1018 82 10000 1.03 0 22:57 01.07.2021
6465 Clouds 17 1019 75 10000 1.03 0 21:56 01.07.2021
6466 Clouds 17 1019 72 10000 1.03 0 21:33 01.07.2021
6467 Clouds 20 1019 55 10000 1.54 300 19:36 01.07.2021
6468 Clouds 21 1019 54 10000 1.54 0 19:18 01.07.2021
6469 Clouds 20 1019 53 10000 0.89 295 18:35 01.07.2021
6470 Clouds 21 1019 53 10000 3.13 300 17:19 01.07.2021
6471 Clouds 21 1020 59 10000 4.02 305 15:31 01.07.2021
6472 Clouds 20 1020 66 10000 2.68 270 14:25 01.07.2021
6473 Clouds 17 1020 84 10000 1.79 295 10:56 01.07.2021
6474 Drizzle 14 1020 94 10000 1.34 260 08:53 01.07.2021
6475 Clouds 14 1020 90 10000 3.6 300 23:23 30.06.2021
6476 Rain 14 1020 89 6000 4.12 300 22:21 30.06.2021
6477 Rain 14 1019 89 5000 2.24 305 21:44 30.06.2021
6478 Rain 15 1019 84 10000 0.45 305 20:59 30.06.2021
6479 Rain 16 1018 69 10000 1.79 295 19:43 30.06.2021
6480 Clouds 19 1017 52 10000 3.13 295 14:35 30.06.2021
6481 Clouds 18 1017 57 10000 4.92 270 13:25 30.06.2021
6482 Clouds 13 1018 89 10000 2.24 290 08:56 30.06.2021
6483 Rain 14 1017 90 10000 1.03 0 22:36 29.06.2021
6484 Clouds 18 1015 77 10000 2.06 180 19:28 29.06.2021
6485 Clouds 18 1016 72 10000 2.68 305 17:44 29.06.2021
6486 Clouds 18 1016 73 10000 0.45 290 17:24 29.06.2021
6487 Clouds 18 1016 82 10000 2.68 300 15:50 29.06.2021
6488 Clouds 16 1016 88 10000 2.06 130 14:54 29.06.2021
6489 Rain 15 1015 90 10000 5.14 300 13:20 29.06.2021
6490 Rain 16 1018 91 10000 3.09 130 01:24 29.06.2021
6491 Rain 16 1019 90 10000 1.54 0 21:59 28.06.2021
6492 Clouds 17 1019 91 7000 3.09 70 20:25 28.06.2021
6493 Rain 20 1015 56 10000 13.38 260 17:32 28.06.2021
6494 Rain 24 1015 62 10000 6.71 260 16:57 28.06.2021
6495 Clouds 26 1014 57 10000 2.06 300 14:30 28.06.2021
6496 Clear 24 1017 70 10000 1.03 0 11:34 28.06.2021
6497 Clouds 18 1017 94 10000 2.06 200 23:47 27.06.2021
6498 Clouds 19 1015 85 10000 2.57 90 22:31 27.06.2021
6499 Clouds 24 1015 66 10000 2.06 300 19:43 27.06.2021
6500 Clouds 27 1015 44 10000 1.54 0 16:55 27.06.2021
6501 Clear 26 1016 50 10000 3.09 320 14:30 27.06.2021
6502 Clear 21 1017 65 10000 0 0 10:30 27.06.2021
6503 Clear 16 1018 79 10000 2.57 100 00:27 27.06.2021
6504 Clear 20 1017 72 10000 0.51 0 21:26 26.06.2021
6505 Clear 22 1016 56 10000 1.54 30 20:47 26.06.2021
6506 Clear 24 1017 49 10000 1.54 0 19:26 26.06.2021
6507 Clouds 23 1019 53 10000 1.54 0 15:39 26.06.2021
6508 Clouds 22 1019 61 10000 2.57 290 13:52 26.06.2021
6509 Clouds 18 1020 79 10000 1.34 120 09:58 26.06.2021
6510 Clear 11 1020 91 10000 0.93 147 06:23 26.06.2021
6511 Clouds 17 1021 82 10000 1.03 0 21:24 25.06.2021
6512 Clouds 17 1021 79 10000 1.54 0 20:34 25.06.2021
6513 Clouds 19 1021 71 10000 1.03 0 17:58 25.06.2021
6514 Clouds 19 1021 69 10000 0.89 210 17:30 25.06.2021
6515 Clouds 18 1021 74 10000 1.54 250 15:59 25.06.2021
6516 Clouds 17 1045 82 10000 3.6 330 13:27 25.06.2021
6517 Clouds 16 1022 87 10000 1.03 0 09:51 25.06.2021
6518 Clouds 14 1022 93 10000 2.06 110 07:22 25.06.2021
6519 Clouds 14 1022 93 10000 2.06 90 03:58 25.06.2021
6520 Clouds 14 1023 93 10000 1.03 0 23:40 24.06.2021
6521 Rain 15 1022 92 7000 1.54 0 21:48 24.06.2021
6522 Clouds 15 1022 91 9000 0.89 125 20:41 24.06.2021
6523 Rain 15 1022 90 10000 1.54 80 19:39 24.06.2021
6524 Rain 18 1019 78 10000 5.14 170 17:29 24.06.2021
6525 Clouds 21 1019 69 10000 1.34 275 15:23 24.06.2021
6526 Rain 21 1020 69 10000 2.24 235 14:51 24.06.2021
6527 Clouds 20 1020 78 10000 1.54 0 12:54 24.06.2021
6528 Rain 15 1020 95 7000 2.57 120 09:46 24.06.2021
6529 Rain 14 1020 93 8000 0.45 290 08:26 24.06.2021
6530 Rain 13 1019 94 10000 1.03 0 06:29 24.06.2021
6531 Rain 15 1022 90 8000 4.02 285 23:31 23.06.2021
6532 Rain 16 1020 90 10000 2.68 125 22:18 23.06.2021
6533 Rain 16 1019 86 10000 1.54 0 20:59 23.06.2021
6534 Rain 17 1018 75 10000 1.79 290 19:51 23.06.2021
6535 Rain 22 1017 64 10000 1.03 0 18:28 23.06.2021
6536 Clouds 22 1018 58 10000 1.54 330 16:52 23.06.2021
6537 Clouds 23 1019 60 10000 2.06 360 14:31 23.06.2021
6538 Clouds 21 1019 71 10000 1.54 110 12:37 23.06.2021
6539 Clouds 19 1019 82 10000 1.03 0 10:49 23.06.2021
6540 Clouds 16 1019 92 10000 2.06 90 09:20 23.06.2021
6541 Clouds 16 1019 93 10000 2.06 130 08:38 23.06.2021
6542 Clouds 15 1019 94 10000 1.03 0 07:48 23.06.2021
6543 Clouds 14 1018 92 10000 2.06 90 04:35 23.06.2021
6544 Rain 16 1019 88 10000 3.09 140 00:49 23.06.2021
6545 Rain 16 1019 87 10000 2.68 125 23:58 22.06.2021
6546 Clouds 16 1018 88 10000 0.51 0 22:47 22.06.2021
6547 Clouds 16 1018 87 10000 0.51 0 22:29 22.06.2021
6548 Clouds 17 1017 87 10000 1.03 50 21:39 22.06.2021
6549 Clouds 18 1016 85 9000 0.89 115 20:18 22.06.2021
6550 Rain 20 1015 74 10000 1.54 0 18:59 22.06.2021
6551 Clouds 21 1015 72 10000 3.13 115 18:28 22.06.2021
6552 Clouds 22 1015 67 10000 4.12 110 17:27 22.06.2021
6553 Clouds 22 1015 63 10000 3.6 310 16:39 22.06.2021
6554 Clouds 21 1015 64 10000 0.89 285 14:49 22.06.2021
6555 Clouds 21 1014 67 10000 1.34 285 14:25 22.06.2021
6556 Clouds 20 1014 77 10000 1.03 0 13:18 22.06.2021
6557 Clouds 19 1015 81 10000 1.54 0 11:53 22.06.2021
6558 Clouds 17 1014 91 10000 0.89 115 10:37 22.06.2021
6559 Rain 15 1014 93 10000 1.03 0 07:59 22.06.2021
6560 Drizzle 16 1014 88 10000 3.6 120 00:50 22.06.2021
6561 Clouds 16 1013 87 10000 1.79 130 23:32 21.06.2021
6562 Clouds 16 1013 88 10000 4.12 140 22:29 21.06.2021
6563 Clouds 16 1013 87 5000 0.45 210 21:28 21.06.2021
6564 Rain 17 1013 82 10000 4.02 305 20:46 21.06.2021
6565 Rain 18 1010 80 10000 3.6 150 19:55 21.06.2021
6566 Clouds 20 1010 74 10000 1.03 0 18:58 21.06.2021
6567 Clouds 21 1009 68 10000 3.09 260 17:36 21.06.2021
6568 Clouds 23 1010 60 10000 1.54 0 16:46 21.06.2021
6569 Clouds 24 1010 58 10000 1.54 0 16:25 21.06.2021
6570 Rain 25 1010 55 10000 2.57 330 15:45 21.06.2021
6571 Clouds 24 1011 64 10000 2.68 250 14:18 21.06.2021
6572 Clouds 24 1011 69 10000 3.13 245 13:34 21.06.2021
6573 Clear 23 1011 70 10000 2.57 310 12:38 21.06.2021
6574 Clouds 22 1011 70 10000 1.54 10 11:52 21.06.2021
6575 Clouds 20 1012 79 10000 1.79 260 10:31 21.06.2021
6576 Clouds 19 1012 86 10000 0.45 250 09:29 21.06.2021
6577 Clouds 17 1012 89 10000 2.57 330 08:22 21.06.2021
6578 Clouds 16 1012 91 10000 0.51 0 07:28 21.06.2021
6579 Clouds 16 1012 90 10000 0.51 0 00:43 21.06.2021
6580 Clouds 16 1012 90 10000 1.03 10 23:35 20.06.2021
6581 Clouds 16 1011 89 10000 0.51 0 22:58 20.06.2021
6582 Clouds 15 1011 90 10000 1.54 0 22:18 20.06.2021
6583 Clouds 16 1011 88 10000 0.51 0 21:28 20.06.2021
6584 Rain 17 1011 79 10000 1.34 300 19:42 20.06.2021
6585 Rain 18 1011 77 10000 6.26 290 19:23 20.06.2021
6586 Clouds 22 1008 73 10000 2.06 70 18:21 20.06.2021
6587 Clouds 21 1011 75 10000 5.66 250 16:51 20.06.2021
6588 Rain 25 1008 53 10000 2.57 20 15:52 20.06.2021
6589 Rain 26 1007 52 10000 2.57 20 15:32 20.06.2021
6590 Clear 27 1009 51 10000 3.6 40 14:46 20.06.2021
6591 Clouds 27 1011 54 10000 1.79 90 13:40 20.06.2021
6592 Clouds 26 1012 57 10000 0.45 315 12:56 20.06.2021
6593 Clear 25 1013 61 10000 2.06 120 11:46 20.06.2021
6594 Clouds 24 1014 67 9000 0 0 10:35 20.06.2021
6595 Clouds 22 1014 75 10000 1.54 70 09:45 20.06.2021
6596 Rain 20 1034 72 10000 1.03 0 07:34 20.06.2021
6597 Clouds 22 1013 81 10000 1.54 0 23:43 19.06.2021
6598 Clouds 22 1013 81 10000 0.51 0 22:59 19.06.2021
6599 Clear 24 1014 67 10000 0.51 0 21:53 19.06.2021
6600 Clear 25 1014 67 10000 0.51 0 21:27 19.06.2021
6601 Clouds 29 1014 43 10000 1.54 0 18:55 19.06.2021
6602 Clear 30 1014 40 10000 0.45 265 18:22 19.06.2021
6603 Clear 30 1015 40 10000 1.54 270 17:27 19.06.2021
6604 Clear 30 1015 42 10000 0.45 190 16:49 19.06.2021
6605 Clear 30 1016 46 10000 2.06 270 15:42 19.06.2021
6606 Clear 27 1016 55 10000 1.03 0 13:23 19.06.2021
6607 Clear 26 1017 61 10000 1.03 0 11:59 19.06.2021
6608 Clear 24 1018 66 10000 2.06 110 10:49 19.06.2021
6609 Clear 24 1018 66 10000 2.06 110 10:49 19.06.2021
6610 Clear 24 1018 66 10000 2.06 110 10:49 19.06.2021
6611 Clear 23 1018 69 10000 2.06 110 10:27 19.06.2021
6612 Clouds 22 1018 70 10000 3.58 120 09:58 19.06.2021
6613 Clouds 20 1019 78 10000 3.09 90 08:25 19.06.2021
6614 Clouds 18 1020 82 10000 3.09 90 06:36 19.06.2021
6615 Clear 18 1019 81 10000 2.06 100 03:31 19.06.2021
6616 Clear 19 1018 82 10000 5.14 130 00:23 19.06.2021
6617 Clear 19 1018 87 10000 3.09 120 23:40 18.06.2021
6618 Clouds 20 1019 73 10000 3.09 120 22:55 18.06.2021
6619 Clouds 20 1018 75 10000 2.57 140 22:35 18.06.2021
6620 Clouds 21 1017 78 10000 5.14 150 21:49 18.06.2021
6621 Clouds 21 1018 72 10000 5.14 150 21:23 18.06.2021
6622 Clouds 22 1017 78 10000 4.12 140 20:24 18.06.2021
6623 Rain 25 1017 72 10000 6.17 250 18:46 18.06.2021
6624 Rain 27 1016 63 10000 4.63 280 17:51 18.06.2021
6625 Clouds 30 1016 41 10000 4.02 275 16:39 18.06.2021
6626 Clear 30 1016 41 10000 2.06 290 15:46 18.06.2021
6627 Clear 30 1016 41 10000 2.57 300 14:41 18.06.2021
6628 Clear 29 1016 42 10000 1.54 230 13:44 18.06.2021
6629 Clear 28 1016 50 10000 0.45 310 12:56 18.06.2021
6630 Clear 28 1017 51 10000 1.03 0 12:34 18.06.2021
6631 Clear 26 1017 54 10000 1.34 160 11:46 18.06.2021
6632 Clear 25 1017 60 10000 0.89 100 10:57 18.06.2021
6633 Clear 25 1017 60 10000 0.89 100 10:57 18.06.2021
6634 Clear 24 1017 60 10000 1.03 0 10:24 18.06.2021
6635 Clear 24 1018 66 10000 0.89 250 09:57 18.06.2021
6636 Clear 22 1018 67 10000 0.89 250 09:21 18.06.2021
6637 Clear 21 1017 75 10000 0.89 250 08:32 18.06.2021
6638 Clouds 20 1017 81 10000 1.03 0 07:36 18.06.2021
6639 Clouds 19 1016 82 10000 1.03 0 05:36 18.06.2021
6640 Clouds 22 1016 64 10000 5.66 260 00:35 18.06.2021
6641 Clouds 23 1015 64 10000 3.09 280 23:27 17.06.2021
6642 Clouds 22 1013 73 10000 1.03 0 22:27 17.06.2021
6643 Clear 22 1013 75 10000 1.03 0 21:57 17.06.2021
6644 Clear 26 1013 55 10000 1.54 0 21:18 17.06.2021
6645 Clear 28 1013 52 10000 1.03 0 20:32 17.06.2021
6646 Clear 28 1014 50 10000 2.06 40 19:55 17.06.2021
6647 Clear 30 1014 43 10000 1.54 0 19:27 17.06.2021
6648 Clear 30 1015 39 10000 1.54 0 17:50 17.06.2021
6649 Clear 31 1015 37 10000 1.54 0 17:22 17.06.2021
6650 Clear 31 1015 37 10000 3.13 115 16:30 17.06.2021
6651 Clear 31 1015 37 10000 3.13 115 16:30 17.06.2021
6652 Clouds 31 1016 37 10000 0.89 270 15:53 17.06.2021
6653 Clear 30 1016 39 10000 3.09 280 14:33 17.06.2021
6654 Clear 29 1017 41 10000 1.34 285 13:46 17.06.2021
6655 Clear 28 1017 47 10000 2.24 260 12:31 17.06.2021
6656 Clear 27 1017 48 10000 0.89 255 11:41 17.06.2021
6657 Clear 26 1017 54 10000 1.54 90 10:44 17.06.2021
6658 Clear 24 1018 57 10000 1.54 90 10:23 17.06.2021
6659 Clear 24 1018 58 10000 1.54 150 09:40 17.06.2021
6660 Clouds 21 1018 68 10000 0.51 0 08:48 17.06.2021
6661 Clear 19 1018 73 10000 1.03 0 07:51 17.06.2021
6662 Clouds 17 1017 78 10000 1.03 0 06:23 17.06.2021
6663 Clear 19 1015 75 10000 1.54 0 01:54 17.06.2021
6664 Clouds 21 1018 71 10000 1.34 149 23:40 16.06.2021
6665 Clouds 21 1017 65 10000 0.45 120 23:21 16.06.2021
6666 Clouds 22 1017 68 10000 1.26 158 22:24 16.06.2021
6667 Clear 23 1014 72 10000 0 0 21:43 16.06.2021
6668 Clear 25 1014 63 10000 1.03 0 21:19 16.06.2021
6669 Clear 27 1013 51 10000 1.54 220 20:39 16.06.2021
6670 Clear 30 1013 33 10000 1.54 250 19:51 16.06.2021
6671 Clear 29 1014 52 10000 1.54 250 19:32 16.06.2021
6672 Clear 29 1015 51 10000 1.54 280 18:52 16.06.2021
6673 Clear 30 1015 52 10000 1.54 280 18:24 16.06.2021
6674 Clear 30 1016 32 10000 1.79 235 17:40 16.06.2021
6675 Clear 30 1016 32 10000 1.79 265 17:20 16.06.2021
6676 Clear 30 1016 31 10000 1.79 220 16:42 16.06.2021
6677 Clear 30 1016 34 10000 2.24 230 15:50 16.06.2021
6678 Clear 30